
Distance (Route):
Temperature : 24.4°C
Humidity : 39.1%
Pressure : 0hPa| Receiver | Frames | First received | Last received |
|---|---|---|---|
| 9A1FER-10 | 402 | 2026-09-02 11:16:34 | 2026-09-02 13:13:14 |
| 9A1FER-3 | 347 | 2026-09-02 11:16:36 | 2026-09-02 13:12:45 |
| 9A1FER-15 | 245 | 2026-09-02 12:08:22 | 2026-09-02 13:12:01 |
| PETON7-10 | 181 | 2026-09-02 11:54:15 | 2026-09-02 13:02:38 |
| OE5DRO-10 | 147 | 2026-09-02 11:59:25 | 2026-09-02 13:01:57 |
| PG1ADW-2 | 80 | 2026-09-02 12:13:52 | 2026-09-02 13:01:00 |
| OM5KV | 48 | 2026-09-02 11:43:52 | 2026-09-02 13:08:13 |
| OE3JTB-15 | 35 | 2026-09-02 11:49:20 | 2026-09-02 13:06:25 |
| OE5DXL-15 | 35 | 2026-09-02 12:40:05 | 2026-09-02 12:59:28 |
| OE8JPQ-2 | 33 | 2026-09-02 12:36:47 | 2026-09-02 12:58:30 |
| LZ4TU-5 | 2 | 2026-09-02 12:51:33 | 2026-09-02 12:51:39 |
| Receiver | Date | Latitude | Longitude | Direction | Speed | Altitude | Climb | Temperature | Humidity | Pressure | Voltage | Killtimer | Uptime | BKT | XDATA |
|---|---|---|---|---|---|---|---|---|---|---|---|---|---|---|---|
| 9A1FER-10 | 2026-09-02 13:13:14 | 45.82743 | 16.88407 | 289° | 9km/h | 612m | -14.2m/s | 24.4°C | 39.1% | 0hPa | 2.5V | 00:00:00 | 02:07:30 | 00:00:00 | |
| 9A1FER-10 | 2026-09-02 13:13:08 | 45.82740 | 16.88416 | 218° | 4km/h | 699m | -14.8m/s | 23.5°C | 40.8% | 0hPa | 2.7V | 00:00:00 | 02:07:24 | 00:00:00 | |
| 9A1FER-10 | 2026-09-02 13:13:06 | 45.82741 | 16.88417 | 330° | 5km/h | 730m | -16.4m/s | 23.2°C | 41.4% | 0hPa | 2.7V | 00:00:00 | 02:07:22 | 00:00:00 | |
| 9A1FER-10 | 2026-09-02 13:13:04 | 45.82741 | 16.88419 | 249° | 2km/h | 764m | -16.6m/s | 22.8°C | 41.9% | 0hPa | 2.7V | 08:14:00 | 02:07:20 | 00:00:00 | |
| 9A1FER-10 | 2026-09-02 13:13:02 | 45.82742 | 16.88419 | 230° | 4km/h | 793m | -13.9m/s | 22.5°C | 42.7% | 0hPa | 2.7V | 00:00:00 | 02:07:18 | 00:00:00 | |
| 9A1FER-10 | 2026-09-02 13:12:59 | 45.82738 | 16.88419 | 334° | 9km/h | 838m | -14.8m/s | 22.1°C | 43.6% | 0hPa | 2.7V | 00:00:00 | 02:07:15 | 00:00:00 | |
| 9A1FER-10 | 2026-09-02 13:12:57 | 45.82736 | 16.88419 | 277° | 4km/h | 869m | -15.3m/s | 21.8°C | 44.5% | 0hPa | 2.7V | 00:00:00 | 02:07:13 | 00:00:00 | |
| 9A1FER-10 | 2026-09-02 13:12:55 | 45.82736 | 16.88421 | 216° | 4km/h | 898m | -14.6m/s | 21.5°C | 45.0% | 0hPa | 2.5V | 00:00:00 | 02:07:11 | 00:00:00 | |
| 9A1FER-10 | 2026-09-02 13:12:53 | 45.82736 | 16.88419 | 26° | 11km/h | 924m | -12.5m/s | 21.2°C | 45.3% | 0hPa | 2.5V | 00:00:00 | 02:07:09 | 00:00:00 | |
| 9A1FER-3 | 2026-09-02 13:12:45 | 45.82743 | 16.88436 | 203° | 11km/h | 1037m | -12.9m/s | 20.1°C | 47.9% | 0hPa | 2.5V | 00:00:00 | 02:07:01 | 00:00:00 | |
| 9A1FER-10 | 2026-09-02 13:12:45 | 45.82743 | 16.88436 | 203° | 9km/h | 1037m | -12.9m/s | 20.1°C | 47.9% | 0hPa | 2.5V | 00:00:00 | 02:07:01 | 00:00:00 | |
| 9A1FER-10 | 2026-09-02 13:12:38 | 45.82753 | 16.88448 | 233° | 16km/h | 1138m | -14.8m/s | 19.2°C | 50.4% | 0hPa | 2.6V | 00:00:00 | 02:06:54 | 00:00:00 | |
| 9A1FER-3 | 2026-09-02 13:12:36 | 45.82758 | 16.88456 | 243° | 13km/h | 1164m | -12.8m/s | 18.9°C | 51.2% | 0hPa | 2.6V | 00:00:00 | 02:06:52 | 00:00:00 | |
| 9A1FER-10 | 2026-09-02 13:12:33 | 45.82760 | 16.88463 | 255° | 9km/h | 1201m | -10.6m/s | 18.6°C | 52.2% | 0hPa | 2.6V | 00:00:00 | 02:06:49 | 00:00:00 | |
| 9A1FER-3 | 2026-09-02 13:12:26 | 45.82778 | 16.88469 | 209° | 11km/h | 1304m | -15.6m/s | 17.6°C | 54.7% | 0hPa | 2.6V | 00:00:00 | 02:06:42 | 00:00:00 | |
| 9A1FER-3 | 2026-09-02 13:12:21 | 45.82791 | 16.88479 | 211° | 13km/h | 1381m | -15.0m/s | 16.9°C | 56.9% | 0hPa | 2.6V | 00:00:00 | 02:06:37 | 00:00:00 | |
| 9A1FER-10 | 2026-09-02 13:12:20 | 45.82793 | 16.88481 | 204° | 13km/h | 1397m | -15.6m/s | 16.8°C | 57.2% | 0hPa | 2.5V | 00:00:00 | 02:06:36 | 00:00:00 | |
| 9A1FER-3 | 2026-09-02 13:12:16 | 45.82803 | 16.88493 | 240° | 11km/h | 1458m | -14.9m/s | 16.2°C | 59.0% | 0hPa | 2.5V | 00:00:00 | 02:06:32 | 00:00:00 | |
| 9A1FER-10 | 2026-09-02 13:12:15 | 45.82804 | 16.88497 | 235° | 13km/h | 1473m | -15.4m/s | 16.0°C | 59.5% | 0hPa | 2.5V | 00:00:00 | 02:06:31 | 00:00:00 | |
| 9A1FER-3 | 2026-09-02 13:12:11 | 45.82808 | 16.88509 | 236° | 13km/h | 1524m | -10.0m/s | 15.5°C | 60.6% | 0hPa | 2.5V | 00:00:00 | 02:06:27 | 00:00:00 | |
| 9A1FER-10 | 2026-09-02 13:12:10 | 45.82810 | 16.88514 | 223° | 15km/h | 1534m | -9.5m/s | 15.5°C | 61.3% | 0hPa | 2.5V | 00:00:00 | 02:06:26 | 00:00:00 | |
| 9A1FER-3 | 2026-09-02 13:12:05 | 45.82813 | 16.88529 | 286° | 24km/h | 1601m | -15.6m/s | 14.8°C | 63.9% | 0hPa | 2.5V | 08:15:00 | 02:06:21 | 00:00:00 | |
| 9A1FER-10 | 2026-09-02 13:12:04 | 45.82813 | 16.88537 | 257° | 22km/h | 1617m | -17.1m/s | 14.7°C | 63.7% | 0hPa | 2.6V | 00:00:00 | 02:06:20 | 00:00:00 | |
| 9A1FER-15 | 2026-09-02 13:12:01 | 45.82818 | 16.88562 | 248° | 18km/h | 1664m | -14.8m/s | 14.2°C | 64.6% | 0hPa | 2.6V | 00:00:00 | 02:06:17 | 00:00:00 | |
| 9A1FER-3 | 2026-09-02 13:12:00 | 45.82821 | 16.88567 | 208° | 15km/h | 1678m | -13.6m/s | 14.0°C | 65.3% | 0hPa | 2.6V | 00:00:00 | 02:06:16 | 00:00:00 | |
| 9A1FER-10 | 2026-09-02 13:11:59 | 45.82825 | 16.88571 | 212° | 18km/h | 1693m | -16.0m/s | 13.9°C | 66.0% | 0hPa | 2.6V | 00:00:00 | 02:06:15 | 00:00:00 | |
| 9A1FER-15 | 2026-09-02 13:11:56 | 45.82836 | 16.88583 | 216° | 11km/h | 1739m | -14.3m/s | 13.5°C | 67.4% | 0hPa | 2.6V | 00:00:00 | 02:06:12 | 00:00:00 | |
| 9A1FER-3 | 2026-09-02 13:11:55 | 45.82839 | 16.88588 | 233° | 15km/h | 1754m | -15.1m/s | 13.4°C | 66.8% | 0hPa | 2.6V | 00:00:00 | 02:06:11 | 00:00:00 | |
| 9A1FER-10 | 2026-09-02 13:11:54 | 45.82840 | 16.88592 | 271° | 9km/h | 1770m | -17.8m/s | 13.4°C | 64.9% | 0hPa | 2.6V | 00:00:00 | 02:06:10 | 00:00:00 | |
| 9A1FER-15 | 2026-09-02 13:11:49 | 45.82835 | 16.88582 | 48° | 16km/h | 1852m | -16.6m/s | 12.9°C | 63.7% | 0hPa | 2.6V | 00:00:00 | 02:06:05 | 00:00:00 | |
| 9A1FER-3 | 2026-09-02 13:11:49 | 45.82835 | 16.88582 | 48° | 16km/h | 1852m | -16.6m/s | 12.9°C | 63.7% | 0hPa | 2.6V | 00:00:00 | 02:06:05 | 00:00:00 | |
| 9A1FER-10 | 2026-09-02 13:11:49 | 45.82835 | 16.88582 | 48° | 16km/h | 1852m | -16.6m/s | 12.9°C | 63.7% | 0hPa | 2.6V | 00:00:00 | 02:06:05 | 00:00:00 | |
| 9A1FER-15 | 2026-09-02 13:11:44 | 45.82814 | 16.88577 | 350° | 15km/h | 1934m | -15.0m/s | 12.2°C | 65.1% | 0hPa | 2.6V | 00:00:00 | 02:06:00 | 00:00:00 | |
| 9A1FER-3 | 2026-09-02 13:11:44 | 45.82814 | 16.88577 | 350° | 16km/h | 1934m | -15.0m/s | 12.2°C | 65.1% | 0hPa | 2.6V | 00:00:00 | 02:06:00 | 00:00:00 | |
| 9A1FER-10 | 2026-09-02 13:11:44 | 45.82814 | 16.88577 | 350° | 15km/h | 1934m | -15.0m/s | 12.2°C | 65.1% | 0hPa | 2.6V | 00:00:00 | 02:06:00 | 00:00:00 | |
| 9A1FER-15 | 2026-09-02 13:11:39 | 45.82797 | 16.88577 | 31° | 7km/h | 2017m | -17.0m/s | 11.9°C | 62.1% | 0hPa | 2.6V | 00:00:00 | 02:05:55 | 00:00:00 | |
| 9A1FER-15 | 2026-09-02 13:11:29 | 45.82778 | 16.88568 | 94° | 15km/h | 2146m | -10.8m/s | 11.5°C | 55.6% | 0hPa | 2.6V | 00:00:00 | 02:05:45 | 00:00:00 | |
| 9A1FER-15 | 2026-09-02 13:11:17 | 45.82782 | 16.88527 | 115° | 7km/h | 2327m | -14.9m/s | 10.3°C | 53.4% | 0hPa | 2.6V | 00:00:00 | 02:05:33 | 00:00:00 | |
| 9A1FER-3 | 2026-09-02 13:11:16 | 45.82784 | 16.88524 | 142° | 7km/h | 2343m | -16.4m/s | 10.2°C | 54.2% | 0hPa | 2.6V | 00:00:00 | 02:05:32 | 00:00:00 | |
| 9A1FER-15 | 2026-09-02 13:11:07 | 45.82790 | 16.88508 | 153° | 5km/h | 2490m | -17.2m/s | 9.0°C | 62.3% | 0hPa | 2.6V | 08:16:00 | 02:05:23 | 00:00:00 | |
| 9A1FER-10 | 2026-09-02 13:11:06 | 45.82792 | 16.88509 | 255° | 5km/h | 2507m | -16.2m/s | 8.9°C | 65.0% | 0hPa | 2.5V | 00:00:00 | 02:05:22 | 00:00:00 | |
| 9A1FER-15 | 2026-09-02 13:10:57 | 45.82793 | 16.88496 | 116° | 13km/h | 2656m | -17.2m/s | 7.5°C | 75.2% | 0hPa | 2.6V | 00:00:00 | 02:05:13 | 00:00:00 | |
| 9A1FER-10 | 2026-09-02 13:10:56 | 45.82794 | 16.88493 | 127° | 13km/h | 2673m | -16.5m/s | 7.3°C | 76.2% | 0hPa | 2.6V | 00:00:00 | 02:05:12 | 00:00:00 | |
| 9A1FER-15 | 2026-09-02 13:10:47 | 45.82793 | 16.88457 | 71° | 24km/h | 2823m | -17.3m/s | 6.0°C | 84.7% | 0hPa | 2.6V | 00:00:00 | 02:05:03 | 00:00:00 | |
| 9A1FER-10 | 2026-09-02 13:10:46 | 45.82791 | 16.88451 | 64° | 24km/h | 2840m | -17.5m/s | 5.9°C | 85.0% | 0hPa | 2.6V | 00:00:00 | 02:05:02 | 00:00:00 | |
| 9A1FER-15 | 2026-09-02 13:10:37 | 45.82756 | 16.88389 | 42° | 18km/h | 2987m | -17.6m/s | 4.6°C | 87.3% | 0hPa | 2.6V | 00:00:00 | 02:04:53 | 00:00:00 | |
| 9A1FER-3 | 2026-09-02 13:10:36 | 45.82752 | 16.88385 | 31° | 18km/h | 3003m | -16.5m/s | 4.5°C | 88.6% | 0hPa | 2.5V | 00:00:00 | 02:04:52 | 00:00:00 | |
| 9A1FER-15 | 2026-09-02 13:10:22 | 45.82733 | 16.88306 | 64° | 22km/h | 3234m | -18.8m/s | 3.0°C | 77.8% | 0hPa | 2.5V | 00:00:00 | 02:04:38 | 00:00:00 | |
| 9A1FER-10 | 2026-09-02 13:10:21 | 45.82732 | 16.88300 | 80° | 20km/h | 3252m | -18.1m/s | 2.8°C | 77.4% | 0hPa | 2.5V | 00:00:00 | 02:04:37 | 00:00:00 | |
| 9A1FER-15 | 2026-09-02 13:10:07 | 45.82723 | 16.88195 | 102° | 16km/h | 3490m | -16.3m/s | 1.2°C | 82.7% | 0hPa | 2.5V | 00:00:00 | 02:04:23 | 00:00:00 | |
| 9A1FER-10 | 2026-09-02 13:10:06 | 45.82724 | 16.88190 | 112° | 16km/h | 3507m | -17.4m/s | 1.0°C | 83.4% | 0hPa | 2.5V | 00:00:00 | 02:04:22 | 00:00:00 | |
| 9A1FER-15 | 2026-09-02 13:09:52 | 45.82738 | 16.88114 | 94° | 26km/h | 3741m | -17.9m/s | -0.4°C | 83.4% | 0hPa | 2.5V | 00:00:00 | 02:04:08 | 00:00:00 | |
| 9A1FER-3 | 2026-09-02 13:09:51 | 45.82739 | 16.88107 | 97° | 26km/h | 3759m | -17.8m/s | -0.5°C | 80.6% | 0hPa | 2.5V | 00:00:00 | 02:04:07 | 00:00:00 | |
| 9A1FER-15 | 2026-09-02 13:09:37 | 45.82732 | 16.87973 | 113° | 26km/h | 4017m | -16.5m/s | -2.1°C | 74.5% | 0hPa | 2.5V | 00:00:00 | 02:03:53 | 00:00:00 | |
| 9A1FER-10 | 2026-09-02 13:09:36 | 45.82734 | 16.87966 | 96° | 26km/h | 4034m | -18.2m/s | -2.3°C | 75.2% | 0hPa | 2.5V | 00:00:00 | 02:03:52 | 00:00:00 | |
| 9A1FER-15 | 2026-09-02 13:09:22 | 45.82735 | 16.87835 | 95° | 29km/h | 4290m | -18.1m/s | -2.9°C | 34.5% | 0hPa | 2.5V | 00:00:00 | 02:03:38 | 00:00:00 | |
| 9A1FER-3 | 2026-09-02 13:09:21 | 45.82735 | 16.87824 | 83° | 29km/h | 4308m | -18.6m/s | -3.0°C | 37.2% | 0hPa | 2.5V | 00:00:00 | 02:03:37 | 00:00:00 | |
| 9A1FER-15 | 2026-09-02 13:09:07 | 45.82738 | 16.87683 | 107° | 40km/h | 4563m | -19.3m/s | -4.7°C | 39.5% | 0hPa | 2.5V | 08:18:00 | 02:03:23 | 00:00:00 | |
| 9A1FER-10 | 2026-09-02 13:09:06 | 45.82741 | 16.87673 | 116° | 42km/h | 4582m | -18.6m/s | -4.8°C | 40.4% | 0hPa | 2.5V | 00:00:00 | 02:03:22 | 00:00:00 | |
| 9A1FER-15 | 2026-09-02 13:08:52 | 45.82780 | 16.87473 | 114° | 42km/h | 4841m | -16.5m/s | -6.7°C | 19.1% | 0hPa | 2.5V | 00:00:00 | 02:03:08 | 00:00:00 | |
| 9A1FER-10 | 2026-09-02 13:08:51 | 45.82784 | 16.87456 | 99° | 40km/h | 4858m | -19.0m/s | -6.8°C | 20.3% | 0hPa | 2.5V | 00:00:00 | 02:03:07 | 00:00:00 | |
| 9A1FER-15 | 2026-09-02 13:08:37 | 45.82809 | 16.87254 | 107° | 44km/h | 5127m | -18.6m/s | -9.1°C | 47.2% | 0hPa | 2.5V | 00:00:00 | 02:02:53 | 00:00:00 | |
| 9A1FER-3 | 2026-09-02 13:08:36 | 45.82812 | 16.87240 | 114° | 44km/h | 5146m | -19.0m/s | -9.3°C | 47.9% | 0hPa | 2.5V | 00:00:00 | 02:02:52 | 00:00:00 | |
| 9A1FER-15 | 2026-09-02 13:08:22 | 45.82863 | 16.87030 | 111° | 47km/h | 5399m | -18.1m/s | -11.3°C | 44.0% | 0hPa | 2.5V | 00:00:00 | 02:02:38 | 00:00:00 | |
| 9A1FER-10 | 2026-09-02 13:08:21 | 45.82867 | 16.87015 | 110° | 47km/h | 5417m | -18.4m/s | -11.4°C | 44.9% | 0hPa | 2.5V | 00:00:00 | 02:02:37 | 00:00:00 | |
| OM5KV | 2026-09-02 13:08:13 | 45.82893 | 16.86903 | 110° | 46km/h | 5549m | -19.2m/s | -12.7°C | 46.0% | 0hPa | 2.6V | 00:00:00 | 00:00:00 | 00:00:00 | |
| 9A1FER-15 | 2026-09-02 13:08:07 | 45.82929 | 16.86792 | 119° | 49km/h | 5679m | -19.6m/s | -13.8°C | 0% | 0hPa | 2.6V | 00:00:00 | 02:02:23 | 00:00:00 | |
| 9A1FER-10 | 2026-09-02 13:08:06 | 45.82936 | 16.86775 | 117° | 49km/h | 5699m | -20.8m/s | -13.9°C | 53.4% | 0hPa | 2.6V | 00:00:00 | 02:02:22 | 00:00:00 | |
| OM5KV | 2026-09-02 13:07:59 | 45.82969 | 16.86674 | 113° | 49km/h | 5819m | -20.5m/s | -13.4°C | 20.9% | 0hPa | 2.6V | 08:20:00 | 00:00:00 | 00:00:00 | |
| 9A1FER-15 | 2026-09-02 13:07:52 | 45.83001 | 16.86543 | 106° | 47km/h | 5976m | -20.7m/s | -14.2°C | 25.0% | 0hPa | 2.6V | 00:00:00 | 02:02:08 | 00:00:00 | |
| 9A1FER-3 | 2026-09-02 13:07:51 | 45.83005 | 16.86526 | 106° | 47km/h | 5997m | -20.3m/s | -14.3°C | 25.6% | 0hPa | 2.6V | 00:00:00 | 02:02:07 | 00:00:00 | |
| OM5KV | 2026-09-02 13:07:47 | 45.83015 | 16.86475 | 105° | 51km/h | 6055m | -19.0m/s | -14.9°C | 27.4% | 0hPa | 2.6V | 08:20:00 | 00:00:00 | 00:00:00 | |
| OM5KV | 2026-09-02 13:07:41 | 45.83037 | 16.86374 | 108° | 47km/h | 6168m | -18.5m/s | -15.9°C | 25.5% | 0hPa | 2.6V | 08:20:00 | 00:00:00 | 00:00:00 | |
| 9A1FER-15 | 2026-09-02 13:07:37 | 45.83055 | 16.86292 | 108° | 47km/h | 6262m | -19.9m/s | -16.5°C | 19.5% | 0hPa | 2.6V | 00:00:00 | 02:01:53 | 00:00:00 | |
| 9A1FER-10 | 2026-09-02 13:07:36 | 45.83059 | 16.86276 | 106° | 47km/h | 6282m | -20.1m/s | -16.6°C | 19.7% | 0hPa | 2.5V | 08:19:00 | 02:01:52 | 00:00:00 | |
| 9A1FER-15 | 2026-09-02 13:07:22 | 45.83100 | 16.86040 | 104° | 49km/h | 6547m | -18.2m/s | -19.1°C | 24.7% | 0hPa | 2.5V | 00:00:00 | 02:01:38 | 00:00:00 | |
| 9A1FER-3 | 2026-09-02 13:07:21 | 45.83103 | 16.86023 | 104° | 49km/h | 6566m | -18.6m/s | -19.2°C | 23.8% | 0hPa | 2.5V | 00:00:00 | 02:01:37 | 00:00:00 | |
| OM5KV | 2026-09-02 13:07:18 | 45.83109 | 16.85990 | 105° | 46km/h | 6603m | -18.8m/s | -19.6°C | 22.0% | 0hPa | 2.5V | 08:20:00 | 00:00:00 | 00:00:00 | |
| 9A1FER-15 | 2026-09-02 13:07:07 | 45.83147 | 16.85780 | 102° | 49km/h | 6838m | -18.5m/s | -21.2°C | 19.2% | 0hPa | 2.5V | 00:00:00 | 02:01:23 | 00:00:00 | |
| 9A1FER-10 | 2026-09-02 13:07:06 | 45.83149 | 16.85762 | 101° | 49km/h | 6856m | -18.3m/s | -21.4°C | 19.6% | 0hPa | 2.5V | 00:00:00 | 02:01:22 | 00:00:00 | |
| 9A1FER-15 | 2026-09-02 13:06:52 | 45.83189 | 16.85518 | 111° | 51km/h | 7135m | -19.8m/s | -23.0°C | 9.5% | 0hPa | 2.5V | 08:20:00 | 02:01:08 | 00:00:00 | |
| 9A1FER-10 | 2026-09-02 13:06:51 | 45.83193 | 16.85501 | 106° | 51km/h | 7155m | -18.5m/s | -23.2°C | 9.6% | 0hPa | 2.6V | 00:00:00 | 02:01:07 | 00:00:00 | |
| 9A1FER-15 | 2026-09-02 13:06:37 | 45.83228 | 16.85246 | 112° | 51km/h | 7423m | -18.7m/s | -24.8°C | 6.9% | 0hPa | 2.5V | 00:00:00 | 02:00:53 | 00:00:00 | |
| 9A1FER-3 | 2026-09-02 13:06:36 | 45.83232 | 16.85229 | 109° | 51km/h | 7441m | -19.2m/s | -24.9°C | 6.7% | 0hPa | 2.5V | 08:20:00 | 02:00:52 | 00:00:00 | |
| OE3JTB-15 | 2026-09-02 13:06:25 | 45.83286 | 16.85039 | 113° | 47km/h | 7655m | -19.0m/s | -25.8°C | 5.7% | 0hPa | 2.5V | 00:00:00 | 00:00:00 | 00:00:00 | |
| 9A1FER-15 | 2026-09-02 13:06:22 | 45.83299 | 16.84987 | 107° | 49km/h | 7718m | -20.7m/s | -26.1°C | 6.1% | 0hPa | 2.5V | 00:00:00 | 02:00:38 | 00:00:00 | |
| 9A1FER-10 | 2026-09-02 13:06:21 | 45.83302 | 16.84970 | 108° | 49km/h | 7739m | -21.1m/s | -26.3°C | 6.3% | 0hPa | 2.5V | 00:00:00 | 02:00:37 | 00:00:00 | |
| 9A1FER-15 | 2026-09-02 13:06:07 | 45.83346 | 16.84725 | 102° | 47km/h | 8025m | -19.6m/s | -28.8°C | 7.6% | 0hPa | 2.5V | 00:00:00 | 02:00:23 | 00:00:00 | |
| 9A1FER-10 | 2026-09-02 13:06:06 | 45.83348 | 16.84708 | 103° | 47km/h | 8045m | -19.1m/s | -29.0°C | 7.7% | 0hPa | 2.5V | 00:00:00 | 02:00:22 | 00:00:00 | |
| OE3JTB-15 | 2026-09-02 13:05:54 | 45.83379 | 16.84510 | 98° | 57km/h | 8282m | -19.1m/s | -31.0°C | 17.2% | 0hPa | 2.6V | 00:00:00 | 02:00:10 | 00:00:00 | |
| 9A1FER-15 | 2026-09-02 13:05:52 | 45.83382 | 16.84473 | 94° | 55km/h | 8322m | -21.4m/s | -31.3°C | 19.9% | 0hPa | 2.6V | 00:00:00 | 02:00:08 | 00:00:00 | |
| 9A1FER-3 | 2026-09-02 13:05:51 | 45.83384 | 16.84454 | 99° | 57km/h | 8343m | -20.9m/s | -31.5°C | 19.7% | 0hPa | 2.6V | 00:00:00 | 02:00:07 | 00:00:00 | |
| 9A1FER-15 | 2026-09-02 13:05:37 | 45.83404 | 16.84171 | 93° | 62km/h | 8628m | -20.2m/s | -34.1°C | 15.9% | 0hPa | 2.5V | 00:00:00 | 01:59:53 | 00:00:00 | |
| 9A1FER-10 | 2026-09-02 13:05:36 | 45.83405 | 16.84149 | 92° | 62km/h | 8649m | -20.6m/s | -34.2°C | 15.4% | 0hPa | 2.5V | 00:00:00 | 01:59:52 | 00:00:00 | |
| OE3JTB-15 | 2026-09-02 13:05:25 | 45.83411 | 16.83904 | 92° | 69km/h | 8879m | -21.3m/s | -36.2°C | 25.5% | 0hPa | 2.5V | 00:00:00 | 00:00:00 | 00:00:00 | |
| 9A1FER-15 | 2026-09-02 13:05:22 | 45.83414 | 16.83831 | 95° | 69km/h | 8944m | -21.3m/s | -36.8°C | 35.9% | 0hPa | 2.6V | 00:00:00 | 01:59:38 | 00:00:00 | |
| 9A1FER-10 | 2026-09-02 13:05:21 | 45.83415 | 16.83807 | 95° | 69km/h | 8966m | -22.5m/s | -37.0°C | 39.7% | 0hPa | 2.6V | 08:21:00 | 01:59:37 | 00:00:00 | |
| 9A1FER-10 | 2026-09-02 13:05:06 | 45.83442 | 16.83429 | 100° | 68km/h | 9295m | -22.9m/s | -39.8°C | 32.7% | 0hPa | 2.5V | 00:00:00 | 01:59:22 | 00:00:00 | |
| OE3JTB-15 | 2026-09-02 13:04:56 | 45.83474 | 16.83186 | 101° | 68km/h | 9544m | -22.7m/s | -41.4°C | 16.8% | 0hPa | 2.5V | 00:00:00 | 00:00:00 | 00:00:00 | |
| 9A1FER-15 | 2026-09-02 13:04:52 | 45.83485 | 16.83089 | 98° | 68km/h | 9630m | -21.0m/s | -42.1°C | 17.2% | 0hPa | 2.5V | 00:00:00 | 01:59:08 | 00:00:00 | |
| 9A1FER-10 | 2026-09-02 13:04:51 | 45.83487 | 16.83065 | 100° | 68km/h | 9651m | -21.1m/s | -42.3°C | 17.6% | 0hPa | 2.5V | 00:00:00 | 01:59:07 | 00:00:00 | |
| 9A1FER-15 | 2026-09-02 13:04:37 | 45.83521 | 16.82725 | 100° | 71km/h | 9978m | -24.1m/s | -45.2°C | 23.8% | 0hPa | 2.5V | 08:22:00 | 01:58:53 | 00:00:00 | |
| 9A1FER-3 | 2026-09-02 13:04:36 | 45.83524 | 16.82701 | 101° | 71km/h | 10002m | -23.5m/s | -45.4°C | 24.1% | 0hPa | 2.5V | 00:00:00 | 01:58:52 | 00:00:00 | |
| OE3JTB-15 | 2026-09-02 13:04:27 | 45.83556 | 16.82475 | 99° | 71km/h | 10228m | -26.6m/s | -47.4°C | 28.8% | 0hPa | 2.5V | 00:00:00 | 01:58:43 | 00:00:00 | |
| 9A1FER-15 | 2026-09-02 13:04:22 | 45.83563 | 16.82344 | 93° | 69km/h | 10364m | -27.5m/s | -48.7°C | 30.9% | 0hPa | 2.5V | 00:00:00 | 01:58:38 | 00:00:00 | |
| 9A1FER-10 | 2026-09-02 13:04:21 | 45.83564 | 16.82320 | 99° | 69km/h | 10392m | -27.5m/s | -49.0°C | 31.6% | 0hPa | 2.5V | 00:00:00 | 01:58:37 | 00:00:00 | |
| 9A1FER-15 | 2026-09-02 13:04:07 | 45.83606 | 16.81973 | 102° | 75km/h | 10768m | -27.0m/s | -52.4°C | 37.5% | 0hPa | 2.5V | 00:00:00 | 01:58:23 | 00:00:00 | |
| 9A1FER-10 | 2026-09-02 13:04:06 | 45.83609 | 16.81948 | 103° | 77km/h | 10795m | -27.3m/s | -52.5°C | 37.0% | 0hPa | 2.5V | 00:00:00 | 01:58:22 | 00:00:00 | |
| OE3JTB-15 | 2026-09-02 13:03:58 | 45.83635 | 16.81734 | 101° | 78km/h | 11016m | -27.3m/s | -54.4°C | 33.3% | 0hPa | 2.5V | 00:00:00 | 00:00:00 | 00:00:00 | |
| 9A1FER-15 | 2026-09-02 13:03:52 | 45.83656 | 16.81568 | 101° | 75km/h | 11181m | -27.5m/s | -55.8°C | 30.8% | 0hPa | 2.5V | 00:00:00 | 01:58:08 | 00:00:00 | |
| 9A1FER-3 | 2026-09-02 13:03:51 | 45.83659 | 16.81541 | 98° | 75km/h | 11209m | -28.3m/s | -56.0°C | 30.1% | 0hPa | 2.5V | 00:00:00 | 01:58:07 | 00:00:00 | |
| 9A1FER-15 | 2026-09-02 13:03:37 | 45.83648 | 16.81162 | 80° | 89km/h | 11592m | -28.4m/s | -56.4°C | 16.9% | 0hPa | 2.5V | 00:00:00 | 01:57:53 | 00:00:00 | |
| 9A1FER-10 | 2026-09-02 13:03:36 | 45.83644 | 16.81132 | 79° | 91km/h | 11621m | -28.3m/s | -56.3°C | 15.7% | 0hPa | 2.5V | 00:00:00 | 01:57:52 | 00:00:00 | |
| 9A1FER-15 | 2026-09-02 13:03:22 | 45.83598 | 16.80676 | 82° | 91km/h | 12011m | -28.8m/s | -54.0°C | 6.2% | 0hPa | 2.5V | 00:00:00 | 01:57:38 | 00:00:00 | |
| 9A1FER-10 | 2026-09-02 13:03:21 | 45.83594 | 16.80642 | 81° | 91km/h | 12040m | -29.7m/s | -54.0°C | 6.0% | 0hPa | 2.5V | 00:00:00 | 01:57:37 | 00:00:00 | |
| 9A1FER-15 | 2026-09-02 13:03:07 | 45.83562 | 16.80181 | 86° | 78km/h | 12471m | -31.7m/s | -52.3°C | 4.4% | 0hPa | 2.5V | 00:00:00 | 01:57:23 | 00:00:00 | |
| 9A1FER-10 | 2026-09-02 13:03:06 | 45.83561 | 16.80151 | 89° | 78km/h | 12502m | -31.6m/s | -52.3°C | 4.4% | 0hPa | 2.5V | 08:24:00 | 01:57:22 | 00:00:00 | |
| OE3JTB-15 | 2026-09-02 13:03:00 | 45.83559 | 16.79982 | 92° | 82km/h | 12692m | -30.9m/s | -51.3°C | 4.3% | 0hPa | 2.6V | 00:00:00 | 01:57:16 | 00:00:00 | |
| 9A1FER-15 | 2026-09-02 13:02:52 | 45.83549 | 16.79751 | 86° | 86km/h | 12948m | -34.2m/s | -52.8°C | 4.6% | 0hPa | 2.6V | 00:00:00 | 01:57:08 | 00:00:00 | |
| 9A1FER-10 | 2026-09-02 13:02:51 | 45.83548 | 16.79722 | 88° | 86km/h | 12982m | -33.8m/s | -52.9°C | 4.6% | 0hPa | 2.6V | 00:00:00 | 01:57:07 | 00:00:00 | |
| PETON7-10 | 2026-09-02 13:02:38 | 45.83503 | 16.79319 | 80° | 71km/h | 13412m | -34.1m/s | -52.5°C | 4.2% | 0hPa | 2.6V | 00:00:00 | 00:00:00 | 00:00:00 | |
| 9A1FER-15 | 2026-09-02 13:02:37 | 45.83499 | 16.79290 | 80° | 77km/h | 13446m | -34.4m/s | -52.6°C | 4.2% | 0hPa | 2.6V | 00:00:00 | 01:56:53 | 00:00:00 | |
| 9A1FER-3 | 2026-09-02 13:02:36 | 45.83495 | 16.79261 | 80° | 77km/h | 13480m | -34.2m/s | -52.5°C | 4.2% | 0hPa | 2.6V | 00:00:00 | 01:56:52 | 00:00:00 | |
| OE3JTB-15 | 2026-09-02 13:02:31 | 45.83471 | 16.79120 | 75° | 78km/h | 13654m | -34.6m/s | -52.7°C | 4.0% | 0hPa | 2.6V | 08:24:00 | 00:00:00 | 00:00:00 | |
| 9A1FER-15 | 2026-09-02 13:02:22 | 45.83455 | 16.78877 | 88° | 77km/h | 13955m | -31.8m/s | -52.6°C | 3.9% | 0hPa | 2.5V | 08:24:00 | 01:56:38 | 00:00:00 | |
| 9A1FER-10 | 2026-09-02 13:02:21 | 45.83453 | 16.78852 | 85° | 78km/h | 13987m | -33.0m/s | -52.7°C | 3.9% | 0hPa | 2.5V | 00:00:00 | 01:56:37 | 00:00:00 | |
| PETON7-10 | 2026-09-02 13:02:14 | 45.83442 | 16.78675 | 84° | 86km/h | 14230m | -35.7m/s | -53.3°C | 4.0% | 0hPa | 2.5V | 00:00:00 | 01:56:30 | 00:00:00 | |
| 9A1FER-15 | 2026-09-02 13:02:07 | 45.83414 | 16.78456 | 79° | 78km/h | 14479m | -36.1m/s | -54.2°C | 4.2% | 0hPa | 2.5V | 00:00:00 | 01:56:23 | 00:00:00 | |
| 9A1FER-10 | 2026-09-02 13:02:06 | 45.83411 | 16.78423 | 89° | 75km/h | 14516m | -38.1m/s | -54.3°C | 4.2% | 0hPa | 2.5V | 00:00:00 | 01:56:22 | 00:00:00 | |
| OE3JTB-15 | 2026-09-02 13:02:02 | 45.83418 | 16.78298 | 98° | 51km/h | 14665m | -37.8m/s | -54.4°C | 4.2% | 0hPa | 2.5V | 00:00:00 | 00:00:00 | 00:00:00 | |
| PETON7-10 | 2026-09-02 13:01:59 | 45.83428 | 16.78211 | 101° | 66km/h | 14775m | -35.6m/s | -53.8°C | 4.1% | 0hPa | 2.5V | 00:00:00 | 00:00:00 | 00:00:00 | |
| OE5DRO-10 | 2026-09-02 13:01:57 | 45.83436 | 16.78157 | 98° | 68km/h | 14846m | -35.2m/s | -53.9°C | 4.2% | 0hPa | 2.6V | 00:00:00 | 00:00:00 | 00:00:00 | |
| 9A1FER-15 | 2026-09-02 13:01:52 | 45.83442 | 16.78041 | 89° | 66km/h | 15025m | -36.2m/s | -54.1°C | 4.2% | 0hPa | 2.6V | 00:00:00 | 01:56:08 | 00:00:00 | |
| 9A1FER-3 | 2026-09-02 13:01:51 | 45.83441 | 16.78019 | 87° | 66km/h | 15061m | -37.3m/s | -54.3°C | 4.2% | 0hPa | 2.6V | 00:00:00 | 01:56:07 | 00:00:00 | |
| PETON7-10 | 2026-09-02 13:01:44 | 45.83432 | 16.77855 | 81° | 62km/h | 15327m | -38.1m/s | -54.5°C | 4.3% | 0hPa | 2.6V | 00:00:00 | 00:00:00 | 00:00:00 | |
| OE5DRO-10 | 2026-09-02 13:01:38 | 45.83427 | 16.77710 | 92° | 51km/h | 15559m | -37.9m/s | -53.7°C | 4.1% | 0hPa | 2.6V | 00:00:00 | 00:00:00 | 00:00:00 | |
| 9A1FER-15 | 2026-09-02 13:01:37 | 45.83427 | 16.77688 | 91° | 55km/h | 15598m | -38.4m/s | -53.8°C | 4.1% | 0hPa | 2.6V | 00:00:00 | 01:55:53 | 00:00:00 | |
| 9A1FER-10 | 2026-09-02 13:01:36 | 45.83427 | 16.77667 | 92° | 53km/h | 15636m | -38.6m/s | -53.8°C | 4.0% | 0hPa | 2.6V | 00:00:00 | 01:55:52 | 00:00:00 | |
| PETON7-10 | 2026-09-02 13:01:29 | 45.83435 | 16.77525 | 102° | 49km/h | 15912m | -39.0m/s | -53.8°C | 4.0% | 0hPa | 2.5V | 00:00:00 | 01:55:45 | 00:00:00 | |
| 9A1FER-15 | 2026-09-02 13:01:22 | 45.83432 | 16.77399 | 87° | 49km/h | 16188m | -38.8m/s | -53.5°C | 3.8% | 0hPa | 2.5V | 00:00:00 | 01:55:38 | 00:00:00 | |
| 9A1FER-10 | 2026-09-02 13:01:21 | 45.83432 | 16.77381 | 88° | 47km/h | 16227m | -40.2m/s | -53.8°C | 3.8% | 0hPa | 2.5V | 00:00:00 | 01:55:37 | 00:00:00 | |
| OE5DRO-10 | 2026-09-02 13:01:16 | 45.83433 | 16.77291 | 92° | 46km/h | 16428m | -40.4m/s | -54.1°C | 3.9% | 0hPa | 2.5V | 08:26:00 | 00:00:00 | 00:00:00 | |
| PETON7-10 | 2026-09-02 13:01:08 | 45.83438 | 16.77153 | 92° | 42km/h | 16749m | -40.7m/s | -53.9°C | 3.8% | 0hPa | 2.6V | 00:00:00 | 00:00:00 | 00:00:00 | |
| 9A1FER-10 | 2026-09-02 13:01:06 | 45.83438 | 16.77122 | 87° | 42km/h | 16828m | -39.0m/s | -54.1°C | 3.8% | 0hPa | 2.5V | 00:00:00 | 01:55:22 | 00:00:00 | |
| PG1ADW-2 | 2026-09-02 13:01:00 | 45.83437 | 16.77023 | 99° | 27km/h | 17066m | -39.6m/s | -54.7°C | 4.1% | 0hPa | 2.5V | 08:26:00 | 01:55:16 | 00:00:00 | |
| OE5DRO-10 | 2026-09-02 13:00:57 | 45.83441 | 16.76977 | 97° | 40km/h | 17187m | -40.4m/s | -54.6°C | 4.0% | 0hPa | 2.6V | 00:00:00 | 00:00:00 | 00:00:00 | |
| PETON7-10 | 2026-09-02 13:00:53 | 45.83442 | 16.76922 | 85° | 40km/h | 17351m | -41.5m/s | -54.5°C | 3.9% | 0hPa | 2.6V | 00:00:00 | 00:00:00 | 00:00:00 | |
| 9A1FER-15 | 2026-09-02 13:00:52 | 45.83441 | 16.76909 | 82° | 42km/h | 17393m | -41.9m/s | -54.7°C | 4.0% | 0hPa | 2.6V | 00:00:00 | 01:55:08 | 00:00:00 | |
| 9A1FER-10 | 2026-09-02 13:00:51 | 45.83440 | 16.76895 | 78° | 42km/h | 17435m | -41.6m/s | -54.7°C | 4.0% | 0hPa | 2.6V | 08:26:00 | 01:55:07 | 00:00:00 | |
| PETON7-10 | 2026-09-02 13:00:38 | 45.83432 | 16.76702 | 105° | 26km/h | 17981m | -42.0m/s | -55.0°C | 4.1% | 0hPa | 2.6V | 00:00:00 | 01:54:54 | 00:00:00 | |
| 9A1FER-3 | 2026-09-02 13:00:37 | 45.83438 | 16.76674 | 107° | 24km/h | 18066m | -42.9m/s | -54.3°C | 3.8% | 0hPa | 2.6V | 00:00:00 | 01:54:52 | 00:00:00 | |
| PETON7-10 | 2026-09-02 13:00:23 | 45.83443 | 16.76571 | 67° | 26km/h | 18649m | -43.8m/s | -55.2°C | 4.1% | 0hPa | 2.5V | 08:26:00 | 00:00:00 | 00:00:00 | |
| 9A1FER-15 | 2026-09-02 13:00:22 | 45.83441 | 16.76562 | 73° | 26km/h | 18693m | -44.2m/s | -55.1°C | 4.1% | 0hPa | 2.6V | 00:00:00 | 01:54:38 | 00:00:00 | |
| 9A1FER-10 | 2026-09-02 13:00:21 | 45.83439 | 16.76553 | 79° | 26km/h | 18738m | -44.1m/s | -55.0°C | 4.1% | 0hPa | 2.6V | 00:00:00 | 01:54:37 | 00:00:00 | |
| OE5DRO-10 | 2026-09-02 13:00:19 | 45.83437 | 16.76532 | 89° | 26km/h | 18825m | -43.4m/s | -55.5°C | 4.3% | 0hPa | 2.6V | 00:00:00 | 00:00:00 | 00:00:00 | |
| 9A1FER-15 | 2026-09-02 13:00:07 | 45.83445 | 16.76418 | 96° | 20km/h | 19364m | -45.7m/s | -55.7°C | 4.4% | 0hPa | 2.6V | 08:27:00 | 01:54:23 | 00:00:00 | |
| 9A1FER-10 | 2026-09-02 13:00:06 | 45.83445 | 16.76409 | 98° | 20km/h | 19410m | -46.0m/s | -55.7°C | 4.5% | 0hPa | 2.5V | 00:00:00 | 01:54:22 | 00:00:00 | |
| OE5DRO-10 | 2026-09-02 13:00:00 | 45.83458 | 16.76357 | 119° | 11km/h | 19692m | -49.5m/s | -53.6°C | 3.8% | 0hPa | 2.6V | 00:00:00 | 00:00:00 | 00:00:00 | |
| PG1ADW-2 | 2026-09-02 12:59:59 | 45.83461 | 16.76351 | 126° | 9km/h | 19741m | -48.5m/s | -53.7°C | 3.7% | 0hPa | 2.6V | 00:00:00 | 00:00:00 | 00:00:00 | |
| 9A1FER-15 | 2026-09-02 12:59:52 | 45.83468 | 16.76316 | 91° | 7km/h | 20066m | -46.5m/s | -53.7°C | 3.9% | 0hPa | 2.6V | 00:00:00 | 01:54:08 | 00:00:00 | |
| 9A1FER-3 | 2026-09-02 12:59:51 | 45.83468 | 16.76310 | 93° | 5km/h | 20113m | -46.7m/s | -53.4°C | 3.8% | 0hPa | 2.6V | 08:27:00 | 01:54:07 | 00:00:00 | |
| PETON7-10 | 2026-09-02 12:59:48 | 45.83467 | 16.76293 | 86° | 5km/h | 20254m | -47.6m/s | -53.7°C | 3.9% | 0hPa | 2.6V | 00:00:00 | 01:54:04 | 00:00:00 | |
| OE5DRO-10 | 2026-09-02 12:59:41 | 45.83468 | 16.76287 | 172° | 5km/h | 20591m | -48.7m/s | -53.7°C | 4.0% | 0hPa | 2.6V | 00:00:00 | 00:00:00 | 00:00:00 | |
| PG1ADW-2 | 2026-09-02 12:59:39 | 45.83468 | 16.76288 | 291° | 7km/h | 20690m | -49.1m/s | -53.6°C | 3.9% | 0hPa | 2.6V | 00:00:00 | 00:00:00 | 00:00:00 | |
| 9A1FER-15 | 2026-09-02 12:59:37 | 45.83467 | 16.76289 | 250° | 5km/h | 20789m | -49.9m/s | -54.0°C | 4.1% | 0hPa | 2.5V | 00:00:00 | 01:53:53 | 00:00:00 | |
| 9A1FER-10 | 2026-09-02 12:59:36 | 45.83467 | 16.76290 | 308° | 7km/h | 20839m | -50.0m/s | -53.8°C | 4.1% | 0hPa | 2.5V | 00:00:00 | 01:53:52 | 00:00:00 | |
| OE5DXL-15 | 2026-09-02 12:59:28 | 45.83474 | 16.76293 | 262° | 11km/h | 21248m | -51.4m/s | -53.4°C | 3.9% | 0hPa | 2.5V | 00:00:00 | 00:00:00 | 00:00:00 | |
| 9A1FER-15 | 2026-09-02 12:59:22 | 45.83460 | 16.76299 | 3° | 13km/h | 21554m | -51.6m/s | -52.9°C | 3.8% | 0hPa | 2.5V | 00:00:00 | 01:53:38 | 00:00:00 | |
| 9A1FER-10 | 2026-09-02 12:59:21 | 45.83456 | 16.76298 | 11° | 13km/h | 21606m | -51.7m/s | -52.8°C | 3.8% | 0hPa | 2.6V | 00:00:00 | 01:53:37 | 00:00:00 | |
| PG1ADW-2 | 2026-09-02 12:59:19 | 45.83448 | 16.76294 | 17° | 13km/h | 21711m | -53.5m/s | -51.7°C | 3.5% | 0hPa | 2.6V | 00:00:00 | 01:53:35 | 00:00:00 | |
| PETON7-10 | 2026-09-02 12:59:13 | 45.83434 | 16.76280 | 42° | 13km/h | 22044m | -60.3m/s | -50.9°C | 3.4% | 0hPa | 2.6V | 00:00:00 | 00:00:00 | 00:00:00 | |
| 9A1FER-15 | 2026-09-02 12:59:07 | 45.83422 | 16.76259 | 65° | 11km/h | 22416m | -62.4m/s | -52.1°C | 3.6% | 0hPa | 2.6V | 00:00:00 | 01:53:23 | 00:00:00 | |
| OE5DRO-10 | 2026-09-02 12:59:03 | 45.83418 | 16.76239 | 92° | 7km/h | 22667m | -64.4m/s | -53.0°C | 4.0% | 0hPa | 2.6V | 00:00:00 | 00:00:00 | 00:00:00 | |
| PG1ADW-2 | 2026-09-02 12:58:59 | 45.83419 | 16.76221 | 108° | 5km/h | 22912m | -60.4m/s | -52.3°C | 3.9% | 0hPa | 2.6V | 00:00:00 | 00:00:00 | 00:00:00 | |
| PETON7-10 | 2026-09-02 12:58:58 | 45.83420 | 16.76218 | 113° | 5km/h | 22971m | -58.7m/s | -52.2°C | 3.8% | 0hPa | 2.6V | 00:00:00 | 01:53:14 | 00:00:00 | |
| OE5DXL-15 | 2026-09-02 12:58:55 | 45.83423 | 16.76213 | 200° | 7km/h | 23147m | -59.4m/s | -51.5°C | 3.6% | 0hPa | 2.6V | 00:00:00 | 00:00:00 | 00:00:00 | |
| 9A1FER-15 | 2026-09-02 12:58:52 | 45.83425 | 16.76217 | 222° | 7km/h | 23324m | -59.3m/s | -51.1°C | 3.6% | 0hPa | 2.6V | 00:00:00 | 01:53:08 | 00:00:00 | |
| 9A1FER-10 | 2026-09-02 12:58:51 | 45.83426 | 16.76218 | 217° | 7km/h | 23383m | -60.7m/s | -50.9°C | 3.5% | 0hPa | 2.6V | 00:00:00 | 01:53:07 | 00:00:00 | |
| OE5DRO-10 | 2026-09-02 12:58:44 | 45.83429 | 16.76230 | 283° | 7km/h | 23801m | -58.1m/s | -50.2°C | 3.4% | 0hPa | 2.6V | 00:00:00 | 00:00:00 | 00:00:00 | |
| PETON7-10 | 2026-09-02 12:58:43 | 45.83429 | 16.76232 | 292° | 9km/h | 23859m | -57.4m/s | -50.2°C | 3.4% | 0hPa | 2.6V | 00:00:00 | 00:00:00 | 00:00:00 | |
| PG1ADW-2 | 2026-09-02 12:58:39 | 45.83423 | 16.76240 | 340° | 7km/h | 24093m | -60.3m/s | -50.3°C | 3.5% | 0hPa | 2.6V | 00:00:00 | 00:00:00 | 00:00:00 | |
| 9A1FER-15 | 2026-09-02 12:58:37 | 45.83418 | 16.76242 | 346° | 7km/h | 24211m | -57.2m/s | -50.2°C | 3.6% | 0hPa | 2.6V | 00:00:00 | 01:52:53 | 00:00:00 | |
| 9A1FER-10 | 2026-09-02 12:58:36 | 45.83416 | 16.76243 | 314° | 7km/h | 24269m | -57.0m/s | -49.8°C | 3.5% | 0hPa | 2.5V | 08:28:00 | 01:52:52 | 00:00:00 | |
| OE8JPQ-2 | 2026-09-02 12:58:30 | 45.83407 | 16.76256 | 312° | 11km/h | 24628m | -59.6m/s | -49.0°C | 3.3% | 0hPa | 2.6V | 00:00:00 | 00:00:00 | 00:00:00 | |
| PETON7-10 | 2026-09-02 12:58:28 | 45.83404 | 16.76257 | 349° | 7km/h | 24749m | -61.6m/s | -48.6°C | 3.2% | 0hPa | 2.6V | 00:00:00 | 00:00:00 | 00:00:00 | |
| OE5DXL-15 | 2026-09-02 12:58:25 | 45.83400 | 16.76257 | 27° | 7km/h | 24936m | -63.4m/s | -48.9°C | 3.3% | 0hPa | 2.6V | 08:28:00 | 00:00:00 | 00:00:00 | |
| 9A1FER-15 | 2026-09-02 12:58:22 | 45.83396 | 16.76249 | 82° | 5km/h | 25130m | -65.0m/s | -48.7°C | 3.3% | 0hPa | 2.6V | 00:00:00 | 01:52:38 | 00:00:00 | |
| 9A1FER-10 | 2026-09-02 12:58:21 | 45.83396 | 16.76245 | 91° | 5km/h | 25195m | -64.0m/s | -48.4°C | 3.3% | 0hPa | 2.6V | 00:00:00 | 01:52:37 | 00:00:00 | |
| PG1ADW-2 | 2026-09-02 12:58:19 | 45.83398 | 16.76240 | 137° | 7km/h | 25324m | -65.0m/s | -47.6°C | 3.1% | 0hPa | 2.6V | 00:00:00 | 00:00:00 | 00:00:00 | |
| PETON7-10 | 2026-09-02 12:58:13 | 45.83404 | 16.76237 | 263° | 7km/h | 25723m | -67.3m/s | -47.2°C | 3.0% | 0hPa | 2.6V | 00:00:00 | 01:52:29 | 00:00:00 | |
| OE5DRO-10 | 2026-09-02 12:58:07 | 45.83408 | 16.76242 | 308° | 11km/h | 26176m | -63.5m/s | -46.3°C | 2.9% | 0hPa | 2.6V | 00:00:00 | 00:00:00 | 00:00:00 | |
| 9A1FER-10 | 2026-09-02 12:58:06 | 45.83408 | 16.76242 | 308° | 11km/h | 26176m | -63.5m/s | -46.3°C | 2.9% | 0hPa | 2.6V | 00:00:00 | 01:52:22 | 00:00:00 | |
| PG1ADW-2 | 2026-09-02 12:57:59 | 45.83392 | 16.76239 | 33° | 13km/h | 26636m | -66.1m/s | -46.1°C | 2.9% | 0hPa | 2.6V | 00:00:00 | 01:52:15 | 00:00:00 | |
| PETON7-10 | 2026-09-02 12:57:57 | 45.83388 | 16.76233 | 56° | 11km/h | 26770m | -68.0m/s | -45.9°C | 2.9% | 0hPa | 2.6V | 08:29:00 | 00:00:00 | 00:00:00 | |
| OE5DXL-15 | 2026-09-02 12:57:55 | 45.83384 | 16.76226 | 54° | 13km/h | 26904m | -66.6m/s | -45.8°C | 2.9% | 0hPa | 2.5V | 00:00:00 | 00:00:00 | 00:00:00 | |
| 9A1FER-15 | 2026-09-02 12:57:52 | 45.83380 | 16.76217 | 61° | 15km/h | 27106m | -68.2m/s | -45.6°C | 2.9% | 0hPa | 2.5V | 00:00:00 | 01:52:08 | 08:30:00 | |
| 9A1FER-3 | 2026-09-02 12:57:51 | 45.83378 | 16.76214 | 51° | 15km/h | 27175m | -68.9m/s | -45.7°C | 3.0% | 0hPa | 2.6V | 00:00:00 | 01:52:07 | 00:00:00 | |
| OE5DRO-10 | 2026-09-02 12:57:47 | 45.83370 | 16.76202 | 41° | 13km/h | 27452m | -69.3m/s | -45.6°C | 3.1% | 0hPa | 2.6V | 00:00:00 | 00:00:00 | 00:00:00 | |
| PETON7-10 | 2026-09-02 12:57:42 | 45.83358 | 16.76180 | 62° | 13km/h | 27817m | -75.0m/s | -44.5°C | 2.9% | 0hPa | 2.6V | 00:00:00 | 00:00:00 | 00:00:00 | |
| OE8JPQ-2 | 2026-09-02 12:57:40 | 45.83355 | 16.76169 | 79° | 11km/h | 27971m | -80.8m/s | -43.9°C | 2.8% | 0hPa | 2.6V | 00:00:00 | 01:51:56 | 00:00:00 | |
| PG1ADW-2 | 2026-09-02 12:57:39 | 45.83354 | 16.76162 | 79° | 9km/h | 28053m | -82.1m/s | -43.8°C | 2.8% | 0hPa | 2.6V | 00:00:00 | 00:00:00 | 08:30:00 | |
| 9A1FER-15 | 2026-09-02 12:57:37 | 45.83353 | 16.76153 | 86° | 11km/h | 28215m | -80.5m/s | -43.7°C | 2.8% | 0hPa | 2.5V | 00:00:00 | 01:51:53 | 00:00:00 | |
| 9A1FER-10 | 2026-09-02 12:57:36 | 45.83352 | 16.76147 | 81° | 9km/h | 28295m | -79.3m/s | -43.5°C | 2.7% | 0hPa | 2.5V | 00:00:00 | 01:51:52 | 00:00:00 | |
| OE5DRO-10 | 2026-09-02 12:57:28 | 45.83353 | 16.76117 | 115° | 7km/h | 28912m | -77.8m/s | -40.5°C | 2.2% | 0hPa | 2.5V | 00:00:00 | 00:00:00 | 00:00:00 | |
| PETON7-10 | 2026-09-02 12:57:27 | 45.83354 | 16.76114 | 100° | 7km/h | 28990m | -77.3m/s | -40.3°C | 2.1% | 0hPa | 2.5V | 00:00:00 | 01:51:43 | 00:00:00 | |
| OE5DXL-15 | 2026-09-02 12:57:25 | 45.83355 | 16.76107 | 122° | 9km/h | 29145m | -77.5m/s | -40.0°C | 2.1% | 0hPa | 2.5V | 00:00:00 | 00:00:00 | 00:00:00 | |
| 9A1FER-15 | 2026-09-02 12:57:22 | 45.83357 | 16.76099 | 136° | 7km/h | 29382m | -80.3m/s | -40.1°C | 2.1% | 0hPa | 2.5V | 00:00:00 | 01:51:38 | 00:00:00 | |
| 9A1FER-10 | 2026-09-02 12:57:21 | 45.83358 | 16.76097 | 106° | 9km/h | 29463m | -81.8m/s | -40.0°C | 2.1% | 0hPa | 2.5V | 00:00:00 | 01:51:37 | 00:00:00 | |
| PG1ADW-2 | 2026-09-02 12:57:19 | 45.83359 | 16.76095 | 103° | 7km/h | 29626m | -81.6m/s | -39.4°C | 2.0% | 0hPa | 2.5V | 00:00:00 | 00:00:00 | 00:00:00 | |
| PETON7-10 | 2026-09-02 12:57:12 | 45.83348 | 16.76095 | 8° | 9km/h | 30197m | -78.5m/s | -40.0°C | 2.0% | 0hPa | 2.5V | 00:00:00 | 00:00:00 | 00:00:00 | |
| OE8JPQ-2 | 2026-09-02 12:57:11 | 45.83346 | 16.76095 | 8° | 15km/h | 30275m | -77.8m/s | -40.2°C | 2.0% | 0hPa | 2.5V | 00:00:00 | 00:00:00 | 08:30:00 | |
| OE5DRO-10 | 2026-09-02 12:57:09 | 45.83341 | 16.76092 | 30° | 9km/h | 30432m | -76.9m/s | -40.9°C | 2.2% | 0hPa | 2.6V | 00:00:00 | 00:00:00 | 00:00:00 | |
| 9A1FER-15 | 2026-09-02 12:57:07 | 45.83338 | 16.76088 | 64° | 11km/h | 30582m | -73.3m/s | -40.7°C | 2.2% | 0hPa | 2.6V | 00:00:00 | 01:51:23 | 00:00:00 | |
| 9A1FER-3 | 2026-09-02 12:57:06 | 45.83337 | 16.76086 | 77° | 11km/h | 30655m | -71.5m/s | -40.5°C | 2.1% | 0hPa | 2.7V | 00:00:00 | 01:51:22 | 00:00:00 | |
| PG1ADW-2 | 2026-09-02 12:56:59 | 45.83345 | 16.76088 | 243° | 15km/h | 31121m | -63.6m/s | -40.2°C | 2.0% | 0hPa | 2.7V | 00:00:00 | 00:00:00 | 00:00:00 | |
| PETON7-10 | 2026-09-02 12:56:57 | 45.83348 | 16.76098 | 248° | 15km/h | 31237m | -53.0m/s | -40.3°C | 2.1% | 0hPa | 2.7V | 00:00:00 | 00:00:00 | 00:00:00 | |
| OE5DXL-15 | 2026-09-02 12:56:55 | 45.83351 | 16.76108 | 248° | 13km/h | 31333m | -42.1m/s | -40.4°C | 2.1% | 0hPa | 2.7V | 00:00:00 | 00:00:00 | 00:00:00 | |
| 9A1FER-15 | 2026-09-02 12:56:52 | 45.83355 | 16.76117 | 218° | 15km/h | 31430m | -22.1m/s | -40.5°C | 2.1% | 0hPa | 2.7V | 00:00:00 | 01:51:08 | 00:00:00 | |
| 9A1FER-10 | 2026-09-02 12:56:51 | 45.83357 | 16.76119 | 217° | 16km/h | 31449m | -14.3m/s | -40.2°C | 2.0% | 0hPa | 2.7V | 00:00:00 | 01:51:07 | 00:00:00 | |
| OE5DRO-10 | 2026-09-02 12:56:50 | 45.83359 | 16.76121 | 219° | 13km/h | 31458m | -5.6m/s | -40.0°C | 2.0% | 0hPa | 2.7V | 00:00:00 | 00:00:00 | 00:00:00 | |
| PETON7-10 | 2026-09-02 12:56:42 | 45.83391 | 16.76129 | 157° | 13km/h | 31418m | 6.2m/s | -40.6°C | 2.1% | 0hPa | 2.7V | 00:00:00 | 01:50:58 | 00:00:00 | |
| OE8JPQ-2 | 2026-09-02 12:56:41 | 45.83394 | 16.76126 | 144° | 13km/h | 31412m | 5.7m/s | -40.6°C | 2.2% | 0hPa | 2.7V | 00:00:00 | 00:00:00 | 00:00:00 | |
| PG1ADW-2 | 2026-09-02 12:56:39 | 45.83400 | 16.76120 | 145° | 13km/h | 31399m | 6.4m/s | -40.5°C | 2.1% | 0hPa | 2.7V | 00:00:00 | 01:50:55 | 00:00:00 | |
| 9A1FER-15 | 2026-09-02 12:56:37 | 45.83406 | 16.76115 | 158° | 13km/h | 31388m | 4.7m/s | -40.5°C | 2.1% | 0hPa | 2.6V | 00:00:00 | 01:50:53 | 00:00:00 | |
| 9A1FER-3 | 2026-09-02 12:56:36 | 45.83408 | 16.76114 | 166° | 13km/h | 31383m | 6.6m/s | -40.6°C | 2.2% | 0hPa | 2.6V | 00:00:00 | 01:50:52 | 00:00:00 | |
| 9A1FER-10 | 2026-09-02 12:56:35 | 45.83410 | 16.76114 | 188° | 13km/h | 31376m | 7.0m/s | -40.6°C | 2.2% | 0hPa | 2.6V | 00:00:00 | 01:50:51 | 00:00:00 | |
| OE5DRO-10 | 2026-09-02 12:56:30 | 45.83420 | 16.76121 | 192° | 13km/h | 31345m | 5.7m/s | -40.5°C | 2.1% | 0hPa | 2.6V | 00:00:00 | 00:00:00 | 00:00:00 | |
| PETON7-10 | 2026-09-02 12:56:27 | 45.83432 | 16.76121 | 164° | 13km/h | 31326m | 5.6m/s | -40.4°C | 2.1% | 0hPa | 2.7V | 00:00:00 | 00:00:00 | 00:00:00 | |
| OE5DXL-15 | 2026-09-02 12:56:25 | 45.83441 | 16.76116 | 157° | 11km/h | 31312m | 6.7m/s | -40.4°C | 2.1% | 0hPa | 2.6V | 00:00:00 | 00:00:00 | 00:00:00 | |
| 9A1FER-15 | 2026-09-02 12:56:22 | 45.83452 | 16.76108 | 157° | 13km/h | 31295m | 7.4m/s | -40.5°C | 2.0% | 0hPa | 2.6V | 00:00:00 | 01:50:38 | 00:00:00 | |
| OE8JPQ-2 | 2026-09-02 12:56:21 | 45.83454 | 16.76108 | 186° | 11km/h | 31288m | 6.6m/s | -40.5°C | 2.1% | 0hPa | 2.7V | 00:00:00 | 01:50:37 | 00:00:00 | |
| 9A1FER-10 | 2026-09-02 12:56:20 | 45.83454 | 16.76109 | 260° | 11km/h | 31282m | 5.9m/s | -40.6°C | 2.1% | 0hPa | 2.7V | 00:00:00 | 01:50:36 | 08:30:00 | |
| PG1ADW-2 | 2026-09-02 12:56:19 | 45.83455 | 16.76111 | 251° | 11km/h | 31275m | 7.3m/s | -40.7°C | 2.1% | 0hPa | 2.6V | 00:00:00 | 00:00:00 | 00:00:00 | |
| PETON7-10 | 2026-09-02 12:56:12 | 45.83471 | 16.76127 | 168° | 9km/h | 31230m | 7.5m/s | -41.0°C | 2.2% | 0hPa | 2.6V | 00:00:00 | 00:00:00 | 00:00:00 | |
| OE5DRO-10 | 2026-09-02 12:56:11 | 45.83475 | 16.76125 | 160° | 13km/h | 31223m | 6.2m/s | -41.0°C | 2.2% | 0hPa | 2.6V | 00:00:00 | 00:00:00 | 00:00:00 | |
| 9A1FER-15 | 2026-09-02 12:56:07 | 45.83488 | 16.76114 | 98° | 13km/h | 31199m | 6.6m/s | -41.0°C | 2.2% | 0hPa | 2.6V | 00:00:00 | 01:50:23 | 00:00:00 | |
| 9A1FER-3 | 2026-09-02 12:56:06 | 45.83487 | 16.76113 | 9° | 13km/h | 31193m | 6.0m/s | -41.1°C | 2.2% | 0hPa | 2.6V | 00:00:00 | 01:50:22 | 00:00:00 | |
| 9A1FER-10 | 2026-09-02 12:56:05 | 45.83487 | 16.76113 | 315° | 15km/h | 31186m | 7.1m/s | -41.1°C | 2.2% | 0hPa | 2.6V | 00:00:00 | 01:50:21 | 00:00:00 | |
| PG1ADW-2 | 2026-09-02 12:56:00 | 45.83492 | 16.76117 | 149° | 20km/h | 31150m | 5.1m/s | -40.9°C | 2.2% | 0hPa | 2.6V | 00:00:00 | 00:00:00 | 00:00:00 | |
| OE8JPQ-2 | 2026-09-02 12:55:59 | 45.83492 | 16.76117 | 149° | 20km/h | 31150m | 5.1m/s | -40.9°C | 2.2% | 0hPa | 2.6V | 00:00:00 | 00:00:00 | 00:00:00 | |
| PETON7-10 | 2026-09-02 12:55:57 | 45.83500 | 16.76111 | 155° | 18km/h | 31137m | 7.2m/s | -41.1°C | 2.2% | 0hPa | 2.6V | 00:00:00 | 01:50:13 | 00:00:00 | |
| OE5DXL-15 | 2026-09-02 12:55:55 | 45.83510 | 16.76103 | 146° | 18km/h | 31125m | 5.2m/s | -41.3°C | 2.2% | 0hPa | 2.6V | 00:00:00 | 00:00:00 | 00:00:00 | |
| 9A1FER-15 | 2026-09-02 12:55:52 | 45.83520 | 16.76084 | 108° | 20km/h | 31106m | 5.4m/s | -41.2°C | 2.1% | 0hPa | 2.6V | 00:00:00 | 01:50:08 | 00:00:00 | |
| 9A1FER-3 | 2026-09-02 12:55:51 | 45.83521 | 16.76078 | 105° | 20km/h | 31100m | 5.6m/s | -41.2°C | 2.2% | 0hPa | 2.6V | 00:00:00 | 01:50:07 | 00:00:00 | |
| 9A1FER-10 | 2026-09-02 12:55:50 | 45.83523 | 16.76072 | 114° | 20km/h | 31094m | 7.4m/s | -41.1°C | 2.2% | 0hPa | 2.6V | 00:00:00 | 01:50:06 | 00:00:00 | |
| PETON7-10 | 2026-09-02 12:55:42 | 45.83543 | 16.76036 | 127° | 20km/h | 31041m | 6.8m/s | -41.1°C | 2.2% | 0hPa | 2.6V | 00:00:00 | 00:00:00 | 08:30:00 | |
| PG1ADW-2 | 2026-09-02 12:55:39 | 45.83554 | 16.76009 | 107° | 20km/h | 31022m | 7.1m/s | -41.2°C | 2.2% | 0hPa | 2.7V | 00:00:00 | 00:00:00 | 00:00:00 | |
| 9A1FER-15 | 2026-09-02 12:55:37 | 45.83556 | 16.75991 | 97° | 18km/h | 31011m | 5.1m/s | -41.1°C | 2.1% | 0hPa | 2.7V | 00:00:00 | 01:49:53 | 08:30:00 | |
| 9A1FER-3 | 2026-09-02 12:55:36 | 45.83557 | 16.75984 | 101° | 18km/h | 31005m | 7.6m/s | -41.1°C | 2.1% | 0hPa | 2.6V | 00:00:00 | 01:49:52 | 00:00:00 | |
| 9A1FER-10 | 2026-09-02 12:55:35 | 45.83558 | 16.75979 | 113° | 18km/h | 30998m | 6.6m/s | -41.2°C | 2.1% | 0hPa | 2.6V | 00:00:00 | 01:49:51 | 00:00:00 | |
| OE5DRO-10 | 2026-09-02 12:55:33 | 45.83560 | 16.75972 | 128° | 20km/h | 30986m | 6.1m/s | -41.4°C | 2.2% | 0hPa | 2.7V | 00:00:00 | 00:00:00 | 08:30:00 | |
| PETON7-10 | 2026-09-02 12:55:27 | 45.83560 | 16.75942 | 102° | 24km/h | 30946m | 6.5m/s | -41.7°C | 2.3% | 0hPa | 2.7V | 00:00:00 | 00:00:00 | 00:00:00 | |
| OE5DXL-15 | 2026-09-02 12:55:25 | 45.83562 | 16.75922 | 98° | 24km/h | 30934m | 6.0m/s | -41.5°C | 2.3% | 0hPa | 2.7V | 00:00:00 | 00:00:00 | 00:00:00 | |
| 9A1FER-15 | 2026-09-02 12:55:22 | 45.83560 | 16.75893 | 68° | 24km/h | 30915m | 5.6m/s | -41.3°C | 2.2% | 0hPa | 2.7V | 00:00:00 | 01:49:38 | 00:00:00 | |
| 9A1FER-3 | 2026-09-02 12:55:21 | 45.83558 | 16.75886 | 62° | 24km/h | 30909m | 7.3m/s | -41.3°C | 2.2% | 0hPa | 2.7V | 00:00:00 | 01:49:37 | 08:30:00 | |
| 9A1FER-10 | 2026-09-02 12:55:20 | 45.83556 | 16.75880 | 58° | 22km/h | 30902m | 6.7m/s | -41.3°C | 2.2% | 0hPa | 2.7V | 00:00:00 | 01:49:36 | 00:00:00 | |
| OE8JPQ-2 | 2026-09-02 12:55:19 | 45.83553 | 16.75876 | 52° | 26km/h | 30895m | 5.9m/s | -41.4°C | 2.3% | 0hPa | 2.7V | 00:00:00 | 01:49:35 | 00:00:00 | |
| OE5DRO-10 | 2026-09-02 12:55:14 | 45.83534 | 16.75848 | 55° | 24km/h | 30863m | 6.4m/s | -41.7°C | 2.3% | 0hPa | 2.7V | 00:00:00 | 00:00:00 | 00:00:00 | |
| PETON7-10 | 2026-09-02 12:55:12 | 45.83528 | 16.75831 | 68° | 24km/h | 30850m | 5.6m/s | -41.4°C | 2.2% | 0hPa | 2.7V | 00:00:00 | 01:49:28 | 00:00:00 | |
| 9A1FER-15 | 2026-09-02 12:55:07 | 45.83511 | 16.75792 | 41° | 22km/h | 30819m | 6.7m/s | -41.2°C | 2.2% | 0hPa | 2.7V | 00:00:00 | 01:49:23 | 00:00:00 | |
| 9A1FER-3 | 2026-09-02 12:55:06 | 45.83508 | 16.75788 | 40° | 22km/h | 30812m | 6.9m/s | -41.2°C | 2.2% | 0hPa | 2.7V | 00:00:00 | 01:49:22 | 00:00:00 | |
| 9A1FER-10 | 2026-09-02 12:55:05 | 45.83505 | 16.75785 | 44° | 22km/h | 30806m | 6.3m/s | -41.3°C | 2.2% | 0hPa | 2.7V | 00:00:00 | 01:49:21 | 00:00:00 | |
| PG1ADW-2 | 2026-09-02 12:54:59 | 45.83480 | 16.75756 | 48° | 22km/h | 30767m | 7.4m/s | -41.2°C | 2.2% | 0hPa | 2.7V | 00:00:00 | 00:00:00 | 00:00:00 | |
| OE8JPQ-2 | 2026-09-02 12:54:58 | 45.83476 | 16.75748 | 54° | 24km/h | 30760m | 6.0m/s | -41.3°C | 2.2% | 0hPa | 2.7V | 00:00:00 | 00:00:00 | 00:00:00 | |
| PETON7-10 | 2026-09-02 12:54:57 | 45.83471 | 16.75739 | 55° | 20km/h | 30754m | 5.6m/s | -41.3°C | 2.2% | 0hPa | 2.6V | 00:00:00 | 00:00:00 | 00:00:00 | |
| OE5DRO-10 | 2026-09-02 12:54:55 | 45.83462 | 16.75724 | 45° | 18km/h | 30741m | 6.3m/s | -41.2°C | 2.1% | 0hPa | 2.6V | 00:00:00 | 00:00:00 | 00:00:00 | |
| 9A1FER-15 | 2026-09-02 12:54:52 | 45.83450 | 16.75708 | 45° | 16km/h | 30722m | 7.5m/s | -41.4°C | 2.2% | 0hPa | 2.6V | 00:00:00 | 01:49:08 | 00:00:00 | |
| 9A1FER-3 | 2026-09-02 12:54:51 | 45.83448 | 16.75705 | 55° | 16km/h | 30715m | 6.4m/s | -41.4°C | 2.2% | 0hPa | 2.7V | 00:00:00 | 01:49:07 | 00:00:00 | |
| 9A1FER-10 | 2026-09-02 12:54:50 | 45.83447 | 16.75703 | 53° | 16km/h | 30710m | 5.2m/s | -41.3°C | 2.2% | 0hPa | 2.7V | 00:00:00 | 01:49:06 | 00:00:00 | |
| PETON7-10 | 2026-09-02 12:54:42 | 45.83414 | 16.75668 | 32° | 20km/h | 30657m | 7.2m/s | -41.8°C | 2.2% | 0hPa | 2.6V | 00:00:00 | 00:00:00 | 00:00:00 | |
| PG1ADW-2 | 2026-09-02 12:54:39 | 45.83402 | 16.75661 | 16° | 20km/h | 30638m | 7.4m/s | -41.9°C | 2.2% | 0hPa | 2.6V | 00:00:00 | 00:00:00 | 08:30:00 | |
| 9A1FER-15 | 2026-09-02 12:54:37 | 45.83398 | 16.75659 | 23° | 22km/h | 30625m | 5.2m/s | -41.8°C | 2.2% | 0hPa | 2.7V | 00:00:00 | 01:48:53 | 00:00:00 | |
| OE8JPQ-2 | 2026-09-02 12:54:36 | 45.83397 | 16.75658 | 16° | 24km/h | 30620m | 5.8m/s | -41.8°C | 2.2% | 0hPa | 2.7V | 00:00:00 | 00:00:00 | 00:00:00 | |
| 9A1FER-10 | 2026-09-02 12:54:35 | 45.83395 | 16.75658 | 10° | 24km/h | 30613m | 7.0m/s | -41.9°C | 2.2% | 0hPa | 2.7V | 00:00:00 | 01:48:51 | 00:00:00 | |
| PETON7-10 | 2026-09-02 12:54:27 | 45.83340 | 16.75635 | 4° | 24km/h | 30560m | 5.6m/s | -42.2°C | 2.3% | 0hPa | 2.7V | 00:00:00 | 01:48:43 | 00:00:00 | |
| OE5DXL-15 | 2026-09-02 12:54:25 | 45.83327 | 16.75635 | 353° | 27km/h | 30547m | 7.6m/s | -42.2°C | 2.3% | 0hPa | 2.7V | 00:00:00 | 00:00:00 | 00:00:00 | |
| 9A1FER-15 | 2026-09-02 12:54:22 | 45.83315 | 16.75640 | 339° | 27km/h | 30528m | 6.0m/s | -42.3°C | 2.3% | 0hPa | 2.7V | 00:00:00 | 01:48:38 | 00:00:00 | |
| 9A1FER-3 | 2026-09-02 12:54:21 | 45.83312 | 16.75642 | 344° | 27km/h | 30521m | 6.9m/s | -42.4°C | 2.4% | 0hPa | 2.7V | 00:00:00 | 01:48:37 | 00:00:00 | |
| 9A1FER-10 | 2026-09-02 12:54:20 | 45.83307 | 16.75643 | 351° | 27km/h | 30515m | 5.9m/s | -42.4°C | 2.4% | 0hPa | 2.7V | 00:00:00 | 01:48:36 | 00:00:00 | |
| PG1ADW-2 | 2026-09-02 12:54:19 | 45.83301 | 16.75644 | 359° | 27km/h | 30510m | 5.4m/s | -42.4°C | 2.4% | 0hPa | 2.7V | 00:00:00 | 00:00:00 | 00:00:00 | |
| OE5DRO-10 | 2026-09-02 12:54:17 | 45.83288 | 16.75642 | 16° | 29km/h | 30497m | 6.8m/s | -42.4°C | 2.4% | 0hPa | 2.7V | 00:00:00 | 00:00:00 | 00:00:00 | |
| PETON7-10 | 2026-09-02 12:54:12 | 45.83251 | 16.75629 | 8° | 29km/h | 30465m | 5.9m/s | -42.4°C | 2.3% | 0hPa | 2.7V | 00:00:00 | 00:00:00 | 00:00:00 | |
| 9A1FER-15 | 2026-09-02 12:54:07 | 45.83215 | 16.75619 | 4° | 29km/h | 30432m | 6.8m/s | -42.1°C | 2.4% | 0hPa | 2.6V | 00:00:00 | 01:48:23 | 00:00:00 | |
| 9A1FER-3 | 2026-09-02 12:54:06 | 45.83208 | 16.75618 | 2° | 29km/h | 30426m | 6.1m/s | -42.2°C | 2.4% | 0hPa | 2.7V | 00:00:00 | 01:48:22 | 00:00:00 | |
| 9A1FER-10 | 2026-09-02 12:54:05 | 45.83202 | 16.75618 | 3° | 29km/h | 30419m | 6.9m/s | -42.1°C | 2.4% | 0hPa | 2.7V | 00:00:00 | 01:48:21 | 08:30:00 | |
| PG1ADW-2 | 2026-09-02 12:53:59 | 45.83160 | 16.75619 | 351° | 31km/h | 30380m | 5.4m/s | -41.8°C | 2.3% | 0hPa | 2.7V | 00:00:00 | 01:48:15 | 00:00:00 | |
| PETON7-10 | 2026-09-02 12:53:57 | 45.83143 | 16.75623 | 355° | 31km/h | 30368m | 6.9m/s | -41.6°C | 2.3% | 0hPa | 2.7V | 00:00:00 | 00:00:00 | 00:00:00 | |
| OE5DXL-15 | 2026-09-02 12:53:55 | 45.83128 | 16.75624 | 357° | 29km/h | 30356m | 5.0m/s | -41.7°C | 2.3% | 0hPa | 2.7V | 00:00:00 | 00:00:00 | 08:30:00 | |
| 9A1FER-15 | 2026-09-02 12:53:52 | 45.83106 | 16.75629 | 348° | 31km/h | 30336m | 6.2m/s | -41.6°C | 2.3% | 0hPa | 2.7V | 00:00:00 | 01:48:08 | 00:00:00 | |
| 9A1FER-3 | 2026-09-02 12:53:51 | 45.83097 | 16.75631 | 350° | 31km/h | 30330m | 5.7m/s | -41.6°C | 2.3% | 0hPa | 2.7V | 00:00:00 | 01:48:07 | 00:00:00 | |
| 9A1FER-10 | 2026-09-02 12:53:50 | 45.83088 | 16.75633 | 354° | 31km/h | 30325m | 6.4m/s | -41.7°C | 2.3% | 0hPa | 2.6V | 00:00:00 | 01:48:06 | 00:00:00 | |
| PETON7-10 | 2026-09-02 12:53:42 | 45.83026 | 16.75639 | 353° | 26km/h | 30273m | 6.9m/s | -41.7°C | 2.3% | 0hPa | 2.6V | 00:00:00 | 01:47:58 | 00:00:00 | |
| OE5DRO-10 | 2026-09-02 12:53:39 | 45.83005 | 16.75644 | 346° | 24km/h | 30254m | 7.7m/s | -41.5°C | 2.3% | 0hPa | 2.6V | 00:00:00 | 00:00:00 | 00:00:00 | |
| OE8JPQ-2 | 2026-09-02 12:53:38 | 45.82997 | 16.75647 | 342° | 18km/h | 30247m | 6.5m/s | -41.5°C | 2.3% | 0hPa | 2.6V | 00:00:00 | 01:47:54 | 00:00:00 | |
| 9A1FER-15 | 2026-09-02 12:53:37 | 45.82989 | 16.75651 | 342° | 24km/h | 30241m | 4.9m/s | -41.5°C | 2.3% | 0hPa | 2.6V | 00:00:00 | 01:47:53 | 00:00:00 | |
| 9A1FER-3 | 2026-09-02 12:53:36 | 45.82981 | 16.75655 | 345° | 22km/h | 30236m | 5.9m/s | -41.6°C | 2.3% | 0hPa | 2.6V | 00:00:00 | 01:47:52 | 00:00:00 | |
| 9A1FER-10 | 2026-09-02 12:53:35 | 45.82974 | 16.75657 | 352° | 22km/h | 30229m | 7.3m/s | -41.5°C | 2.3% | 0hPa | 2.6V | 00:00:00 | 01:47:51 | 00:00:00 | |
| PETON7-10 | 2026-09-02 12:53:27 | 45.82930 | 16.75656 | 347° | 15km/h | 30179m | 6.3m/s | -41.5°C | 2.3% | 0hPa | 2.6V | 00:00:00 | 00:00:00 | 08:30:00 | |
| OE5DXL-15 | 2026-09-02 12:53:25 | 45.82920 | 16.75660 | 341° | 11km/h | 30167m | 5.3m/s | -41.2°C | 2.2% | 0hPa | 2.6V | 00:00:00 | 00:00:00 | 00:00:00 | |
| 9A1FER-15 | 2026-09-02 12:53:22 | 45.82906 | 16.75672 | 321° | 11km/h | 30148m | 5.5m/s | -41.2°C | 2.2% | 0hPa | 2.6V | 00:00:00 | 01:47:38 | 08:30:00 | |
| 9A1FER-3 | 2026-09-02 12:53:21 | 45.82902 | 16.75676 | 319° | 9km/h | 30142m | 6.1m/s | -41.3°C | 2.3% | 0hPa | 2.6V | 00:00:00 | 01:47:37 | 00:00:00 | |
| 9A1FER-10 | 2026-09-02 12:53:20 | 45.82900 | 16.75679 | 320° | 9km/h | 30136m | 7.3m/s | -41.2°C | 2.3% | 0hPa | 2.6V | 00:00:00 | 01:47:36 | 00:00:00 | |
| PG1ADW-2 | 2026-09-02 12:53:19 | 45.82898 | 16.75681 | 330° | 9km/h | 30129m | 5.3m/s | -41.1°C | 2.2% | 0hPa | 2.6V | 00:00:00 | 00:00:00 | 00:00:00 | |
| OE8JPQ-2 | 2026-09-02 12:53:17 | 45.82897 | 16.75682 | 318° | 9km/h | 30118m | 7.2m/s | -41.1°C | 2.3% | 0hPa | 2.6V | 00:00:00 | 00:00:00 | 08:30:00 | |
| PETON7-10 | 2026-09-02 12:53:12 | 45.82891 | 16.75695 | 297° | 9km/h | 30085m | 6.5m/s | -41.0°C | 2.2% | 0hPa | 2.7V | 00:00:00 | 00:00:00 | 00:00:00 | |
| 9A1FER-15 | 2026-09-02 12:53:07 | 45.82886 | 16.75715 | 283° | 9km/h | 30054m | 4.7m/s | -40.8°C | 2.2% | 0hPa | 2.7V | 00:00:00 | 01:47:23 | 00:00:00 | |
| 9A1FER-3 | 2026-09-02 12:53:06 | 45.82885 | 16.75719 | 263° | 9km/h | 30048m | 7.0m/s | -40.8°C | 2.2% | 0hPa | 2.7V | 00:00:00 | 01:47:22 | 08:30:00 | |
| OE5DRO-10 | 2026-09-02 12:53:01 | 45.82894 | 16.75725 | 226° | 11km/h | 30018m | 6.4m/s | -40.9°C | 2.2% | 0hPa | 2.7V | 00:00:00 | 00:00:00 | 00:00:00 | |
| PG1ADW-2 | 2026-09-02 12:52:59 | 45.82895 | 16.75730 | 265° | 13km/h | 30007m | 4.7m/s | -40.8°C | 2.2% | 0hPa | 2.7V | 00:00:00 | 00:00:00 | 00:00:00 | |
| PETON7-10 | 2026-09-02 12:52:57 | 45.82897 | 16.75735 | 227° | 13km/h | 29994m | 6.6m/s | -40.9°C | 2.2% | 0hPa | 2.7V | 00:00:00 | 01:47:13 | 00:00:00 | |
| OE5DXL-15 | 2026-09-02 12:52:55 | 45.82901 | 16.75739 | 214° | 15km/h | 29983m | 5.4m/s | -41.0°C | 2.2% | 0hPa | 2.7V | 00:00:00 | 00:00:00 | 00:00:00 | |
| OE8JPQ-2 | 2026-09-02 12:52:54 | 45.82903 | 16.75741 | 220° | 11km/h | 29976m | 7.1m/s | -41.1°C | 2.3% | 0hPa | 2.7V | 00:00:00 | 00:00:00 | 00:00:00 | |
| 9A1FER-15 | 2026-09-02 12:52:52 | 45.82906 | 16.75745 | 215° | 15km/h | 29964m | 5.1m/s | -41.0°C | 2.2% | 0hPa | 2.7V | 00:00:00 | 01:47:08 | 00:00:00 | |
| 9A1FER-3 | 2026-09-02 12:52:51 | 45.82908 | 16.75747 | 206° | 15km/h | 29958m | 7.2m/s | -41.1°C | 2.3% | 0hPa | 2.7V | 00:00:00 | 01:47:07 | 00:00:00 | |
| 9A1FER-10 | 2026-09-02 12:52:50 | 45.82912 | 16.75749 | 197° | 16km/h | 29951m | 6.4m/s | -41.1°C | 2.3% | 0hPa | 2.7V | 00:00:00 | 01:47:06 | 00:00:00 | |
| OE5DRO-10 | 2026-09-02 12:52:42 | 45.82943 | 16.75756 | 183° | 15km/h | 29902m | 5.7m/s | -40.8°C | 2.1% | 0hPa | 2.7V | 00:00:00 | 00:00:00 | 08:30:00 | |
| PG1ADW-2 | 2026-09-02 12:52:39 | 45.82955 | 16.75757 | 184° | 15km/h | 29883m | 5.0m/s | -40.7°C | 2.2% | 0hPa | 2.6V | 00:00:00 | 01:46:55 | 00:00:00 | |
| 9A1FER-15 | 2026-09-02 12:52:37 | 45.82963 | 16.75758 | 188° | 15km/h | 29871m | 6.7m/s | -40.7°C | 2.2% | 0hPa | 2.7V | 00:00:00 | 01:46:53 | 00:00:00 | |
| 9A1FER-3 | 2026-09-02 12:52:36 | 45.82967 | 16.75759 | 190° | 15km/h | 29865m | 5.7m/s | -40.7°C | 2.2% | 0hPa | 2.6V | 00:00:00 | 01:46:52 | 00:00:00 | |
| 9A1FER-10 | 2026-09-02 12:52:35 | 45.82972 | 16.75760 | 191° | 15km/h | 29859m | 5.6m/s | -40.8°C | 2.2% | 0hPa | 2.6V | 00:00:00 | 01:46:51 | 00:00:00 | |
| PETON7-10 | 2026-09-02 12:52:27 | 45.83000 | 16.75760 | 170° | 15km/h | 29812m | 7.3m/s | -40.9°C | 2.2% | 0hPa | 2.6V | 00:00:00 | 00:00:00 | 00:00:00 | |
| OE5DXL-15 | 2026-09-02 12:52:25 | 45.83005 | 16.75757 | 146° | 18km/h | 29799m | 5.5m/s | -40.9°C | 2.1% | 0hPa | 2.6V | 00:00:00 | 00:00:00 | 00:00:00 | |
| OE5DRO-10 | 2026-09-02 12:52:23 | 45.83010 | 16.75752 | 143° | 16km/h | 29786m | 6.1m/s | -40.8°C | 2.1% | 0hPa | 2.7V | 00:00:00 | 00:00:00 | 00:00:00 | |
| 9A1FER-3 | 2026-09-02 12:52:22 | 45.83016 | 16.75744 | 132° | 16km/h | 29773m | 7.1m/s | -40.7°C | 2.2% | 0hPa | 2.7V | 00:00:00 | 01:46:37 | 00:00:00 | |
| 9A1FER-10 | 2026-09-02 12:52:20 | 45.83018 | 16.75740 | 131° | 16km/h | 29767m | 5.0m/s | -40.7°C | 2.1% | 0hPa | 2.7V | 00:00:00 | 01:46:36 | 00:00:00 | |
| PG1ADW-2 | 2026-09-02 12:52:19 | 45.83021 | 16.75737 | 141° | 20km/h | 29763m | 5.0m/s | -40.8°C | 2.2% | 0hPa | 2.7V | 00:00:00 | 00:00:00 | 00:00:00 | |
| PETON7-10 | 2026-09-02 12:52:12 | 45.83045 | 16.75720 | 123° | 22km/h | 29720m | 5.3m/s | -40.9°C | 2.2% | 0hPa | 2.7V | 00:00:00 | 01:46:28 | 00:00:00 | |
| 9A1FER-15 | 2026-09-02 12:52:07 | 45.83057 | 16.75690 | 116° | 22km/h | 29689m | 6.5m/s | -41.2°C | 2.1% | 0hPa | 2.7V | 00:00:00 | 01:46:23 | 00:00:00 | |
| 9A1FER-3 | 2026-09-02 12:52:06 | 45.83060 | 16.75684 | 121° | 22km/h | 29683m | 5.2m/s | -41.2°C | 2.2% | 0hPa | 2.7V | 00:00:00 | 01:46:22 | 00:00:00 | |
| 9A1FER-10 | 2026-09-02 12:52:05 | 45.83063 | 16.75677 | 128° | 22km/h | 29678m | 6.1m/s | -41.3°C | 2.2% | 0hPa | 2.7V | 00:00:00 | 01:46:21 | 00:00:00 | |
| OE5DRO-10 | 2026-09-02 12:52:04 | 45.83067 | 16.75669 | 132° | 22km/h | 29671m | 6.8m/s | -41.3°C | 2.2% | 0hPa | 2.7V | 00:00:00 | 00:00:00 | 00:00:00 | |
| PG1ADW-2 | 2026-09-02 12:51:59 | 45.83085 | 16.75633 | 100° | 20km/h | 29643m | 5.1m/s | -41.4°C | 2.3% | 0hPa | 2.7V | 00:00:00 | 00:00:00 | 00:00:00 | |
| PETON7-10 | 2026-09-02 12:51:57 | 45.83086 | 16.75618 | 95° | 20km/h | 29631m | 6.1m/s | -41.4°C | 2.2% | 0hPa | 2.7V | 00:00:00 | 00:00:00 | 00:00:00 | |
| OE5DXL-15 | 2026-09-02 12:51:55 | 45.83087 | 16.75603 | 92° | 22km/h | 29620m | 5.5m/s | -41.5°C | 2.2% | 0hPa | 2.7V | 00:00:00 | 00:00:00 | 00:00:00 | |
| 9A1FER-15 | 2026-09-02 12:51:52 | 45.83085 | 16.75586 | 76° | 20km/h | 29601m | 4.6m/s | -41.3°C | 2.2% | 0hPa | 2.7V | 00:00:00 | 01:46:08 | 00:00:00 | |
| 9A1FER-3 | 2026-09-02 12:51:51 | 45.83084 | 16.75581 | 88° | 22km/h | 29596m | 5.1m/s | -41.4°C | 2.2% | 0hPa | 2.7V | 00:00:00 | 01:46:07 | 00:00:00 | |
| 9A1FER-10 | 2026-09-02 12:51:50 | 45.83084 | 16.75575 | 103° | 22km/h | 29590m | 7.0m/s | -41.4°C | 2.2% | 0hPa | 2.7V | 00:00:00 | 01:46:06 | 08:30:00 | |
| OE5DRO-10 | 2026-09-02 12:51:45 | 45.83094 | 16.75532 | 95° | 22km/h | 29560m | 5.3m/s | -41.7°C | 2.2% | 0hPa | 2.7V | 00:00:00 | 00:00:00 | 00:00:00 | |
| PETON7-10 | 2026-09-02 12:51:42 | 45.83096 | 16.75508 | 109° | 22km/h | 29542m | 6.1m/s | -41.6°C | 2.2% | 0hPa | 2.7V | 00:00:00 | 00:00:00 | 00:00:00 | |
| PG1ADW-2 | 2026-09-02 12:51:40 | 45.83101 | 16.75489 | 110° | 20km/h | 29524m | 5.7m/s | -41.9°C | 2.2% | 0hPa | 2.7V | 00:00:00 | 00:00:00 | 08:30:00 | |
| LZ4TU-5 | 2026-09-02 12:51:39 | 45.83101 | 16.75489 | 111° | 16km/h | 29524m | 5.8m/s | 0°C | 0% | 0hPa | 2.7V | 00:00:00 | 00:00:00 | 00:00:00 | |
| 9A1FER-15 | 2026-09-02 12:51:37 | 45.83105 | 16.75477 | 124° | 22km/h | 29513m | 7.1m/s | -42.2°C | 2.3% | 0hPa | 2.7V | 00:00:00 | 01:45:53 | 00:00:00 | |
| 9A1FER-3 | 2026-09-02 12:51:36 | 45.83108 | 16.75471 | 128° | 20km/h | 29506m | 6.4m/s | -42.3°C | 2.4% | 0hPa | 2.7V | 00:00:00 | 01:45:52 | 00:00:00 | |
| 9A1FER-10 | 2026-09-02 12:51:35 | 45.83112 | 16.75463 | 128° | 20km/h | 29499m | 5.5m/s | -42.4°C | 2.4% | 0hPa | 2.7V | 00:00:00 | 01:45:51 | 00:00:00 | |
| LZ4TU-5 | 2026-09-02 12:51:33 | 45.83117 | 16.75456 | 125° | 26km/h | 29493m | 6.8m/s | 0°C | 0% | 0hPa | 2.7V | 00:00:00 | 00:00:00 | 00:00:00 | |
| PETON7-10 | 2026-09-02 12:51:27 | 45.83138 | 16.75403 | 110° | 16km/h | 29453m | 6.7m/s | -42.4°C | 2.3% | 0hPa | 2.7V | 00:00:00 | 01:45:43 | 00:00:00 | |
| OE5DRO-10 | 2026-09-02 12:51:25 | 45.83139 | 16.75393 | 105° | 18km/h | 29441m | 5.8m/s | -42.4°C | 2.3% | 0hPa | 2.7V | 00:00:00 | 00:00:00 | 00:00:00 | |
| 9A1FER-15 | 2026-09-02 12:51:22 | 45.83143 | 16.75379 | 112° | 20km/h | 29423m | 4.9m/s | -42.3°C | 2.3% | 0hPa | 2.7V | 00:00:00 | 01:45:38 | 00:00:00 | |
| 9A1FER-3 | 2026-09-02 12:51:21 | 45.83145 | 16.75373 | 103° | 20km/h | 29417m | 7.0m/s | -42.3°C | 2.3% | 0hPa | 2.7V | 00:00:00 | 01:45:37 | 00:00:00 | |
| PG1ADW-2 | 2026-09-02 12:51:20 | 45.83145 | 16.75362 | 90° | 18km/h | 29405m | 5.3m/s | -42.4°C | 2.4% | 0hPa | 2.7V | 00:00:00 | 01:45:35 | 00:00:00 | |
| PETON7-10 | 2026-09-02 12:51:12 | 45.83159 | 16.75316 | 112° | 18km/h | 29364m | 5.9m/s | -42.1°C | 2.4% | 0hPa | 2.7V | 00:00:00 | 00:00:00 | 08:30:00 | |
| 9A1FER-15 | 2026-09-02 12:51:07 | 45.83169 | 16.75283 | 103° | 15km/h | 29335m | 6.5m/s | -42.3°C | 2.3% | 0hPa | 2.6V | 00:00:00 | 01:45:23 | 08:30:00 | |
| OE5DRO-10 | 2026-09-02 12:51:06 | 45.83170 | 16.75278 | 92° | 13km/h | 29329m | 5.5m/s | -42.2°C | 2.3% | 0hPa | 2.6V | 00:00:00 | 00:00:00 | 00:00:00 | |
| PG1ADW-2 | 2026-09-02 12:50:59 | 45.83188 | 16.75247 | 140° | 11km/h | 29289m | 6.1m/s | -42.0°C | 2.3% | 0hPa | 2.6V | 00:00:00 | 00:00:00 | 00:00:00 | |
| PETON7-10 | 2026-09-02 12:50:57 | 45.83193 | 16.75240 | 132° | 9km/h | 29278m | 5.9m/s | -42.2°C | 2.4% | 0hPa | 2.6V | 00:00:00 | 00:00:00 | 00:00:00 | |
| OE5DXL-15 | 2026-09-02 12:50:55 | 45.83196 | 16.75232 | 117° | 9km/h | 29266m | 4.9m/s | -42.2°C | 2.4% | 0hPa | 2.6V | 00:00:00 | 00:00:00 | 00:00:00 | |
| 9A1FER-15 | 2026-09-02 12:50:52 | 45.83195 | 16.75223 | 50° | 9km/h | 29248m | 4.6m/s | -42.2°C | 2.3% | 0hPa | 2.6V | 00:00:00 | 01:45:08 | 00:00:00 | |
| 9A1FER-3 | 2026-09-02 12:50:51 | 45.83194 | 16.75220 | 56° | 9km/h | 29243m | 4.4m/s | -42.2°C | 2.3% | 0hPa | 2.6V | 00:00:00 | 01:45:07 | 08:30:00 | |
| OE5DRO-10 | 2026-09-02 12:50:48 | 45.83199 | 16.75213 | 170° | 9km/h | 29221m | 6.1m/s | -42.2°C | 2.3% | 0hPa | 2.7V | 00:00:00 | 00:00:00 | 00:00:00 | |
| PETON7-10 | 2026-09-02 12:50:42 | 45.83210 | 16.75210 | 149° | 9km/h | 29190m | 6.9m/s | -42.1°C | 2.3% | 0hPa | 2.7V | 00:00:00 | 01:44:58 | 00:00:00 | |
| PG1ADW-2 | 2026-09-02 12:50:39 | 45.83216 | 16.75200 | 99° | 11km/h | 29174m | 7.0m/s | -42.1°C | 2.3% | 0hPa | 2.7V | 00:00:00 | 00:00:00 | 00:00:00 | |
| 9A1FER-15 | 2026-09-02 12:50:37 | 45.83214 | 16.75193 | 58° | 11km/h | 29161m | 6.0m/s | -42.0°C | 2.3% | 0hPa | 2.7V | 00:00:00 | 01:44:53 | 00:00:00 | |
| 9A1FER-3 | 2026-09-02 12:50:36 | 45.83213 | 16.75190 | 63° | 11km/h | 29155m | 6.7m/s | -42.0°C | 2.3% | 0hPa | 2.7V | 00:00:00 | 01:44:52 | 00:00:00 | |
| OE5DRO-10 | 2026-09-02 12:50:28 | 45.83215 | 16.75172 | 135° | 16km/h | 29107m | 5.2m/s | -42.4°C | 2.3% | 0hPa | 2.7V | 00:00:00 | 00:00:00 | 00:00:00 | |
| 9A1FER-10 | 2026-09-02 12:50:27 | 45.83217 | 16.75168 | 123° | 16km/h | 29101m | 5.4m/s | -42.4°C | 2.3% | 0hPa | 2.7V | 00:00:00 | 01:44:43 | 00:00:00 | |
| OE5DXL-15 | 2026-09-02 12:50:25 | 45.83219 | 16.75160 | 81° | 13km/h | 29089m | 5.4m/s | -42.2°C | 2.3% | 0hPa | 2.7V | 00:00:00 | 00:00:00 | 00:00:00 | |
| 9A1FER-15 | 2026-09-02 12:50:22 | 45.83214 | 16.75143 | 75° | 16km/h | 29072m | 6.9m/s | -42.4°C | 2.3% | 0hPa | 2.7V | 00:00:00 | 01:44:38 | 00:00:00 | |
| 9A1FER-3 | 2026-09-02 12:50:21 | 45.83214 | 16.75136 | 84° | 15km/h | 29066m | 5.5m/s | -42.4°C | 2.3% | 0hPa | 2.7V | 00:00:00 | 01:44:37 | 00:00:00 | |
| PG1ADW-2 | 2026-09-02 12:50:19 | 45.83212 | 16.75122 | 82° | 13km/h | 29055m | 5.8m/s | -42.3°C | 2.3% | 0hPa | 2.7V | 00:00:00 | 00:00:00 | 00:00:00 | |
| 9A1FER-10 | 2026-09-02 12:50:12 | 45.83199 | 16.75086 | 54° | 11km/h | 29013m | 7.0m/s | -42.6°C | 2.3% | 0hPa | 2.7V | 00:00:00 | 01:44:28 | 00:00:00 | |
| OE5DRO-10 | 2026-09-02 12:50:09 | 45.83195 | 16.75075 | 85° | 9km/h | 28994m | 7.0m/s | -42.8°C | 2.4% | 0hPa | 2.7V | 00:00:00 | 00:00:00 | 00:00:00 | |
| 9A1FER-15 | 2026-09-02 12:50:07 | 45.83195 | 16.75068 | 103° | 9km/h | 28983m | 5.6m/s | -42.7°C | 2.4% | 0hPa | 2.7V | 00:00:00 | 01:44:23 | 00:00:00 | |
| 9A1FER-3 | 2026-09-02 12:50:06 | 45.83195 | 16.75066 | 91° | 9km/h | 28976m | 6.6m/s | -42.8°C | 2.4% | 0hPa | 2.7V | 00:00:00 | 01:44:22 | 00:00:00 | |
| PG1ADW-2 | 2026-09-02 12:49:59 | 45.83195 | 16.75041 | 64° | 11km/h | 28934m | 5.6m/s | -43.1°C | 2.3% | 0hPa | 2.7V | 00:00:00 | 01:44:15 | 00:00:00 | |
| 9A1FER-10 | 2026-09-02 12:49:57 | 45.83192 | 16.75033 | 67° | 11km/h | 28923m | 6.8m/s | -43.2°C | 2.3% | 0hPa | 2.7V | 00:00:00 | 01:44:13 | 00:00:00 | |
| OE5DXL-15 | 2026-09-02 12:49:55 | 45.83191 | 16.75024 | 90° | 11km/h | 28911m | 4.8m/s | -43.2°C | 2.4% | 0hPa | 2.7V | 00:00:00 | 00:00:00 | 00:00:00 | |
| OE8JPQ-2 | 2026-09-02 12:49:53 | 45.83192 | 16.75019 | 112° | 9km/h | 28899m | 6.8m/s | -43.1°C | 2.3% | 0hPa | 2.7V | 00:00:00 | 01:44:09 | 00:00:00 | |
| 9A1FER-15 | 2026-09-02 12:49:52 | 45.83192 | 16.75019 | 198° | 11km/h | 28893m | 5.4m/s | -43.2°C | 2.4% | 0hPa | 2.7V | 00:00:00 | 01:44:08 | 00:00:00 | |
| 9A1FER-3 | 2026-09-02 12:49:51 | 45.83193 | 16.75020 | 190° | 11km/h | 28887m | 5.8m/s | -43.2°C | 2.4% | 0hPa | 2.7V | 00:00:00 | 01:44:07 | 00:00:00 | |
| OE5DRO-10 | 2026-09-02 12:49:50 | 45.83196 | 16.75020 | 178° | 11km/h | 28881m | 7.4m/s | -43.3°C | 2.4% | 0hPa | 2.7V | 00:00:00 | 00:00:00 | 08:30:00 | |
| 9A1FER-10 | 2026-09-02 12:49:42 | 45.83217 | 16.75001 | 97° | 9km/h | 28833m | 5.3m/s | -43.5°C | 2.3% | 0hPa | 2.6V | 00:00:00 | 01:43:58 | 00:00:00 | |
| PG1ADW-2 | 2026-09-02 12:49:39 | 45.83216 | 16.74992 | 38° | 13km/h | 28815m | 6.1m/s | -43.8°C | 2.4% | 0hPa | 2.6V | 00:00:00 | 00:00:00 | 00:00:00 | |
| 9A1FER-15 | 2026-09-02 12:49:37 | 45.83214 | 16.74990 | 60° | 13km/h | 28803m | 6.8m/s | -43.9°C | 2.4% | 0hPa | 2.6V | 00:00:00 | 01:43:53 | 00:00:00 | |
| 9A1FER-3 | 2026-09-02 12:49:36 | 45.83214 | 16.74988 | 72° | 13km/h | 28797m | 5.2m/s | -43.9°C | 2.4% | 0hPa | 2.6V | 00:00:00 | 01:43:52 | 00:00:00 | |
| OE5DRO-10 | 2026-09-02 12:49:31 | 45.83207 | 16.74976 | 58° | 15km/h | 28767m | 7.2m/s | -44.1°C | 2.5% | 0hPa | 2.6V | 00:00:00 | 00:00:00 | 00:00:00 | |
| 9A1FER-10 | 2026-09-02 12:49:27 | 45.83200 | 16.74955 | 49° | 15km/h | 28744m | 6.6m/s | -44.4°C | 2.5% | 0hPa | 2.6V | 00:00:00 | 01:43:43 | 00:00:00 | |
| OE8JPQ-2 | 2026-09-02 12:49:25 | 45.83193 | 16.74947 | 38° | 15km/h | 28733m | 4.6m/s | -44.4°C | 2.5% | 0hPa | 2.6V | 00:00:00 | 00:00:00 | 00:00:00 | |
| 9A1FER-15 | 2026-09-02 12:49:22 | 45.83187 | 16.74933 | 82° | 13km/h | 28715m | 5.7m/s | -44.8°C | 2.6% | 0hPa | 2.6V | 00:00:00 | 01:43:38 | 00:00:00 | |
| 9A1FER-3 | 2026-09-02 12:49:21 | 45.83187 | 16.74928 | 94° | 13km/h | 28709m | 5.6m/s | -44.7°C | 2.6% | 0hPa | 2.6V | 00:00:00 | 01:43:37 | 00:00:00 | |
| PG1ADW-2 | 2026-09-02 12:49:19 | 45.83188 | 16.74918 | 105° | 15km/h | 28697m | 5.4m/s | -44.8°C | 2.6% | 0hPa | 2.6V | 00:00:00 | 00:00:00 | 00:00:00 | |
| 9A1FER-10 | 2026-09-02 12:49:12 | 45.83197 | 16.74889 | 115° | 16km/h | 28655m | 5.3m/s | -44.8°C | 2.6% | 0hPa | 2.6V | 00:00:00 | 01:43:28 | 08:30:00 | |
| 9A1FER-15 | 2026-09-02 12:49:07 | 45.83204 | 16.74868 | 97° | 18km/h | 28625m | 6.0m/s | -44.7°C | 2.6% | 0hPa | 2.7V | 00:00:00 | 01:43:23 | 00:00:00 | |
| 9A1FER-3 | 2026-09-02 12:49:06 | 45.83204 | 16.74862 | 81° | 18km/h | 28619m | 5.7m/s | -44.7°C | 2.6% | 0hPa | 2.7V | 00:00:00 | 01:43:22 | 00:00:00 | |
| OE8JPQ-2 | 2026-09-02 12:49:04 | 45.83202 | 16.74849 | 80° | 20km/h | 28607m | 6.2m/s | -44.7°C | 2.5% | 0hPa | 2.7V | 00:00:00 | 00:00:00 | 00:00:00 | |
| PG1ADW-2 | 2026-09-02 12:48:59 | 45.83198 | 16.74814 | 88° | 22km/h | 28577m | 5.2m/s | -44.9°C | 2.5% | 0hPa | 2.7V | 00:00:00 | 00:00:00 | 00:00:00 | |
| PETON7-10 | 2026-09-02 12:48:57 | 45.83199 | 16.74804 | 107° | 22km/h | 28564m | 5.6m/s | -45.0°C | 2.6% | 0hPa | 2.7V | 00:00:00 | 00:00:00 | 08:30:00 | |
| OE5DXL-15 | 2026-09-02 12:48:55 | 45.83201 | 16.74794 | 101° | 26km/h | 28552m | 6.3m/s | -45.0°C | 2.6% | 0hPa | 2.6V | 00:00:00 | 00:00:00 | 00:00:00 | |
| OE5DRO-10 | 2026-09-02 12:48:53 | 45.83201 | 16.74782 | 95° | 26km/h | 28540m | 6.6m/s | -45.0°C | 2.6% | 0hPa | 2.6V | 00:00:00 | 00:00:00 | 00:00:00 | |
| 9A1FER-15 | 2026-09-02 12:48:52 | 45.83202 | 16.74773 | 94° | 26km/h | 28534m | 6.6m/s | -44.9°C | 2.6% | 0hPa | 2.7V | 00:00:00 | 01:43:08 | 08:30:00 | |
| 9A1FER-3 | 2026-09-02 12:48:51 | 45.83202 | 16.74763 | 89° | 26km/h | 28528m | 5.1m/s | -44.9°C | 2.6% | 0hPa | 2.6V | 00:00:00 | 01:43:07 | 00:00:00 | |
| 9A1FER-10 | 2026-09-02 12:48:42 | 45.83184 | 16.74690 | 80° | 26km/h | 28475m | 7.2m/s | -45.4°C | 2.6% | 0hPa | 2.6V | 00:00:00 | 01:42:58 | 00:00:00 | |
| PG1ADW-2 | 2026-09-02 12:48:39 | 45.83181 | 16.74665 | 84° | 26km/h | 28456m | 7.0m/s | -45.4°C | 2.6% | 0hPa | 2.6V | 00:00:00 | 01:42:55 | 08:30:00 | |
| 9A1FER-15 | 2026-09-02 12:48:37 | 45.83179 | 16.74646 | 81° | 26km/h | 28445m | 4.3m/s | -45.6°C | 2.7% | 0hPa | 2.7V | 00:00:00 | 01:42:53 | 00:00:00 | |
| 9A1FER-3 | 2026-09-02 12:48:36 | 45.83178 | 16.74637 | 73° | 26km/h | 28440m | 5.9m/s | -45.8°C | 2.7% | 0hPa | 2.7V | 00:00:00 | 01:42:52 | 08:30:00 | |
| OE5DRO-10 | 2026-09-02 12:48:34 | 45.83171 | 16.74621 | 50° | 26km/h | 28427m | 5.6m/s | -45.9°C | 2.7% | 0hPa | 2.6V | 00:00:00 | 00:00:00 | 00:00:00 | |
| 9A1FER-10 | 2026-09-02 12:48:27 | 45.83145 | 16.74562 | 63° | 22km/h | 28385m | 5.7m/s | -46.0°C | 2.8% | 0hPa | 2.6V | 00:00:00 | 01:42:43 | 00:00:00 | |
| OE5DXL-15 | 2026-09-02 12:48:25 | 45.83140 | 16.74545 | 73° | 18km/h | 28372m | 6.0m/s | -46.0°C | 2.8% | 0hPa | 2.7V | 00:00:00 | 00:00:00 | 00:00:00 | |
| OE8JPQ-2 | 2026-09-02 12:48:24 | 45.83138 | 16.74537 | 71° | 18km/h | 28367m | 4.1m/s | -46.0°C | 2.7% | 0hPa | 2.7V | 00:00:00 | 00:00:00 | 00:00:00 | |
| 9A1FER-15 | 2026-09-02 12:48:22 | 45.83133 | 16.74523 | 53° | 18km/h | 28356m | 6.5m/s | -46.1°C | 2.7% | 0hPa | 2.7V | 00:00:00 | 01:42:38 | 00:00:00 | |
| 9A1FER-3 | 2026-09-02 12:48:21 | 45.83129 | 16.74517 | 48° | 18km/h | 28349m | 5.7m/s | -46.2°C | 2.7% | 0hPa | 2.7V | 00:00:00 | 01:42:37 | 00:00:00 | |
| PG1ADW-2 | 2026-09-02 12:48:19 | 45.83122 | 16.74503 | 57° | 16km/h | 28337m | 6.8m/s | -46.3°C | 2.7% | 0hPa | 2.7V | 00:00:00 | 00:00:00 | 00:00:00 | |
| OE5DRO-10 | 2026-09-02 12:48:15 | 45.83110 | 16.74477 | 54° | 15km/h | 28312m | 5.4m/s | -46.4°C | 2.8% | 0hPa | 2.7V | 00:00:00 | 00:00:00 | 00:00:00 | |
| 9A1FER-10 | 2026-09-02 12:48:12 | 45.83105 | 16.74462 | 75° | 15km/h | 28293m | 4.9m/s | -46.3°C | 2.8% | 0hPa | 2.7V | 00:00:00 | 01:42:28 | 00:00:00 | |
| 9A1FER-15 | 2026-09-02 12:48:07 | 45.83096 | 16.74444 | 55° | 15km/h | 28262m | 6.1m/s | -46.5°C | 2.8% | 0hPa | 2.7V | 00:00:00 | 01:42:23 | 00:00:00 | |
| 9A1FER-3 | 2026-09-02 12:48:06 | 45.83094 | 16.74440 | 52° | 15km/h | 28256m | 5.0m/s | -46.4°C | 2.8% | 0hPa | 2.7V | 00:00:00 | 01:42:22 | 00:00:00 | |
| OE8JPQ-2 | 2026-09-02 12:48:04 | 45.83088 | 16.74432 | 36° | 16km/h | 28244m | 6.3m/s | -46.5°C | 2.8% | 0hPa | 2.7V | 00:00:00 | 00:00:00 | 00:00:00 | |
| PG1ADW-2 | 2026-09-02 12:47:59 | 45.83076 | 16.74410 | 65° | 18km/h | 28212m | 7.1m/s | -46.3°C | 2.8% | 0hPa | 2.7V | 00:00:00 | 00:00:00 | 00:00:00 | |
| 9A1FER-10 | 2026-09-02 12:47:57 | 45.83073 | 16.74400 | 65° | 16km/h | 28200m | 5.5m/s | -46.4°C | 2.8% | 0hPa | 2.7V | 00:00:00 | 01:42:13 | 00:00:00 | |
| OE5DRO-10 | 2026-09-02 12:47:56 | 45.83071 | 16.74395 | 76° | 18km/h | 28193m | 7.2m/s | -46.3°C | 2.8% | 0hPa | 2.7V | 00:00:00 | 00:00:00 | 00:00:00 | |
| OE5DXL-15 | 2026-09-02 12:47:55 | 45.83071 | 16.74390 | 88° | 20km/h | 28187m | 6.0m/s | -46.1°C | 2.7% | 0hPa | 2.7V | 00:00:00 | 00:00:00 | 00:00:00 | |
| 9A1FER-15 | 2026-09-02 12:47:52 | 45.83069 | 16.74376 | 63° | 20km/h | 28168m | 5.8m/s | -46.2°C | 2.7% | 0hPa | 2.7V | 00:00:00 | 01:42:08 | 00:00:00 | |
| OE8JPQ-2 | 2026-09-02 12:47:44 | 45.83061 | 16.74330 | 84° | 24km/h | 28120m | 6.8m/s | -46.2°C | 2.8% | 0hPa | 2.7V | 00:00:00 | 01:42:00 | 00:00:00 | |
| 9A1FER-10 | 2026-09-02 12:47:42 | 45.83061 | 16.74313 | 94° | 26km/h | 28108m | 4.4m/s | -46.3°C | 2.8% | 0hPa | 2.7V | 00:00:00 | 01:41:58 | 00:00:00 | |
| PG1ADW-2 | 2026-09-02 12:47:39 | 45.83059 | 16.74284 | 75° | 24km/h | 28090m | 6.2m/s | -46.2°C | 2.8% | 0hPa | 2.6V | 00:00:00 | 00:00:00 | 00:00:00 | |
| 9A1FER-15 | 2026-09-02 12:47:37 | 45.83055 | 16.74266 | 79° | 24km/h | 28078m | 6.9m/s | -46.3°C | 2.8% | 0hPa | 2.7V | 00:00:00 | 01:41:53 | 00:00:00 | |
| 9A1FER-3 | 2026-09-02 12:47:36 | 45.83054 | 16.74256 | 80° | 22km/h | 28072m | 5.3m/s | -46.4°C | 2.8% | 0hPa | 2.7V | 00:00:00 | 01:41:52 | 00:00:00 | |
| PETON7-10 | 2026-09-02 12:47:27 | 45.83037 | 16.74185 | 63° | 22km/h | 28017m | 5.4m/s | -46.0°C | 2.8% | 0hPa | 2.7V | 00:00:00 | 00:00:00 | 00:00:00 | |
| OE5DXL-15 | 2026-09-02 12:47:26 | 45.83032 | 16.74170 | 67° | 22km/h | 28005m | 7.0m/s | -46.0°C | 2.8% | 0hPa | 2.6V | 00:00:00 | 00:00:00 | 00:00:00 | |
| OE8JPQ-2 | 2026-09-02 12:47:24 | 45.83030 | 16.74163 | 70° | 22km/h | 27999m | 5.0m/s | -46.0°C | 2.7% | 0hPa | 2.6V | 00:00:00 | 00:00:00 | 08:30:00 | |
| 9A1FER-15 | 2026-09-02 12:47:22 | 45.83025 | 16.74149 | 55° | 24km/h | 27990m | 5.8m/s | -46.1°C | 2.7% | 0hPa | 2.7V | 00:00:00 | 01:41:38 | 00:00:00 | |
| 9A1FER-3 | 2026-09-02 12:47:21 | 45.83021 | 16.74144 | 40° | 24km/h | 27983m | 7.4m/s | -46.1°C | 2.7% | 0hPa | 2.7V | 00:00:00 | 01:41:37 | 00:00:00 | |
| PG1ADW-2 | 2026-09-02 12:47:19 | 45.83011 | 16.74135 | 25° | 22km/h | 27971m | 5.7m/s | -46.0°C | 2.6% | 0hPa | 2.7V | 00:00:00 | 01:41:35 | 00:00:00 | |
| OE5DRO-10 | 2026-09-02 12:47:18 | 45.83006 | 16.74132 | 26° | 22km/h | 27964m | 6.5m/s | -46.1°C | 2.7% | 0hPa | 2.7V | 00:00:00 | 00:00:00 | 00:00:00 | |
| 9A1FER-10 | 2026-09-02 12:47:12 | 45.82981 | 16.74101 | 53° | 22km/h | 27930m | 5.0m/s | -46.2°C | 2.8% | 0hPa | 2.7V | 00:00:00 | 01:41:28 | 00:00:00 | |
| 9A1FER-15 | 2026-09-02 12:47:07 | 45.82968 | 16.74062 | 58° | 18km/h | 27901m | 6.8m/s | -46.6°C | 2.8% | 0hPa | 2.7V | 00:00:00 | 01:41:23 | 00:00:00 | |
| 9A1FER-3 | 2026-09-02 12:47:06 | 45.82964 | 16.74056 | 43° | 18km/h | 27895m | 5.3m/s | -46.7°C | 2.8% | 0hPa | 2.7V | 00:00:00 | 01:41:22 | 00:00:00 | |
| OE8JPQ-2 | 2026-09-02 12:47:01 | 45.82941 | 16.74045 | 1° | 16km/h | 27864m | 7.3m/s | -46.5°C | 2.8% | 0hPa | 2.7V | 00:00:00 | 00:00:00 | 00:00:00 | |
| PG1ADW-2 | 2026-09-02 12:46:59 | 45.82929 | 16.74045 | 4° | 16km/h | 27852m | 4.7m/s | -46.6°C | 2.8% | 0hPa | 2.7V | 00:00:00 | 00:00:00 | 00:00:00 | |
| 9A1FER-10 | 2026-09-02 12:46:57 | 45.82919 | 16.74044 | 1° | 16km/h | 27841m | 6.8m/s | -46.7°C | 2.9% | 0hPa | 2.7V | 00:00:00 | 01:41:13 | 08:30:00 | |
| OE5DXL-15 | 2026-09-02 12:46:55 | 45.82914 | 16.74044 | 10° | 13km/h | 27829m | 5.8m/s | -46.7°C | 2.9% | 0hPa | 2.7V | 00:00:00 | 00:00:00 | 00:00:00 | |
| 9A1FER-15 | 2026-09-02 12:46:52 | 45.82904 | 16.74040 | 17° | 16km/h | 27810m | 5.3m/s | -46.6°C | 2.8% | 0hPa | 2.7V | 00:00:00 | 01:41:08 | 00:00:00 | |
| 9A1FER-3 | 2026-09-02 12:46:51 | 45.82900 | 16.74038 | 10° | 15km/h | 27804m | 6.8m/s | -46.7°C | 2.8% | 0hPa | 2.7V | 00:00:00 | 01:41:07 | 00:00:00 | |
| PETON7-10 | 2026-09-02 12:46:42 | 45.82862 | 16.74045 | 360° | 13km/h | 27751m | 5.3m/s | -46.6°C | 2.8% | 0hPa | 2.7V | 00:00:00 | 00:00:00 | 08:30:00 | |
| OE8JPQ-2 | 2026-09-02 12:46:41 | 45.82859 | 16.74044 | 19° | 11km/h | 27744m | 7.2m/s | -46.7°C | 2.9% | 0hPa | 2.6V | 00:00:00 | 01:40:57 | 00:00:00 | |
| OE5DRO-10 | 2026-09-02 12:46:40 | 45.82856 | 16.74042 | 40° | 11km/h | 27738m | 6.1m/s | -46.7°C | 2.9% | 0hPa | 2.6V | 00:00:00 | 00:00:00 | 00:00:00 | |
| PG1ADW-2 | 2026-09-02 12:46:39 | 45.82854 | 16.74038 | 51° | 13km/h | 27732m | 5.8m/s | -46.8°C | 2.9% | 0hPa | 2.6V | 00:00:00 | 00:00:00 | 00:00:00 | |
| 9A1FER-15 | 2026-09-02 12:46:37 | 45.82850 | 16.74031 | 54° | 11km/h | 27719m | 5.6m/s | -46.9°C | 2.9% | 0hPa | 2.7V | 00:00:00 | 01:40:53 | 08:30:00 | |
| 9A1FER-3 | 2026-09-02 12:46:36 | 45.82848 | 16.74028 | 43° | 11km/h | 27713m | 5.1m/s | -46.9°C | 2.9% | 0hPa | 2.6V | 00:00:00 | 01:40:52 | 00:00:00 | |
| 9A1FER-10 | 2026-09-02 12:46:27 | 45.82824 | 16.74018 | 33° | 13km/h | 27662m | 6.2m/s | -46.6°C | 2.8% | 0hPa | 2.6V | 00:00:00 | 01:40:43 | 00:00:00 | |
| OE5DXL-15 | 2026-09-02 12:46:25 | 45.82821 | 16.74012 | 73° | 11km/h | 27650m | 6.4m/s | -46.7°C | 2.8% | 0hPa | 2.6V | 00:00:00 | 00:00:00 | 00:00:00 | |
| 9A1FER-15 | 2026-09-02 12:46:22 | 45.82820 | 16.74000 | 71° | 13km/h | 27633m | 5.3m/s | -46.3°C | 2.8% | 0hPa | 2.7V | 00:00:00 | 01:40:38 | 00:00:00 | |
| OE8JPQ-2 | 2026-09-02 12:46:21 | 45.82818 | 16.73995 | 53° | 11km/h | 27627m | 6.8m/s | -46.4°C | 2.8% | 0hPa | 2.7V | 00:00:00 | 00:00:00 | 00:00:00 | |
| PG1ADW-2 | 2026-09-02 12:46:19 | 45.82811 | 16.73988 | 26° | 11km/h | 27615m | 5.4m/s | -46.4°C | 2.8% | 0hPa | 2.7V | 00:00:00 | 00:00:00 | 00:00:00 | |
| 9A1FER-10 | 2026-09-02 12:46:12 | 45.82789 | 16.73976 | 15° | 11km/h | 27574m | 5.3m/s | -46.4°C | 2.8% | 0hPa | 2.7V | 00:00:00 | 01:40:28 | 00:00:00 | |
| 9A1FER-15 | 2026-09-02 12:46:07 | 45.82778 | 16.73969 | 15° | 9km/h | 27543m | 5.9m/s | -46.6°C | 2.8% | 0hPa | 2.7V | 00:00:00 | 01:40:23 | 00:00:00 | |
| 9A1FER-3 | 2026-09-02 12:46:06 | 45.82776 | 16.73968 | 12° | 9km/h | 27537m | 5.7m/s | -46.7°C | 2.8% | 0hPa | 2.7V | 00:00:00 | 01:40:22 | 00:00:00 | |
| OE5DRO-10 | 2026-09-02 12:46:02 | 45.82767 | 16.73964 | 10° | 9km/h | 27513m | 6.6m/s | -46.8°C | 2.8% | 0hPa | 2.7V | 00:00:00 | 00:00:00 | 00:00:00 | |
| OE8JPQ-2 | 2026-09-02 12:46:01 | 45.82763 | 16.73964 | 3° | 9km/h | 27507m | 6.0m/s | -46.8°C | 2.8% | 0hPa | 2.7V | 00:00:00 | 00:00:00 | 00:00:00 | |
| PG1ADW-2 | 2026-09-02 12:45:59 | 45.82756 | 16.73963 | 9° | 7km/h | 27496m | 6.7m/s | -46.8°C | 2.8% | 0hPa | 2.7V | 00:00:00 | 01:40:15 | 00:00:00 | |
| PETON7-10 | 2026-09-02 12:45:57 | 45.82752 | 16.73961 | 36° | 7km/h | 27483m | 5.5m/s | -46.8°C | 2.8% | 0hPa | 2.7V | 00:00:00 | 00:00:00 | 00:00:00 | |
| OE5DXL-15 | 2026-09-02 12:45:55 | 45.82749 | 16.73959 | 4° | 7km/h | 27471m | 5.6m/s | -46.8°C | 2.8% | 0hPa | 2.7V | 00:00:00 | 00:00:00 | 00:00:00 | |
| 9A1FER-15 | 2026-09-02 12:45:52 | 45.82749 | 16.73960 | 186° | 7km/h | 27453m | 5.7m/s | -46.9°C | 2.9% | 0hPa | 2.7V | 00:00:00 | 01:40:08 | 00:00:00 | |
| 9A1FER-3 | 2026-09-02 12:45:51 | 45.82750 | 16.73960 | 183° | 7km/h | 27448m | 5.3m/s | -46.9°C | 2.9% | 0hPa | 2.6V | 00:00:00 | 01:40:07 | 00:00:00 | |
| OE5DRO-10 | 2026-09-02 12:45:43 | 45.82733 | 16.73952 | 18° | 7km/h | 27399m | 6.2m/s | -47.1°C | 2.8% | 0hPa | 2.6V | 00:00:00 | 00:00:00 | 00:00:00 | |
| 9A1FER-10 | 2026-09-02 12:45:42 | 45.82731 | 16.73951 | 17° | 7km/h | 27394m | 4.9m/s | -47.1°C | 2.8% | 0hPa | 2.6V | 00:00:00 | 01:39:58 | 00:00:00 | |
| OE8JPQ-2 | 2026-09-02 12:45:41 | 45.82730 | 16.73950 | 43° | 7km/h | 27388m | 6.3m/s | -47.1°C | 2.9% | 0hPa | 2.6V | 00:00:00 | 01:39:57 | 00:00:00 | |
| PG1ADW-2 | 2026-09-02 12:45:39 | 45.82730 | 16.73947 | 133° | 7km/h | 27376m | 4.8m/s | -46.8°C | 2.8% | 0hPa | 2.6V | 00:00:00 | 00:00:00 | 08:30:00 | |
| 9A1FER-15 | 2026-09-02 12:45:37 | 45.82732 | 16.73944 | 106° | 7km/h | 27365m | 6.5m/s | -46.9°C | 2.9% | 0hPa | 2.7V | 00:00:00 | 01:39:53 | 00:00:00 | |
| 9A1FER-3 | 2026-09-02 12:45:36 | 45.82732 | 16.73944 | 1° | 7km/h | 27359m | 5.4m/s | -47.0°C | 2.9% | 0hPa | 2.7V | 00:00:00 | 01:39:52 | 00:00:00 | |
| PETON7-10 | 2026-09-02 12:45:27 | 45.82714 | 16.73929 | 68° | 5km/h | 27306m | 5.2m/s | -47.2°C | 2.9% | 0hPa | 2.7V | 00:00:00 | 01:39:43 | 00:00:00 | |
| OE5DXL-15 | 2026-09-02 12:45:26 | 45.82713 | 16.73922 | 95° | 7km/h | 27296m | 6.3m/s | -47.3°C | 2.9% | 0hPa | 2.7V | 00:00:00 | 00:00:00 | 00:00:00 | |
| OE5DRO-10 | 2026-09-02 12:45:24 | 45.82713 | 16.73921 | 102° | 5km/h | 27289m | 6.6m/s | -47.3°C | 2.9% | 0hPa | 2.7V | 00:00:00 | 00:00:00 | 00:00:00 | |
| 9A1FER-15 | 2026-09-02 12:45:22 | 45.82714 | 16.73923 | 237° | 5km/h | 27278m | 5.6m/s | -47.1°C | 3.0% | 0hPa | 2.7V | 00:00:00 | 01:39:38 | 00:00:00 | |
| OE8JPQ-2 | 2026-09-02 12:45:21 | 45.82715 | 16.73924 | 209° | 5km/h | 27271m | 6.8m/s | 0°C | 0% | 0hPa | 2.7V | 00:00:00 | 00:00:00 | 00:00:00 | |
| PG1ADW-2 | 2026-09-02 12:45:19 | 45.82717 | 16.73924 | 151° | 5km/h | 27260m | 4.7m/s | -47.1°C | 3.0% | 0hPa | 2.7V | 00:00:00 | 00:00:00 | 00:00:00 | |
| 9A1FER-10 | 2026-09-02 12:45:12 | 45.82719 | 16.73910 | 87° | 7km/h | 27219m | 7.1m/s | -46.9°C | 2.8% | 0hPa | 2.7V | 00:00:00 | 01:39:28 | 00:00:00 | |
| 9A1FER-15 | 2026-09-02 12:45:07 | 45.82721 | 16.73900 | 147° | 11km/h | 27188m | 6.4m/s | -46.8°C | 2.9% | 0hPa | 2.7V | 00:00:00 | 01:39:23 | 00:00:00 | |
| 9A1FER-3 | 2026-09-02 12:45:06 | 45.82722 | 16.73900 | 168° | 11km/h | 27182m | 6.6m/s | -46.9°C | 2.9% | 0hPa | 2.5V | 00:00:00 | 01:39:22 | 00:00:00 | |
| OE5DRO-10 | 2026-09-02 12:45:05 | 45.82722 | 16.73899 | 172° | 9km/h | 27176m | 5.3m/s | -46.9°C | 3.0% | 0hPa | 2.5V | 00:00:00 | 00:00:00 | 00:00:00 | |
| OE8JPQ-2 | 2026-09-02 12:45:01 | 45.82725 | 16.73891 | 81° | 11km/h | 27151m | 7.1m/s | 0°C | 0% | 0hPa | 2.7V | 00:00:00 | 00:00:00 | 00:00:00 | |
| PG1ADW-2 | 2026-09-02 12:44:59 | 45.82722 | 16.73883 | 61° | 9km/h | 27139m | 5.2m/s | -46.9°C | 2.9% | 0hPa | 2.7V | 00:00:00 | 00:00:00 | 00:00:00 | |
| 9A1FER-10 | 2026-09-02 12:44:57 | 45.82719 | 16.73871 | 75° | 9km/h | 27126m | 6.0m/s | -47.0°C | 2.9% | 0hPa | 2.7V | 00:00:00 | 01:39:13 | 00:00:00 | |
| OE5DXL-15 | 2026-09-02 12:44:55 | 45.82717 | 16.73860 | 76° | 7km/h | 27115m | 6.7m/s | -46.9°C | 2.9% | 0hPa | 2.7V | 00:00:00 | 00:00:00 | 08:30:00 | |
| 9A1FER-15 | 2026-09-02 12:44:52 | 45.82714 | 16.73851 | 74° | 7km/h | 27096m | 6.4m/s | -46.8°C | 2.8% | 0hPa | 2.7V | 00:00:00 | 01:39:08 | 00:00:00 | |
| 9A1FER-3 | 2026-09-02 12:44:51 | 45.82714 | 16.73849 | 102° | 7km/h | 27090m | 6.4m/s | -46.8°C | 2.8% | 0hPa | 2.7V | 00:00:00 | 01:39:07 | 00:00:00 | |
| OE5DRO-10 | 2026-09-02 12:44:46 | 45.82710 | 16.73838 | 58° | 9km/h | 27060m | 6.2m/s | -47.1°C | 2.9% | 0hPa | 2.5V | 00:00:00 | 00:00:00 | 00:00:00 | |
| PETON7-10 | 2026-09-02 12:44:42 | 45.82709 | 16.73824 | 90° | 7km/h | 27038m | 6.6m/s | -47.1°C | 2.9% | 0hPa | 2.5V | 00:00:00 | 01:38:58 | 00:00:00 | |
| OE8JPQ-2 | 2026-09-02 12:44:41 | 45.82709 | 16.73822 | 123° | 11km/h | 27031m | 5.8m/s | 0°C | 0% | 0hPa | 2.5V | 00:00:00 | 01:38:57 | 00:00:00 | |
| PG1ADW-2 | 2026-09-02 12:44:39 | 45.82711 | 16.73824 | 218° | 7km/h | 27020m | 6.8m/s | -47.0°C | 2.9% | 0hPa | 2.5V | 00:00:00 | 01:38:55 | 00:00:00 | |
| 9A1FER-15 | 2026-09-02 12:44:37 | 45.82716 | 16.73828 | 200° | 7km/h | 27009m | 4.3m/s | -46.9°C | 2.9% | 0hPa | 2.6V | 00:00:00 | 01:38:53 | 00:00:00 | |
| 9A1FER-3 | 2026-09-02 12:44:36 | 45.82718 | 16.73829 | 201° | 7km/h | 27003m | 6.3m/s | -46.9°C | 2.9% | 0hPa | 2.6V | 00:00:00 | 01:38:52 | 00:00:00 | |
| 9A1FER-10 | 2026-09-02 12:44:27 | 45.82719 | 16.73808 | 72° | 11km/h | 26948m | 5.2m/s | -46.6°C | 2.8% | 0hPa | 2.6V | 00:00:00 | 01:38:43 | 00:00:00 | |
| OE5DXL-15 | 2026-09-02 12:44:24 | 45.82720 | 16.73802 | 125° | 15km/h | 26929m | 5.6m/s | -46.6°C | 2.9% | 0hPa | 2.6V | 00:00:00 | 00:00:00 | 00:00:00 | |
| 9A1FER-15 | 2026-09-02 12:44:22 | 45.82719 | 16.73799 | 53° | 15km/h | 26916m | 5.4m/s | -46.5°C | 2.8% | 0hPa | 2.6V | 00:00:00 | 01:38:38 | 08:30:00 | |
| 9A1FER-3 | 2026-09-02 12:44:21 | 45.82719 | 16.73798 | 65° | 16km/h | 26911m | 5.1m/s | -46.5°C | 2.8% | 0hPa | 2.5V | 00:00:00 | 01:38:37 | 00:00:00 | |
| PG1ADW-2 | 2026-09-02 12:44:19 | 45.82718 | 16.73793 | 70° | 16km/h | 26898m | 5.1m/s | -46.6°C | 2.8% | 0hPa | 2.5V | 00:00:00 | 00:00:00 | 00:00:00 | |
| PETON7-10 | 2026-09-02 12:44:12 | 45.82697 | 16.73763 | 36° | 16km/h | 26854m | 6.9m/s | -46.9°C | 2.9% | 0hPa | 2.5V | 00:00:00 | 00:00:00 | 00:00:00 | |
| OE5DRO-10 | 2026-09-02 12:44:08 | 45.82682 | 16.73746 | 53° | 13km/h | 26829m | 4.9m/s | -47.0°C | 3.0% | 0hPa | 2.5V | 00:00:00 | 00:00:00 | 08:30:00 | |
| 9A1FER-15 | 2026-09-02 12:44:07 | 45.82680 | 16.73741 | 52° | 15km/h | 26823m | 6.6m/s | -47.0°C | 2.9% | 0hPa | 2.7V | 00:00:00 | 01:38:23 | 00:00:00 | |
| 9A1FER-3 | 2026-09-02 12:44:06 | 45.82677 | 16.73735 | 50° | 15km/h | 26817m | 6.2m/s | -46.9°C | 2.9% | 0hPa | 2.7V | 00:00:00 | 01:38:22 | 08:30:00 | |
| OE8JPQ-2 | 2026-09-02 12:44:02 | 45.82665 | 16.73713 | 56° | 15km/h | 26795m | 5.7m/s | 0°C | 0% | 0hPa | 2.7V | 00:00:00 | 00:00:00 | 08:30:00 | |
| PG1ADW-2 | 2026-09-02 12:43:59 | 45.82658 | 16.73705 | 30° | 9km/h | 26777m | 5.5m/s | -46.8°C | 2.9% | 0hPa | 2.7V | 00:00:00 | 00:00:00 | 00:00:00 | |
| PETON7-10 | 2026-09-02 12:43:57 | 45.82651 | 16.73699 | 41° | 9km/h | 26767m | 5.9m/s | -46.8°C | 2.9% | 0hPa | 2.7V | 00:00:00 | 01:38:13 | 00:00:00 | |
| OE5DXL-15 | 2026-09-02 12:43:54 | 45.82647 | 16.73690 | 65° | 13km/h | 26748m | 5.7m/s | -46.8°C | 2.9% | 0hPa | 2.7V | 00:00:00 | 00:00:00 | 00:00:00 | |
| 9A1FER-15 | 2026-09-02 12:43:52 | 45.82644 | 16.73685 | 37° | 9km/h | 26735m | 5.6m/s | -46.8°C | 2.8% | 0hPa | 2.7V | 00:00:00 | 01:38:08 | 00:00:00 | |
| 9A1FER-3 | 2026-09-02 12:43:51 | 45.82642 | 16.73684 | 26° | 11km/h | 26730m | 4.7m/s | -46.9°C | 2.8% | 0hPa | 2.7V | 00:00:00 | 01:38:07 | 00:00:00 | |
| OE5DRO-10 | 2026-09-02 12:43:49 | 45.82640 | 16.73682 | 22° | 13km/h | 26718m | 6.3m/s | -47.0°C | 2.8% | 0hPa | 2.7V | 00:00:00 | 00:00:00 | 00:00:00 | |
| 9A1FER-10 | 2026-09-02 12:43:42 | 45.82632 | 16.73665 | 52° | 16km/h | 26676m | 5.3m/s | -46.8°C | 2.8% | 0hPa | 2.7V | 00:00:00 | 01:37:58 | 00:00:00 | |
| PG1ADW-2 | 2026-09-02 12:43:39 | 45.82625 | 16.73662 | 354° | 20km/h | 26658m | 6.5m/s | -46.9°C | 2.8% | 0hPa | 2.7V | 00:00:00 | 00:00:00 | 00:00:00 | |
| 9A1FER-15 | 2026-09-02 12:43:37 | 45.82615 | 16.73665 | 343° | 20km/h | 26645m | 7.1m/s | -47.0°C | 2.9% | 0hPa | 2.5V | 00:00:00 | 01:37:53 | 00:00:00 | |
| 9A1FER-3 | 2026-09-02 12:43:36 | 45.82611 | 16.73667 | 346° | 20km/h | 26638m | 5.3m/s | -47.1°C | 2.9% | 0hPa | 2.7V | 00:00:00 | 01:37:52 | 00:00:00 | |
| OE5DRO-10 | 2026-09-02 12:43:30 | 45.82585 | 16.73652 | 45° | 18km/h | 26604m | 6.6m/s | -47.3°C | 2.8% | 0hPa | 2.7V | 00:00:00 | 00:00:00 | 00:00:00 | |
| PETON7-10 | 2026-09-02 12:43:27 | 45.82575 | 16.73643 | 10° | 18km/h | 26587m | 6.7m/s | -47.4°C | 2.9% | 0hPa | 2.7V | 00:00:00 | 00:00:00 | 00:00:00 | |
| OE5DXL-15 | 2026-09-02 12:43:24 | 45.82560 | 16.73648 | 334° | 18km/h | 26569m | 7.3m/s | -47.3°C | 3.0% | 0hPa | 2.7V | 00:00:00 | 00:00:00 | 00:00:00 | |
| 9A1FER-15 | 2026-09-02 12:43:22 | 45.82550 | 16.73657 | 327° | 16km/h | 26556m | 5.5m/s | -47.3°C | 3.0% | 0hPa | 2.5V | 00:00:00 | 01:37:38 | 00:00:00 | |
| 9A1FER-3 | 2026-09-02 12:43:21 | 45.82545 | 16.73661 | 334° | 16km/h | 26549m | 6.8m/s | -47.3°C | 3.0% | 0hPa | 2.5V | 00:00:00 | 01:37:37 | 00:00:00 | |
| PG1ADW-2 | 2026-09-02 12:43:19 | 45.82536 | 16.73664 | 354° | 16km/h | 26538m | 6.0m/s | -47.4°C | 3.0% | 0hPa | 2.5V | 00:00:00 | 01:37:35 | 00:00:00 | |
| 9A1FER-10 | 2026-09-02 12:43:12 | 45.82510 | 16.73662 | 337° | 16km/h | 26497m | 6.4m/s | -47.3°C | 2.9% | 0hPa | 2.5V | 00:00:00 | 01:37:28 | 00:00:00 | |
| OE5DRO-10 | 2026-09-02 12:43:11 | 45.82507 | 16.73666 | 320° | 16km/h | 26490m | 6.6m/s | -47.3°C | 3.0% | 0hPa | 2.6V | 00:00:00 | 00:00:00 | 00:00:00 | |
| 9A1FER-15 | 2026-09-02 12:43:07 | 45.82494 | 16.73686 | 316° | 16km/h | 26465m | 5.1m/s | -47.3°C | 3.0% | 0hPa | 2.7V | 00:00:00 | 01:37:23 | 00:00:00 | |
| 9A1FER-3 | 2026-09-02 12:43:06 | 45.82491 | 16.73690 | 315° | 16km/h | 26460m | 6.5m/s | -47.3°C | 3.0% | 0hPa | 2.7V | 00:00:00 | 01:37:22 | 00:00:00 | |
| PG1ADW-2 | 2026-09-02 12:42:59 | 45.82469 | 16.73717 | 308° | 16km/h | 26417m | 6.0m/s | -47.3°C | 3.0% | 0hPa | 2.7V | 00:00:00 | 00:00:00 | 00:00:00 | |
| 9A1FER-10 | 2026-09-02 12:42:57 | 45.82464 | 16.73727 | 304° | 15km/h | 26404m | 6.3m/s | -47.0°C | 2.9% | 0hPa | 2.7V | 00:00:00 | 01:37:13 | 00:00:00 | |
| OE5DXL-15 | 2026-09-02 12:42:54 | 45.82459 | 16.73744 | 276° | 15km/h | 26387m | 6.9m/s | 0°C | 0% | 0hPa | 2.7V | 00:00:00 | 00:00:00 | 00:00:00 | |
| 9A1FER-15 | 2026-09-02 12:42:52 | 45.82458 | 16.73755 | 281° | 15km/h | 26374m | 7.4m/s | -47.2°C | 3.0% | 0hPa | 2.7V | 00:00:00 | 01:37:08 | 00:00:00 | |
| 9A1FER-3 | 2026-09-02 12:42:51 | 45.82458 | 16.73760 | 289° | 15km/h | 26367m | 5.5m/s | -47.3°C | 3.0% | 0hPa | 2.5V | 00:00:00 | 01:37:07 | 00:00:00 | |
| 9A1FER-10 | 2026-09-02 12:42:42 | 45.82451 | 16.73806 | 249° | 15km/h | 26313m | 5.6m/s | -46.8°C | 2.9% | 0hPa | 2.5V | 00:00:00 | 01:36:58 | 00:00:00 | |
| PG1ADW-2 | 2026-09-02 12:42:39 | 45.82455 | 16.73822 | 250° | 16km/h | 26294m | 5.7m/s | -46.8°C | 2.9% | 0hPa | 2.5V | 00:00:00 | 00:00:00 | 08:30:00 | |
| 9A1FER-15 | 2026-09-02 12:42:37 | 45.82458 | 16.73830 | 233° | 16km/h | 26282m | 7.2m/s | -46.9°C | 2.9% | 0hPa | 2.7V | 00:00:00 | 01:36:53 | 00:00:00 | |
| 9A1FER-3 | 2026-09-02 12:42:36 | 45.82460 | 16.73833 | 220° | 16km/h | 26276m | 5.8m/s | -47.0°C | 2.8% | 0hPa | 2.7V | 00:00:00 | 01:36:52 | 00:00:00 | |
| 9A1FER-10 | 2026-09-02 12:42:27 | 45.82479 | 16.73872 | 237° | 18km/h | 26223m | 5.7m/s | -47.0°C | 2.8% | 0hPa | 2.5V | 00:00:00 | 01:36:43 | 08:30:00 | |
| OE5DXL-15 | 2026-09-02 12:42:24 | 45.82489 | 16.73888 | 216° | 18km/h | 26205m | 6.2m/s | 0°C | 0% | 0hPa | 2.6V | 00:00:00 | 00:00:00 | 00:00:00 | |
| 9A1FER-15 | 2026-09-02 12:42:22 | 45.82499 | 16.73896 | 209° | 20km/h | 26193m | 6.5m/s | -47.2°C | 2.9% | 0hPa | 2.6V | 00:00:00 | 01:36:38 | 00:00:00 | |
| 9A1FER-3 | 2026-09-02 12:42:21 | 45.82503 | 16.73899 | 211° | 20km/h | 26187m | 6.2m/s | -47.1°C | 2.9% | 0hPa | 2.6V | 00:00:00 | 01:36:37 | 00:00:00 | |
| PG1ADW-2 | 2026-09-02 12:42:19 | 45.82510 | 16.73907 | 221° | 16km/h | 26175m | 6.9m/s | -47.0°C | 2.9% | 0hPa | 2.6V | 00:00:00 | 00:00:00 | 00:00:00 | |
| PETON7-10 | 2026-09-02 12:42:12 | 45.82532 | 16.73937 | 199° | 15km/h | 26133m | 5.1m/s | -47.0°C | 2.8% | 0hPa | 2.6V | 00:00:00 | 00:00:00 | 08:30:00 | |
| 9A1FER-15 | 2026-09-02 12:42:07 | 45.82561 | 16.73936 | 174° | 15km/h | 26104m | 6.3m/s | -47.2°C | 2.9% | 0hPa | 2.6V | 00:00:00 | 01:36:23 | 08:30:00 | |
| 9A1FER-3 | 2026-09-02 12:42:06 | 45.82567 | 16.73936 | 182° | 15km/h | 26098m | 5.8m/s | -47.2°C | 2.9% | 0hPa | 2.5V | 00:00:00 | 01:36:22 | 00:00:00 | |
| PG1ADW-2 | 2026-09-02 12:41:59 | 45.82583 | 16.73943 | 195° | 13km/h | 26058m | 4.7m/s | -47.4°C | 2.9% | 0hPa | 2.5V | 00:00:00 | 01:36:15 | 00:00:00 | |
| 9A1FER-10 | 2026-09-02 12:41:57 | 45.82585 | 16.73941 | 125° | 15km/h | 26045m | 5.6m/s | -47.3°C | 2.9% | 0hPa | 2.5V | 00:00:00 | 01:36:13 | 00:00:00 | |
| OE5DXL-15 | 2026-09-02 12:41:54 | 45.82595 | 16.73928 | 147° | 11km/h | 26027m | 5.2m/s | 0°C | 0% | 0hPa | 2.5V | 00:00:00 | 00:00:00 | 00:00:00 | |
| 9A1FER-15 | 2026-09-02 12:41:52 | 45.82606 | 16.73918 | 140° | 13km/h | 26016m | 6.6m/s | -47.5°C | 3.0% | 0hPa | 2.5V | 00:00:00 | 01:36:08 | 00:00:00 | |
| 9A1FER-3 | 2026-09-02 12:41:51 | 45.82610 | 16.73912 | 136° | 13km/h | 26009m | 4.9m/s | -47.3°C | 3.0% | 0hPa | 2.5V | 00:00:00 | 01:36:07 | 08:30:00 | |
| 9A1FER-10 | 2026-09-02 12:41:42 | 45.82617 | 16.73884 | 98° | 11km/h | 25958m | 5.3m/s | -47.3°C | 2.9% | 0hPa | 2.7V | 00:00:00 | 01:35:58 | 00:00:00 | |
| PG1ADW-2 | 2026-09-02 12:41:39 | 45.82620 | 16.73870 | 115° | 9km/h | 25940m | 5.4m/s | -47.1°C | 2.9% | 0hPa | 2.5V | 00:00:00 | 00:00:00 | 00:00:00 | |
| 9A1FER-15 | 2026-09-02 12:41:37 | 45.82624 | 16.73861 | 135° | 7km/h | 25928m | 5.7m/s | -47.2°C | 2.9% | 0hPa | 2.7V | 00:00:00 | 01:35:53 | 00:00:00 | |
| 9A1FER-3 | 2026-09-02 12:41:36 | 45.82626 | 16.73858 | 140° | 7km/h | 25922m | 4.8m/s | -47.2°C | 2.9% | 0hPa | 2.7V | 00:00:00 | 01:35:52 | 00:00:00 | |
| PETON7-10 | 2026-09-02 12:41:27 | 45.82619 | 16.73840 | 58° | 9km/h | 25870m | 4.8m/s | -47.5°C | 2.9% | 0hPa | 2.7V | 00:00:00 | 00:00:00 | 00:00:00 | |
| OE5DXL-15 | 2026-09-02 12:41:24 | 45.82619 | 16.73834 | 130° | 11km/h | 25853m | 5.4m/s | 0°C | 0% | 0hPa | 2.7V | 00:00:00 | 00:00:00 | 00:00:00 | |
| 9A1FER-15 | 2026-09-02 12:41:23 | 45.82621 | 16.73829 | 114° | 9km/h | 25840m | 5.0m/s | -47.8°C | 2.9% | 0hPa | 2.7V | 00:00:00 | 01:35:38 | 00:00:00 | |
| 9A1FER-3 | 2026-09-02 12:41:21 | 45.82621 | 16.73827 | 102° | 9km/h | 25835m | 4.5m/s | -47.9°C | 2.9% | 0hPa | 2.5V | 00:00:00 | 01:35:37 | 00:00:00 | |
| PG1ADW-2 | 2026-09-02 12:41:19 | 45.82621 | 16.73824 | 353° | 11km/h | 25824m | 6.1m/s | -47.9°C | 3.0% | 0hPa | 2.5V | 00:00:00 | 00:00:00 | 00:00:00 | |
| 9A1FER-10 | 2026-09-02 12:41:12 | 45.82600 | 16.73823 | 6° | 9km/h | 25785m | 6.2m/s | -48.2°C | 3.1% | 0hPa | 2.5V | 00:00:00 | 01:35:28 | 00:00:00 | |
| 9A1FER-15 | 2026-09-02 12:41:07 | 45.82594 | 16.73829 | 285° | 9km/h | 25756m | 7.2m/s | -48.2°C | 3.0% | 0hPa | 2.5V | 00:00:00 | 01:35:23 | 00:00:00 | |
| 9A1FER-3 | 2026-09-02 12:41:06 | 45.82594 | 16.73833 | 284° | 9km/h | 25750m | 4.9m/s | -48.3°C | 3.0% | 0hPa | 2.5V | 00:00:00 | 01:35:22 | 00:00:00 | |
| PG1ADW-2 | 2026-09-02 12:40:59 | 45.82579 | 16.73849 | 2° | 7km/h | 25711m | 4.4m/s | -48.4°C | 3.1% | 0hPa | 2.5V | 00:00:00 | 00:00:00 | 00:00:00 | |
| 9A1FER-10 | 2026-09-02 12:40:57 | 45.82578 | 16.73849 | 28° | 7km/h | 25700m | 5.5m/s | -48.3°C | 3.1% | 0hPa | 2.5V | 00:00:00 | 01:35:13 | 00:00:00 | |
| 9A1FER-15 | 2026-09-02 12:40:52 | 45.82579 | 16.73863 | 264° | 9km/h | 25672m | 6.7m/s | -48.4°C | 3.1% | 0hPa | 2.7V | 00:00:00 | 01:35:08 | 00:00:00 | |
| 9A1FER-3 | 2026-09-02 12:40:51 | 45.82579 | 16.73868 | 271° | 11km/h | 25666m | 5.6m/s | -48.3°C | 3.1% | 0hPa | 2.7V | 00:00:00 | 01:35:07 | 00:00:00 | |
| PETON7-10 | 2026-09-02 12:40:42 | 45.82582 | 16.73888 | 195° | 13km/h | 25616m | 6.4m/s | -48.4°C | 3.1% | 0hPa | 2.7V | 00:00:00 | 00:00:00 | 00:00:00 | |
| PG1ADW-2 | 2026-09-02 12:40:39 | 45.82592 | 16.73889 | 172° | 13km/h | 25598m | 5.8m/s | -48.4°C | 3.1% | 0hPa | 2.6V | 00:00:00 | 01:34:55 | 00:00:00 | |
| 9A1FER-15 | 2026-09-02 12:40:37 | 45.82600 | 16.73888 | 182° | 13km/h | 25586m | 6.9m/s | -48.5°C | 3.1% | 0hPa | 2.7V | 00:00:00 | 01:34:53 | 00:00:00 | |
| 9A1FER-3 | 2026-09-02 12:40:36 | 45.82605 | 16.73888 | 190° | 11km/h | 25580m | 5.6m/s | -48.4°C | 3.1% | 0hPa | 2.7V | 00:00:00 | 01:34:52 | 00:00:00 | |
| 9A1FER-10 | 2026-09-02 12:40:27 | 45.82628 | 16.73890 | 153° | 11km/h | 25528m | 6.6m/s | -48.1°C | 3.0% | 0hPa | 2.7V | 00:00:00 | 01:34:43 | 00:00:00 | |
| OE5DRO-10 | 2026-09-02 12:40:25 | 45.82633 | 16.73886 | 154° | 18km/h | 25516m | 3.6m/s | -48.1°C | 3.0% | 0hPa | 2.7V | 00:00:00 | 00:00:00 | 00:00:00 | |
| 9A1FER-15 | 2026-09-02 12:40:22 | 45.82641 | 16.73877 | 145° | 15km/h | 25499m | 5.7m/s | -48.2°C | 3.0% | 0hPa | 2.7V | 00:00:00 | 01:34:38 | 00:00:00 | |
| 9A1FER-3 | 2026-09-02 12:40:21 | 45.82644 | 16.73875 | 158° | 16km/h | 25493m | 7.1m/s | -48.1°C | 2.9% | 0hPa | 2.7V | 00:00:00 | 01:34:37 | 00:00:00 | |
| PG1ADW-2 | 2026-09-02 12:40:19 | 45.82648 | 16.73873 | 144° | 18km/h | 25481m | 7.2m/s | -48.2°C | 3.0% | 0hPa | 2.5V | 00:00:00 | 00:00:00 | 00:00:00 | |
| 9A1FER-10 | 2026-09-02 12:40:12 | 45.82663 | 16.73849 | 128° | 22km/h | 25438m | 5.4m/s | -48.7°C | 3.0% | 0hPa | 2.5V | 00:00:00 | 01:34:28 | 08:30:00 | |
| 9A1FER-15 | 2026-09-02 12:40:07 | 45.82682 | 16.73816 | 113° | 20km/h | 25409m | 5.2m/s | -48.8°C | 3.1% | 0hPa | 2.5V | 00:00:00 | 01:34:23 | 00:00:00 | |
| 9A1FER-3 | 2026-09-02 12:40:06 | 45.82684 | 16.73808 | 106° | 20km/h | 25404m | 4.5m/s | -48.8°C | 3.1% | 0hPa | 2.5V | 00:00:00 | 01:34:22 | 00:00:00 | |
| OE5DXL-15 | 2026-09-02 12:40:05 | 45.82686 | 16.73799 | 106° | 20km/h | 25399m | 6.0m/s | 0°C | 0% | 0hPa | 2.5V | 00:00:00 | 00:00:00 | 00:00:00 | |
| PG1ADW-2 | 2026-09-02 12:39:59 | 45.82688 | 16.73757 | 90° | 20km/h | 25365m | 6.2m/s | -49.0°C | 3.2% | 0hPa | 2.5V | 00:00:00 | 00:00:00 | 00:00:00 | |
| PETON7-10 | 2026-09-02 12:39:57 | 45.82688 | 16.73745 | 87° | 22km/h | 25354m | 5.9m/s | -49.0°C | 3.1% | 0hPa | 2.5V | 00:00:00 | 00:00:00 | 08:30:00 | |
| 9A1FER-15 | 2026-09-02 12:39:52 | 45.82683 | 16.73712 | 73° | 22km/h | 25325m | 4.9m/s | -49.2°C | 3.0% | 0hPa | 2.7V | 00:00:00 | 01:34:08 | 08:30:00 | |
| 9A1FER-3 | 2026-09-02 12:39:51 | 45.82681 | 16.73706 | 69° | 24km/h | 25319m | 6.3m/s | -49.3°C | 3.0% | 0hPa | 2.5V | 00:00:00 | 01:34:07 | 00:00:00 | |
| PG1ADW-2 | 2026-09-02 12:39:39 | 45.82644 | 16.73623 | 37° | 24km/h | 25250m | 6.0m/s | -49.9°C | 3.3% | 0hPa | 2.5V | 00:00:00 | 00:00:00 | 08:30:00 | |
| 9A1FER-15 | 2026-09-02 12:39:37 | 45.82634 | 16.73613 | 34° | 22km/h | 25239m | 5.9m/s | -49.9°C | 3.2% | 0hPa | 2.7V | 00:00:00 | 01:33:53 | 00:00:00 | |
| 9A1FER-3 | 2026-09-02 12:39:36 | 45.82628 | 16.73608 | 30° | 22km/h | 25233m | 6.3m/s | -50.0°C | 3.3% | 0hPa | 2.7V | 00:00:00 | 01:33:52 | 08:30:00 | |
| PETON7-10 | 2026-09-02 12:39:27 | 45.82582 | 16.73568 | 41° | 26km/h | 25181m | 5.2m/s | -50.1°C | 3.3% | 0hPa | 2.5V | 00:00:00 | 01:33:43 | 00:00:00 | |
| 9A1FER-15 | 2026-09-02 12:39:22 | 45.82561 | 16.73549 | 29° | 24km/h | 25154m | 6.1m/s | -50.7°C | 3.4% | 0hPa | 2.5V | 00:00:00 | 01:33:38 | 00:00:00 | |
| 9A1FER-3 | 2026-09-02 12:39:21 | 45.82555 | 16.73545 | 26° | 24km/h | 25148m | 4.7m/s | -50.8°C | 3.4% | 0hPa | 2.5V | 00:00:00 | 01:33:37 | 00:00:00 | |
| PG1ADW-2 | 2026-09-02 12:39:20 | 45.82541 | 16.73538 | 13° | 20km/h | 25137m | 6.7m/s | -50.9°C | 3.4% | 0hPa | 2.5V | 00:00:00 | 01:33:35 | 00:00:00 | |
| 9A1FER-10 | 2026-09-02 12:39:12 | 45.82493 | 16.73536 | 349° | 16km/h | 25097m | 5.8m/s | -50.6°C | 3.4% | 0hPa | 2.5V | 00:00:00 | 01:33:28 | 00:00:00 | |
| 9A1FER-15 | 2026-09-02 12:39:07 | 45.82472 | 16.73539 | 357° | 16km/h | 25070m | 6.4m/s | -50.6°C | 3.4% | 0hPa | 2.5V | 00:00:00 | 01:33:23 | 00:00:00 | |
| 9A1FER-3 | 2026-09-02 12:39:06 | 45.82468 | 16.73540 | 344° | 16km/h | 25064m | 5.9m/s | -50.5°C | 3.4% | 0hPa | 2.7V | 00:00:00 | 01:33:22 | 00:00:00 | |
| OE8JPQ-2 | 2026-09-02 12:39:03 | 45.82456 | 16.73545 | 349° | 18km/h | 25047m | 6.0m/s | 0°C | 0% | 0hPa | 2.7V | 00:00:00 | 00:00:00 | 00:00:00 | |
| OE5DRO-10 | 2026-09-02 12:39:01 | 45.82449 | 16.73548 | 338° | 16km/h | 25035m | 6.9m/s | -50.4°C | 3.4% | 0hPa | 2.7V | 00:00:00 | 00:00:00 | 00:00:00 | |
| PG1ADW-2 | 2026-09-02 12:38:59 | 45.82442 | 16.73554 | 323° | 18km/h | 25025m | 3.9m/s | -50.4°C | 3.5% | 0hPa | 2.7V | 00:00:00 | 00:00:00 | 00:00:00 | |
| 9A1FER-10 | 2026-09-02 12:38:57 | 45.82436 | 16.73560 | 337° | 18km/h | 25014m | 6.3m/s | -50.4°C | 3.4% | 0hPa | 2.7V | 00:00:00 | 01:33:13 | 00:00:00 | |
| 9A1FER-15 | 2026-09-02 12:38:52 | 45.82418 | 16.73576 | 302° | 20km/h | 24987m | 4.9m/s | -50.3°C | 3.3% | 0hPa | 2.7V | 00:00:00 | 01:33:08 | 00:00:00 | |
| 9A1FER-3 | 2026-09-02 12:38:51 | 45.82416 | 16.73583 | 304° | 20km/h | 24981m | 6.8m/s | -50.2°C | 3.3% | 0hPa | 2.7V | 00:00:00 | 01:33:07 | 00:00:00 | |
| PETON7-10 | 2026-09-02 12:38:42 | 45.82397 | 16.73640 | 285° | 24km/h | 24930m | 4.9m/s | -50.5°C | 3.5% | 0hPa | 2.5V | 00:00:00 | 01:32:58 | 00:00:00 | |
| OE5DRO-10 | 2026-09-02 12:38:39 | 45.82391 | 16.73658 | 307° | 24km/h | 24913m | 5.4m/s | -50.4°C | 3.5% | 0hPa | 2.5V | 00:00:00 | 00:00:00 | 00:00:00 | |
| 9A1FER-3 | 2026-09-02 12:38:36 | 45.82382 | 16.73680 | 293° | 24km/h | 24898m | 6.0m/s | -50.1°C | 3.4% | 0hPa | 2.5V | 00:00:00 | 01:32:52 | 00:00:00 | |
| 9A1FER-10 | 2026-09-02 12:38:27 | 45.82371 | 16.73762 | 284° | 20km/h | 24849m | 5.6m/s | -50.0°C | 3.3% | 0hPa | 2.5V | 00:00:00 | 01:32:43 | 00:00:00 | |
| 9A1FER-15 | 2026-09-02 12:38:22 | 45.82361 | 16.73796 | 296° | 18km/h | 24822m | 6.3m/s | -49.8°C | 3.2% | 0hPa | 2.5V | 00:00:00 | 01:32:38 | 00:00:00 | |
| 9A1FER-3 | 2026-09-02 12:38:21 | 45.82358 | 16.73803 | 298° | 18km/h | 24816m | 5.6m/s | -49.8°C | 3.3% | 0hPa | 2.6V | 00:00:00 | 01:32:37 | 00:00:00 | |
| OE5DRO-10 | 2026-09-02 12:38:20 | 45.82356 | 16.73809 | 291° | 18km/h | 24811m | 5.1m/s | -49.9°C | 3.3% | 0hPa | 2.6V | 00:00:00 | 00:00:00 | 08:30:00 | |
| PG1ADW-2 | 2026-09-02 12:38:19 | 45.82355 | 16.73816 | 282° | 16km/h | 24805m | 6.4m/s | -49.8°C | 3.3% | 0hPa | 2.7V | 00:00:00 | 00:00:00 | 00:00:00 | |
| OE8JPQ-2 | 2026-09-02 12:38:13 | 45.82350 | 16.73855 | 284° | 15km/h | 24771m | 6.0m/s | 0°C | 0% | 0hPa | 2.7V | 00:00:00 | 00:00:00 | 00:00:00 | |
| 9A1FER-10 | 2026-09-02 12:38:12 | 45.82349 | 16.73862 | 287° | 16km/h | 24766m | 4.8m/s | -49.9°C | 3.3% | 0hPa | 2.7V | 00:00:00 | 01:32:28 | 00:00:00 | |
| 9A1FER-15 | 2026-09-02 12:38:07 | 45.82340 | 16.73886 | 294° | 15km/h | 24738m | 5.6m/s | -49.8°C | 3.2% | 0hPa | 2.7V | 00:00:00 | 01:32:23 | 00:00:00 | |
| 9A1FER-3 | 2026-09-02 12:38:06 | 45.82339 | 16.73892 | 290° | 13km/h | 24733m | 5.7m/s | -49.8°C | 3.2% | 0hPa | 2.7V | 00:00:00 | 01:32:22 | 00:00:00 | |
| PG1ADW-2 | 2026-09-02 12:37:59 | 45.82335 | 16.73932 | 264° | 11km/h | 24692m | 6.2m/s | -50.0°C | 3.2% | 0hPa | 2.5V | 00:00:00 | 01:32:15 | 00:00:00 | |
| 9A1FER-10 | 2026-09-02 12:37:57 | 45.82336 | 16.73941 | 254° | 13km/h | 24681m | 6.8m/s | -50.0°C | 3.3% | 0hPa | 2.5V | 00:00:00 | 01:32:13 | 08:30:00 | |
| OE8JPQ-2 | 2026-09-02 12:37:53 | 45.82339 | 16.73955 | 281° | 9km/h | 24658m | 5.5m/s | 0°C | 0% | 0hPa | 2.5V | 00:00:00 | 00:00:00 | 00:00:00 | |
| 9A1FER-15 | 2026-09-02 12:37:52 | 45.82338 | 16.73958 | 288° | 11km/h | 24653m | 6.0m/s | -50.1°C | 3.3% | 0hPa | 2.5V | 00:00:00 | 01:32:08 | 00:00:00 | |
| 9A1FER-3 | 2026-09-02 12:37:51 | 45.82338 | 16.73962 | 293° | 11km/h | 24647m | 5.8m/s | -50.1°C | 3.3% | 0hPa | 2.5V | 00:00:00 | 01:32:07 | 00:00:00 | |
| 9A1FER-10 | 2026-09-02 12:37:42 | 45.82316 | 16.73993 | 331° | 11km/h | 24596m | 5.4m/s | -50.5°C | 3.3% | 0hPa | 2.5V | 00:00:00 | 01:31:58 | 00:00:00 | |
| PG1ADW-2 | 2026-09-02 12:37:38 | 45.82310 | 16.74001 | 325° | 11km/h | 24572m | 6.7m/s | -50.4°C | 3.4% | 0hPa | 2.5V | 00:00:00 | 00:00:00 | 00:00:00 | |
| 9A1FER-15 | 2026-09-02 12:37:37 | 45.82309 | 16.74002 | 348° | 13km/h | 24566m | 5.2m/s | -50.5°C | 3.4% | 0hPa | 2.7V | 00:00:00 | 01:31:53 | 08:30:00 | |
| 9A1FER-3 | 2026-09-02 12:37:36 | 45.82307 | 16.74003 | 349° | 11km/h | 24560m | 5.6m/s | -50.6°C | 3.4% | 0hPa | 2.7V | 00:00:00 | 01:31:52 | 00:00:00 | |
| OE8JPQ-2 | 2026-09-02 12:37:33 | 45.82301 | 16.74006 | 335° | 13km/h | 24544m | 4.5m/s | 0°C | 0% | 0hPa | 2.7V | 00:00:00 | 01:31:49 | 00:00:00 | |
| 9A1FER-10 | 2026-09-02 12:37:27 | 45.82276 | 16.74019 | 332° | 11km/h | 24510m | 4.7m/s | -50.4°C | 3.4% | 0hPa | 2.7V | 00:00:00 | 01:31:43 | 00:00:00 | |
| PG1ADW-2 | 2026-09-02 12:37:18 | 45.82261 | 16.74025 | 318° | 15km/h | 24457m | 5.1m/s | -50.5°C | 3.3% | 0hPa | 2.7V | 00:00:00 | 00:00:00 | 00:00:00 | |
| 9A1FER-10 | 2026-09-02 12:37:12 | 45.82245 | 16.74056 | 311° | 15km/h | 24424m | 4.3m/s | -50.4°C | 3.3% | 0hPa | 2.7V | 00:00:00 | 01:31:28 | 00:00:00 | |
| 9A1FER-15 | 2026-09-02 12:37:07 | 45.82237 | 16.74074 | 331° | 16km/h | 24395m | 5.4m/s | -50.4°C | 3.4% | 0hPa | 2.7V | 00:00:00 | 01:31:23 | 00:00:00 | |
| 9A1FER-3 | 2026-09-02 12:37:06 | 45.82235 | 16.74075 | 339° | 16km/h | 24389m | 4.9m/s | -50.4°C | 3.4% | 0hPa | 2.7V | 00:00:00 | 01:31:22 | 00:00:00 | |
| PG1ADW-2 | 2026-09-02 12:36:58 | 45.82205 | 16.74092 | 339° | 15km/h | 24343m | 5.5m/s | -50.7°C | 3.3% | 0hPa | 2.7V | 00:00:00 | 00:00:00 | 00:00:00 | |
| 9A1FER-10 | 2026-09-02 12:36:57 | 45.82200 | 16.74095 | 341° | 16km/h | 24338m | 5.4m/s | -50.7°C | 3.3% | 0hPa | 2.7V | 00:00:00 | 01:31:13 | 00:00:00 | |
| 9A1FER-15 | 2026-09-02 12:36:52 | 45.82181 | 16.74097 | 356° | 15km/h | 24309m | 5.9m/s | -50.7°C | 3.4% | 0hPa | 2.7V | 00:00:00 | 01:31:08 | 00:00:00 | |
| 9A1FER-3 | 2026-09-02 12:36:48 | 45.82169 | 16.74101 | 347° | 15km/h | 24286m | 5.2m/s | -50.7°C | 3.4% | 0hPa | 2.7V | 00:00:00 | 01:31:04 | 00:00:00 | |
| OE8JPQ-2 | 2026-09-02 12:36:47 | 45.82164 | 16.74103 | 343° | 13km/h | 24281m | 5.7m/s | 0°C | 0% | 0hPa | 2.7V | 00:00:00 | 00:00:00 | 00:00:00 | |
| 9A1FER-10 | 2026-09-02 12:36:42 | 45.82144 | 16.74116 | 341° | 13km/h | 24250m | 5.1m/s | -50.8°C | 3.5% | 0hPa | 2.7V | 00:00:00 | 01:30:58 | 00:00:00 | |
| PETON7-10 | 2026-09-02 12:36:41 | 45.82140 | 16.74118 | 332° | 11km/h | 24244m | 6.7m/s | -50.9°C | 3.4% | 0hPa | 2.7V | 00:00:00 | 00:00:00 | 00:00:00 | |
| PG1ADW-2 | 2026-09-02 12:36:38 | 45.82134 | 16.74127 | 315° | 11km/h | 24225m | 6.9m/s | -51.1°C | 3.5% | 0hPa | 2.7V | 00:00:00 | 01:30:54 | 08:30:00 | |
| 9A1FER-15 | 2026-09-02 12:36:37 | 45.82133 | 16.74129 | 320° | 9km/h | 24219m | 5.6m/s | -51.0°C | 3.5% | 0hPa | 2.7V | 00:00:00 | 01:30:53 | 00:00:00 | |
| 9A1FER-3 | 2026-09-02 12:36:33 | 45.82125 | 16.74142 | 318° | 11km/h | 24195m | 6.3m/s | -50.9°C | 3.4% | 0hPa | 2.7V | 00:00:00 | 01:30:49 | 00:00:00 | |
| 9A1FER-10 | 2026-09-02 12:36:27 | 45.82110 | 16.74155 | 314° | 11km/h | 24160m | 5.2m/s | -51.0°C | 3.4% | 0hPa | 2.7V | 00:00:00 | 01:30:43 | 00:00:00 | |
| PETON7-10 | 2026-09-02 12:36:26 | 45.82108 | 16.74156 | 332° | 11km/h | 24154m | 6.8m/s | -51.0°C | 3.4% | 0hPa | 2.5V | 00:00:00 | 01:30:42 | 00:00:00 | |
| 9A1FER-15 | 2026-09-02 12:36:22 | 45.82103 | 16.74160 | 321° | 9km/h | 24129m | 5.1m/s | -50.9°C | 3.5% | 0hPa | 2.5V | 00:00:00 | 01:30:38 | 00:00:00 | |
| 9A1FER-3 | 2026-09-02 12:36:18 | 45.82091 | 16.74167 | 337° | 9km/h | 24104m | 7.1m/s | -51.1°C | 3.5% | 0hPa | 2.5V | 00:00:00 | 01:30:34 | 00:00:00 | |
| 9A1FER-10 | 2026-09-02 12:36:12 | 45.82073 | 16.74174 | 334° | 4km/h | 24068m | 6.7m/s | -51.0°C | 3.5% | 0hPa | 2.5V | 00:00:00 | 01:30:28 | 00:00:00 | |
| PETON7-10 | 2026-09-02 12:36:11 | 45.82072 | 16.74175 | 313° | 4km/h | 24062m | 5.6m/s | -50.9°C | 3.5% | 0hPa | 2.5V | 00:00:00 | 00:00:00 | 00:00:00 | |
| 9A1FER-15 | 2026-09-02 12:36:07 | 45.82070 | 16.74178 | 273° | 5km/h | 24038m | 7.1m/s | -50.9°C | 3.5% | 0hPa | 2.5V | 00:00:00 | 01:30:23 | 00:00:00 | |
| 9A1FER-3 | 2026-09-02 12:36:03 | 45.82069 | 16.74183 | 357° | 5km/h | 24014m | 4.6m/s | -50.8°C | 3.4% | 0hPa | 2.5V | 00:00:00 | 01:30:19 | 00:00:00 | |
| PG1ADW-2 | 2026-09-02 12:35:58 | 45.82067 | 16.74187 | 334° | 5km/h | 23983m | 5.0m/s | -50.9°C | 3.4% | 0hPa | 2.5V | 00:00:00 | 00:00:00 | 00:00:00 | |
| PETON7-10 | 2026-09-02 12:35:56 | 45.82066 | 16.74190 | 294° | 5km/h | 23972m | 7.0m/s | -50.9°C | 3.4% | 0hPa | 2.5V | 00:00:00 | 00:00:00 | 00:00:00 | |
| 9A1FER-15 | 2026-09-02 12:35:52 | 45.82062 | 16.74201 | 313° | 5km/h | 23949m | 5.7m/s | -51.1°C | 3.4% | 0hPa | 2.5V | 00:00:00 | 01:30:08 | 00:00:00 | |
| 9A1FER-3 | 2026-09-02 12:35:48 | 45.82061 | 16.74206 | 266° | 5km/h | 23926m | 5.7m/s | -51.1°C | 3.4% | 0hPa | 2.5V | 00:00:00 | 01:30:04 | 00:00:00 | |
| PETON7-10 | 2026-09-02 12:35:42 | 45.82064 | 16.74218 | 239° | 7km/h | 23884m | 7.2m/s | -51.1°C | 3.5% | 0hPa | 2.7V | 00:00:00 | 01:29:57 | 00:00:00 | |
| PG1ADW-2 | 2026-09-02 12:35:38 | 45.82066 | 16.74223 | 261° | 9km/h | 23866m | 6.7m/s | -51.0°C | 3.5% | 0hPa | 2.7V | 00:00:00 | 00:00:00 | 00:00:00 | |
| 9A1FER-15 | 2026-09-02 12:35:37 | 45.82066 | 16.74226 | 269° | 9km/h | 23860m | 5.1m/s | -51.0°C | 3.4% | 0hPa | 2.5V | 00:00:00 | 01:29:53 | 00:00:00 | |
| 9A1FER-3 | 2026-09-02 12:35:33 | 45.82067 | 16.74233 | 239° | 11km/h | 23837m | 5.4m/s | -51.0°C | 3.3% | 0hPa | 2.5V | 00:00:00 | 01:29:49 | 00:00:00 | |
| 9A1FER-10 | 2026-09-02 12:35:27 | 45.82073 | 16.74246 | 247° | 13km/h | 23802m | 6.9m/s | -51.0°C | 3.4% | 0hPa | 2.5V | 00:00:00 | 01:29:43 | 00:00:00 | |
| PETON7-10 | 2026-09-02 12:35:26 | 45.82074 | 16.74251 | 252° | 13km/h | 23795m | 5.3m/s | -51.1°C | 3.4% | 0hPa | 2.5V | 00:00:00 | 00:00:00 | 08:30:00 | |
| 9A1FER-15 | 2026-09-02 12:35:22 | 45.82079 | 16.74268 | 233° | 15km/h | 23773m | 5.0m/s | -51.2°C | 3.4% | 0hPa | 2.7V | 00:00:00 | 01:29:38 | 08:30:00 | |
| PG1ADW-2 | 2026-09-02 12:35:18 | 45.82084 | 16.74283 | 255° | 15km/h | 23749m | 7.0m/s | -51.7°C | 3.5% | 0hPa | 2.7V | 00:00:00 | 01:29:34 | 00:00:00 | |
| 9A1FER-10 | 2026-09-02 12:35:12 | 45.82096 | 16.74303 | 201° | 15km/h | 23716m | 6.5m/s | -51.8°C | 3.5% | 0hPa | 2.7V | 00:00:00 | 01:29:28 | 00:00:00 | |
| PETON7-10 | 2026-09-02 12:35:11 | 45.82101 | 16.74304 | 190° | 15km/h | 23710m | 5.7m/s | -51.8°C | 3.6% | 0hPa | 2.7V | 00:00:00 | 00:00:00 | 00:00:00 | |
| 9A1FER-15 | 2026-09-02 12:35:07 | 45.82121 | 16.74309 | 187° | 11km/h | 23687m | 5.4m/s | -51.9°C | 3.7% | 0hPa | 2.7V | 00:00:00 | 01:29:23 | 00:00:00 | |
| 9A1FER-3 | 2026-09-02 12:35:03 | 45.82136 | 16.74308 | 190° | 7km/h | 23664m | 6.1m/s | -51.9°C | 3.6% | 0hPa | 2.7V | 00:00:00 | 01:29:19 | 08:30:00 | |
| PG1ADW-2 | 2026-09-02 12:34:58 | 45.82147 | 16.74311 | 188° | 5km/h | 23636m | 6.2m/s | -51.9°C | 3.5% | 0hPa | 2.7V | 00:00:00 | 00:00:00 | 00:00:00 | |
| 9A1FER-10 | 2026-09-02 12:34:57 | 45.82149 | 16.74312 | 199° | 5km/h | 23631m | 5.7m/s | -51.8°C | 3.5% | 0hPa | 2.7V | 00:00:00 | 01:29:13 | 00:00:00 | |
| PETON7-10 | 2026-09-02 12:34:56 | 45.82151 | 16.74313 | 199° | 5km/h | 23625m | 4.5m/s | -51.8°C | 3.5% | 0hPa | 2.5V | 00:00:00 | 01:29:12 | 00:00:00 | |
| 9A1FER-15 | 2026-09-02 12:34:52 | 45.82159 | 16.74313 | 188° | 4km/h | 23602m | 6.1m/s | -51.9°C | 3.6% | 0hPa | 2.5V | 00:00:00 | 01:29:08 | 00:00:00 | |
| 9A1FER-3 | 2026-09-02 12:34:48 | 45.82163 | 16.74310 | 109° | 5km/h | 23580m | 5.1m/s | -51.8°C | 3.6% | 0hPa | 2.5V | 00:00:00 | 01:29:04 | 00:00:00 | |
| 9A1FER-10 | 2026-09-02 12:34:42 | 45.82163 | 16.74302 | 79° | 7km/h | 23546m | 5.6m/s | -51.9°C | 3.6% | 0hPa | 2.5V | 00:00:00 | 01:28:58 | 00:00:00 | |
| PETON7-10 | 2026-09-02 12:34:41 | 45.82162 | 16.74301 | 53° | 7km/h | 23541m | 5.8m/s | -51.7°C | 3.6% | 0hPa | 2.5V | 00:00:00 | 00:00:00 | 00:00:00 | |
| 9A1FER-15 | 2026-09-02 12:34:38 | 45.82159 | 16.74298 | 45° | 7km/h | 23521m | 5.3m/s | -51.8°C | 3.5% | 0hPa | 2.5V | 00:00:00 | 01:28:53 | 00:00:00 | |
| 9A1FER-3 | 2026-09-02 12:34:33 | 45.82152 | 16.74290 | 50° | 7km/h | 23499m | 5.4m/s | -51.8°C | 3.5% | 0hPa | 2.5V | 00:00:00 | 01:28:49 | 00:00:00 | |
| OE5DRO-10 | 2026-09-02 12:34:32 | 45.82151 | 16.74288 | 77° | 5km/h | 23493m | 5.8m/s | -51.8°C | 3.5% | 0hPa | 2.5V | 00:00:00 | 00:00:00 | 00:00:00 | |
| 9A1FER-10 | 2026-09-02 12:34:27 | 45.82155 | 16.74275 | 164° | 5km/h | 23467m | 5.0m/s | -52.0°C | 3.7% | 0hPa | 2.5V | 00:00:00 | 01:28:43 | 00:00:00 | |
| PETON7-10 | 2026-09-02 12:34:26 | 45.82157 | 16.74275 | 157° | 5km/h | 23461m | 6.6m/s | -52.0°C | 3.7% | 0hPa | 2.5V | 00:00:00 | 00:00:00 | 00:00:00 | |
| 9A1FER-15 | 2026-09-02 12:34:22 | 45.82161 | 16.74271 | 86° | 5km/h | 23439m | 5.3m/s | -52.0°C | 3.6% | 0hPa | 2.5V | 00:00:00 | 01:28:38 | 00:00:00 | |
| 9A1FER-3 | 2026-09-02 12:34:18 | 45.82162 | 16.74265 | 117° | 5km/h | 23418m | 5.7m/s | -52.1°C | 3.5% | 0hPa | 2.5V | 00:00:00 | 01:28:34 | 00:00:00 | |
| 9A1FER-10 | 2026-09-02 12:34:12 | 45.82169 | 16.74268 | 223° | 7km/h | 23384m | 5.5m/s | -52.0°C | 3.7% | 0hPa | 2.5V | 00:00:00 | 01:28:28 | 00:00:00 | |
| PETON7-10 | 2026-09-02 12:34:11 | 45.82170 | 16.74269 | 233° | 7km/h | 23379m | 3.9m/s | -52.0°C | 3.7% | 0hPa | 2.7V | 00:00:00 | 01:28:27 | 00:00:00 | |
| OE5DRO-10 | 2026-09-02 12:34:10 | 45.82171 | 16.74270 | 209° | 5km/h | 23374m | 6.3m/s | -52.1°C | 3.6% | 0hPa | 2.7V | 00:00:00 | 00:00:00 | 00:00:00 | |
| 9A1FER-15 | 2026-09-02 12:34:07 | 45.82169 | 16.74267 | 27° | 7km/h | 23357m | 6.6m/s | -52.1°C | 3.5% | 0hPa | 2.5V | 00:00:00 | 01:28:23 | 00:00:00 | |
| 9A1FER-3 | 2026-09-02 12:34:03 | 45.82161 | 16.74263 | 41° | 5km/h | 23336m | 4.7m/s | -52.3°C | 3.5% | 0hPa | 2.5V | 00:00:00 | 01:28:19 | 00:00:00 | |
| 9A1FER-10 | 2026-09-02 12:33:57 | 45.82167 | 16.74274 | 217° | 7km/h | 23304m | 4.4m/s | -52.7°C | 3.7% | 0hPa | 2.5V | 00:00:00 | 01:28:13 | 00:00:00 | |
| PETON7-10 | 2026-09-02 12:33:56 | 45.82169 | 16.74276 | 231° | 7km/h | 23298m | 6.3m/s | -52.7°C | 3.8% | 0hPa | 2.5V | 00:00:00 | 00:00:00 | 00:00:00 | |
| 9A1FER-15 | 2026-09-02 12:33:52 | 45.82170 | 16.74279 | 57° | 9km/h | 23276m | 5.4m/s | -52.7°C | 3.8% | 0hPa | 2.7V | 00:00:00 | 01:28:08 | 00:00:00 | |
| OE5DRO-10 | 2026-09-02 12:33:49 | 45.82166 | 16.74275 | 45° | 9km/h | 23260m | 4.3m/s | -52.7°C | 3.7% | 0hPa | 2.7V | 00:00:00 | 00:00:00 | 00:00:00 | |
| 9A1FER-3 | 2026-09-02 12:33:48 | 45.82166 | 16.74274 | 84° | 9km/h | 23255m | 6.4m/s | -52.8°C | 3.8% | 0hPa | 2.7V | 00:00:00 | 01:28:04 | 00:00:00 | |
| PETON7-10 | 2026-09-02 12:33:41 | 45.82182 | 16.74267 | 166° | 11km/h | 23215m | 5.0m/s | -52.6°C | 3.7% | 0hPa | 2.7V | 00:00:00 | 00:00:00 | 00:00:00 | |
| 9A1FER-15 | 2026-09-02 12:33:37 | 45.82189 | 16.74261 | 108° | 13km/h | 23193m | 5.2m/s | -52.5°C | 3.7% | 0hPa | 2.7V | 00:00:00 | 01:27:53 | 00:00:00 | |
| PG1ADW-2 | 2026-09-02 12:33:34 | 45.82189 | 16.74251 | 83° | 13km/h | 23177m | 4.9m/s | 0°C | 0% | 0hPa | 2.7V | 00:00:00 | 00:00:00 | 08:30:00 | |
| 9A1FER-3 | 2026-09-02 12:33:33 | 45.82189 | 16.74248 | 94° | 15km/h | 23172m | 4.5m/s | -52.6°C | 3.6% | 0hPa | 2.7V | 00:00:00 | 01:27:49 | 00:00:00 | |
| OE5DRO-10 | 2026-09-02 12:33:30 | 45.82193 | 16.74238 | 139° | 15km/h | 23156m | 4.6m/s | -52.8°C | 3.6% | 0hPa | 2.5V | 00:00:00 | 00:00:00 | 00:00:00 | |
| PETON7-10 | 2026-09-02 12:33:26 | 45.82208 | 16.74229 | 157° | 18km/h | 23135m | 6.1m/s | -52.8°C | 3.7% | 0hPa | 2.5V | 00:00:00 | 01:27:42 | 00:00:00 | |
| 9A1FER-10 | 2026-09-02 12:33:25 | 45.82212 | 16.74225 | 148° | 18km/h | 23129m | 4.5m/s | -52.8°C | 3.6% | 0hPa | 2.5V | 00:00:00 | 01:27:41 | 00:00:00 | |
| 9A1FER-15 | 2026-09-02 12:33:22 | 45.82221 | 16.74214 | 119° | 20km/h | 23113m | 4.4m/s | -52.8°C | 3.8% | 0hPa | 2.5V | 00:00:00 | 01:27:38 | 00:00:00 | |
| 9A1FER-3 | 2026-09-02 12:33:18 | 45.82224 | 16.74191 | 101° | 22km/h | 23093m | 5.9m/s | -53.1°C | 3.7% | 0hPa | 2.5V | 00:00:00 | 01:27:34 | 00:00:00 | |
| PG1ADW-2 | 2026-09-02 12:33:14 | 45.82234 | 16.74167 | 132° | 24km/h | 23071m | 4.8m/s | 0°C | 0% | 0hPa | 2.5V | 00:00:00 | 00:00:00 | 00:00:00 | |
| PETON7-10 | 2026-09-02 12:33:11 | 45.82248 | 16.74150 | 146° | 22km/h | 23055m | 4.4m/s | -53.3°C | 3.8% | 0hPa | 2.5V | 00:00:00 | 00:00:00 | 08:30:00 | |
| 9A1FER-10 | 2026-09-02 12:33:10 | 45.82253 | 16.74145 | 143° | 24km/h | 23051m | 4.9m/s | -53.4°C | 3.7% | 0hPa | 2.7V | 00:00:00 | 01:27:26 | 08:30:00 | |
| 9A1FER-15 | 2026-09-02 12:33:07 | 45.82265 | 16.74125 | 121° | 22km/h | 23036m | 4.8m/s | -53.6°C | 3.8% | 0hPa | 2.5V | 00:00:00 | 01:27:23 | 08:30:00 | |
| 9A1FER-3 | 2026-09-02 12:33:03 | 45.82274 | 16.74095 | 110° | 22km/h | 23015m | 4.4m/s | -53.7°C | 3.8% | 0hPa | 2.5V | 00:00:00 | 01:27:19 | 00:00:00 | |
| PETON7-10 | 2026-09-02 12:32:56 | 45.82280 | 16.74042 | 93° | 22km/h | 22977m | 6.1m/s | -53.7°C | 3.9% | 0hPa | 2.5V | 00:00:00 | 00:00:00 | 00:00:00 | |
| 9A1FER-10 | 2026-09-02 12:32:55 | 45.82280 | 16.74034 | 88° | 22km/h | 22971m | 5.7m/s | -53.7°C | 3.9% | 0hPa | 2.5V | 00:00:00 | 01:27:11 | 00:00:00 | |
| 9A1FER-15 | 2026-09-02 12:32:52 | 45.82279 | 16.74009 | 90° | 20km/h | 22954m | 4.5m/s | -53.7°C | 3.9% | 0hPa | 2.5V | 00:00:00 | 01:27:08 | 00:00:00 | |
| 9A1FER-3 | 2026-09-02 12:32:48 | 45.82275 | 16.73974 | 75° | 22km/h | 22934m | 5.5m/s | -53.7°C | 3.8% | 0hPa | 2.5V | 00:00:00 | 01:27:04 | 08:30:00 | |
| PG1ADW-2 | 2026-09-02 12:32:45 | 45.82270 | 16.73948 | 74° | 18km/h | 22918m | 6.8m/s | 0°C | 0% | 0hPa | 2.5V | 00:00:00 | 00:00:00 | 00:00:00 | |
| 9A1FER-15 | 2026-09-02 12:32:38 | 45.82262 | 16.73903 | 66° | 22km/h | 22876m | 5.9m/s | -53.7°C | 3.7% | 0hPa | 2.5V | 00:00:00 | 01:26:53 | 00:00:00 | |
| 9A1FER-3 | 2026-09-02 12:32:33 | 45.82245 | 16.73868 | 48° | 22km/h | 22854m | 5.0m/s | -53.9°C | 3.7% | 0hPa | 2.5V | 00:00:00 | 01:26:49 | 00:00:00 | |
| PETON7-10 | 2026-09-02 12:32:25 | 45.82220 | 16.73823 | 65° | 20km/h | 22809m | 5.8m/s | -54.6°C | 4.1% | 0hPa | 2.5V | 00:00:00 | 00:00:00 | 00:00:00 | |
| 9A1FER-15 | 2026-09-02 12:32:22 | 45.82212 | 16.73808 | 53° | 20km/h | 22792m | 6.7m/s | -54.5°C | 4.1% | 0hPa | 2.7V | 00:00:00 | 01:26:38 | 00:00:00 | |
| 9A1FER-3 | 2026-09-02 12:32:18 | 45.82191 | 16.73779 | 34° | 18km/h | 22770m | 4.7m/s | -54.4°C | 4.0% | 0hPa | 2.7V | 00:00:00 | 01:26:34 | 00:00:00 | |
| PETON7-10 | 2026-09-02 12:32:10 | 45.82167 | 16.73743 | 78° | 13km/h | 22727m | 6.5m/s | -54.8°C | 4.1% | 0hPa | 2.7V | 00:00:00 | 00:00:00 | 00:00:00 | |
| 9A1FER-15 | 2026-09-02 12:32:07 | 45.82163 | 16.73729 | 54° | 13km/h | 22710m | 4.8m/s | -54.7°C | 4.2% | 0hPa | 2.7V | 00:00:00 | 01:26:23 | 00:00:00 | |
| 9A1FER-3 | 2026-09-02 12:32:03 | 45.82150 | 16.73707 | 49° | 13km/h | 22688m | 4.8m/s | -54.7°C | 4.2% | 0hPa | 2.7V | 00:00:00 | 01:26:19 | 00:00:00 | |
| 9A1FER-10 | 2026-09-02 12:31:55 | 45.82139 | 16.73691 | 72° | 15km/h | 22645m | 5.0m/s | -54.4°C | 4.1% | 0hPa | 2.7V | 00:00:00 | 01:26:11 | 00:00:00 | |
| 9A1FER-15 | 2026-09-02 12:31:52 | 45.82136 | 16.73678 | 69° | 16km/h | 22629m | 5.5m/s | -54.3°C | 4.0% | 0hPa | 2.7V | 00:00:00 | 01:26:08 | 00:00:00 | |
| OE5DRO-10 | 2026-09-02 12:31:45 | 45.82118 | 16.73653 | 29° | 15km/h | 22590m | 6.1m/s | -54.1°C | 4.1% | 0hPa | 2.7V | 00:00:00 | 00:00:00 | 00:00:00 | |
| PETON7-10 | 2026-09-02 12:31:40 | 45.82100 | 16.73634 | 39° | 16km/h | 22562m | 6.2m/s | -54.1°C | 4.0% | 0hPa | 2.7V | 00:00:00 | 00:00:00 | 00:00:00 | |
| PG1ADW-2 | 2026-09-02 12:31:38 | 45.82091 | 16.73623 | 44° | 20km/h | 22551m | 5.6m/s | 0°C | 0% | 0hPa | 2.5V | 00:00:00 | 01:25:54 | 00:00:00 | |
| 9A1FER-15 | 2026-09-02 12:31:37 | 45.82086 | 16.73617 | 52° | 15km/h | 22545m | 6.2m/s | -54.0°C | 4.0% | 0hPa | 2.5V | 00:00:00 | 01:25:53 | 00:00:00 | |
| 9A1FER-10 | 2026-09-02 12:31:25 | 45.82051 | 16.73579 | 51° | 13km/h | 22478m | 4.7m/s | -53.7°C | 4.0% | 0hPa | 2.5V | 00:00:00 | 01:25:41 | 00:00:00 | |
| OE5DRO-10 | 2026-09-02 12:31:23 | 45.82046 | 16.73571 | 38° | 9km/h | 22467m | 5.9m/s | -53.6°C | 4.0% | 0hPa | 2.5V | 00:00:00 | 00:00:00 | 00:00:00 | |
| 9A1FER-15 | 2026-09-02 12:31:22 | 45.82043 | 16.73568 | 26° | 11km/h | 22462m | 5.0m/s | -53.6°C | 4.0% | 0hPa | 2.5V | 00:00:00 | 01:25:38 | 00:00:00 | |
| 9A1FER-10 | 2026-09-02 12:31:10 | 45.82008 | 16.73550 | 109° | 7km/h | 22394m | 6.5m/s | -53.4°C | 3.9% | 0hPa | 2.5V | 00:00:00 | 01:25:26 | 00:00:00 | |
| 9A1FER-15 | 2026-09-02 12:31:07 | 45.82007 | 16.73550 | 341° | 7km/h | 22376m | 5.9m/s | -53.4°C | 4.0% | 0hPa | 2.5V | 00:00:00 | 01:25:23 | 00:00:00 | |
| OE5DRO-10 | 2026-09-02 12:31:04 | 45.82001 | 16.73552 | 350° | 7km/h | 22359m | 5.9m/s | -53.3°C | 3.9% | 0hPa | 2.5V | 00:00:00 | 00:00:00 | 00:00:00 | |
| PETON7-10 | 2026-09-02 12:30:55 | 45.81983 | 16.73554 | 359° | 11km/h | 22307m | 4.8m/s | -53.1°C | 3.8% | 0hPa | 2.5V | 00:00:00 | 00:00:00 | 08:30:00 | |
| 9A1FER-15 | 2026-09-02 12:30:52 | 45.81980 | 16.73553 | 356° | 13km/h | 22290m | 5.3m/s | -53.1°C | 3.8% | 0hPa | 2.7V | 00:00:00 | 01:25:08 | 08:30:00 | |
| OE5DRO-10 | 2026-09-02 12:30:47 | 45.81964 | 16.73549 | 17° | 15km/h | 22248m | 5.7m/s | -52.9°C | 3.8% | 0hPa | 2.7V | 00:00:00 | 00:00:00 | 08:30:00 | |
| 9A1FER-3 | 2026-09-02 12:30:37 | 45.81935 | 16.73530 | 47° | 13km/h | 22203m | 4.8m/s | -52.9°C | 3.7% | 0hPa | 2.6V | 00:00:00 | 01:24:53 | 00:00:00 | |
| OE5DRO-10 | 2026-09-02 12:30:26 | 45.81898 | 16.73518 | 19° | 9km/h | 22141m | 4.7m/s | -52.7°C | 3.7% | 0hPa | 2.6V | 00:00:00 | 00:00:00 | 00:00:00 | |
| 9A1FER-10 | 2026-09-02 12:30:25 | 45.81896 | 16.73516 | 23° | 9km/h | 22136m | 5.6m/s | -52.8°C | 3.7% | 0hPa | 2.6V | 00:00:00 | 01:24:41 | 00:00:00 | |
| 9A1FER-15 | 2026-09-02 12:30:22 | 45.81887 | 16.73508 | 45° | 9km/h | 22119m | 7.0m/s | -53.3°C | 3.8% | 0hPa | 2.6V | 00:00:00 | 01:24:38 | 00:00:00 | |
| 9A1FER-3 | 2026-09-02 12:30:21 | 45.81885 | 16.73505 | 54° | 9km/h | 22112m | 5.3m/s | -53.4°C | 3.9% | 0hPa | 2.6V | 00:00:00 | 01:24:37 | 00:00:00 | |
| PETON7-10 | 2026-09-02 12:30:10 | 45.81866 | 16.73511 | 39° | 7km/h | 22050m | 6.2m/s | -53.3°C | 3.9% | 0hPa | 2.6V | 00:00:00 | 00:00:00 | 00:00:00 | |
| 9A1FER-3 | 2026-09-02 12:30:04 | 45.81861 | 16.73498 | 68° | 7km/h | 22016m | 5.6m/s | -53.2°C | 3.8% | 0hPa | 2.6V | 00:00:00 | 01:24:20 | 00:00:00 | |
| 9A1FER-10 | 2026-09-02 12:29:55 | 45.81850 | 16.73487 | 40° | 11km/h | 21967m | 5.2m/s | -52.9°C | 3.8% | 0hPa | 2.7V | 00:00:00 | 01:24:11 | 00:00:00 | |
| 9A1FER-15 | 2026-09-02 12:29:52 | 45.81847 | 16.73482 | 38° | 11km/h | 21951m | 6.0m/s | -53.1°C | 3.8% | 0hPa | 2.7V | 00:00:00 | 01:24:08 | 00:00:00 | |
| OE5DRO-10 | 2026-09-02 12:29:48 | 45.81839 | 16.73478 | 30° | 16km/h | 21928m | 5.1m/s | -53.1°C | 3.8% | 0hPa | 2.7V | 00:00:00 | 00:00:00 | 00:00:00 | |
| 9A1FER-3 | 2026-09-02 12:29:47 | 45.81836 | 16.73475 | 30° | 16km/h | 21922m | 5.7m/s | -53.1°C | 3.8% | 0hPa | 2.7V | 00:00:00 | 01:24:03 | 00:00:00 | |
| PETON7-10 | 2026-09-02 12:29:40 | 45.81820 | 16.73454 | 18° | 18km/h | 21885m | 5.5m/s | -53.0°C | 3.9% | 0hPa | 2.7V | 00:00:00 | 01:23:56 | 00:00:00 | |
| 9A1FER-15 | 2026-09-02 12:29:37 | 45.81808 | 16.73453 | 353° | 22km/h | 21867m | 5.5m/s | -53.0°C | 3.8% | 0hPa | 2.7V | 00:00:00 | 01:23:53 | 00:00:00 | |
| 9A1FER-3 | 2026-09-02 12:29:32 | 45.81780 | 16.73459 | 15° | 26km/h | 21840m | 4.6m/s | -53.0°C | 3.7% | 0hPa | 2.7V | 00:00:00 | 01:23:48 | 00:00:00 | |
| OE5DRO-10 | 2026-09-02 12:29:29 | 45.81769 | 16.73452 | 23° | 29km/h | 21825m | 4.8m/s | -52.9°C | 3.6% | 0hPa | 2.7V | 00:00:00 | 00:00:00 | 00:00:00 | |
| 9A1FER-10 | 2026-09-02 12:29:25 | 45.81748 | 16.73447 | 357° | 29km/h | 21804m | 6.4m/s | -53.2°C | 3.7% | 0hPa | 2.7V | 00:00:00 | 01:23:41 | 00:00:00 | |
| 9A1FER-15 | 2026-09-02 12:29:22 | 45.81727 | 16.73453 | 346° | 29km/h | 21788m | 5.9m/s | -53.4°C | 3.8% | 0hPa | 2.5V | 00:00:00 | 01:23:38 | 00:00:00 | |
| 9A1FER-3 | 2026-09-02 12:29:17 | 45.81682 | 16.73466 | 353° | 24km/h | 21761m | 5.2m/s | -53.5°C | 3.8% | 0hPa | 2.7V | 00:00:00 | 01:23:33 | 08:30:00 | |
| PETON7-10 | 2026-09-02 12:29:10 | 45.81636 | 16.73467 | 356° | 20km/h | 21722m | 4.9m/s | -53.8°C | 3.8% | 0hPa | 2.5V | 00:00:00 | 00:00:00 | 00:00:00 | |
| 9A1FER-3 | 2026-09-02 12:29:02 | 45.81595 | 16.73475 | 354° | 18km/h | 21679m | 4.9m/s | -54.2°C | 4.0% | 0hPa | 2.5V | 00:00:00 | 01:23:18 | 00:00:00 | |
| PETON7-10 | 2026-09-02 12:28:55 | 45.81561 | 16.73483 | 332° | 20km/h | 21641m | 6.0m/s | -54.2°C | 4.1% | 0hPa | 2.5V | 00:00:00 | 01:23:11 | 00:00:00 | |
| 9A1FER-15 | 2026-09-02 12:28:52 | 45.81550 | 16.73492 | 323° | 20km/h | 21625m | 6.5m/s | -54.2°C | 4.0% | 0hPa | 2.5V | 00:00:00 | 01:23:08 | 00:00:00 | |
| OE5DRO-10 | 2026-09-02 12:28:50 | 45.81544 | 16.73500 | 321° | 18km/h | 21614m | 4.9m/s | -54.2°C | 4.0% | 0hPa | 2.5V | 00:00:00 | 00:00:00 | 00:00:00 | |
| 9A1FER-3 | 2026-09-02 12:28:47 | 45.81531 | 16.73511 | 332° | 18km/h | 21598m | 5.9m/s | -54.0°C | 3.9% | 0hPa | 2.5V | 00:00:00 | 01:23:03 | 00:00:00 | |
| 9A1FER-10 | 2026-09-02 12:28:40 | 45.81500 | 16.73541 | 299° | 15km/h | 21561m | 4.3m/s | -53.8°C | 3.8% | 0hPa | 2.5V | 00:00:00 | 01:22:56 | 08:30:00 | |
| 9A1FER-15 | 2026-09-02 12:28:37 | 45.81495 | 16.73556 | 283° | 15km/h | 21545m | 5.1m/s | -54.2°C | 3.9% | 0hPa | 2.6V | 00:00:00 | 01:22:53 | 08:30:00 | |
| 9A1FER-3 | 2026-09-02 12:28:32 | 45.81489 | 16.73581 | 319° | 15km/h | 21518m | 3.6m/s | -54.7°C | 4.1% | 0hPa | 2.5V | 00:00:00 | 01:22:48 | 00:00:00 | |
| OE5DRO-10 | 2026-09-02 12:28:31 | 45.81486 | 16.73585 | 317° | 13km/h | 21513m | 5.9m/s | -54.6°C | 4.1% | 0hPa | 2.6V | 00:00:00 | 00:00:00 | 00:00:00 | |
| PETON7-10 | 2026-09-02 12:28:25 | 45.81475 | 16.73613 | 283° | 11km/h | 21482m | 5.2m/s | -54.7°C | 4.2% | 0hPa | 2.6V | 00:00:00 | 00:00:00 | 00:00:00 | |
| 9A1FER-15 | 2026-09-02 12:28:22 | 45.81476 | 16.73627 | 245° | 11km/h | 21465m | 6.7m/s | -54.7°C | 4.1% | 0hPa | 2.6V | 00:00:00 | 01:22:38 | 00:00:00 | |
| 9A1FER-3 | 2026-09-02 12:28:17 | 45.81485 | 16.73649 | 253° | 13km/h | 21439m | 5.7m/s | -54.6°C | 4.1% | 0hPa | 2.6V | 00:00:00 | 01:22:33 | 00:00:00 | |
| OE5DRO-10 | 2026-09-02 12:28:12 | 45.81486 | 16.73662 | 229° | 13km/h | 21412m | 5.0m/s | -54.3°C | 4.1% | 0hPa | 2.6V | 00:00:00 | 00:00:00 | 00:00:00 | |
| PETON7-10 | 2026-09-02 12:28:10 | 45.81490 | 16.73664 | 188° | 13km/h | 21401m | 5.0m/s | -54.3°C | 4.1% | 0hPa | 2.6V | 00:00:00 | 01:22:26 | 00:00:00 | |
| 9A1FER-15 | 2026-09-02 12:28:07 | 45.81503 | 16.73668 | 194° | 13km/h | 21384m | 6.4m/s | -54.4°C | 4.1% | 0hPa | 2.6V | 00:00:00 | 01:22:23 | 00:00:00 | |
| 9A1FER-3 | 2026-09-02 12:28:02 | 45.81520 | 16.73680 | 224° | 13km/h | 21356m | 6.5m/s | -54.2°C | 4.0% | 0hPa | 2.6V | 00:00:00 | 01:22:18 | 00:00:00 | |
| OE3JTB-15 | 2026-09-02 12:28:00 | 45.81526 | 16.73687 | 209° | 18km/h | 21334m | 4.0m/s | -54.2°C | 4.0% | 0hPa | 2.6V | 00:00:00 | 00:00:00 | 00:00:00 | |
| 9A1FER-10 | 2026-09-02 12:27:55 | 45.81532 | 16.73689 | 195° | 16km/h | 21318m | 6.3m/s | -54.1°C | 3.9% | 0hPa | 2.6V | 00:00:00 | 01:22:11 | 00:00:00 | |
| OE5DRO-10 | 2026-09-02 12:27:53 | 45.81539 | 16.73692 | 198° | 18km/h | 21307m | 4.4m/s | -54.2°C | 4.0% | 0hPa | 2.7V | 00:00:00 | 00:00:00 | 08:30:00 | |
| 9A1FER-15 | 2026-09-02 12:27:52 | 45.81544 | 16.73693 | 191° | 18km/h | 21302m | 6.5m/s | -54.1°C | 4.0% | 0hPa | 2.7V | 00:00:00 | 01:22:08 | 00:00:00 | |
| 9A1FER-3 | 2026-09-02 12:27:48 | 45.81566 | 16.73698 | 171° | 9km/h | 21274m | 5.7m/s | -54.1°C | 4.0% | 0hPa | 2.7V | 00:00:00 | 01:22:03 | 00:00:00 | |
| PETON7-10 | 2026-09-02 12:27:40 | 45.81594 | 16.73689 | 163° | 22km/h | 21236m | 5.0m/s | -54.2°C | 4.0% | 0hPa | 2.7V | 00:00:00 | 00:00:00 | 00:00:00 | |
| 9A1FER-15 | 2026-09-02 12:27:37 | 45.81611 | 16.73684 | 171° | 22km/h | 21219m | 5.3m/s | -54.1°C | 4.0% | 0hPa | 2.7V | 00:00:00 | 01:21:53 | 00:00:00 | |
| OE5DRO-10 | 2026-09-02 12:27:34 | 45.81628 | 16.73676 | 156° | 20km/h | 21201m | 6.3m/s | -53.9°C | 3.9% | 0hPa | 2.7V | 00:00:00 | 00:00:00 | 00:00:00 | |
| OE3JTB-15 | 2026-09-02 12:27:30 | 45.81654 | 16.73647 | 140° | 15km/h | 21168m | 6.3m/s | -54.1°C | 4.0% | 0hPa | 2.7V | 00:00:00 | 01:21:44 | 00:00:00 | |
| 9A1FER-10 | 2026-09-02 12:27:25 | 45.81668 | 16.73636 | 159° | 18km/h | 21151m | 5.8m/s | -54.2°C | 4.0% | 0hPa | 2.7V | 00:00:00 | 01:21:41 | 00:00:00 | |
| 9A1FER-15 | 2026-09-02 12:27:22 | 45.81683 | 16.73631 | 178° | 18km/h | 21135m | 4.8m/s | -54.2°C | 4.0% | 0hPa | 2.7V | 00:00:00 | 01:21:38 | 00:00:00 | |
| OE5DRO-10 | 2026-09-02 12:27:15 | 45.81710 | 16.73615 | 143° | 15km/h | 21098m | 4.9m/s | -54.1°C | 4.1% | 0hPa | 2.7V | 00:00:00 | 00:00:00 | 00:00:00 | |
| 9A1FER-10 | 2026-09-02 12:27:10 | 45.81728 | 16.73597 | 152° | 15km/h | 21069m | 5.6m/s | -54.0°C | 4.1% | 0hPa | 2.7V | 00:00:00 | 01:21:26 | 00:00:00 | |
| 9A1FER-15 | 2026-09-02 12:27:07 | 45.81740 | 16.73587 | 154° | 13km/h | 21053m | 6.6m/s | -54.0°C | 4.0% | 0hPa | 2.5V | 00:00:00 | 01:21:23 | 00:00:00 | |
| OE5DRO-10 | 2026-09-02 12:26:56 | 45.81767 | 16.73556 | 148° | 9km/h | 20993m | 6.9m/s | -53.6°C | 3.9% | 0hPa | 2.5V | 00:00:00 | 00:00:00 | 00:00:00 | |
| PETON7-10 | 2026-09-02 12:26:55 | 45.81769 | 16.73554 | 137° | 9km/h | 20987m | 4.6m/s | -53.6°C | 4.0% | 0hPa | 2.6V | 00:00:00 | 00:00:00 | 00:00:00 | |
| 9A1FER-15 | 2026-09-02 12:26:52 | 45.81775 | 16.73545 | 123° | 7km/h | 20971m | 5.9m/s | -53.5°C | 3.9% | 0hPa | 2.6V | 00:00:00 | 01:21:08 | 00:00:00 | |
| 9A1FER-10 | 2026-09-02 12:26:40 | 45.81790 | 16.73523 | 127° | 5km/h | 20904m | 4.4m/s | -53.4°C | 3.8% | 0hPa | 2.6V | 00:00:00 | 01:20:56 | 00:00:00 | |
| 9A1FER-15 | 2026-09-02 12:26:37 | 45.81792 | 16.73515 | 98° | 5km/h | 20889m | 4.2m/s | -53.7°C | 3.9% | 0hPa | 2.6V | 00:00:00 | 01:20:53 | 00:00:00 | |
| 9A1FER-10 | 2026-09-02 12:26:25 | 45.81786 | 16.73502 | 36° | 11km/h | 20821m | 5.2m/s | -54.0°C | 3.8% | 0hPa | 2.6V | 00:00:00 | 01:20:41 | 08:30:00 | |
| 9A1FER-15 | 2026-09-02 12:26:22 | 45.81782 | 16.73496 | 39° | 11km/h | 20804m | 5.0m/s | -54.3°C | 4.0% | 0hPa | 2.7V | 00:00:00 | 01:20:38 | 08:30:00 | |
| OE5DRO-10 | 2026-09-02 12:26:18 | 45.81775 | 16.73500 | 303° | 9km/h | 20781m | 6.0m/s | -54.3°C | 4.0% | 0hPa | 2.6V | 00:00:00 | 00:00:00 | 00:00:00 | |
| PETON7-10 | 2026-09-02 12:26:10 | 45.81765 | 16.73532 | 321° | 7km/h | 20736m | 4.8m/s | -54.1°C | 4.0% | 0hPa | 2.6V | 00:00:00 | 00:00:00 | 00:00:00 | |
| 9A1FER-15 | 2026-09-02 12:26:07 | 45.81761 | 16.73537 | 299° | 7km/h | 20721m | 4.9m/s | -54.1°C | 4.0% | 0hPa | 2.6V | 00:00:00 | 01:20:23 | 00:00:00 | |
| OE5DRO-10 | 2026-09-02 12:25:59 | 45.81753 | 16.73559 | 314° | 4km/h | 20677m | 4.7m/s | -53.7°C | 4.0% | 0hPa | 2.6V | 00:00:00 | 00:00:00 | 00:00:00 | |
| PETON7-10 | 2026-09-02 12:25:55 | 45.81750 | 16.73566 | 281° | 4km/h | 20655m | 6.6m/s | -53.7°C | 4.0% | 0hPa | 2.7V | 00:00:00 | 01:20:11 | 00:00:00 | |
| 9A1FER-15 | 2026-09-02 12:25:52 | 45.81750 | 16.73567 | 135° | 4km/h | 20638m | 6.2m/s | -53.6°C | 4.0% | 0hPa | 2.7V | 00:00:00 | 01:20:08 | 00:00:00 | |
| OE3JTB-15 | 2026-09-02 12:25:43 | 45.81748 | 16.73563 | 148° | 9km/h | 20572m | 5.5m/s | -53.0°C | 3.7% | 0hPa | 2.7V | 00:00:00 | 00:00:00 | 00:00:00 | |
| 9A1FER-10 | 2026-09-02 12:25:40 | 45.81748 | 16.73563 | 148° | 5km/h | 20572m | 5.5m/s | -53.0°C | 3.7% | 0hPa | 2.7V | 00:00:00 | 01:19:56 | 00:00:00 | |
| 9A1FER-3 | 2026-09-02 12:25:39 | 45.81749 | 16.73561 | 133° | 5km/h | 20566m | 6.2m/s | -53.0°C | 3.7% | 0hPa | 2.6V | 00:00:00 | 01:19:55 | 00:00:00 | |
| 9A1FER-15 | 2026-09-02 12:25:37 | 45.81752 | 16.73556 | 124° | 7km/h | 20556m | 4.1m/s | -53.0°C | 3.7% | 0hPa | 2.6V | 00:00:00 | 01:19:53 | 00:00:00 | |
| 9A1FER-10 | 2026-09-02 12:25:25 | 45.81763 | 16.73547 | 150° | 11km/h | 20491m | 5.5m/s | -53.3°C | 3.8% | 0hPa | 2.7V | 00:00:00 | 01:19:41 | 00:00:00 | |
| PETON7-10 | 2026-09-02 12:25:24 | 45.81767 | 16.73544 | 146° | 13km/h | 20486m | 5.6m/s | -53.4°C | 3.8% | 0hPa | 2.7V | 00:00:00 | 00:00:00 | 00:00:00 | |
| 9A1FER-15 | 2026-09-02 12:25:22 | 45.81775 | 16.73535 | 144° | 9km/h | 20475m | 4.8m/s | -53.2°C | 3.7% | 0hPa | 2.7V | 00:00:00 | 01:19:38 | 00:00:00 | |
| OE5DRO-10 | 2026-09-02 12:25:21 | 45.81780 | 16.73531 | 151° | 7km/h | 20469m | 6.1m/s | -53.2°C | 3.7% | 0hPa | 2.7V | 00:00:00 | 00:00:00 | 00:00:00 | |
| 9A1FER-10 | 2026-09-02 12:25:10 | 45.81799 | 16.73516 | 128° | 7km/h | 20412m | 6.3m/s | -53.4°C | 3.8% | 0hPa | 2.7V | 00:00:00 | 01:19:26 | 00:00:00 | |
| PETON7-10 | 2026-09-02 12:25:09 | 45.81801 | 16.73513 | 139° | 7km/h | 20407m | 4.9m/s | -53.4°C | 3.7% | 0hPa | 2.7V | 00:00:00 | 01:19:25 | 00:00:00 | |
| 9A1FER-15 | 2026-09-02 12:25:07 | 45.81804 | 16.73509 | 130° | 7km/h | 20397m | 6.0m/s | -53.3°C | 3.8% | 0hPa | 2.7V | 00:00:00 | 01:19:23 | 00:00:00 | |
| OE5DRO-10 | 2026-09-02 12:25:01 | 45.81808 | 16.73502 | 35° | 11km/h | 20367m | 6.0m/s | -53.8°C | 3.9% | 0hPa | 2.7V | 00:00:00 | 00:00:00 | 08:30:00 | |
| 9A1FER-10 | 2026-09-02 12:24:55 | 45.81797 | 16.73495 | 40° | 13km/h | 20336m | 5.7m/s | -53.9°C | 3.9% | 0hPa | 2.7V | 00:00:00 | 01:19:11 | 00:00:00 | |
| PETON7-10 | 2026-09-02 12:24:54 | 45.81795 | 16.73492 | 45° | 13km/h | 20331m | 4.8m/s | -53.9°C | 3.9% | 0hPa | 2.6V | 00:00:00 | 00:00:00 | 00:00:00 | |
| 9A1FER-15 | 2026-09-02 12:24:52 | 45.81792 | 16.73487 | 72° | 15km/h | 20321m | 4.1m/s | -53.7°C | 3.9% | 0hPa | 2.6V | 00:00:00 | 01:19:08 | 00:00:00 | |
| OE5DRO-10 | 2026-09-02 12:24:42 | 45.81792 | 16.73440 | 87° | 26km/h | 20270m | 4.1m/s | -53.5°C | 3.9% | 0hPa | 2.6V | 00:00:00 | 00:00:00 | 00:00:00 | |
| 9A1FER-10 | 2026-09-02 12:24:40 | 45.81791 | 16.73429 | 80° | 18km/h | 20259m | 5.5m/s | -53.5°C | 3.9% | 0hPa | 2.6V | 00:00:00 | 01:18:56 | 00:00:00 | |
| PETON7-10 | 2026-09-02 12:24:39 | 45.81790 | 16.73423 | 81° | 18km/h | 20254m | 4.9m/s | -53.5°C | 3.8% | 0hPa | 2.6V | 00:00:00 | 00:00:00 | 00:00:00 | |
| 9A1FER-15 | 2026-09-02 12:24:37 | 45.81789 | 16.73411 | 93° | 20km/h | 20244m | 4.6m/s | -53.5°C | 3.8% | 0hPa | 2.6V | 00:00:00 | 01:18:53 | 00:00:00 | |
| 9A1FER-10 | 2026-09-02 12:24:25 | 45.81783 | 16.73328 | 82° | 27km/h | 20182m | 5.3m/s | -53.7°C | 3.9% | 0hPa | 2.6V | 00:00:00 | 01:18:41 | 00:00:00 | |
| PETON7-10 | 2026-09-02 12:24:24 | 45.81782 | 16.73319 | 81° | 27km/h | 20177m | 4.5m/s | -53.8°C | 3.9% | 0hPa | 2.6V | 00:00:00 | 01:18:40 | 00:00:00 | |
| 9A1FER-15 | 2026-09-02 12:24:22 | 45.81780 | 16.73300 | 83° | 27km/h | 20166m | 4.2m/s | -53.8°C | 4.0% | 0hPa | 2.6V | 00:00:00 | 01:18:38 | 00:00:00 | |
| OE5DRO-10 | 2026-09-02 12:24:14 | 45.81762 | 16.73221 | 68° | 24km/h | 20126m | 4.6m/s | -53.6°C | 3.8% | 0hPa | 2.6V | 00:00:00 | 00:00:00 | 00:00:00 | |
| 9A1FER-10 | 2026-09-02 12:24:10 | 45.81754 | 16.73184 | 74° | 22km/h | 20105m | 6.0m/s | -53.7°C | 3.8% | 0hPa | 2.6V | 00:00:00 | 01:18:26 | 08:30:00 | |
| PETON7-10 | 2026-09-02 12:24:09 | 45.81752 | 16.73175 | 70° | 22km/h | 20099m | 4.7m/s | -53.6°C | 3.8% | 0hPa | 2.6V | 00:00:00 | 00:00:00 | 08:30:00 | |
| 9A1FER-15 | 2026-09-02 12:24:07 | 45.81749 | 16.73160 | 79° | 22km/h | 20089m | 6.1m/s | -53.7°C | 3.9% | 0hPa | 2.7V | 00:00:00 | 01:18:23 | 08:30:00 | |
| 9A1FER-10 | 2026-09-02 12:23:55 | 45.81733 | 16.73070 | 72° | 13km/h | 20028m | 4.2m/s | -54.3°C | 3.8% | 0hPa | 2.7V | 00:00:00 | 01:18:11 | 00:00:00 | |
| PETON7-10 | 2026-09-02 12:23:54 | 45.81732 | 16.73062 | 77° | 13km/h | 20024m | 4.2m/s | -54.4°C | 4.0% | 0hPa | 2.7V | 00:00:00 | 00:00:00 | 00:00:00 | |
| 9A1FER-15 | 2026-09-02 12:23:52 | 45.81731 | 16.73050 | 97° | 11km/h | 20013m | 4.5m/s | -54.4°C | 4.0% | 0hPa | 2.7V | 00:00:00 | 01:18:08 | 00:00:00 | |
| 9A1FER-3 | 2026-09-02 12:23:47 | 45.81730 | 16.73035 | 71° | 13km/h | 19988m | 5.6m/s | -54.8°C | 4.2% | 0hPa | 2.7V | 00:00:00 | 01:18:03 | 00:00:00 | |
| 9A1FER-10 | 2026-09-02 12:23:40 | 45.81717 | 16.73005 | 61° | 13km/h | 19953m | 5.5m/s | -54.8°C | 4.0% | 0hPa | 2.7V | 00:00:00 | 01:17:56 | 00:00:00 | |
| PETON7-10 | 2026-09-02 12:23:39 | 45.81716 | 16.73002 | 70° | 13km/h | 19948m | 4.1m/s | -54.8°C | 4.1% | 0hPa | 2.7V | 00:00:00 | 01:17:55 | 00:00:00 | |
| OE3JTB-15 | 2026-09-02 12:23:38 | 45.81717 | 16.72997 | 132° | 18km/h | 19938m | 5.5m/s | -54.7°C | 4.1% | 0hPa | 2.7V | 00:00:00 | 00:00:00 | 08:30:00 | |
| OE5DRO-10 | 2026-09-02 12:23:37 | 45.81719 | 16.72994 | 146° | 15km/h | 19933m | 5.0m/s | -54.7°C | 4.1% | 0hPa | 2.7V | 00:00:00 | 00:00:00 | 00:00:00 | |
| 9A1FER-3 | 2026-09-02 12:23:31 | 45.81732 | 16.72979 | 121° | 24km/h | 19907m | 4.0m/s | -54.6°C | 4.1% | 0hPa | 2.7V | 00:00:00 | 01:17:47 | 00:00:00 | |
| 9A1FER-10 | 2026-09-02 12:23:25 | 45.81741 | 16.72948 | 124° | 20km/h | 19876m | 5.7m/s | -54.5°C | 4.0% | 0hPa | 2.7V | 00:00:00 | 01:17:41 | 00:00:00 | |
| PETON7-10 | 2026-09-02 12:23:24 | 45.81743 | 16.72944 | 135° | 20km/h | 19871m | 5.0m/s | -54.4°C | 4.0% | 0hPa | 2.7V | 00:00:00 | 00:00:00 | 00:00:00 | |
| 9A1FER-15 | 2026-09-02 12:23:22 | 45.81749 | 16.72937 | 140° | 20km/h | 19861m | 5.8m/s | -54.5°C | 4.1% | 0hPa | 2.6V | 00:00:00 | 01:17:38 | 00:00:00 | |
| OE5DRO-10 | 2026-09-02 12:23:17 | 45.81764 | 16.72912 | 116° | 24km/h | 19836m | 5.7m/s | -54.4°C | 4.0% | 0hPa | 2.6V | 00:00:00 | 00:00:00 | 00:00:00 | |
| 9A1FER-10 | 2026-09-02 12:23:10 | 45.81778 | 16.72860 | 118° | 24km/h | 19799m | 4.2m/s | -54.3°C | 3.9% | 0hPa | 2.6V | 00:00:00 | 01:17:26 | 00:00:00 | |
| PETON7-10 | 2026-09-02 12:23:09 | 45.81780 | 16.72853 | 119° | 24km/h | 19794m | 5.9m/s | -54.3°C | 3.9% | 0hPa | 2.6V | 00:00:00 | 00:00:00 | 00:00:00 | |
| 9A1FER-15 | 2026-09-02 12:23:07 | 45.81785 | 16.72841 | 122° | 26km/h | 19784m | 4.3m/s | -54.3°C | 3.9% | 0hPa | 2.6V | 00:00:00 | 01:17:23 | 00:00:00 | |
| OE3JTB-15 | 2026-09-02 12:23:04 | 45.81797 | 16.72812 | 120° | 33km/h | 19763m | 5.8m/s | -54.4°C | 3.9% | 0hPa | 2.6V | 00:00:00 | 00:00:00 | 00:00:00 | |
| OE5DRO-10 | 2026-09-02 12:22:58 | 45.81815 | 16.72772 | 128° | 35km/h | 19737m | 6.1m/s | -54.5°C | 4.0% | 0hPa | 2.6V | 00:00:00 | 00:00:00 | 00:00:00 | |
| 9A1FER-10 | 2026-09-02 12:22:55 | 45.81826 | 16.72748 | 116° | 35km/h | 19722m | 5.6m/s | -54.4°C | 4.0% | 0hPa | 2.6V | 00:00:00 | 01:17:11 | 00:00:00 | |
| 9A1FER-15 | 2026-09-02 12:22:52 | 45.81832 | 16.72717 | 99° | 37km/h | 19705m | 4.3m/s | -54.8°C | 3.9% | 0hPa | 2.6V | 00:00:00 | 01:17:08 | 00:00:00 | |
| 9A1FER-10 | 2026-09-02 12:22:40 | 45.81871 | 16.72568 | 112° | 37km/h | 19641m | 5.3m/s | -55.0°C | 4.1% | 0hPa | 2.6V | 00:00:00 | 01:16:56 | 00:00:00 | |
| PETON7-10 | 2026-09-02 12:22:39 | 45.81874 | 16.72556 | 109° | 35km/h | 19636m | 4.2m/s | -55.0°C | 4.0% | 0hPa | 2.6V | 00:00:00 | 00:00:00 | 00:00:00 | |
| 9A1FER-15 | 2026-09-02 12:22:37 | 45.81880 | 16.72531 | 105° | 35km/h | 19625m | 4.8m/s | -55.0°C | 4.0% | 0hPa | 2.7V | 00:00:00 | 01:16:53 | 00:00:00 | |
| OE5DRO-10 | 2026-09-02 12:22:36 | 45.81882 | 16.72519 | 105° | 33km/h | 19620m | 5.7m/s | -55.1°C | 4.0% | 0hPa | 2.6V | 00:00:00 | 00:00:00 | 00:00:00 | |
| OE3JTB-15 | 2026-09-02 12:22:35 | 45.81886 | 16.72493 | 105° | 44km/h | 19609m | 4.4m/s | -55.2°C | 4.0% | 0hPa | 2.6V | 00:00:00 | 01:16:50 | 00:00:00 | |
| 9A1FER-10 | 2026-09-02 12:22:25 | 45.81897 | 16.72380 | 95° | 29km/h | 19561m | 4.4m/s | -55.8°C | 4.1% | 0hPa | 2.6V | 00:00:00 | 01:16:41 | 00:00:00 | |
| PETON7-10 | 2026-09-02 12:22:24 | 45.81897 | 16.72368 | 96° | 29km/h | 19556m | 6.0m/s | -55.8°C | 4.1% | 0hPa | 2.6V | 00:00:00 | 00:00:00 | 00:00:00 | |
| 9A1FER-15 | 2026-09-02 12:22:22 | 45.81899 | 16.72347 | 100° | 29km/h | 19544m | 5.5m/s | -55.8°C | 4.1% | 0hPa | 2.6V | 00:00:00 | 01:16:38 | 00:00:00 | |
| OE5DRO-10 | 2026-09-02 12:22:17 | 45.81902 | 16.72300 | 81° | 29km/h | 19519m | 4.5m/s | -56.1°C | 4.4% | 0hPa | 2.6V | 00:00:00 | 00:00:00 | 00:00:00 | |
| 9A1FER-10 | 2026-09-02 12:22:10 | 45.81886 | 16.72225 | 70° | 27km/h | 19482m | 4.6m/s | -56.9°C | 4.5% | 0hPa | 2.6V | 00:00:00 | 01:16:26 | 00:00:00 | |
| PETON7-10 | 2026-09-02 12:22:09 | 45.81883 | 16.72214 | 68° | 26km/h | 19476m | 5.6m/s | -56.9°C | 4.5% | 0hPa | 2.6V | 00:00:00 | 01:16:25 | 00:00:00 | |
| 9A1FER-15 | 2026-09-02 12:22:07 | 45.81877 | 16.72193 | 64° | 26km/h | 19466m | 4.4m/s | -57.0°C | 4.5% | 0hPa | 2.6V | 00:00:00 | 01:16:23 | 00:00:00 | |
| 9A1FER-3 | 2026-09-02 12:22:00 | 45.81855 | 16.72134 | 73° | 24km/h | 19428m | 4.2m/s | -56.6°C | 4.6% | 0hPa | 2.6V | 00:00:00 | 01:16:16 | 00:00:00 | |
| OE5DRO-10 | 2026-09-02 12:21:58 | 45.81851 | 16.72118 | 72° | 24km/h | 19417m | 5.0m/s | -56.5°C | 4.6% | 0hPa | 2.6V | 00:00:00 | 00:00:00 | 08:30:00 | |
| 9A1FER-10 | 2026-09-02 12:21:55 | 45.81846 | 16.72093 | 70° | 26km/h | 19402m | 3.6m/s | -56.5°C | 4.5% | 0hPa | 2.7V | 00:00:00 | 01:16:11 | 08:30:00 | |
| PETON7-10 | 2026-09-02 12:21:54 | 45.81843 | 16.72086 | 66° | 24km/h | 19397m | 5.6m/s | -56.6°C | 4.5% | 0hPa | 2.7V | 00:00:00 | 00:00:00 | 08:30:00 | |
| 9A1FER-15 | 2026-09-02 12:21:52 | 45.81838 | 16.72073 | 49° | 26km/h | 19387m | 5.0m/s | -56.6°C | 4.4% | 0hPa | 2.6V | 00:00:00 | 01:16:08 | 08:30:00 | |
| PG1ADW-2 | 2026-09-02 12:21:49 | 45.81825 | 16.72054 | 47° | 24km/h | 19370m | 5.2m/s | 0°C | 0% | 0hPa | 2.7V | 00:00:00 | 01:16:05 | 00:00:00 | |
| 9A1FER-3 | 2026-09-02 12:21:45 | 45.81813 | 16.72024 | 79° | 26km/h | 19350m | 5.1m/s | -56.4°C | 4.4% | 0hPa | 2.7V | 00:00:00 | 01:16:01 | 00:00:00 | |
| 9A1FER-10 | 2026-09-02 12:21:40 | 45.81817 | 16.71976 | 104° | 24km/h | 19321m | 5.6m/s | -56.3°C | 4.4% | 0hPa | 2.7V | 00:00:00 | 01:15:56 | 00:00:00 | |
| PETON7-10 | 2026-09-02 12:21:39 | 45.81819 | 16.71966 | 100° | 24km/h | 19316m | 3.8m/s | -56.2°C | 4.4% | 0hPa | 2.7V | 00:00:00 | 00:00:00 | 00:00:00 | |
| 9A1FER-15 | 2026-09-02 12:21:37 | 45.81820 | 16.71947 | 92° | 26km/h | 19306m | 4.4m/s | -56.0°C | 4.4% | 0hPa | 2.7V | 00:00:00 | 01:15:53 | 00:00:00 | |
| 9A1FER-3 | 2026-09-02 12:21:30 | 45.81811 | 16.71887 | 89° | 22km/h | 19268m | 4.2m/s | -56.6°C | 4.4% | 0hPa | 2.7V | 00:00:00 | 01:15:46 | 00:00:00 | |
| 9A1FER-10 | 2026-09-02 12:21:25 | 45.81820 | 16.71847 | 109° | 29km/h | 19242m | 5.1m/s | -56.5°C | 4.4% | 0hPa | 2.6V | 00:00:00 | 01:15:41 | 00:00:00 | |
| PETON7-10 | 2026-09-02 12:21:24 | 45.81822 | 16.71837 | 107° | 29km/h | 19237m | 5.0m/s | -56.6°C | 4.5% | 0hPa | 2.6V | 00:00:00 | 01:15:40 | 00:00:00 | |
| 9A1FER-15 | 2026-09-02 12:21:22 | 45.81827 | 16.71815 | 106° | 27km/h | 19226m | 5.2m/s | -56.5°C | 4.4% | 0hPa | 2.6V | 00:00:00 | 01:15:38 | 00:00:00 | |
| OE5DRO-10 | 2026-09-02 12:21:19 | 45.81830 | 16.71783 | 98° | 27km/h | 19210m | 4.3m/s | -56.4°C | 4.3% | 0hPa | 2.6V | 00:00:00 | 00:00:00 | 00:00:00 | |
| 9A1FER-10 | 2026-09-02 12:21:09 | 45.81847 | 16.71688 | 98° | 27km/h | 19159m | 4.3m/s | -56.6°C | 4.5% | 0hPa | 2.6V | 00:00:00 | 01:15:25 | 00:00:00 | |
| 9A1FER-15 | 2026-09-02 12:21:07 | 45.81849 | 16.71667 | 100° | 26km/h | 19148m | 4.3m/s | -56.6°C | 4.4% | 0hPa | 2.7V | 00:00:00 | 01:15:23 | 00:00:00 | |
| OE5DRO-10 | 2026-09-02 12:20:59 | 45.81849 | 16.71587 | 91° | 24km/h | 19107m | 6.1m/s | -56.6°C | 4.6% | 0hPa | 2.6V | 00:00:00 | 00:00:00 | 00:00:00 | |
| 9A1FER-10 | 2026-09-02 12:20:54 | 45.81851 | 16.71543 | 95° | 24km/h | 19083m | 5.0m/s | -56.4°C | 4.5% | 0hPa | 2.6V | 00:00:00 | 01:15:10 | 00:00:00 | |
| 9A1FER-15 | 2026-09-02 12:20:52 | 45.81850 | 16.71526 | 87° | 24km/h | 19072m | 4.1m/s | -56.3°C | 4.4% | 0hPa | 2.6V | 00:00:00 | 01:15:08 | 00:00:00 | |
| PG1ADW-2 | 2026-09-02 12:20:48 | 45.81854 | 16.71495 | 107° | 24km/h | 19051m | 6.3m/s | 0°C | 0% | 0hPa | 2.6V | 00:00:00 | 00:00:00 | 00:00:00 | |
| OE5DRO-10 | 2026-09-02 12:20:39 | 45.81872 | 16.71418 | 93° | 20km/h | 19005m | 4.8m/s | -56.1°C | 4.3% | 0hPa | 2.6V | 00:00:00 | 00:00:00 | 00:00:00 | |
| 9A1FER-15 | 2026-09-02 12:20:37 | 45.81871 | 16.71404 | 86° | 20km/h | 18994m | 5.4m/s | -56.0°C | 4.3% | 0hPa | 2.6V | 00:00:00 | 01:14:53 | 00:00:00 | |
| 9A1FER-10 | 2026-09-02 12:20:24 | 45.81897 | 16.71319 | 104° | 24km/h | 18929m | 4.4m/s | -55.6°C | 4.3% | 0hPa | 2.6V | 00:00:00 | 01:14:40 | 00:00:00 | |
| 9A1FER-15 | 2026-09-02 12:20:22 | 45.81899 | 16.71304 | 99° | 26km/h | 18919m | 5.6m/s | -55.7°C | 4.3% | 0hPa | 2.6V | 00:00:00 | 01:14:38 | 00:00:00 | |
| OE5DRO-10 | 2026-09-02 12:20:20 | 45.81901 | 16.71288 | 102° | 27km/h | 18908m | 6.3m/s | -55.6°C | 4.3% | 0hPa | 2.6V | 00:00:00 | 00:00:00 | 00:00:00 | |
| 9A1FER-3 | 2026-09-02 12:20:14 | 45.81910 | 16.71240 | 107° | 29km/h | 18877m | 4.4m/s | -55.6°C | 4.3% | 0hPa | 2.6V | 00:00:00 | 01:14:30 | 00:00:00 | |
| PETON7-10 | 2026-09-02 12:20:09 | 45.81917 | 16.71192 | 103° | 29km/h | 18851m | 4.5m/s | -55.8°C | 4.4% | 0hPa | 2.6V | 00:00:00 | 00:00:00 | 00:00:00 | |
| 9A1FER-15 | 2026-09-02 12:20:07 | 45.81919 | 16.71171 | 99° | 29km/h | 18841m | 5.5m/s | -55.7°C | 4.3% | 0hPa | 2.6V | 00:00:00 | 01:14:23 | 00:00:00 | |
| OE5DRO-10 | 2026-09-02 12:20:01 | 45.81918 | 16.71108 | 74° | 27km/h | 18811m | 3.8m/s | -55.6°C | 4.4% | 0hPa | 2.6V | 00:00:00 | 00:00:00 | 00:00:00 | |
| 9A1FER-3 | 2026-09-02 12:19:59 | 45.81914 | 16.71089 | 74° | 27km/h | 18801m | 4.4m/s | -55.3°C | 4.3% | 0hPa | 2.6V | 00:00:00 | 01:14:15 | 08:30:00 | |
| PETON7-10 | 2026-09-02 12:19:54 | 45.81906 | 16.71034 | 84° | 27km/h | 18776m | 5.1m/s | -55.2°C | 4.2% | 0hPa | 2.7V | 00:00:00 | 01:14:10 | 00:00:00 | |
| 9A1FER-15 | 2026-09-02 12:19:52 | 45.81905 | 16.71014 | 85° | 26km/h | 18766m | 6.0m/s | -55.2°C | 4.2% | 0hPa | 2.7V | 00:00:00 | 01:14:08 | 00:00:00 | |
| 9A1FER-3 | 2026-09-02 12:19:44 | 45.81898 | 16.70942 | 76° | 24km/h | 18725m | 4.6m/s | -55.0°C | 4.1% | 0hPa | 2.7V | 00:00:00 | 01:14:00 | 00:00:00 | |
| OE5DRO-10 | 2026-09-02 12:19:42 | 45.81893 | 16.70922 | 67° | 24km/h | 18715m | 4.0m/s | -54.9°C | 4.1% | 0hPa | 2.7V | 00:00:00 | 00:00:00 | 00:00:00 | |
| 9A1FER-10 | 2026-09-02 12:19:39 | 45.81885 | 16.70895 | 66° | 22km/h | 18700m | 4.5m/s | -54.9°C | 4.1% | 0hPa | 2.7V | 00:00:00 | 01:13:55 | 08:30:00 | |
| 9A1FER-15 | 2026-09-02 12:19:37 | 45.81880 | 16.70880 | 66° | 22km/h | 18690m | 4.2m/s | -55.0°C | 4.0% | 0hPa | 2.6V | 00:00:00 | 01:13:53 | 08:30:00 | |
| 9A1FER-3 | 2026-09-02 12:19:29 | 45.81866 | 16.70829 | 66° | 26km/h | 18652m | 4.1m/s | -55.3°C | 4.2% | 0hPa | 2.7V | 00:00:00 | 01:13:45 | 00:00:00 | |
| 9A1FER-10 | 2026-09-02 12:19:24 | 45.81851 | 16.70788 | 64° | 16km/h | 18628m | 4.1m/s | -55.2°C | 4.1% | 0hPa | 2.7V | 00:00:00 | 01:13:40 | 00:00:00 | |
| OE5DRO-10 | 2026-09-02 12:19:23 | 45.81848 | 16.70780 | 61° | 15km/h | 18624m | 4.2m/s | -55.2°C | 4.2% | 0hPa | 2.7V | 00:00:00 | 00:00:00 | 00:00:00 | |
| 9A1FER-15 | 2026-09-02 12:19:22 | 45.81845 | 16.70774 | 55° | 16km/h | 18619m | 5.0m/s | -55.3°C | 4.3% | 0hPa | 2.7V | 00:00:00 | 01:13:38 | 00:00:00 | |
| 9A1FER-10 | 2026-09-02 12:19:09 | 45.81816 | 16.70717 | 68° | 13km/h | 18557m | 5.3m/s | -55.4°C | 4.1% | 0hPa | 2.7V | 00:00:00 | 01:13:25 | 00:00:00 | |
| 9A1FER-15 | 2026-09-02 12:19:07 | 45.81813 | 16.70707 | 74° | 13km/h | 18547m | 4.6m/s | -55.3°C | 4.2% | 0hPa | 2.7V | 00:00:00 | 01:13:23 | 00:00:00 | |
| OE5DRO-10 | 2026-09-02 12:19:04 | 45.81811 | 16.70696 | 92° | 13km/h | 18532m | 3.7m/s | -55.1°C | 4.2% | 0hPa | 2.7V | 00:00:00 | 00:00:00 | 08:30:00 | |
| 9A1FER-10 | 2026-09-02 12:18:54 | 45.81825 | 16.70658 | 85° | 16km/h | 18480m | 4.5m/s | -55.1°C | 4.2% | 0hPa | 2.7V | 00:00:00 | 01:13:10 | 00:00:00 | |
| PETON7-10 | 2026-09-02 12:18:53 | 45.81824 | 16.70653 | 86° | 16km/h | 18475m | 5.5m/s | -55.0°C | 4.1% | 0hPa | 2.7V | 00:00:00 | 00:00:00 | 00:00:00 | |
| 9A1FER-15 | 2026-09-02 12:18:52 | 45.81824 | 16.70649 | 91° | 16km/h | 18470m | 4.6m/s | -55.0°C | 4.2% | 0hPa | 2.6V | 00:00:00 | 01:13:08 | 00:00:00 | |
| OE5DRO-10 | 2026-09-02 12:18:45 | 45.81835 | 16.70617 | 126° | 22km/h | 18435m | 6.1m/s | -54.8°C | 4.2% | 0hPa | 2.6V | 00:00:00 | 00:00:00 | 00:00:00 | |
| 9A1FER-10 | 2026-09-02 12:18:39 | 45.81849 | 16.70581 | 118° | 22km/h | 18406m | 3.5m/s | -54.6°C | 4.1% | 0hPa | 2.6V | 00:00:00 | 01:12:55 | 00:00:00 | |
| PETON7-10 | 2026-09-02 12:18:38 | 45.81852 | 16.70575 | 123° | 24km/h | 18401m | 5.8m/s | -54.6°C | 4.1% | 0hPa | 2.6V | 00:00:00 | 00:00:00 | 00:00:00 | |
| 9A1FER-15 | 2026-09-02 12:18:37 | 45.81855 | 16.70569 | 132° | 24km/h | 18396m | 4.9m/s | -54.7°C | 4.1% | 0hPa | 2.6V | 00:00:00 | 01:12:53 | 00:00:00 | |
| OE5DRO-10 | 2026-09-02 12:18:26 | 45.81893 | 16.70496 | 124° | 31km/h | 18342m | 3.7m/s | -54.4°C | 4.1% | 0hPa | 2.6V | 00:00:00 | 00:00:00 | 00:00:00 | |
| 9A1FER-10 | 2026-09-02 12:18:24 | 45.81900 | 16.70480 | 125° | 29km/h | 18332m | 4.8m/s | -54.4°C | 4.1% | 0hPa | 2.6V | 00:00:00 | 01:12:40 | 00:00:00 | |
| 9A1FER-15 | 2026-09-02 12:18:22 | 45.81909 | 16.70462 | 125° | 31km/h | 18321m | 4.6m/s | -54.3°C | 4.1% | 0hPa | 2.6V | 00:00:00 | 01:12:38 | 00:00:00 | |
| 9A1FER-10 | 2026-09-02 12:18:09 | 45.81956 | 16.70338 | 118° | 40km/h | 18257m | 4.9m/s | -54.7°C | 4.1% | 0hPa | 2.6V | 00:00:00 | 01:12:25 | 00:00:00 | |
| PETON7-10 | 2026-09-02 12:18:08 | 45.81960 | 16.70326 | 120° | 40km/h | 18252m | 5.4m/s | -54.7°C | 4.1% | 0hPa | 2.6V | 00:00:00 | 00:00:00 | 00:00:00 | |
| OE5DRO-10 | 2026-09-02 12:18:07 | 45.81966 | 16.70313 | 121° | 42km/h | 18247m | 5.1m/s | -54.7°C | 4.1% | 0hPa | 2.7V | 00:00:00 | 00:00:00 | 00:00:00 | |
| 9A1FER-10 | 2026-09-02 12:17:54 | 45.82010 | 16.70134 | 110° | 44km/h | 18180m | 5.8m/s | -54.7°C | 4.1% | 0hPa | 2.6V | 00:00:00 | 01:12:10 | 00:00:00 | |
| PETON7-10 | 2026-09-02 12:17:53 | 45.82014 | 16.70118 | 112° | 44km/h | 18175m | 4.7m/s | -54.6°C | 4.1% | 0hPa | 2.6V | 00:00:00 | 00:00:00 | 00:00:00 | |
| 9A1FER-3 | 2026-09-02 12:17:52 | 45.82019 | 16.70103 | 110° | 46km/h | 18170m | 4.5m/s | -54.6°C | 4.1% | 0hPa | 2.6V | 00:00:00 | 01:12:08 | 00:00:00 | |
| OE5DRO-10 | 2026-09-02 12:17:48 | 45.82032 | 16.70042 | 108° | 47km/h | 18150m | 4.8m/s | -54.6°C | 4.0% | 0hPa | 2.6V | 00:00:00 | 00:00:00 | 00:00:00 | |
| 9A1FER-10 | 2026-09-02 12:17:39 | 45.82057 | 16.69903 | 108° | 49km/h | 18104m | 5.3m/s | -54.8°C | 4.0% | 0hPa | 2.6V | 00:00:00 | 01:11:55 | 00:00:00 | |
| PETON7-10 | 2026-09-02 12:17:38 | 45.82061 | 16.69886 | 109° | 47km/h | 18099m | 4.6m/s | -54.8°C | 3.9% | 0hPa | 2.6V | 00:00:00 | 01:11:54 | 00:00:00 | |
| 9A1FER-15 | 2026-09-02 12:17:37 | 45.82065 | 16.69868 | 108° | 47km/h | 18094m | 6.0m/s | -54.7°C | 3.9% | 0hPa | 2.6V | 00:00:00 | 01:11:53 | 00:00:00 | |
| OE5DRO-10 | 2026-09-02 12:17:30 | 45.82085 | 16.69725 | 99° | 44km/h | 18055m | 5.0m/s | -54.9°C | 4.0% | 0hPa | 2.6V | 00:00:00 | 00:00:00 | 00:00:00 | |
| 9A1FER-10 | 2026-09-02 12:17:24 | 45.82095 | 16.69647 | 104° | 44km/h | 18030m | 4.4m/s | -55.6°C | 4.3% | 0hPa | 2.6V | 00:00:00 | 01:11:40 | 08:30:00 | |
| PETON7-10 | 2026-09-02 12:17:23 | 45.82097 | 16.69632 | 103° | 44km/h | 18025m | 5.2m/s | -55.7°C | 4.3% | 0hPa | 2.6V | 00:00:00 | 00:00:00 | 08:30:00 | |
| 9A1FER-15 | 2026-09-02 12:17:22 | 45.82100 | 16.69616 | 103° | 44km/h | 18019m | 5.2m/s | -55.8°C | 4.3% | 0hPa | 2.7V | 00:00:00 | 01:11:38 | 08:30:00 | |
| OE5DRO-10 | 2026-09-02 12:17:10 | 45.82114 | 16.69427 | 87° | 44km/h | 17959m | 4.5m/s | -55.8°C | 4.3% | 0hPa | 2.7V | 00:00:00 | 00:00:00 | 00:00:00 | |
| 9A1FER-10 | 2026-09-02 12:17:09 | 45.82114 | 16.69412 | 87° | 44km/h | 17954m | 6.0m/s | -55.8°C | 4.3% | 0hPa | 2.6V | 00:00:00 | 01:11:25 | 00:00:00 | |
| PETON7-10 | 2026-09-02 12:17:08 | 45.82113 | 16.69397 | 88° | 46km/h | 17949m | 4.4m/s | -55.7°C | 4.3% | 0hPa | 2.6V | 00:00:00 | 00:00:00 | 00:00:00 | |
| 9A1FER-15 | 2026-09-02 12:17:07 | 45.82113 | 16.69380 | 90° | 46km/h | 17944m | 4.2m/s | -55.7°C | 4.3% | 0hPa | 2.6V | 00:00:00 | 01:11:23 | 00:00:00 | |
| 9A1FER-10 | 2026-09-02 12:16:54 | 45.82109 | 16.69170 | 89° | 42km/h | 17881m | 5.5m/s | -55.7°C | 4.3% | 0hPa | 2.6V | 00:00:00 | 01:11:10 | 00:00:00 | |
| PETON7-10 | 2026-09-02 12:16:53 | 45.82108 | 16.69154 | 88° | 42km/h | 17876m | 4.5m/s | -55.7°C | 4.3% | 0hPa | 2.6V | 00:00:00 | 01:11:09 | 00:00:00 | |
| 9A1FER-15 | 2026-09-02 12:16:52 | 45.82108 | 16.69138 | 88° | 42km/h | 17871m | 5.8m/s | -55.7°C | 4.3% | 0hPa | 2.6V | 00:00:00 | 01:11:08 | 00:00:00 | |
| OE5DRO-10 | 2026-09-02 12:16:51 | 45.82108 | 16.69123 | 88° | 42km/h | 17866m | 4.3m/s | -55.6°C | 4.3% | 0hPa | 2.6V | 00:00:00 | 00:00:00 | 00:00:00 | |
| PETON7-10 | 2026-09-02 12:16:41 | 45.82085 | 16.68930 | 77° | 40km/h | 17804m | 4.5m/s | -55.2°C | 4.2% | 0hPa | 2.6V | 00:00:00 | 00:00:00 | 00:00:00 | |
| 9A1FER-15 | 2026-09-02 12:16:40 | 45.82082 | 16.68916 | 77° | 42km/h | 17799m | 4.7m/s | -55.3°C | 4.2% | 0hPa | 2.6V | 00:00:00 | 01:10:53 | 00:00:00 | |
| OE5DRO-10 | 2026-09-02 12:16:32 | 45.82074 | 16.68844 | 81° | 44km/h | 17776m | 4.1m/s | -55.2°C | 4.2% | 0hPa | 2.7V | 00:00:00 | 00:00:00 | 00:00:00 | |
| 9A1FER-3 | 2026-09-02 12:16:26 | 45.82057 | 16.68757 | 73° | 44km/h | 17748m | 5.7m/s | -55.1°C | 4.2% | 0hPa | 2.7V | 00:00:00 | 01:10:42 | 00:00:00 | |
| 9A1FER-10 | 2026-09-02 12:16:24 | 45.82051 | 16.68729 | 73° | 44km/h | 17738m | 4.8m/s | -55.2°C | 4.2% | 0hPa | 2.7V | 00:00:00 | 01:10:40 | 00:00:00 | |
| PETON7-10 | 2026-09-02 12:16:23 | 45.82048 | 16.68714 | 73° | 44km/h | 17733m | 5.3m/s | -55.2°C | 4.2% | 0hPa | 2.7V | 00:00:00 | 00:00:00 | 00:00:00 | |
| 9A1FER-15 | 2026-09-02 12:16:22 | 45.82045 | 16.68699 | 74° | 44km/h | 17728m | 4.2m/s | -55.3°C | 4.2% | 0hPa | 2.7V | 00:00:00 | 01:10:38 | 00:00:00 | |
| OE5DRO-10 | 2026-09-02 12:16:13 | 45.82012 | 16.68561 | 64° | 46km/h | 17684m | 5.0m/s | -55.5°C | 4.3% | 0hPa | 2.7V | 00:00:00 | 00:00:00 | 08:30:00 | |
| 9A1FER-3 | 2026-09-02 12:16:10 | 45.81997 | 16.68521 | 61° | 46km/h | 17669m | 5.2m/s | -55.2°C | 4.3% | 0hPa | 2.6V | 00:00:00 | 01:10:26 | 00:00:00 | |
| 9A1FER-10 | 2026-09-02 12:16:09 | 45.81991 | 16.68508 | 63° | 46km/h | 17665m | 3.5m/s | -55.2°C | 4.3% | 0hPa | 2.6V | 00:00:00 | 01:10:25 | 00:00:00 | |
| PETON7-10 | 2026-09-02 12:16:08 | 45.81986 | 16.68494 | 65° | 44km/h | 17660m | 5.3m/s | -55.3°C | 4.3% | 0hPa | 2.6V | 00:00:00 | 01:10:24 | 00:00:00 | |
| 9A1FER-15 | 2026-09-02 12:16:07 | 45.81982 | 16.68480 | 68° | 46km/h | 17655m | 4.9m/s | -55.4°C | 4.3% | 0hPa | 2.6V | 00:00:00 | 01:10:23 | 00:00:00 | |
| 9A1FER-3 | 2026-09-02 12:15:55 | 45.81934 | 16.68290 | 72° | 44km/h | 17597m | 4.2m/s | -55.0°C | 4.2% | 0hPa | 2.6V | 00:00:00 | 01:10:11 | 08:30:00 | |
| OE5DRO-10 | 2026-09-02 12:15:54 | 45.81930 | 16.68274 | 74° | 42km/h | 17593m | 5.1m/s | -55.0°C | 4.2% | 0hPa | 2.7V | 00:00:00 | 00:00:00 | 00:00:00 | |
| 9A1FER-15 | 2026-09-02 12:15:52 | 45.81924 | 16.68243 | 76° | 42km/h | 17583m | 4.6m/s | -54.8°C | 4.2% | 0hPa | 2.7V | 00:00:00 | 01:10:08 | 00:00:00 | |
| PETON7-10 | 2026-09-02 12:15:50 | 45.81918 | 16.68215 | 70° | 42km/h | 17572m | 4.5m/s | -54.8°C | 4.2% | 0hPa | 2.6V | 00:00:00 | 00:00:00 | 00:00:00 | |
| 9A1FER-3 | 2026-09-02 12:15:40 | 45.81885 | 16.68067 | 73° | 42km/h | 17522m | 3.8m/s | -54.7°C | 4.1% | 0hPa | 2.6V | 00:00:00 | 01:09:56 | 00:00:00 | |
| 9A1FER-10 | 2026-09-02 12:15:39 | 45.81882 | 16.68052 | 73° | 42km/h | 17517m | 5.6m/s | -54.7°C | 4.1% | 0hPa | 2.6V | 00:00:00 | 01:09:55 | 00:00:00 | |
| 9A1FER-15 | 2026-09-02 12:15:37 | 45.81876 | 16.68026 | 69° | 42km/h | 17508m | 5.5m/s | -54.8°C | 4.1% | 0hPa | 2.6V | 00:00:00 | 01:09:53 | 00:00:00 | |
| OE5DRO-10 | 2026-09-02 12:15:35 | 45.81869 | 16.67999 | 75° | 40km/h | 17499m | 5.1m/s | -54.9°C | 4.1% | 0hPa | 2.6V | 00:00:00 | 00:00:00 | 00:00:00 | |
| 9A1FER-3 | 2026-09-02 12:15:25 | 45.81856 | 16.67847 | 90° | 38km/h | 17447m | 4.9m/s | -54.9°C | 4.3% | 0hPa | 2.6V | 00:00:00 | 01:09:41 | 00:00:00 | |
| 9A1FER-10 | 2026-09-02 12:15:24 | 45.81856 | 16.67832 | 93° | 38km/h | 17442m | 4.8m/s | -54.8°C | 4.2% | 0hPa | 2.6V | 00:00:00 | 01:09:40 | 00:00:00 | |
| 9A1FER-15 | 2026-09-02 12:15:22 | 45.81857 | 16.67806 | 91° | 38km/h | 17434m | 5.4m/s | -54.8°C | 4.1% | 0hPa | 2.6V | 00:00:00 | 01:09:38 | 00:00:00 | |
| PETON7-10 | 2026-09-02 12:15:20 | 45.81857 | 16.67780 | 92° | 40km/h | 17425m | 5.6m/s | -54.9°C | 4.1% | 0hPa | 2.6V | 00:00:00 | 01:09:36 | 00:00:00 | |
| OE5DRO-10 | 2026-09-02 12:15:17 | 45.81855 | 16.67722 | 85° | 40km/h | 17406m | 4.6m/s | -55.1°C | 4.1% | 0hPa | 2.6V | 00:00:00 | 00:00:00 | 00:00:00 | |
| 9A1FER-3 | 2026-09-02 12:15:10 | 45.81852 | 16.67636 | 95° | 40km/h | 17378m | 5.0m/s | -55.1°C | 4.2% | 0hPa | 2.6V | 00:00:00 | 01:09:26 | 00:00:00 | |
| 9A1FER-10 | 2026-09-02 12:15:09 | 45.81853 | 16.67622 | 99° | 40km/h | 17374m | 4.8m/s | -55.1°C | 4.3% | 0hPa | 2.6V | 00:00:00 | 01:09:25 | 08:30:00 | |
| 9A1FER-15 | 2026-09-02 12:15:07 | 45.81856 | 16.67593 | 98° | 42km/h | 17364m | 5.3m/s | -55.0°C | 4.2% | 0hPa | 2.7V | 00:00:00 | 01:09:23 | 08:30:00 | |
| OE5DRO-10 | 2026-09-02 12:14:57 | 45.81864 | 16.67447 | 87° | 46km/h | 17316m | 3.7m/s | -54.9°C | 4.2% | 0hPa | 2.7V | 00:00:00 | 00:00:00 | 00:00:00 | |
| 9A1FER-3 | 2026-09-02 12:14:55 | 45.81864 | 16.67417 | 94° | 47km/h | 17307m | 4.2m/s | -55.0°C | 4.4% | 0hPa | 2.7V | 00:00:00 | 01:09:11 | 00:00:00 | |
| 9A1FER-10 | 2026-09-02 12:14:54 | 45.81865 | 16.67401 | 96° | 47km/h | 17303m | 3.8m/s | -55.0°C | 4.3% | 0hPa | 2.7V | 00:00:00 | 01:09:10 | 00:00:00 | |
| 9A1FER-15 | 2026-09-02 12:14:52 | 45.81867 | 16.67368 | 95° | 47km/h | 17294m | 3.7m/s | -54.9°C | 4.2% | 0hPa | 2.7V | 00:00:00 | 01:09:08 | 00:00:00 | |
| PETON7-10 | 2026-09-02 12:14:46 | 45.81867 | 16.67261 | 88° | 49km/h | 17264m | 4.7m/s | -54.8°C | 4.2% | 0hPa | 2.7V | 00:00:00 | 00:00:00 | 00:00:00 | |
| 9A1FER-10 | 2026-09-02 12:14:39 | 45.81864 | 16.67147 | 88° | 49km/h | 17232m | 4.1m/s | -54.8°C | 4.1% | 0hPa | 2.7V | 00:00:00 | 01:08:55 | 00:00:00 | |
| OE5DRO-10 | 2026-09-02 12:14:38 | 45.81864 | 16.67129 | 89° | 47km/h | 17227m | 4.4m/s | -54.6°C | 4.1% | 0hPa | 2.7V | 00:00:00 | 00:00:00 | 00:00:00 | |
| 9A1FER-15 | 2026-09-02 12:14:37 | 45.81863 | 16.67111 | 89° | 47km/h | 17223m | 4.8m/s | -54.5°C | 4.1% | 0hPa | 2.7V | 00:00:00 | 01:08:53 | 00:00:00 | |
| PETON7-10 | 2026-09-02 12:14:31 | 45.81857 | 16.66995 | 83° | 44km/h | 17197m | 3.9m/s | -54.6°C | 4.1% | 0hPa | 2.7V | 00:00:00 | 01:08:47 | 00:00:00 | |
| 9A1FER-10 | 2026-09-02 12:14:24 | 45.81843 | 16.66884 | 85° | 42km/h | 17164m | 4.6m/s | -54.6°C | 4.0% | 0hPa | 2.7V | 00:00:00 | 01:08:40 | 00:00:00 | |
| 9A1FER-3 | 2026-09-02 12:14:23 | 45.81843 | 16.66869 | 90° | 42km/h | 17159m | 5.0m/s | -54.6°C | 4.1% | 0hPa | 2.7V | 00:00:00 | 01:08:39 | 00:00:00 | |
| 9A1FER-15 | 2026-09-02 12:14:22 | 45.81843 | 16.66854 | 94° | 42km/h | 17155m | 3.5m/s | -54.6°C | 4.0% | 0hPa | 2.6V | 00:00:00 | 01:08:38 | 00:00:00 | |
| OE5DRO-10 | 2026-09-02 12:14:19 | 45.81844 | 16.66808 | 91° | 46km/h | 17141m | 3.9m/s | -54.6°C | 4.0% | 0hPa | 2.7V | 00:00:00 | 00:00:00 | 00:00:00 | |
| PETON7-10 | 2026-09-02 12:14:16 | 45.81844 | 16.66762 | 87° | 46km/h | 17126m | 5.8m/s | -54.8°C | 4.1% | 0hPa | 2.6V | 00:00:00 | 00:00:00 | 00:00:00 | |
| 9A1FER-10 | 2026-09-02 12:14:09 | 45.81837 | 16.66657 | 90° | 51km/h | 17092m | 5.2m/s | -55.6°C | 4.4% | 0hPa | 2.7V | 00:00:00 | 01:08:25 | 00:00:00 | |
| 9A1FER-3 | 2026-09-02 12:14:08 | 45.81837 | 16.66642 | 93° | 51km/h | 17088m | 4.0m/s | -55.6°C | 4.4% | 0hPa | 2.7V | 00:00:00 | 01:08:24 | 00:00:00 | |
| 9A1FER-15 | 2026-09-02 12:14:07 | 45.81838 | 16.66627 | 92° | 53km/h | 17083m | 4.9m/s | -55.7°C | 4.4% | 0hPa | 2.7V | 00:00:00 | 01:08:23 | 00:00:00 | |
| PETON7-10 | 2026-09-02 12:14:01 | 45.81836 | 16.66516 | 87° | 51km/h | 17053m | 6.3m/s | -56.1°C | 4.4% | 0hPa | 2.7V | 00:00:00 | 00:00:00 | 00:00:00 | |
| OE5DRO-10 | 2026-09-02 12:14:00 | 45.81836 | 16.66494 | 88° | 49km/h | 17047m | 4.6m/s | -56.1°C | 4.5% | 0hPa | 2.7V | 00:00:00 | 00:00:00 | 00:00:00 | |
| 9A1FER-10 | 2026-09-02 12:13:54 | 45.81828 | 16.66374 | 84° | 46km/h | 17017m | 6.3m/s | -56.0°C | 4.4% | 0hPa | 2.7V | 00:00:00 | 01:08:10 | 00:00:00 | |
| 9A1FER-3 | 2026-09-02 12:13:53 | 45.81826 | 16.66358 | 82° | 46km/h | 17011m | 4.9m/s | -55.9°C | 4.5% | 0hPa | 2.7V | 00:00:00 | 01:08:09 | 00:00:00 | |
| PG1ADW-2 | 2026-09-02 12:13:52 | 45.81825 | 16.66342 | 82° | 46km/h | 17007m | 4.9m/s | 0°C | 0% | 0hPa | 2.7V | 00:00:00 | 00:00:00 | 00:00:00 | |
| PETON7-10 | 2026-09-02 12:13:46 | 45.81818 | 16.66244 | 87° | 46km/h | 16975m | 5.5m/s | -55.7°C | 4.5% | 0hPa | 2.7V | 00:00:00 | 01:08:02 | 00:00:00 | |
| OE5DRO-10 | 2026-09-02 12:13:41 | 45.81816 | 16.66160 | 91° | 47km/h | 16951m | 5.6m/s | -55.6°C | 4.5% | 0hPa | 2.7V | 00:00:00 | 00:00:00 | 00:00:00 | |
| 9A1FER-10 | 2026-09-02 12:13:39 | 45.81815 | 16.66124 | 89° | 47km/h | 16940m | 5.5m/s | -55.6°C | 4.5% | 0hPa | 2.7V | 00:00:00 | 01:07:55 | 00:00:00 | |
| 9A1FER-3 | 2026-09-02 12:13:38 | 45.81815 | 16.66107 | 88° | 47km/h | 16935m | 4.5m/s | -55.6°C | 4.5% | 0hPa | 2.6V | 00:00:00 | 01:07:54 | 08:30:00 | |
| 9A1FER-15 | 2026-09-02 12:13:37 | 45.81814 | 16.66091 | 88° | 47km/h | 16931m | 4.7m/s | -55.5°C | 4.4% | 0hPa | 2.6V | 00:00:00 | 01:07:53 | 00:00:00 | |
| PETON7-10 | 2026-09-02 12:13:31 | 45.81818 | 16.65994 | 100° | 47km/h | 16902m | 4.0m/s | -55.4°C | 4.3% | 0hPa | 2.6V | 00:00:00 | 00:00:00 | 00:00:00 | |
| 9A1FER-3 | 2026-09-02 12:13:23 | 45.81830 | 16.65854 | 96° | 49km/h | 16864m | 3.5m/s | -55.1°C | 4.3% | 0hPa | 2.6V | 00:00:00 | 01:07:39 | 00:00:00 | |
| OE5DRO-10 | 2026-09-02 12:13:22 | 45.81832 | 16.65836 | 98° | 49km/h | 16860m | 6.0m/s | -55.1°C | 4.3% | 0hPa | 2.6V | 00:00:00 | 00:00:00 | 08:30:00 | |
| PETON7-10 | 2026-09-02 12:13:16 | 45.81839 | 16.65736 | 94° | 49km/h | 16830m | 4.7m/s | -55.0°C | 4.3% | 0hPa | 2.6V | 00:00:00 | 00:00:00 | 00:00:00 | |
| 9A1FER-10 | 2026-09-02 12:13:09 | 45.81848 | 16.65606 | 97° | 51km/h | 16796m | 5.6m/s | -55.2°C | 4.4% | 0hPa | 2.6V | 00:00:00 | 01:07:25 | 00:00:00 | |
| 9A1FER-15 | 2026-09-02 12:13:07 | 45.81850 | 16.65569 | 92° | 51km/h | 16785m | 5.9m/s | -55.2°C | 4.4% | 0hPa | 2.6V | 00:00:00 | 01:07:23 | 00:00:00 | |
| OE5DRO-10 | 2026-09-02 12:13:03 | 45.81848 | 16.65499 | 88° | 49km/h | 16766m | 4.6m/s | -55.2°C | 4.3% | 0hPa | 2.6V | 00:00:00 | 00:00:00 | 00:00:00 | |
| PETON7-10 | 2026-09-02 12:13:01 | 45.81846 | 16.65466 | 87° | 51km/h | 16756m | 4.2m/s | -55.2°C | 4.4% | 0hPa | 2.6V | 00:00:00 | 01:07:17 | 00:00:00 | |
| 9A1FER-10 | 2026-09-02 12:12:54 | 45.81853 | 16.65333 | 99° | 49km/h | 16722m | 4.6m/s | -55.0°C | 4.4% | 0hPa | 2.6V | 00:00:00 | 01:07:10 | 08:30:00 | |
| 9A1FER-15 | 2026-09-02 12:12:52 | 45.81857 | 16.65295 | 97° | 47km/h | 16713m | 3.9m/s | -54.9°C | 4.3% | 0hPa | 2.7V | 00:00:00 | 01:07:08 | 08:30:00 | |
| 9A1FER-3 | 2026-09-02 12:12:48 | 45.81862 | 16.65229 | 92° | 47km/h | 16693m | 4.9m/s | -55.0°C | 4.4% | 0hPa | 2.7V | 00:00:00 | 01:07:04 | 00:00:00 | |
| PETON7-10 | 2026-09-02 12:12:46 | 45.81862 | 16.65197 | 94° | 47km/h | 16684m | 4.7m/s | -54.9°C | 4.4% | 0hPa | 2.6V | 00:00:00 | 00:00:00 | 08:30:00 | |
| OE5DRO-10 | 2026-09-02 12:12:44 | 45.81864 | 16.65162 | 94° | 47km/h | 16674m | 5.3m/s | -54.8°C | 4.2% | 0hPa | 2.7V | 00:00:00 | 00:00:00 | 00:00:00 | |
| 9A1FER-15 | 2026-09-02 12:12:37 | 45.81875 | 16.65036 | 92° | 46km/h | 16643m | 4.4m/s | -54.8°C | 4.4% | 0hPa | 2.7V | 00:00:00 | 01:06:53 | 00:00:00 | |
| 9A1FER-3 | 2026-09-02 12:12:33 | 45.81875 | 16.64969 | 88° | 46km/h | 16624m | 5.4m/s | -54.8°C | 4.4% | 0hPa | 2.7V | 00:00:00 | 01:06:49 | 00:00:00 | |
| PETON7-10 | 2026-09-02 12:12:29 | 45.81870 | 16.64902 | 81° | 47km/h | 16604m | 4.5m/s | -54.8°C | 4.2% | 0hPa | 2.7V | 00:00:00 | 00:00:00 | 00:00:00 | |
| OE5DRO-10 | 2026-09-02 12:12:25 | 45.81862 | 16.64842 | 80° | 47km/h | 16584m | 4.4m/s | -54.8°C | 4.3% | 0hPa | 2.7V | 00:00:00 | 00:00:00 | 00:00:00 | |
| 9A1FER-10 | 2026-09-02 12:12:24 | 45.81861 | 16.64826 | 83° | 49km/h | 16579m | 5.7m/s | -54.7°C | 4.3% | 0hPa | 2.6V | 00:00:00 | 01:06:40 | 00:00:00 | |
| 9A1FER-15 | 2026-09-02 12:12:22 | 45.81859 | 16.64792 | 87° | 49km/h | 16570m | 4.9m/s | -54.6°C | 4.3% | 0hPa | 2.6V | 00:00:00 | 01:06:38 | 00:00:00 | |
| OE3JTB-15 | 2026-09-02 12:12:20 | 45.81858 | 16.64719 | 93° | 53km/h | 16550m | 3.9m/s | -54.5°C | 4.4% | 0hPa | 2.6V | 00:00:00 | 00:00:00 | 00:00:00 | |
| 9A1FER-3 | 2026-09-02 12:12:18 | 45.81858 | 16.64719 | 93° | 49km/h | 16550m | 3.9m/s | -54.5°C | 4.4% | 0hPa | 2.6V | 00:00:00 | 01:06:34 | 00:00:00 | |
| PETON7-10 | 2026-09-02 12:12:14 | 45.81857 | 16.64645 | 87° | 49km/h | 16532m | 5.1m/s | -54.5°C | 4.2% | 0hPa | 2.6V | 00:00:00 | 01:06:30 | 00:00:00 | |
| 9A1FER-10 | 2026-09-02 12:12:09 | 45.81853 | 16.64563 | 88° | 53km/h | 16508m | 4.7m/s | -54.4°C | 4.2% | 0hPa | 2.6V | 00:00:00 | 01:06:25 | 00:00:00 | |
| 9A1FER-15 | 2026-09-02 12:12:07 | 45.81852 | 16.64528 | 88° | 55km/h | 16499m | 4.9m/s | -54.6°C | 4.2% | 0hPa | 2.6V | 00:00:00 | 01:06:23 | 00:00:00 | |
| OE5DRO-10 | 2026-09-02 12:12:06 | 45.81851 | 16.64509 | 89° | 55km/h | 16494m | 4.4m/s | -54.5°C | 4.2% | 0hPa | 2.6V | 00:00:00 | 00:00:00 | 00:00:00 | |
| 9A1FER-3 | 2026-09-02 12:12:03 | 45.81851 | 16.64448 | 90° | 53km/h | 16479m | 5.6m/s | -54.6°C | 4.2% | 0hPa | 2.6V | 00:00:00 | 01:06:19 | 00:00:00 | |
| PETON7-10 | 2026-09-02 12:11:59 | 45.81851 | 16.64369 | 88° | 53km/h | 16460m | 5.1m/s | -54.5°C | 4.3% | 0hPa | 2.7V | 00:00:00 | 00:00:00 | 00:00:00 | |
| 9A1FER-10 | 2026-09-02 12:11:54 | 45.81849 | 16.64274 | 88° | 53km/h | 16436m | 5.3m/s | -54.4°C | 4.3% | 0hPa | 2.6V | 00:00:00 | 01:06:10 | 00:00:00 | |
| 9A1FER-15 | 2026-09-02 12:11:52 | 45.81847 | 16.64234 | 88° | 53km/h | 16427m | 5.5m/s | -54.5°C | 4.2% | 0hPa | 2.6V | 00:00:00 | 01:06:08 | 00:00:00 | |
| 9A1FER-3 | 2026-09-02 12:11:49 | 45.81845 | 16.64157 | 87° | 55km/h | 16407m | 3.9m/s | -54.6°C | 4.3% | 0hPa | 2.6V | 00:00:00 | 01:06:04 | 00:00:00 | |
| OE5DRO-10 | 2026-09-02 12:11:47 | 45.81844 | 16.64138 | 89° | 53km/h | 16403m | 5.3m/s | -54.6°C | 4.3% | 0hPa | 2.6V | 00:00:00 | 00:00:00 | 00:00:00 | |
| PETON7-10 | 2026-09-02 12:11:44 | 45.81844 | 16.64083 | 92° | 55km/h | 16388m | 4.2m/s | -54.5°C | 4.4% | 0hPa | 2.6V | 00:00:00 | 00:00:00 | 00:00:00 | |
| 9A1FER-10 | 2026-09-02 12:11:39 | 45.81843 | 16.63986 | 84° | 55km/h | 16364m | 4.0m/s | -54.4°C | 4.3% | 0hPa | 2.6V | 00:00:00 | 01:05:55 | 00:00:00 | |
| 9A1FER-15 | 2026-09-02 12:11:37 | 45.81839 | 16.63944 | 83° | 53km/h | 16354m | 3.8m/s | -54.4°C | 4.2% | 0hPa | 2.6V | 00:00:00 | 01:05:53 | 00:00:00 | |
| 9A1FER-3 | 2026-09-02 12:11:33 | 45.81833 | 16.63865 | 83° | 53km/h | 16335m | 4.2m/s | -54.5°C | 4.3% | 0hPa | 2.6V | 00:00:00 | 01:05:49 | 00:00:00 | |
| PETON7-10 | 2026-09-02 12:11:29 | 45.81827 | 16.63791 | 82° | 55km/h | 16315m | 4.0m/s | -54.6°C | 4.4% | 0hPa | 2.6V | 00:00:00 | 01:05:45 | 00:00:00 | |
| OE5DRO-10 | 2026-09-02 12:11:28 | 45.81825 | 16.63773 | 83° | 55km/h | 16311m | 3.6m/s | -54.6°C | 4.4% | 0hPa | 2.6V | 00:00:00 | 00:00:00 | 00:00:00 | |
| 9A1FER-10 | 2026-09-02 12:11:24 | 45.81819 | 16.63697 | 83° | 55km/h | 16292m | 4.0m/s | -54.5°C | 4.3% | 0hPa | 2.7V | 00:00:00 | 01:05:40 | 00:00:00 | |
| 9A1FER-15 | 2026-09-02 12:11:22 | 45.81816 | 16.63657 | 88° | 55km/h | 16284m | 4.8m/s | -54.5°C | 4.4% | 0hPa | 2.6V | 00:00:00 | 01:05:38 | 00:00:00 | |
| 9A1FER-3 | 2026-09-02 12:11:18 | 45.81814 | 16.63578 | 89° | 55km/h | 16264m | 5.2m/s | -54.6°C | 4.4% | 0hPa | 2.7V | 00:00:00 | 01:05:34 | 08:30:00 | |
| PETON7-10 | 2026-09-02 12:11:14 | 45.81810 | 16.63499 | 82° | 55km/h | 16246m | 4.5m/s | -54.5°C | 4.4% | 0hPa | 2.7V | 00:00:00 | 00:00:00 | 00:00:00 | |
| 9A1FER-10 | 2026-09-02 12:11:09 | 45.81796 | 16.63401 | 77° | 51km/h | 16223m | 4.1m/s | -54.7°C | 4.5% | 0hPa | 2.6V | 00:00:00 | 01:05:25 | 00:00:00 | |
| 9A1FER-15 | 2026-09-02 12:11:07 | 45.81790 | 16.63364 | 80° | 51km/h | 16214m | 3.9m/s | -54.7°C | 4.5% | 0hPa | 2.6V | 00:00:00 | 01:05:23 | 00:00:00 | |
| 9A1FER-3 | 2026-09-02 12:11:03 | 45.81781 | 16.63290 | 81° | 49km/h | 16196m | 5.3m/s | -54.6°C | 4.4% | 0hPa | 2.6V | 00:00:00 | 01:05:19 | 00:00:00 | |
| PETON7-10 | 2026-09-02 12:10:59 | 45.81774 | 16.63216 | 83° | 51km/h | 16177m | 4.1m/s | -54.5°C | 4.3% | 0hPa | 2.6V | 00:00:00 | 00:00:00 | 00:00:00 | |
| 9A1FER-10 | 2026-09-02 12:10:54 | 45.81769 | 16.63126 | 92° | 51km/h | 16155m | 3.6m/s | -54.7°C | 4.4% | 0hPa | 2.6V | 00:00:00 | 01:05:10 | 00:00:00 | |
| 9A1FER-15 | 2026-09-02 12:10:52 | 45.81770 | 16.63095 | 94° | 51km/h | 16146m | 3.9m/s | -54.7°C | 4.5% | 0hPa | 2.6V | 00:00:00 | 01:05:08 | 00:00:00 | |
| OE5DRO-10 | 2026-09-02 12:10:50 | 45.81772 | 16.63063 | 97° | 51km/h | 16136m | 4.1m/s | -54.8°C | 4.5% | 0hPa | 2.6V | 00:00:00 | 00:00:00 | 00:00:00 | |
| 9A1FER-3 | 2026-09-02 12:10:48 | 45.81774 | 16.63027 | 94° | 51km/h | 16127m | 4.5m/s | -54.7°C | 4.5% | 0hPa | 2.6V | 00:00:00 | 01:05:04 | 00:00:00 | |
| PETON7-10 | 2026-09-02 12:10:43 | 45.81777 | 16.62925 | 92° | 49km/h | 16105m | 4.7m/s | -54.9°C | 4.5% | 0hPa | 2.6V | 00:00:00 | 01:04:59 | 00:00:00 | |
| 9A1FER-10 | 2026-09-02 12:10:39 | 45.81780 | 16.62847 | 94° | 47km/h | 16086m | 5.6m/s | -55.0°C | 4.6% | 0hPa | 2.6V | 00:00:00 | 01:04:55 | 08:30:00 | |
| 9A1FER-15 | 2026-09-02 12:10:37 | 45.81782 | 16.62814 | 97° | 47km/h | 16076m | 5.4m/s | -55.0°C | 4.6% | 0hPa | 2.7V | 00:00:00 | 01:04:53 | 08:30:00 | |
| 9A1FER-3 | 2026-09-02 12:10:33 | 45.81789 | 16.62750 | 98° | 51km/h | 16059m | 4.4m/s | -55.0°C | 4.5% | 0hPa | 2.7V | 00:00:00 | 01:04:49 | 00:00:00 | |
| OE5DRO-10 | 2026-09-02 12:10:31 | 45.81793 | 16.62716 | 100° | 55km/h | 16050m | 4.8m/s | -55.0°C | 4.6% | 0hPa | 2.6V | 00:00:00 | 00:00:00 | 08:30:00 | |
| PETON7-10 | 2026-09-02 12:10:28 | 45.81798 | 16.62666 | 99° | 55km/h | 16036m | 4.6m/s | -55.0°C | 4.6% | 0hPa | 2.7V | 00:00:00 | 00:00:00 | 08:30:00 | |
| 9A1FER-10 | 2026-09-02 12:10:24 | 45.81807 | 16.62595 | 101° | 60km/h | 16018m | 2.9m/s | -55.0°C | 4.6% | 0hPa | 2.6V | 00:00:00 | 01:04:40 | 00:00:00 | |
| 9A1FER-15 | 2026-09-02 12:10:22 | 45.81812 | 16.62558 | 102° | 62km/h | 16009m | 4.4m/s | -55.0°C | 4.6% | 0hPa | 2.6V | 00:00:00 | 01:04:38 | 00:00:00 | |
| OE3JTB-15 | 2026-09-02 12:10:20 | 45.81817 | 16.62518 | 98° | 75km/h | 15999m | 4.8m/s | -55.2°C | 4.6% | 0hPa | 2.6V | 00:00:00 | 00:00:00 | 00:00:00 | |
| 9A1FER-3 | 2026-09-02 12:10:18 | 45.81821 | 16.62477 | 100° | 64km/h | 15989m | 4.2m/s | -55.2°C | 4.7% | 0hPa | 2.6V | 00:00:00 | 01:04:34 | 00:00:00 | |
| PETON7-10 | 2026-09-02 12:10:13 | 45.81837 | 16.62366 | 103° | 64km/h | 15965m | 4.5m/s | -55.2°C | 4.6% | 0hPa | 2.6V | 00:00:00 | 00:00:00 | 00:00:00 | |
| OE5DRO-10 | 2026-09-02 12:10:12 | 45.81841 | 16.62342 | 104° | 64km/h | 15961m | 5.1m/s | -55.1°C | 4.6% | 0hPa | 2.6V | 00:00:00 | 00:00:00 | 00:00:00 | |
| 9A1FER-10 | 2026-09-02 12:10:09 | 45.81851 | 16.62272 | 101° | 64km/h | 15946m | 3.7m/s | -55.1°C | 4.7% | 0hPa | 2.6V | 00:00:00 | 01:04:25 | 00:00:00 | |
| 9A1FER-15 | 2026-09-02 12:10:07 | 45.81857 | 16.62227 | 99° | 64km/h | 15937m | 3.9m/s | -55.1°C | 4.7% | 0hPa | 2.6V | 00:00:00 | 01:04:23 | 00:00:00 | |
| 9A1FER-3 | 2026-09-02 12:10:03 | 45.81865 | 16.62139 | 100° | 64km/h | 15919m | 4.8m/s | -55.0°C | 4.7% | 0hPa | 2.6V | 00:00:00 | 01:04:19 | 00:00:00 | |
| PETON7-10 | 2026-09-02 12:09:58 | 45.81879 | 16.62026 | 100° | 64km/h | 15897m | 4.8m/s | -55.0°C | 4.6% | 0hPa | 2.6V | 00:00:00 | 01:04:14 | 00:00:00 | |
| 9A1FER-10 | 2026-09-02 12:09:54 | 45.81887 | 16.61933 | 96° | 62km/h | 15878m | 4.5m/s | -55.3°C | 4.7% | 0hPa | 2.6V | 00:00:00 | 01:04:10 | 00:00:00 | |
| OE5DRO-10 | 2026-09-02 12:09:53 | 45.81888 | 16.61910 | 94° | 60km/h | 15874m | 4.1m/s | -55.3°C | 4.7% | 0hPa | 2.7V | 00:00:00 | 00:00:00 | 00:00:00 | |
| 9A1FER-15 | 2026-09-02 12:09:52 | 45.81888 | 16.61887 | 92° | 62km/h | 15869m | 4.6m/s | -55.3°C | 4.7% | 0hPa | 2.7V | 00:00:00 | 01:04:08 | 00:00:00 | |
| 9A1FER-3 | 2026-09-02 12:09:47 | 45.81893 | 16.61772 | 95° | 58km/h | 15847m | 4.3m/s | -55.4°C | 4.8% | 0hPa | 2.7V | 00:00:00 | 01:04:03 | 00:00:00 | |
| PETON7-10 | 2026-09-02 12:09:42 | 45.81898 | 16.61660 | 90° | 58km/h | 15826m | 3.9m/s | -55.3°C | 4.7% | 0hPa | 2.7V | 00:00:00 | 00:00:00 | 00:00:00 | |
| 9A1FER-10 | 2026-09-02 12:09:38 | 45.81896 | 16.61576 | 89° | 58km/h | 15809m | 5.1m/s | -55.4°C | 4.9% | 0hPa | 2.6V | 00:00:00 | 01:03:54 | 00:00:00 | |
| 9A1FER-15 | 2026-09-02 12:09:37 | 45.81896 | 16.61555 | 91° | 60km/h | 15804m | 3.8m/s | -55.4°C | 4.9% | 0hPa | 2.6V | 00:00:00 | 01:03:53 | 00:00:00 | |
| OE5DRO-10 | 2026-09-02 12:09:34 | 45.81896 | 16.61495 | 89° | 62km/h | 15792m | 3.7m/s | -55.4°C | 4.8% | 0hPa | 2.6V | 00:00:00 | 00:00:00 | 00:00:00 | |
| 9A1FER-3 | 2026-09-02 12:09:32 | 45.81895 | 16.61454 | 90° | 62km/h | 15783m | 4.6m/s | -55.4°C | 4.8% | 0hPa | 2.7V | 00:00:00 | 01:03:48 | 00:00:00 | |
| PETON7-10 | 2026-09-02 12:09:27 | 45.81893 | 16.61344 | 90° | 64km/h | 15761m | 3.3m/s | -55.3°C | 4.7% | 0hPa | 2.7V | 00:00:00 | 00:00:00 | 00:00:00 | |
| 9A1FER-10 | 2026-09-02 12:09:23 | 45.81892 | 16.61255 | 90° | 64km/h | 15744m | 5.1m/s | -55.4°C | 4.6% | 0hPa | 2.7V | 00:00:00 | 01:03:39 | 00:00:00 | |
| 9A1FER-15 | 2026-09-02 12:09:22 | 45.81892 | 16.61232 | 91° | 64km/h | 15740m | 3.9m/s | -55.5°C | 4.6% | 0hPa | 2.7V | 00:00:00 | 01:03:38 | 00:00:00 | |
| 9A1FER-3 | 2026-09-02 12:09:17 | 45.81893 | 16.61113 | 94° | 64km/h | 15717m | 4.2m/s | -55.5°C | 4.8% | 0hPa | 2.7V | 00:00:00 | 01:03:33 | 00:00:00 | |
| OE5DRO-10 | 2026-09-02 12:09:15 | 45.81895 | 16.61066 | 94° | 66km/h | 15708m | 3.7m/s | -55.6°C | 4.7% | 0hPa | 2.7V | 00:00:00 | 00:00:00 | 00:00:00 | |
| PETON7-10 | 2026-09-02 12:09:12 | 45.81899 | 16.60996 | 95° | 66km/h | 15694m | 5.1m/s | -55.7°C | 4.8% | 0hPa | 2.7V | 00:00:00 | 01:03:28 | 00:00:00 | |
| 9A1FER-10 | 2026-09-02 12:09:08 | 45.81905 | 16.60909 | 97° | 68km/h | 15677m | 3.5m/s | -55.8°C | 4.8% | 0hPa | 2.7V | 00:00:00 | 01:03:24 | 00:00:00 | |
| 9A1FER-15 | 2026-09-02 12:09:07 | 45.81906 | 16.60887 | 96° | 69km/h | 15673m | 4.6m/s | 0°C | 0% | 0hPa | 2.7V | 00:00:00 | 01:03:23 | 00:00:00 | |
| 9A1FER-3 | 2026-09-02 12:09:02 | 45.81916 | 16.60769 | 96° | 69km/h | 15652m | 5.1m/s | -55.8°C | 4.8% | 0hPa | 2.7V | 00:00:00 | 01:03:18 | 08:30:00 | |
| PETON7-10 | 2026-09-02 12:08:57 | 45.81923 | 16.60641 | 93° | 69km/h | 15630m | 4.5m/s | -55.8°C | 4.8% | 0hPa | 2.7V | 00:00:00 | 00:00:00 | 00:00:00 | |
| OE5DRO-10 | 2026-09-02 12:08:56 | 45.81923 | 16.60616 | 93° | 69km/h | 15625m | 4.2m/s | -55.7°C | 4.8% | 0hPa | 2.7V | 00:00:00 | 00:00:00 | 00:00:00 | |
| 9A1FER-10 | 2026-09-02 12:08:53 | 45.81926 | 16.60540 | 92° | 69km/h | 15612m | 5.2m/s | -55.7°C | 4.7% | 0hPa | 2.7V | 00:00:00 | 01:03:09 | 00:00:00 | |
| 9A1FER-15 | 2026-09-02 12:08:52 | 45.81927 | 16.60514 | 91° | 69km/h | 15608m | 3.9m/s | 0°C | 0% | 0hPa | 2.7V | 00:00:00 | 01:03:08 | 00:00:00 | |
| PETON7-10 | 2026-09-02 12:08:42 | 45.81925 | 16.60268 | 88° | 68km/h | 15563m | 5.7m/s | -55.5°C | 4.8% | 0hPa | 2.7V | 00:00:00 | 00:00:00 | 00:00:00 | |
| 9A1FER-10 | 2026-09-02 12:08:38 | 45.81921 | 16.60167 | 86° | 69km/h | 15546m | 3.7m/s | -55.4°C | 4.7% | 0hPa | 2.7V | 00:00:00 | 01:02:54 | 00:00:00 | |
| 9A1FER-15 | 2026-09-02 12:08:37 | 45.81919 | 16.60142 | 86° | 69km/h | 15542m | 4.6m/s | 0°C | 0% | 0hPa | 2.7V | 00:00:00 | 01:02:53 | 00:00:00 | |
| PETON7-10 | 2026-09-02 12:08:27 | 45.81901 | 16.59898 | 85° | 69km/h | 15499m | 4.5m/s | -55.2°C | 4.6% | 0hPa | 2.7V | 00:00:00 | 01:02:43 | 00:00:00 | |
| 9A1FER-10 | 2026-09-02 12:08:23 | 45.81889 | 16.59795 | 77° | 69km/h | 15481m | 5.0m/s | -55.1°C | 4.6% | 0hPa | 2.7V | 00:00:00 | 01:02:39 | 08:30:00 | |
| 9A1FER-15 | 2026-09-02 12:08:22 | 45.81885 | 16.59771 | 77° | 68km/h | 15477m | 3.4m/s | 0°C | 0% | 0hPa | 2.7V | 00:00:00 | 01:02:38 | 00:00:00 | |
| OE5DRO-10 | 2026-09-02 12:08:18 | 45.81871 | 16.59675 | 81° | 71km/h | 15459m | 3.8m/s | -55.1°C | 4.6% | 0hPa | 2.7V | 00:00:00 | 00:00:00 | 00:00:00 | |
| 9A1FER-3 | 2026-09-02 12:08:15 | 45.81862 | 16.59599 | 83° | 71km/h | 15446m | 4.1m/s | -55.0°C | 4.6% | 0hPa | 2.7V | 00:00:00 | 01:02:31 | 00:00:00 | |
| PETON7-10 | 2026-09-02 12:08:12 | 45.81855 | 16.59523 | 82° | 71km/h | 15433m | 4.6m/s | -54.9°C | 4.5% | 0hPa | 2.7V | 00:00:00 | 00:00:00 | 08:30:00 | |
| 9A1FER-10 | 2026-09-02 12:08:08 | 45.81840 | 16.59423 | 74° | 71km/h | 15416m | 4.2m/s | -54.8°C | 4.4% | 0hPa | 2.6V | 00:00:00 | 01:02:24 | 00:00:00 | |
| OE5DRO-10 | 2026-09-02 12:07:59 | 45.81792 | 16.59199 | 78° | 66km/h | 15375m | 5.2m/s | -54.7°C | 4.5% | 0hPa | 2.6V | 00:00:00 | 00:00:00 | 00:00:00 | |
| PETON7-10 | 2026-09-02 12:07:57 | 45.81785 | 16.59149 | 78° | 66km/h | 15367m | 4.8m/s | -55.0°C | 4.7% | 0hPa | 2.6V | 00:00:00 | 00:00:00 | 00:00:00 | |
| 9A1FER-10 | 2026-09-02 12:07:53 | 45.81769 | 16.59056 | 74° | 64km/h | 15348m | 3.6m/s | -55.2°C | 4.5% | 0hPa | 2.6V | 00:00:00 | 01:02:09 | 00:00:00 | |
| PETON7-10 | 2026-09-02 12:07:42 | 45.81717 | 16.58810 | 83° | 60km/h | 15296m | 4.5m/s | -54.9°C | 4.6% | 0hPa | 2.6V | 00:00:00 | 01:01:58 | 00:00:00 | |
| OE5DRO-10 | 2026-09-02 12:07:40 | 45.81714 | 16.58769 | 85° | 58km/h | 15285m | 5.3m/s | -54.8°C | 4.6% | 0hPa | 2.6V | 00:00:00 | 00:00:00 | 08:30:00 | |
| 9A1FER-3 | 2026-09-02 12:07:38 | 45.81710 | 16.58727 | 79° | 60km/h | 15274m | 3.5m/s | -54.8°C | 4.6% | 0hPa | 2.6V | 00:00:00 | 01:01:54 | 00:00:00 | |
| PETON7-10 | 2026-09-02 12:07:27 | 45.81676 | 16.58492 | 84° | 60km/h | 15219m | 6.5m/s | -54.4°C | 4.4% | 0hPa | 2.6V | 00:00:00 | 00:00:00 | 00:00:00 | |
| 9A1FER-10 | 2026-09-02 12:07:23 | 45.81668 | 16.58411 | 84° | 62km/h | 15199m | 4.9m/s | -54.4°C | 4.4% | 0hPa | 2.7V | 00:00:00 | 01:01:39 | 00:00:00 | |
| OE5DRO-10 | 2026-09-02 12:07:21 | 45.81666 | 16.58369 | 87° | 64km/h | 15187m | 5.6m/s | -54.3°C | 4.4% | 0hPa | 2.7V | 00:00:00 | 00:00:00 | 00:00:00 | |
| PETON7-10 | 2026-09-02 12:07:12 | 45.81662 | 16.58169 | 87° | 69km/h | 15140m | 4.5m/s | -54.5°C | 4.3% | 0hPa | 2.7V | 00:00:00 | 00:00:00 | 00:00:00 | |
| 9A1FER-10 | 2026-09-02 12:07:08 | 45.81660 | 16.58077 | 90° | 71km/h | 15120m | 5.4m/s | -54.5°C | 4.4% | 0hPa | 2.7V | 00:00:00 | 01:01:24 | 00:00:00 | |
| OE5DRO-10 | 2026-09-02 12:07:02 | 45.81670 | 16.57929 | 99° | 73km/h | 15091m | 4.9m/s | -54.5°C | 4.4% | 0hPa | 2.7V | 00:00:00 | 00:00:00 | 00:00:00 | |
| PETON7-10 | 2026-09-02 12:06:57 | 45.81678 | 16.57796 | 93° | 73km/h | 15068m | 5.4m/s | -54.5°C | 4.4% | 0hPa | 2.7V | 00:00:00 | 01:01:13 | 00:00:00 | |
| 9A1FER-3 | 2026-09-02 12:06:53 | 45.81682 | 16.57693 | 93° | 73km/h | 15048m | 5.2m/s | -54.7°C | 4.5% | 0hPa | 2.7V | 00:00:00 | 01:01:09 | 00:00:00 | |
| OE5DRO-10 | 2026-09-02 12:06:44 | 45.81688 | 16.57428 | 87° | 71km/h | 15002m | 4.1m/s | -54.7°C | 4.5% | 0hPa | 2.7V | 00:00:00 | 00:00:00 | 00:00:00 | |
| PETON7-10 | 2026-09-02 12:06:42 | 45.81687 | 16.57402 | 86° | 73km/h | 14998m | 4.9m/s | -54.6°C | 4.5% | 0hPa | 2.7V | 00:00:00 | 00:00:00 | 00:00:00 | |
| 9A1FER-10 | 2026-09-02 12:06:39 | 45.81682 | 16.57302 | 90° | 71km/h | 14981m | 4.8m/s | -54.4°C | 4.4% | 0hPa | 2.7V | 00:00:00 | 01:00:54 | 00:00:00 | |
| PETON7-10 | 2026-09-02 12:06:27 | 45.81690 | 16.57009 | 91° | 69km/h | 14930m | 4.9m/s | -54.2°C | 4.5% | 0hPa | 2.7V | 00:00:00 | 00:00:00 | 00:00:00 | |
| OE5DRO-10 | 2026-09-02 12:06:24 | 45.81693 | 16.56936 | 95° | 73km/h | 14916m | 4.9m/s | -54.2°C | 4.5% | 0hPa | 2.7V | 00:00:00 | 00:00:00 | 00:00:00 | |
| 9A1FER-3 | 2026-09-02 12:06:23 | 45.81695 | 16.56911 | 96° | 71km/h | 14911m | 4.2m/s | -54.3°C | 4.5% | 0hPa | 2.7V | 00:00:00 | 01:00:39 | 00:00:00 | |
| PETON7-10 | 2026-09-02 12:06:12 | 45.81721 | 16.56635 | 98° | 78km/h | 14861m | 4.8m/s | -54.5°C | 4.5% | 0hPa | 2.7V | 00:00:00 | 01:00:28 | 00:00:00 | |
| 9A1FER-10 | 2026-09-02 12:06:08 | 45.81732 | 16.56526 | 98° | 78km/h | 14842m | 4.5m/s | -54.4°C | 4.5% | 0hPa | 2.7V | 00:00:00 | 01:00:24 | 08:30:00 | |
| OE5DRO-10 | 2026-09-02 12:06:05 | 45.81740 | 16.56440 | 99° | 78km/h | 14829m | 4.0m/s | -54.3°C | 4.5% | 0hPa | 2.7V | 00:00:00 | 00:00:00 | 00:00:00 | |
| PETON7-10 | 2026-09-02 12:05:57 | 45.81760 | 16.56215 | 96° | 80km/h | 14793m | 5.7m/s | -54.7°C | 4.5% | 0hPa | 2.7V | 00:00:00 | 00:00:00 | 08:30:00 | |
| 9A1FER-10 | 2026-09-02 12:05:53 | 45.81768 | 16.56107 | 98° | 84km/h | 14775m | 2.7m/s | -54.9°C | 4.7% | 0hPa | 2.7V | 00:00:00 | 01:00:09 | 00:00:00 | |
| OE5DRO-10 | 2026-09-02 12:05:46 | 45.81780 | 16.55902 | 93° | 89km/h | 14744m | 4.5m/s | -54.9°C | 4.8% | 0hPa | 2.7V | 00:00:00 | 00:00:00 | 00:00:00 | |
| PETON7-10 | 2026-09-02 12:05:42 | 45.81780 | 16.55778 | 90° | 89km/h | 14726m | 4.6m/s | -54.9°C | 4.7% | 0hPa | 2.7V | 00:00:00 | 00:00:00 | 00:00:00 | |
| 9A1FER-10 | 2026-09-02 12:05:38 | 45.81781 | 16.55645 | 91° | 89km/h | 14709m | 2.9m/s | -54.8°C | 4.6% | 0hPa | 2.7V | 00:00:00 | 00:59:54 | 00:00:00 | |
| OE5DRO-10 | 2026-09-02 12:05:27 | 45.81774 | 16.55293 | 84° | 91km/h | 14659m | 4.8m/s | -54.8°C | 4.7% | 0hPa | 2.7V | 00:00:00 | 00:00:00 | 00:00:00 | |
| 9A1FER-10 | 2026-09-02 12:05:23 | 45.81767 | 16.55161 | 88° | 89km/h | 14642m | 5.3m/s | -54.9°C | 4.7% | 0hPa | 2.7V | 00:00:00 | 00:59:39 | 00:00:00 | |
| PETON7-10 | 2026-09-02 12:05:12 | 45.81744 | 16.54803 | 83° | 89km/h | 14590m | 5.8m/s | -54.9°C | 4.6% | 0hPa | 2.7V | 00:00:00 | 00:00:00 | 00:00:00 | |
| 9A1FER-10 | 2026-09-02 12:05:08 | 45.81734 | 16.54675 | 85° | 89km/h | 14570m | 7.0m/s | -54.9°C | 4.6% | 0hPa | 2.7V | 00:00:00 | 00:59:24 | 00:00:00 | |
| PETON7-10 | 2026-09-02 12:04:57 | 45.81692 | 16.54322 | 77° | 84km/h | 14515m | 4.6m/s | -54.8°C | 4.6% | 0hPa | 2.7V | 00:00:00 | 00:00:00 | 00:00:00 | |
| 9A1FER-10 | 2026-09-02 12:04:53 | 45.81673 | 16.54203 | 79° | 84km/h | 14494m | 5.0m/s | -54.8°C | 4.6% | 0hPa | 2.7V | 00:00:00 | 00:59:09 | 00:00:00 | |
| OE5DRO-10 | 2026-09-02 12:04:49 | 45.81656 | 16.54080 | 79° | 80km/h | 14473m | 4.1m/s | -54.8°C | 4.6% | 0hPa | 2.7V | 00:00:00 | 00:00:00 | 08:30:00 | |
| PETON7-10 | 2026-09-02 12:04:42 | 45.81625 | 16.53874 | 77° | 78km/h | 14440m | 4.5m/s | -54.9°C | 4.7% | 0hPa | 2.7V | 00:00:00 | 00:58:58 | 00:00:00 | |
| 9A1FER-10 | 2026-09-02 12:04:38 | 45.81603 | 16.53761 | 75° | 77km/h | 14421m | 4.5m/s | -54.7°C | 4.6% | 0hPa | 2.7V | 00:00:00 | 00:58:54 | 00:00:00 | |
| OE5DRO-10 | 2026-09-02 12:04:30 | 45.81565 | 16.53542 | 75° | 71km/h | 14382m | 4.9m/s | -54.6°C | 4.6% | 0hPa | 2.7V | 00:00:00 | 00:00:00 | 00:00:00 | |
| PETON7-10 | 2026-09-02 12:04:27 | 45.81550 | 16.53466 | 75° | 71km/h | 14367m | 6.0m/s | -54.4°C | 4.5% | 0hPa | 2.7V | 00:00:00 | 00:00:00 | 00:00:00 | |
| 9A1FER-3 | 2026-09-02 12:04:23 | 45.81531 | 16.53364 | 77° | 73km/h | 14348m | 4.7m/s | -54.3°C | 4.5% | 0hPa | 2.7V | 00:00:00 | 00:58:39 | 00:00:00 | |
| PETON7-10 | 2026-09-02 12:04:12 | 45.81479 | 16.53091 | 72° | 71km/h | 14296m | 4.8m/s | -53.8°C | 4.5% | 0hPa | 2.7V | 00:00:00 | 00:00:00 | 00:00:00 | |
| OE5DRO-10 | 2026-09-02 12:04:11 | 45.81473 | 16.53067 | 73° | 71km/h | 14291m | 4.2m/s | -53.9°C | 4.5% | 0hPa | 2.7V | 00:00:00 | 00:00:00 | 00:00:00 | |
| 9A1FER-10 | 2026-09-02 12:04:08 | 45.81457 | 16.52992 | 73° | 71km/h | 14278m | 4.8m/s | -53.7°C | 4.4% | 0hPa | 2.7V | 00:00:00 | 00:58:24 | 00:00:00 | |
| PETON7-10 | 2026-09-02 12:03:57 | 45.81395 | 16.52720 | 73° | 69km/h | 14226m | 5.2m/s | -53.4°C | 4.4% | 0hPa | 2.7V | 00:00:00 | 00:58:13 | 00:00:00 | |
| 9A1FER-10 | 2026-09-02 12:03:53 | 45.81376 | 16.52623 | 77° | 69km/h | 14207m | 5.1m/s | -53.3°C | 4.3% | 0hPa | 2.7V | 00:00:00 | 00:58:09 | 08:30:00 | |
| OE5DRO-10 | 2026-09-02 12:03:52 | 45.81372 | 16.52597 | 78° | 68km/h | 14202m | 4.1m/s | -53.2°C | 4.3% | 0hPa | 2.7V | 00:00:00 | 00:00:00 | 00:00:00 | |
| 9A1FER-3 | 2026-09-02 12:03:45 | 45.81348 | 16.52423 | 80° | 66km/h | 14169m | 4.8m/s | -53.0°C | 4.3% | 0hPa | 2.7V | 00:00:00 | 00:58:01 | 00:00:00 | |
| PETON7-10 | 2026-09-02 12:03:42 | 45.81339 | 16.52353 | 81° | 66km/h | 14154m | 3.9m/s | -53.0°C | 4.4% | 0hPa | 2.7V | 00:00:00 | 00:00:00 | 08:30:00 | |
| 9A1FER-10 | 2026-09-02 12:03:38 | 45.81327 | 16.52258 | 82° | 66km/h | 14135m | 4.3m/s | -52.8°C | 4.3% | 0hPa | 2.7V | 00:00:00 | 00:57:54 | 00:00:00 | |
| OE5DRO-10 | 2026-09-02 12:03:33 | 45.81314 | 16.52139 | 82° | 66km/h | 14113m | 4.1m/s | -52.7°C | 4.1% | 0hPa | 2.7V | 00:00:00 | 00:00:00 | 00:00:00 | |
| PETON7-10 | 2026-09-02 12:03:27 | 45.81296 | 16.51997 | 81° | 68km/h | 14087m | 2.5m/s | -52.8°C | 4.0% | 0hPa | 2.7V | 00:00:00 | 00:00:00 | 00:00:00 | |
| 9A1FER-10 | 2026-09-02 12:03:23 | 45.81288 | 16.51904 | 86° | 68km/h | 14069m | 4.1m/s | -53.1°C | 4.2% | 0hPa | 2.7V | 00:00:00 | 00:57:39 | 00:00:00 | |
| OE5DRO-10 | 2026-09-02 12:03:14 | 45.81286 | 16.51683 | 91° | 69km/h | 14030m | 3.8m/s | -53.6°C | 4.5% | 0hPa | 2.7V | 00:00:00 | 00:00:00 | 00:00:00 | |
| PETON7-10 | 2026-09-02 12:03:12 | 45.81286 | 16.51631 | 90° | 68km/h | 14021m | 3.2m/s | -53.6°C | 4.5% | 0hPa | 2.7V | 00:00:00 | 00:57:28 | 00:00:00 | |
| 9A1FER-10 | 2026-09-02 12:03:08 | 45.81288 | 16.51535 | 92° | 68km/h | 14005m | 4.6m/s | -53.6°C | 4.6% | 0hPa | 2.7V | 00:00:00 | 00:57:24 | 00:00:00 | |
| 9A1FER-3 | 2026-09-02 12:03:04 | 45.81284 | 16.51441 | 85° | 69km/h | 13989m | 3.7m/s | -53.5°C | 4.5% | 0hPa | 2.7V | 00:00:00 | 00:57:20 | 00:00:00 | |
| PETON7-10 | 2026-09-02 12:02:57 | 45.81265 | 16.51266 | 81° | 73km/h | 13954m | 5.3m/s | -53.4°C | 4.5% | 0hPa | 2.7V | 00:00:00 | 00:00:00 | 00:00:00 | |
| OE5DRO-10 | 2026-09-02 12:02:55 | 45.81261 | 16.51216 | 85° | 69km/h | 13944m | 4.9m/s | -53.3°C | 4.5% | 0hPa | 2.7V | 00:00:00 | 00:00:00 | 00:00:00 | |
| 9A1FER-10 | 2026-09-02 12:02:53 | 45.81258 | 16.51169 | 87° | 68km/h | 13935m | 4.9m/s | -53.3°C | 4.5% | 0hPa | 2.7V | 00:00:00 | 00:57:09 | 00:00:00 | |
| 9A1FER-10 | 2026-09-02 12:02:38 | 45.81224 | 16.50802 | 82° | 73km/h | 13868m | 4.5m/s | -53.5°C | 4.7% | 0hPa | 2.7V | 00:00:00 | 00:56:54 | 00:00:00 | |
| PETON7-10 | 2026-09-02 12:02:36 | 45.81219 | 16.50750 | 82° | 75km/h | 13860m | 3.5m/s | -53.4°C | 4.7% | 0hPa | 2.7V | 00:00:00 | 00:00:00 | 00:00:00 | |
| 9A1FER-3 | 2026-09-02 12:02:32 | 45.81207 | 16.50648 | 82° | 75km/h | 13842m | 4.5m/s | -53.4°C | 4.7% | 0hPa | 2.7V | 00:00:00 | 00:56:48 | 00:00:00 | |
| 9A1FER-10 | 2026-09-02 12:02:23 | 45.81186 | 16.50405 | 84° | 77km/h | 13802m | 3.6m/s | -53.3°C | 4.6% | 0hPa | 2.7V | 00:00:00 | 00:56:39 | 00:00:00 | |
| PETON7-10 | 2026-09-02 12:02:21 | 45.81182 | 16.50350 | 85° | 77km/h | 13793m | 3.3m/s | -53.2°C | 4.7% | 0hPa | 2.7V | 00:00:00 | 00:56:37 | 00:00:00 | |
| OE5DRO-10 | 2026-09-02 12:02:17 | 45.81176 | 16.50241 | 86° | 78km/h | 13775m | 3.9m/s | -53.2°C | 4.7% | 0hPa | 2.7V | 00:00:00 | 00:00:00 | 00:00:00 | |
| 9A1FER-10 | 2026-09-02 12:02:08 | 45.81144 | 16.49993 | 80° | 82km/h | 13733m | 4.7m/s | -53.2°C | 4.6% | 0hPa | 2.7V | 00:00:00 | 00:56:24 | 00:00:00 | |
| PETON7-10 | 2026-09-02 12:02:06 | 45.81137 | 16.49936 | 82° | 84km/h | 13724m | 5.0m/s | -53.3°C | 4.6% | 0hPa | 2.7V | 00:00:00 | 00:00:00 | 00:00:00 | |
| OE5DRO-10 | 2026-09-02 12:01:58 | 45.81106 | 16.49714 | 76° | 88km/h | 13686m | 5.1m/s | -53.2°C | 4.8% | 0hPa | 2.7V | 00:00:00 | 00:00:00 | 08:30:00 | |
| 9A1FER-10 | 2026-09-02 12:01:53 | 45.81078 | 16.49560 | 75° | 88km/h | 13662m | 5.7m/s | -53.6°C | 5.1% | 0hPa | 2.7V | 00:00:00 | 00:56:09 | 00:00:00 | |
| PETON7-10 | 2026-09-02 12:01:49 | 45.81052 | 16.49437 | 73° | 88km/h | 13644m | 4.3m/s | -53.5°C | 5.0% | 0hPa | 2.7V | 00:00:00 | 00:00:00 | 00:00:00 | |
| 9A1FER-3 | 2026-09-02 12:01:48 | 45.81045 | 16.49406 | 74° | 86km/h | 13639m | 4.2m/s | -53.5°C | 5.0% | 0hPa | 2.7V | 00:00:00 | 00:56:04 | 08:30:00 | |
| OE5DRO-10 | 2026-09-02 12:01:39 | 45.81002 | 16.49134 | 78° | 84km/h | 13600m | 4.8m/s | -53.2°C | 5.0% | 0hPa | 2.7V | 00:00:00 | 00:00:00 | 00:00:00 | |
| 9A1FER-10 | 2026-09-02 12:01:38 | 45.80997 | 16.49103 | 76° | 84km/h | 13595m | 4.5m/s | -53.1°C | 4.9% | 0hPa | 2.7V | 00:00:00 | 00:55:54 | 08:30:00 | |
| 9A1FER-3 | 2026-09-02 12:01:33 | 45.80968 | 16.48953 | 74° | 84km/h | 13573m | 5.2m/s | -52.9°C | 4.9% | 0hPa | 2.7V | 00:00:00 | 00:55:49 | 00:00:00 | |
| PETON7-10 | 2026-09-02 12:01:26 | 45.80934 | 16.48746 | 79° | 80km/h | 13542m | 5.1m/s | -52.9°C | 5.1% | 0hPa | 2.7V | 00:00:00 | 00:55:42 | 00:00:00 | |
| 9A1FER-10 | 2026-09-02 12:01:23 | 45.80922 | 16.48660 | 79° | 80km/h | 13528m | 3.5m/s | -52.8°C | 5.0% | 0hPa | 2.7V | 00:00:00 | 00:55:39 | 00:00:00 | |
| OE5DRO-10 | 2026-09-02 12:01:20 | 45.80907 | 16.48573 | 75° | 78km/h | 13514m | 5.2m/s | -52.8°C | 4.8% | 0hPa | 2.7V | 00:00:00 | 00:00:00 | 00:00:00 | |
| 9A1FER-3 | 2026-09-02 12:01:18 | 45.80895 | 16.48515 | 72° | 78km/h | 13505m | 5.0m/s | -52.8°C | 4.7% | 0hPa | 2.7V | 00:00:00 | 00:55:34 | 00:00:00 | |
| 9A1FER-10 | 2026-09-02 12:01:08 | 45.80858 | 16.48236 | 89° | 78km/h | 13458m | 6.1m/s | -52.9°C | 5.0% | 0hPa | 2.7V | 00:00:00 | 00:55:24 | 00:00:00 | |
| 9A1FER-3 | 2026-09-02 12:01:03 | 45.80848 | 16.48072 | 82° | 80km/h | 13429m | 4.0m/s | -52.9°C | 5.0% | 0hPa | 2.7V | 00:00:00 | 00:55:18 | 00:00:00 | |
| OE5DRO-10 | 2026-09-02 12:01:01 | 45.80845 | 16.48043 | 81° | 82km/h | 13425m | 5.6m/s | 0°C | 0% | 0hPa | 2.7V | 00:00:00 | 00:00:00 | 00:00:00 | |
| 9A1FER-10 | 2026-09-02 12:00:53 | 45.80827 | 16.47814 | 88° | 84km/h | 13389m | 2.8m/s | -53.1°C | 5.0% | 0hPa | 2.7V | 00:00:00 | 00:55:09 | 00:00:00 | |
| 9A1FER-3 | 2026-09-02 12:00:47 | 45.80821 | 16.47636 | 87° | 88km/h | 13360m | 6.5m/s | -53.1°C | 5.1% | 0hPa | 2.7V | 00:00:00 | 00:55:03 | 00:00:00 | |
| OE5DRO-10 | 2026-09-02 12:00:42 | 45.80812 | 16.47479 | 84° | 86km/h | 13336m | 5.9m/s | 0°C | 0% | 0hPa | 2.7V | 00:00:00 | 00:00:00 | 00:00:00 | |
| 9A1FER-10 | 2026-09-02 12:00:38 | 45.80802 | 16.47353 | 84° | 86km/h | 13317m | 5.4m/s | -53.0°C | 4.9% | 0hPa | 2.7V | 00:00:00 | 00:54:54 | 00:00:00 | |
| 9A1FER-3 | 2026-09-02 12:00:32 | 45.80788 | 16.47166 | 86° | 86km/h | 13287m | 4.0m/s | -53.0°C | 5.0% | 0hPa | 2.7V | 00:00:00 | 00:54:48 | 00:00:00 | |
| 9A1FER-10 | 2026-09-02 12:00:23 | 45.80770 | 16.46890 | 84° | 80km/h | 13246m | 4.8m/s | -52.9°C | 5.0% | 0hPa | 2.7V | 00:00:00 | 00:54:39 | 00:00:00 | |
| 9A1FER-3 | 2026-09-02 12:00:09 | 45.80725 | 16.46487 | 82° | 77km/h | 13181m | 4.4m/s | -52.9°C | 5.0% | 0hPa | 2.7V | 00:00:00 | 00:54:25 | 00:00:00 | |
| 9A1FER-10 | 2026-09-02 12:00:08 | 45.80722 | 16.46458 | 83° | 78km/h | 13177m | 5.4m/s | -52.9°C | 4.9% | 0hPa | 2.7V | 00:00:00 | 00:54:24 | 00:00:00 | |
| OE5DRO-10 | 2026-09-02 12:00:04 | 45.80710 | 16.46350 | 80° | 78km/h | 13158m | 6.1m/s | 0°C | 0% | 0hPa | 2.7V | 00:00:00 | 00:00:00 | 00:00:00 | |
| 9A1FER-10 | 2026-09-02 11:59:53 | 45.80660 | 16.46047 | 77° | 75km/h | 13105m | 3.7m/s | -53.0°C | 5.3% | 0hPa | 2.7V | 00:00:00 | 00:54:09 | 00:00:00 | |
| 9A1FER-3 | 2026-09-02 11:59:51 | 45.80651 | 16.45997 | 76° | 77km/h | 13096m | 5.7m/s | -53.0°C | 5.2% | 0hPa | 2.7V | 00:00:00 | 00:54:07 | 00:00:00 | |
| OE5DRO-10 | 2026-09-02 11:59:45 | 45.80624 | 16.45834 | 76° | 78km/h | 13064m | 5.9m/s | 0°C | 0% | 0hPa | 2.7V | 00:00:00 | 00:00:00 | 00:00:00 | |
| 9A1FER-10 | 2026-09-02 11:59:38 | 45.80592 | 16.45647 | 78° | 80km/h | 13032m | 4.8m/s | -52.6°C | 4.9% | 0hPa | 2.7V | 00:00:00 | 00:53:54 | 00:00:00 | |
| 9A1FER-3 | 2026-09-02 11:59:36 | 45.80585 | 16.45593 | 82° | 80km/h | 13022m | 4.7m/s | -52.5°C | 5.0% | 0hPa | 2.7V | 00:00:00 | 00:53:52 | 00:00:00 | |
| OE5DRO-10 | 2026-09-02 11:59:25 | 45.80547 | 16.45279 | 84° | 84km/h | 12968m | 4.8m/s | 0°C | 0% | 0hPa | 2.7V | 00:00:00 | 00:00:00 | 00:00:00 | |
| 9A1FER-10 | 2026-09-02 11:59:23 | 45.80542 | 16.45219 | 82° | 84km/h | 12959m | 4.7m/s | -52.4°C | 5.0% | 0hPa | 2.7V | 00:00:00 | 00:53:39 | 08:30:00 | |
| OE3JTB-15 | 2026-09-02 11:59:22 | 45.80539 | 16.45189 | 82° | 80km/h | 12953m | 5.1m/s | -52.5°C | 5.0% | 0hPa | 2.7V | 00:00:00 | 00:53:38 | 00:00:00 | |
| 9A1FER-3 | 2026-09-02 11:59:21 | 45.80536 | 16.45160 | 82° | 84km/h | 12948m | 5.8m/s | -52.4°C | 5.0% | 0hPa | 2.7V | 00:00:00 | 00:53:37 | 08:30:00 | |
| PETON7-10 | 2026-09-02 11:59:17 | 45.80521 | 16.45045 | 80° | 84km/h | 12928m | 5.3m/s | 0°C | 0% | 0hPa | 2.7V | 00:00:00 | 00:00:00 | 00:00:00 | |
| 9A1FER-10 | 2026-09-02 11:59:08 | 45.80507 | 16.44768 | 88° | 82km/h | 12886m | 5.1m/s | -52.6°C | 5.3% | 0hPa | 2.7V | 00:00:00 | 00:53:24 | 00:00:00 | |
| 9A1FER-3 | 2026-09-02 11:59:06 | 45.80504 | 16.44709 | 87° | 82km/h | 12877m | 5.3m/s | -52.6°C | 5.2% | 0hPa | 2.7V | 00:00:00 | 00:53:22 | 00:00:00 | |
| 9A1FER-10 | 2026-09-02 11:58:53 | 45.80475 | 16.44324 | 87° | 84km/h | 12813m | 4.7m/s | -52.6°C | 5.2% | 0hPa | 2.7V | 00:00:00 | 00:53:09 | 00:00:00 | |
| 9A1FER-3 | 2026-09-02 11:58:51 | 45.80474 | 16.44262 | 89° | 84km/h | 12803m | 4.9m/s | -52.6°C | 5.3% | 0hPa | 2.7V | 00:00:00 | 00:53:07 | 00:00:00 | |
| PETON7-10 | 2026-09-02 11:58:50 | 45.80473 | 16.44232 | 89° | 80km/h | 12798m | 5.8m/s | 0°C | 0% | 0hPa | 2.7V | 00:00:00 | 00:53:06 | 00:00:00 | |
| 9A1FER-10 | 2026-09-02 11:58:38 | 45.80466 | 16.43870 | 89° | 80km/h | 12739m | 5.0m/s | -52.8°C | 5.3% | 0hPa | 2.7V | 00:00:00 | 00:52:54 | 00:00:00 | |
| 9A1FER-3 | 2026-09-02 11:58:36 | 45.80464 | 16.43811 | 88° | 80km/h | 12728m | 5.2m/s | -52.9°C | 5.3% | 0hPa | 2.7V | 00:00:00 | 00:52:52 | 00:00:00 | |
| PETON7-10 | 2026-09-02 11:58:35 | 45.80463 | 16.43782 | 87° | 80km/h | 12723m | 4.9m/s | 0°C | 0% | 0hPa | 2.7V | 00:00:00 | 00:00:00 | 00:00:00 | |
| 9A1FER-10 | 2026-09-02 11:58:23 | 45.80438 | 16.43434 | 83° | 78km/h | 12665m | 5.0m/s | -52.5°C | 5.0% | 0hPa | 2.7V | 00:00:00 | 00:52:39 | 00:00:00 | |
| 9A1FER-3 | 2026-09-02 11:58:21 | 45.80433 | 16.43378 | 84° | 78km/h | 12655m | 4.2m/s | -52.4°C | 5.0% | 0hPa | 2.7V | 00:00:00 | 00:52:37 | 00:00:00 | |
| PETON7-10 | 2026-09-02 11:58:20 | 45.80431 | 16.43350 | 85° | 80km/h | 12650m | 5.0m/s | 0°C | 0% | 0hPa | 2.7V | 00:00:00 | 00:00:00 | 00:00:00 | |
| OE3JTB-15 | 2026-09-02 11:58:10 | 45.80415 | 16.43066 | 83° | 80km/h | 12606m | 5.7m/s | -52.8°C | 5.2% | 0hPa | 2.7V | 00:00:00 | 00:00:00 | 08:30:00 | |
| 9A1FER-10 | 2026-09-02 11:58:08 | 45.80410 | 16.43009 | 83° | 80km/h | 12597m | 5.3m/s | -52.8°C | 5.3% | 0hPa | 2.7V | 00:00:00 | 00:52:24 | 00:00:00 | |
| 9A1FER-3 | 2026-09-02 11:58:06 | 45.80406 | 16.42949 | 88° | 78km/h | 12588m | 3.4m/s | -52.8°C | 5.2% | 0hPa | 2.7V | 00:00:00 | 00:52:22 | 00:00:00 | |
| PETON7-10 | 2026-09-02 11:58:05 | 45.80406 | 16.42920 | 89° | 78km/h | 12584m | 5.9m/s | 0°C | 0% | 0hPa | 2.7V | 00:00:00 | 00:52:21 | 00:00:00 | |
| 9A1FER-10 | 2026-09-02 11:57:53 | 45.80397 | 16.42577 | 87° | 82km/h | 12525m | 4.4m/s | -52.9°C | 5.5% | 0hPa | 2.7V | 00:00:00 | 00:52:09 | 00:00:00 | |
| 9A1FER-3 | 2026-09-02 11:57:51 | 45.80395 | 16.42519 | 86° | 82km/h | 12516m | 4.4m/s | -53.1°C | 5.6% | 0hPa | 2.7V | 00:00:00 | 00:52:07 | 00:00:00 | |
| PETON7-10 | 2026-09-02 11:57:50 | 45.80393 | 16.42490 | 87° | 82km/h | 12511m | 5.7m/s | 0°C | 0% | 0hPa | 2.7V | 00:00:00 | 00:00:00 | 00:00:00 | |
| OE3JTB-15 | 2026-09-02 11:57:41 | 45.80378 | 16.42219 | 85° | 86km/h | 12467m | 3.3m/s | -52.9°C | 6.0% | 0hPa | 2.7V | 00:00:00 | 00:00:00 | 00:00:00 | |
| 9A1FER-10 | 2026-09-02 11:57:38 | 45.80371 | 16.42133 | 84° | 84km/h | 12452m | 6.7m/s | -53.1°C | 6.1% | 0hPa | 2.7V | 00:00:00 | 00:51:54 | 00:00:00 | |
| 9A1FER-3 | 2026-09-02 11:57:36 | 45.80367 | 16.42078 | 84° | 86km/h | 12442m | 5.6m/s | -53.2°C | 6.2% | 0hPa | 2.7V | 00:00:00 | 00:51:52 | 00:00:00 | |
| 9A1FER-10 | 2026-09-02 11:57:23 | 45.80337 | 16.41676 | 80° | 89km/h | 12383m | 5.6m/s | -53.2°C | 6.8% | 0hPa | 2.7V | 00:00:00 | 00:51:39 | 00:00:00 | |
| 9A1FER-3 | 2026-09-02 11:57:21 | 45.80329 | 16.41612 | 81° | 91km/h | 12375m | 4.0m/s | -53.1°C | 6.9% | 0hPa | 2.7V | 00:00:00 | 00:51:37 | 00:00:00 | |
| OE3JTB-15 | 2026-09-02 11:57:12 | 45.80300 | 16.41322 | 83° | 99km/h | 12334m | 4.0m/s | -53.7°C | 6.9% | 0hPa | 2.7V | 00:00:00 | 00:51:28 | 00:00:00 | |
| 9A1FER-10 | 2026-09-02 11:57:08 | 45.80285 | 16.41189 | 80° | 100km/h | 12315m | 3.7m/s | -53.8°C | 7.1% | 0hPa | 2.7V | 00:00:00 | 00:51:24 | 08:30:00 | |
| 9A1FER-3 | 2026-09-02 11:57:06 | 45.80276 | 16.41116 | 82° | 99km/h | 12307m | 4.2m/s | -53.9°C | 7.2% | 0hPa | 2.7V | 00:00:00 | 00:51:22 | 08:30:00 | |
| 9A1FER-10 | 2026-09-02 11:56:53 | 45.80238 | 16.40654 | 82° | 99km/h | 12250m | 3.6m/s | -54.9°C | 8.1% | 0hPa | 2.7V | 00:00:00 | 00:51:09 | 00:00:00 | |
| 9A1FER-3 | 2026-09-02 11:56:51 | 45.80231 | 16.40585 | 82° | 99km/h | 12242m | 3.4m/s | -55.0°C | 8.1% | 0hPa | 2.7V | 00:00:00 | 00:51:07 | 00:00:00 | |
| OE3JTB-15 | 2026-09-02 11:56:43 | 45.80193 | 16.40296 | 79° | 91km/h | 12203m | 5.2m/s | -54.9°C | 8.0% | 0hPa | 2.7V | 00:00:00 | 00:00:00 | 00:00:00 | |
| 9A1FER-10 | 2026-09-02 11:56:38 | 45.80171 | 16.40127 | 80° | 91km/h | 12180m | 5.2m/s | -54.6°C | 8.2% | 0hPa | 2.7V | 00:00:00 | 00:50:54 | 00:00:00 | |
| 9A1FER-3 | 2026-09-02 11:56:36 | 45.80163 | 16.40065 | 80° | 93km/h | 12170m | 6.2m/s | -54.7°C | 8.3% | 0hPa | 2.7V | 00:00:00 | 00:50:52 | 00:00:00 | |
| 9A1FER-10 | 2026-09-02 11:56:23 | 45.80106 | 16.39635 | 80° | 88km/h | 12109m | 6.0m/s | -54.8°C | 9.0% | 0hPa | 2.7V | 00:00:00 | 00:50:39 | 00:00:00 | |
| 9A1FER-3 | 2026-09-02 11:56:21 | 45.80098 | 16.39573 | 82° | 88km/h | 12100m | 4.9m/s | -54.9°C | 9.3% | 0hPa | 2.7V | 00:00:00 | 00:50:37 | 00:00:00 | |
| OE3JTB-15 | 2026-09-02 11:56:14 | 45.80080 | 16.39353 | 85° | 89km/h | 12065m | 4.5m/s | -54.8°C | 9.7% | 0hPa | 2.7V | 00:00:00 | 00:00:00 | 00:00:00 | |
| 9A1FER-10 | 2026-09-02 11:56:08 | 45.80064 | 16.39166 | 83° | 88km/h | 12036m | 3.4m/s | -54.7°C | 10.0% | 0hPa | 2.7V | 00:00:00 | 00:50:24 | 00:00:00 | |
| 9A1FER-3 | 2026-09-02 11:56:06 | 45.80059 | 16.39105 | 83° | 88km/h | 12026m | 4.0m/s | -54.7°C | 10.3% | 0hPa | 2.7V | 00:00:00 | 00:50:22 | 00:00:00 | |
| 9A1FER-10 | 2026-09-02 11:55:53 | 45.80019 | 16.38695 | 80° | 95km/h | 11969m | 5.1m/s | -54.7°C | 11.4% | 0hPa | 2.7V | 00:00:00 | 00:50:09 | 00:00:00 | |
| 9A1FER-3 | 2026-09-02 11:55:51 | 45.80010 | 16.38630 | 80° | 97km/h | 11960m | 4.4m/s | -54.6°C | 11.7% | 0hPa | 2.7V | 00:00:00 | 00:50:07 | 00:00:00 | |
| OE3JTB-15 | 2026-09-02 11:55:45 | 45.79989 | 16.38430 | 82° | 93km/h | 11935m | 2.2m/s | -54.9°C | 13.7% | 0hPa | 2.7V | 00:00:00 | 00:50:01 | 00:00:00 | |
| 9A1FER-10 | 2026-09-02 11:55:38 | 45.79961 | 16.38184 | 80° | 93km/h | 11904m | 5.8m/s | -55.0°C | 14.7% | 0hPa | 2.7V | 00:00:00 | 00:49:54 | 00:00:00 | |
| 9A1FER-3 | 2026-09-02 11:55:36 | 45.79953 | 16.38113 | 80° | 93km/h | 11895m | 6.3m/s | -55.1°C | 15.1% | 0hPa | 2.7V | 00:00:00 | 00:49:52 | 00:00:00 | |
| 9A1FER-10 | 2026-09-02 11:55:23 | 45.79922 | 16.37681 | 86° | 88km/h | 11836m | 4.6m/s | -55.8°C | 19.4% | 0hPa | 2.7V | 00:00:00 | 00:49:39 | 00:00:00 | |
| 9A1FER-3 | 2026-09-02 11:55:21 | 45.79919 | 16.37616 | 88° | 89km/h | 11828m | 4.2m/s | -55.8°C | 19.3% | 0hPa | 2.7V | 00:00:00 | 00:49:37 | 00:00:00 | |
| OE3JTB-15 | 2026-09-02 11:55:16 | 45.79912 | 16.37460 | 83° | 93km/h | 11805m | 4.9m/s | -55.6°C | 20.3% | 0hPa | 2.7V | 00:00:00 | 00:00:00 | 00:00:00 | |
| 9A1FER-10 | 2026-09-02 11:55:08 | 45.79879 | 16.37205 | 81° | 93km/h | 11763m | 5.5m/s | -55.2°C | 21.0% | 0hPa | 2.7V | 00:00:00 | 00:49:24 | 00:00:00 | |
| 9A1FER-3 | 2026-09-02 11:55:06 | 45.79869 | 16.37138 | 78° | 95km/h | 11752m | 4.0m/s | -55.2°C | 22.0% | 0hPa | 2.7V | 00:00:00 | 00:49:22 | 00:00:00 | |
| PETON7-10 | 2026-09-02 11:54:56 | 45.79819 | 16.36815 | 78° | 95km/h | 11702m | 3.2m/s | 0°C | 0% | 0hPa | 2.7V | 00:00:00 | 00:00:00 | 00:00:00 | |
| 9A1FER-10 | 2026-09-02 11:54:53 | 45.79804 | 16.36710 | 81° | 99km/h | 11686m | 4.6m/s | -56.3°C | 27.4% | 0hPa | 2.7V | 00:00:00 | 00:49:09 | 08:30:00 | |
| OE3JTB-15 | 2026-09-02 11:54:47 | 45.79773 | 16.36496 | 74° | 95km/h | 11656m | 3.0m/s | -56.2°C | 29.1% | 0hPa | 2.7V | 00:00:00 | 00:00:00 | 00:00:00 | |
| 9A1FER-10 | 2026-09-02 11:54:38 | 45.79709 | 16.36192 | 75° | 95km/h | 11613m | 4.2m/s | -56.1°C | 30.2% | 0hPa | 2.7V | 00:00:00 | 00:48:54 | 00:00:00 | |
| 9A1FER-3 | 2026-09-02 11:54:36 | 45.79695 | 16.36125 | 74° | 95km/h | 11603m | 4.9m/s | -56.0°C | 29.8% | 0hPa | 2.7V | 00:00:00 | 00:48:52 | 00:00:00 | |
| PETON7-10 | 2026-09-02 11:54:30 | 45.79649 | 16.35930 | 72° | 93km/h | 11572m | 4.5m/s | 0°C | 0% | 0hPa | 2.7V | 00:00:00 | 00:48:46 | 00:00:00 | |
| 9A1FER-10 | 2026-09-02 11:54:23 | 45.79599 | 16.35706 | 76° | 91km/h | 11537m | 5.0m/s | -55.7°C | 31.5% | 0hPa | 2.7V | 00:00:00 | 00:48:39 | 00:00:00 | |
| 9A1FER-3 | 2026-09-02 11:54:21 | 45.79588 | 16.35638 | 77° | 89km/h | 11527m | 5.1m/s | -55.6°C | 32.4% | 0hPa | 2.7V | 00:00:00 | 00:48:37 | 00:00:00 | |
| OE3JTB-15 | 2026-09-02 11:54:18 | 45.79571 | 16.35542 | 75° | 86km/h | 11513m | 3.9m/s | -55.6°C | 32.8% | 0hPa | 2.7V | 00:00:00 | 00:48:34 | 00:00:00 | |
| PETON7-10 | 2026-09-02 11:54:15 | 45.79553 | 16.35448 | 75° | 89km/h | 11497m | 4.4m/s | 0°C | 0% | 0hPa | 2.7V | 00:00:00 | 00:00:00 | 00:00:00 | |
| 9A1FER-10 | 2026-09-02 11:54:08 | 45.79518 | 16.35229 | 81° | 84km/h | 11461m | 2.9m/s | -56.0°C | 36.8% | 0hPa | 2.7V | 00:00:00 | 00:48:24 | 00:00:00 | |
| 9A1FER-3 | 2026-09-02 11:54:06 | 45.79510 | 16.35166 | 79° | 82km/h | 11449m | 5.3m/s | -56.2°C | 38.6% | 0hPa | 2.7V | 00:00:00 | 00:48:22 | 00:00:00 | |
| 9A1FER-10 | 2026-09-02 11:53:53 | 45.79482 | 16.34780 | 85° | 88km/h | 11390m | 5.7m/s | -55.9°C | 40.5% | 0hPa | 2.7V | 00:00:00 | 00:48:09 | 00:00:00 | |
| 9A1FER-3 | 2026-09-02 11:53:51 | 45.79478 | 16.34719 | 85° | 89km/h | 11380m | 5.3m/s | -55.9°C | 42.7% | 0hPa | 2.7V | 00:00:00 | 00:48:07 | 00:00:00 | |
| OE3JTB-15 | 2026-09-02 11:53:49 | 45.79474 | 16.34657 | 85° | 86km/h | 11371m | 5.6m/s | -55.8°C | 43.2% | 0hPa | 2.7V | 00:00:00 | 00:00:00 | 08:30:00 | |
| 9A1FER-10 | 2026-09-02 11:53:38 | 45.79451 | 16.34303 | 82° | 84km/h | 11321m | 3.8m/s | -56.1°C | 47.1% | 0hPa | 2.7V | 00:00:00 | 00:47:54 | 00:00:00 | |
| 9A1FER-3 | 2026-09-02 11:53:36 | 45.79443 | 16.34241 | 81° | 84km/h | 11309m | 5.8m/s | -56.0°C | 47.0% | 0hPa | 2.7V | 00:00:00 | 00:47:52 | 00:00:00 | |
| 9A1FER-10 | 2026-09-02 11:53:23 | 45.79402 | 16.33855 | 85° | 84km/h | 11247m | 5.9m/s | -56.0°C | 54.3% | 0hPa | 2.7V | 00:00:00 | 00:47:39 | 00:00:00 | |
| 9A1FER-3 | 2026-09-02 11:53:21 | 45.79398 | 16.33795 | 85° | 84km/h | 11236m | 5.1m/s | -55.9°C | 53.8% | 0hPa | 2.7V | 00:00:00 | 00:47:37 | 00:00:00 | |
| OE3JTB-15 | 2026-09-02 11:53:20 | 45.79396 | 16.33764 | 84° | 84km/h | 11230m | 6.5m/s | -55.9°C | 53.7% | 0hPa | 2.7V | 00:00:00 | 00:00:00 | 00:00:00 | |
| 9A1FER-3 | 2026-09-02 11:53:06 | 45.79369 | 16.33343 | 91° | 84km/h | 11162m | 5.1m/s | -55.4°C | 53.5% | 0hPa | 2.7V | 00:00:00 | 00:47:22 | 00:00:00 | |
| 9A1FER-10 | 2026-09-02 11:52:53 | 45.79357 | 16.32949 | 89° | 84km/h | 11101m | 5.7m/s | -55.0°C | 52.9% | 0hPa | 2.7V | 00:00:00 | 00:47:09 | 00:00:00 | |
| 9A1FER-3 | 2026-09-02 11:52:51 | 45.79355 | 16.32889 | 88° | 84km/h | 11090m | 7.1m/s | -54.9°C | 53.5% | 0hPa | 2.7V | 00:00:00 | 00:47:07 | 00:00:00 | |
| 9A1FER-10 | 2026-09-02 11:52:38 | 45.79366 | 16.32495 | 91° | 84km/h | 11027m | 5.6m/s | -54.4°C | 52.2% | 0hPa | 2.7V | 00:00:00 | 00:46:54 | 08:30:00 | |
| 9A1FER-3 | 2026-09-02 11:52:36 | 45.79367 | 16.32434 | 91° | 84km/h | 11017m | 4.2m/s | -54.3°C | 51.9% | 0hPa | 2.7V | 00:00:00 | 00:46:52 | 08:30:00 | |
| 9A1FER-10 | 2026-09-02 11:52:23 | 45.79371 | 16.32039 | 94° | 82km/h | 10955m | 4.1m/s | -53.8°C | 50.8% | 0hPa | 2.7V | 00:00:00 | 00:46:39 | 00:00:00 | |
| OE3JTB-15 | 2026-09-02 11:52:22 | 45.79372 | 16.32008 | 93° | 84km/h | 10951m | 3.7m/s | -53.7°C | 50.5% | 0hPa | 2.7V | 00:00:00 | 00:00:00 | 00:00:00 | |
| 9A1FER-3 | 2026-09-02 11:52:21 | 45.79373 | 16.31978 | 92° | 82km/h | 10947m | 3.8m/s | -53.7°C | 49.7% | 0hPa | 2.7V | 00:00:00 | 00:46:37 | 00:00:00 | |
| 9A1FER-10 | 2026-09-02 11:52:08 | 45.79376 | 16.31589 | 93° | 84km/h | 10889m | 2.7m/s | -53.2°C | 51.9% | 0hPa | 2.7V | 00:00:00 | 00:46:24 | 00:00:00 | |
| 9A1FER-3 | 2026-09-02 11:52:06 | 45.79377 | 16.31529 | 91° | 84km/h | 10881m | 5.2m/s | -53.2°C | 51.2% | 0hPa | 2.7V | 00:00:00 | 00:46:22 | 00:00:00 | |
| 9A1FER-10 | 2026-09-02 11:51:53 | 45.79383 | 16.31134 | 91° | 78km/h | 10823m | 4.8m/s | -52.8°C | 52.5% | 0hPa | 2.7V | 00:00:00 | 00:46:09 | 00:00:00 | |
| 9A1FER-3 | 2026-09-02 11:51:51 | 45.79383 | 16.31080 | 90° | 78km/h | 10811m | 5.3m/s | -52.6°C | 53.8% | 0hPa | 2.7V | 00:00:00 | 00:46:07 | 00:00:00 | |
| 9A1FER-10 | 2026-09-02 11:51:38 | 45.79379 | 16.30710 | 89° | 78km/h | 10746m | 3.3m/s | -52.2°C | 52.4% | 0hPa | 2.9V | 00:00:00 | 00:45:54 | 00:00:00 | |
| 9A1FER-3 | 2026-09-02 11:51:36 | 45.79377 | 16.30648 | 90° | 78km/h | 10739m | 5.8m/s | -52.2°C | 52.1% | 0hPa | 2.9V | 00:00:00 | 00:45:52 | 00:00:00 | |
| OE3JTB-15 | 2026-09-02 11:51:24 | 45.79373 | 16.30312 | 90° | 82km/h | 10687m | 6.8m/s | -51.6°C | 51.8% | 0hPa | 2.9V | 00:00:00 | 00:45:40 | 00:00:00 | |
| 9A1FER-10 | 2026-09-02 11:51:23 | 45.79373 | 16.30282 | 91° | 82km/h | 10681m | 4.9m/s | -51.6°C | 51.5% | 0hPa | 2.9V | 00:00:00 | 00:45:39 | 00:00:00 | |
| 9A1FER-3 | 2026-09-02 11:51:21 | 45.79373 | 16.30223 | 91° | 82km/h | 10672m | 6.5m/s | -51.5°C | 49.9% | 0hPa | 2.9V | 00:00:00 | 00:45:37 | 00:00:00 | |
| 9A1FER-10 | 2026-09-02 11:51:08 | 45.79368 | 16.29838 | 88° | 82km/h | 10612m | 2.5m/s | -50.9°C | 50.0% | 0hPa | 2.9V | 00:00:00 | 00:45:24 | 00:00:00 | |
| 9A1FER-3 | 2026-09-02 11:51:06 | 45.79367 | 16.29780 | 90° | 82km/h | 10602m | 3.7m/s | -50.8°C | 49.6% | 0hPa | 2.7V | 00:00:00 | 00:45:22 | 00:00:00 | |
| OE3JTB-15 | 2026-09-02 11:50:55 | 45.79369 | 16.29451 | 94° | 82km/h | 10544m | 5.2m/s | 0°C | 0% | 0hPa | 2.9V | 00:00:00 | 00:00:00 | 00:00:00 | |
| 9A1FER-10 | 2026-09-02 11:50:53 | 45.79372 | 16.29393 | 94° | 82km/h | 10536m | 6.6m/s | -50.3°C | 49.0% | 0hPa | 2.9V | 00:00:00 | 00:45:09 | 00:00:00 | |
| 9A1FER-3 | 2026-09-02 11:50:51 | 45.79374 | 16.29335 | 93° | 82km/h | 10527m | 5.5m/s | -50.2°C | 49.6% | 0hPa | 2.9V | 00:00:00 | 00:45:07 | 00:00:00 | |
| 9A1FER-10 | 2026-09-02 11:50:38 | 45.79376 | 16.28945 | 92° | 84km/h | 10468m | 4.4m/s | -49.5°C | 49.5% | 0hPa | 2.9V | 00:00:00 | 00:44:54 | 00:00:00 | |
| 9A1FER-3 | 2026-09-02 11:50:36 | 45.79377 | 16.28886 | 92° | 84km/h | 10461m | 5.0m/s | -49.6°C | 48.7% | 0hPa | 2.9V | 00:00:00 | 00:44:52 | 00:00:00 | |
| OE3JTB-15 | 2026-09-02 11:50:26 | 45.79371 | 16.28581 | 91° | 84km/h | 10411m | 6.1m/s | 0°C | 0% | 0hPa | 2.9V | 00:00:00 | 00:00:00 | 00:00:00 | |
| 9A1FER-10 | 2026-09-02 11:50:23 | 45.79372 | 16.28491 | 91° | 82km/h | 10396m | 5.2m/s | -49.0°C | 45.4% | 0hPa | 2.9V | 00:00:00 | 00:44:39 | 08:30:00 | |
| 9A1FER-3 | 2026-09-02 11:50:21 | 45.79372 | 16.28429 | 90° | 82km/h | 10386m | 4.0m/s | -48.9°C | 45.5% | 0hPa | 2.7V | 00:00:00 | 00:44:37 | 08:30:00 | |
| 9A1FER-10 | 2026-09-02 11:50:08 | 45.79373 | 16.28043 | 88° | 82km/h | 10329m | 4.7m/s | -48.3°C | 43.4% | 0hPa | 2.9V | 00:00:00 | 00:44:24 | 00:00:00 | |
| 9A1FER-3 | 2026-09-02 11:50:06 | 45.79373 | 16.27983 | 91° | 82km/h | 10319m | 6.0m/s | -48.3°C | 43.4% | 0hPa | 2.9V | 00:00:00 | 00:44:22 | 00:00:00 | |
| 9A1FER-10 | 2026-09-02 11:49:53 | 45.79377 | 16.27597 | 91° | 80km/h | 10256m | 5.9m/s | -47.6°C | 41.1% | 0hPa | 2.9V | 00:00:00 | 00:44:09 | 00:00:00 | |
| 9A1FER-3 | 2026-09-02 11:49:51 | 45.79377 | 16.27537 | 91° | 80km/h | 10246m | 3.8m/s | -47.5°C | 40.2% | 0hPa | 2.9V | 00:00:00 | 00:44:07 | 00:00:00 | |
| OE3JTB-15 | 2026-09-02 11:49:49 | 45.79377 | 16.27478 | 89° | 80km/h | 10236m | 4.6m/s | 0°C | 0% | 0hPa | 2.9V | 00:00:00 | 00:44:05 | 00:00:00 | |
| 9A1FER-10 | 2026-09-02 11:49:38 | 45.79378 | 16.27160 | 92° | 80km/h | 10182m | 4.3m/s | -47.0°C | 39.1% | 0hPa | 2.9V | 00:00:00 | 00:43:54 | 00:00:00 | |
| 9A1FER-3 | 2026-09-02 11:49:36 | 45.79379 | 16.27100 | 91° | 80km/h | 10171m | 4.9m/s | -46.9°C | 39.9% | 0hPa | 2.9V | 00:00:00 | 00:43:52 | 00:00:00 | |
| 9A1FER-10 | 2026-09-02 11:49:23 | 45.79392 | 16.26721 | 91° | 80km/h | 10107m | 2.9m/s | -46.3°C | 41.9% | 0hPa | 2.9V | 00:00:00 | 00:43:39 | 00:00:00 | |
| 9A1FER-3 | 2026-09-02 11:49:21 | 45.79393 | 16.26664 | 94° | 80km/h | 10098m | 4.4m/s | -46.2°C | 41.9% | 0hPa | 2.9V | 00:00:00 | 00:43:37 | 00:00:00 | |
| OE3JTB-15 | 2026-09-02 11:49:20 | 45.79395 | 16.26636 | 96° | 78km/h | 10094m | 3.3m/s | 0°C | 0% | 0hPa | 2.9V | 00:00:00 | 00:00:00 | 00:00:00 | |
| 9A1FER-10 | 2026-09-02 11:49:08 | 45.79413 | 16.26287 | 91° | 80km/h | 10042m | 5.7m/s | -45.9°C | 41.2% | 0hPa | 2.9V | 00:00:00 | 00:43:24 | 00:00:00 | |
| 9A1FER-3 | 2026-09-02 11:49:06 | 45.79415 | 16.26231 | 94° | 80km/h | 10031m | 6.6m/s | -45.9°C | 41.3% | 0hPa | 2.9V | 00:00:00 | 00:43:22 | 00:00:00 | |
| 9A1FER-10 | 2026-09-02 11:48:53 | 45.79428 | 16.25851 | 93° | 77km/h | 9964m | 5.8m/s | -45.2°C | 39.0% | 0hPa | 2.9V | 00:00:00 | 00:43:09 | 00:00:00 | |
| 9A1FER-3 | 2026-09-02 11:48:51 | 45.79430 | 16.25796 | 95° | 77km/h | 9954m | 4.8m/s | -45.0°C | 39.5% | 0hPa | 2.7V | 00:00:00 | 00:43:07 | 00:00:00 | |
| 9A1FER-10 | 2026-09-02 11:48:38 | 45.79441 | 16.25438 | 91° | 73km/h | 9892m | 6.1m/s | -44.7°C | 42.6% | 0hPa | 2.9V | 00:00:00 | 00:42:54 | 00:00:00 | |
| 9A1FER-3 | 2026-09-02 11:48:36 | 45.79441 | 16.25383 | 91° | 73km/h | 9882m | 6.2m/s | -44.5°C | 41.7% | 0hPa | 2.9V | 00:00:00 | 00:42:52 | 00:00:00 | |
| 9A1FER-10 | 2026-09-02 11:48:23 | 45.79446 | 16.25037 | 91° | 69km/h | 9814m | 3.9m/s | -43.9°C | 38.3% | 0hPa | 2.9V | 00:00:00 | 00:42:39 | 00:00:00 | |
| 9A1FER-3 | 2026-09-02 11:48:21 | 45.79446 | 16.24984 | 91° | 69km/h | 9805m | 3.1m/s | -43.8°C | 37.8% | 0hPa | 2.9V | 00:00:00 | 00:42:37 | 00:00:00 | |
| 9A1FER-10 | 2026-09-02 11:48:08 | 45.79454 | 16.24659 | 89° | 71km/h | 9744m | 4.8m/s | -43.2°C | 37.8% | 0hPa | 2.9V | 00:00:00 | 00:42:24 | 08:30:00 | |
| 9A1FER-3 | 2026-09-02 11:48:06 | 45.79452 | 16.24610 | 87° | 71km/h | 9736m | 6.4m/s | -43.2°C | 36.8% | 0hPa | 2.7V | 00:00:00 | 00:42:22 | 08:30:00 | |
| 9A1FER-10 | 2026-09-02 11:47:53 | 45.79453 | 16.24275 | 95° | 69km/h | 9674m | 4.4m/s | -42.7°C | 29.4% | 0hPa | 2.9V | 00:00:00 | 00:42:09 | 00:00:00 | |
| 9A1FER-3 | 2026-09-02 11:47:51 | 45.79456 | 16.24228 | 96° | 69km/h | 9664m | 3.0m/s | -42.4°C | 29.7% | 0hPa | 2.9V | 00:00:00 | 00:42:07 | 00:00:00 | |
| 9A1FER-10 | 2026-09-02 11:47:38 | 45.79464 | 16.23898 | 94° | 69km/h | 9602m | 4.8m/s | -41.9°C | 27.6% | 0hPa | 2.9V | 00:00:00 | 00:41:54 | 00:00:00 | |
| 9A1FER-3 | 2026-09-02 11:47:36 | 45.79465 | 16.23849 | 91° | 69km/h | 9591m | 4.3m/s | -41.8°C | 27.6% | 0hPa | 2.9V | 00:00:00 | 00:41:52 | 00:00:00 | |
| 9A1FER-10 | 2026-09-02 11:47:23 | 45.79467 | 16.23523 | 90° | 69km/h | 9533m | 7.4m/s | -41.3°C | 30.7% | 0hPa | 2.9V | 00:00:00 | 00:41:39 | 00:00:00 | |
| 9A1FER-3 | 2026-09-02 11:47:21 | 45.79468 | 16.23473 | 93° | 69km/h | 9522m | 4.5m/s | -41.2°C | 31.6% | 0hPa | 2.7V | 00:00:00 | 00:41:37 | 00:00:00 | |
| OM5KV | 2026-09-02 11:47:13 | 45.79475 | 16.23297 | 90° | 69km/h | 9487m | 5.9m/s | -41.0°C | 30.4% | 0hPa | 2.7V | 00:00:00 | 00:00:00 | 00:00:00 | |
| 9A1FER-10 | 2026-09-02 11:47:08 | 45.79479 | 16.23151 | 94° | 71km/h | 9458m | 4.1m/s | -40.7°C | 33.8% | 0hPa | 2.7V | 00:00:00 | 00:41:24 | 00:00:00 | |
| 9A1FER-3 | 2026-09-02 11:47:06 | 45.79481 | 16.23101 | 95° | 71km/h | 9446m | 4.8m/s | -40.6°C | 33.3% | 0hPa | 2.7V | 00:00:00 | 00:41:22 | 00:00:00 | |
| OM5KV | 2026-09-02 11:46:58 | 45.79497 | 16.22925 | 97° | 69km/h | 9412m | 3.2m/s | -40.3°C | 33.3% | 0hPa | 2.7V | 00:00:00 | 00:00:00 | 00:00:00 | |
| OM5KV | 2026-09-02 11:46:57 | 45.79499 | 16.22899 | 96° | 71km/h | 9407m | 5.6m/s | -40.3°C | 33.1% | 0hPa | 2.7V | 00:00:00 | 00:00:00 | 00:00:00 | |
| 9A1FER-10 | 2026-09-02 11:46:53 | 45.79506 | 16.22767 | 93° | 73km/h | 9382m | 7.1m/s | -40.0°C | 34.6% | 0hPa | 2.7V | 00:00:00 | 00:41:09 | 00:00:00 | |
| OM5KV | 2026-09-02 11:46:52 | 45.79506 | 16.22766 | 94° | 75km/h | 9382m | 7.2m/s | -40.1°C | 31.6% | 0hPa | 2.7V | 00:00:00 | 00:00:00 | 00:00:00 | |
| 9A1FER-3 | 2026-09-02 11:46:51 | 45.79508 | 16.22712 | 93° | 71km/h | 9372m | 4.0m/s | -40.0°C | 34.9% | 0hPa | 2.7V | 00:00:00 | 00:41:07 | 00:00:00 | |
| OM5KV | 2026-09-02 11:46:46 | 45.79512 | 16.22604 | 99° | 71km/h | 9355m | 2.3m/s | -39.8°C | 33.3% | 0hPa | 2.7V | 00:00:00 | 00:00:00 | 00:00:00 | |
| OM5KV | 2026-09-02 11:46:45 | 45.79515 | 16.22578 | 99° | 71km/h | 9351m | 5.9m/s | -39.8°C | 33.3% | 0hPa | 2.7V | 00:00:00 | 00:00:00 | 00:00:00 | |
| OM5KV | 2026-09-02 11:46:41 | 45.79523 | 16.22477 | 96° | 71km/h | 9332m | 4.2m/s | -39.6°C | 32.5% | 0hPa | 2.7V | 00:00:00 | 00:00:00 | 00:00:00 | |
| OM5KV | 2026-09-02 11:46:40 | 45.79525 | 16.22451 | 97° | 71km/h | 9327m | 5.3m/s | -39.5°C | 32.7% | 0hPa | 2.7V | 00:00:00 | 00:00:00 | 00:00:00 | |
| 9A1FER-10 | 2026-09-02 11:46:38 | 45.79532 | 16.22376 | 100° | 71km/h | 9312m | 5.2m/s | -39.4°C | 36.6% | 0hPa | 2.7V | 00:00:00 | 00:40:54 | 00:00:00 | |
| 9A1FER-3 | 2026-09-02 11:46:36 | 45.79537 | 16.22326 | 97° | 69km/h | 9302m | 3.9m/s | -39.3°C | 36.5% | 0hPa | 2.9V | 00:00:00 | 00:40:52 | 00:00:00 | |
| OM5KV | 2026-09-02 11:46:29 | 45.79548 | 16.22147 | 97° | 71km/h | 9266m | 4.2m/s | -39.0°C | 34.5% | 0hPa | 2.9V | 00:00:00 | 00:00:00 | 00:00:00 | |
| 9A1FER-10 | 2026-09-02 11:46:23 | 45.79561 | 16.21997 | 98° | 66km/h | 9235m | 4.3m/s | -38.8°C | 38.7% | 0hPa | 2.9V | 00:00:00 | 00:40:39 | 00:00:00 | |
| 9A1FER-3 | 2026-09-02 11:46:21 | 45.79565 | 16.21948 | 97° | 66km/h | 9224m | 4.0m/s | -38.7°C | 38.2% | 0hPa | 2.9V | 00:00:00 | 00:40:37 | 00:00:00 | |
| OM5KV | 2026-09-02 11:46:18 | 45.79571 | 16.21874 | 96° | 69km/h | 9208m | 3.6m/s | -38.7°C | 34.5% | 0hPa | 2.9V | 00:00:00 | 00:00:00 | 00:00:00 | |
| OM5KV | 2026-09-02 11:46:12 | 45.79581 | 16.21755 | 97° | 62km/h | 9184m | 3.7m/s | -38.5°C | 39.0% | 0hPa | 2.9V | 00:00:00 | 00:00:00 | 00:00:00 | |
| OM5KV | 2026-09-02 11:46:10 | 45.79584 | 16.21710 | 97° | 62km/h | 9175m | 6.0m/s | -38.5°C | 39.9% | 0hPa | 2.9V | 00:00:00 | 00:00:00 | 00:00:00 | |
| 9A1FER-10 | 2026-09-02 11:46:08 | 45.79590 | 16.21640 | 96° | 58km/h | 9161m | 5.7m/s | -38.3°C | 43.2% | 0hPa | 2.9V | 00:00:00 | 00:40:24 | 00:00:00 | |
| 9A1FER-3 | 2026-09-02 11:46:06 | 45.79593 | 16.21593 | 97° | 58km/h | 9152m | 7.9m/s | -38.3°C | 44.3% | 0hPa | 2.9V | 00:00:00 | 00:40:22 | 00:00:00 | |
| OM5KV | 2026-09-02 11:46:01 | 45.79601 | 16.21504 | 99° | 58km/h | 9129m | 4.2m/s | -38.2°C | 43.6% | 0hPa | 2.9V | 00:00:00 | 00:00:00 | 00:00:00 | |
| OM5KV | 2026-09-02 11:45:57 | 45.79607 | 16.21401 | 96° | 58km/h | 9106m | 4.3m/s | -38.0°C | 42.9% | 0hPa | 2.9V | 00:00:00 | 00:00:00 | 00:00:00 | |
| 9A1FER-3 | 2026-09-02 11:45:51 | 45.79616 | 16.21276 | 97° | 62km/h | 9078m | 2.9m/s | -37.7°C | 47.3% | 0hPa | 2.9V | 00:00:00 | 00:40:07 | 08:30:00 | |
| OM5KV | 2026-09-02 11:45:48 | 45.79620 | 16.21234 | 99° | 60km/h | 9069m | 3.6m/s | -37.7°C | 44.7% | 0hPa | 2.9V | 00:00:00 | 00:00:00 | 00:00:00 | |
| OM5KV | 2026-09-02 11:45:45 | 45.79627 | 16.21168 | 101° | 62km/h | 9055m | 5.6m/s | -37.5°C | 0% | 0hPa | 2.9V | 00:00:00 | 00:00:00 | 00:00:00 | |
| OM5KV | 2026-09-02 11:45:41 | 45.79634 | 16.21074 | 95° | 66km/h | 9038m | 4.6m/s | -37.4°C | 40.0% | 0hPa | 2.9V | 00:00:00 | 00:00:00 | 00:00:00 | |
| OM5KV | 2026-09-02 11:45:40 | 45.79637 | 16.21027 | 96° | 62km/h | 9028m | 3.4m/s | -37.3°C | 0% | 0hPa | 2.9V | 00:00:00 | 00:00:00 | 00:00:00 | |
| 9A1FER-10 | 2026-09-02 11:45:36 | 45.79643 | 16.20939 | 99° | 60km/h | 9009m | 3.8m/s | -37.2°C | 48.6% | 0hPa | 2.9V | 00:00:00 | 00:39:52 | 00:00:00 | |
| OM5KV | 2026-09-02 11:45:35 | 45.79643 | 16.20939 | 99° | 58km/h | 9009m | 3.9m/s | -37.2°C | 45.4% | 0hPa | 2.9V | 00:00:00 | 00:00:00 | 00:00:00 | |
| OM5KV | 2026-09-02 11:45:34 | 45.79645 | 16.20919 | 99° | 57km/h | 9005m | 5.2m/s | -37.2°C | 0% | 0hPa | 2.9V | 00:00:00 | 00:00:00 | 00:00:00 | |
| OM5KV | 2026-09-02 11:45:29 | 45.79652 | 16.20810 | 95° | 62km/h | 8980m | 7.1m/s | -37.1°C | 39.9% | 0hPa | 2.9V | 00:00:00 | 00:00:00 | 00:00:00 | |
| OM5KV | 2026-09-02 11:45:24 | 45.79657 | 16.20700 | 96° | 58km/h | 8953m | 1.7m/s | -36.8°C | 38.2% | 0hPa | 2.9V | 00:00:00 | 00:00:00 | 00:00:00 | |
| OM5KV | 2026-09-02 11:45:23 | 45.79658 | 16.20679 | 96° | 58km/h | 8949m | 6.8m/s | -36.8°C | 37.8% | 0hPa | 2.9V | 00:00:00 | 00:00:00 | 00:00:00 | |
| 9A1FER-10 | 2026-09-02 11:45:21 | 45.79662 | 16.20613 | 95° | 57km/h | 8935m | 5.2m/s | -36.7°C | 38.3% | 0hPa | 2.9V | 00:00:00 | 00:39:37 | 00:00:00 | |
| OM5KV | 2026-09-02 11:45:18 | 45.79664 | 16.20572 | 94° | 55km/h | 8926m | 3.6m/s | -36.6°C | 33.6% | 0hPa | 2.9V | 00:00:00 | 00:00:00 | 00:00:00 | |
| OM5KV | 2026-09-02 11:45:17 | 45.79667 | 16.20514 | 99° | 53km/h | 8912m | 5.0m/s | -36.5°C | 0% | 0hPa | 2.9V | 00:00:00 | 00:00:00 | 00:00:00 | |
| OM5KV | 2026-09-02 11:45:10 | 45.79679 | 16.20412 | 98° | 62km/h | 8890m | 5.9m/s | -36.3°C | 20.7% | 0hPa | 2.9V | 00:00:00 | 00:00:00 | 00:00:00 | |
| OM5KV | 2026-09-02 11:45:07 | 45.79683 | 16.20347 | 95° | 58km/h | 8876m | 4.5m/s | -36.2°C | 19.4% | 0hPa | 2.9V | 00:00:00 | 00:00:00 | 00:00:00 | |
| 9A1FER-3 | 2026-09-02 11:45:06 | 45.79686 | 16.20305 | 95° | 55km/h | 8866m | 4.3m/s | -36.0°C | 20.9% | 0hPa | 2.9V | 00:00:00 | 00:39:22 | 00:00:00 | |
| OM5KV | 2026-09-02 11:45:04 | 45.79687 | 16.20284 | 94° | 57km/h | 8861m | 4.4m/s | -36.0°C | 19.1% | 0hPa | 2.7V | 00:00:00 | 00:00:00 | 00:00:00 | |
| OM5KV | 2026-09-02 11:44:59 | 45.79690 | 16.20184 | 96° | 53km/h | 8835m | 5.9m/s | -35.8°C | 18.4% | 0hPa | 2.7V | 00:00:00 | 00:00:00 | 00:00:00 | |
| OM5KV | 2026-09-02 11:44:58 | 45.79691 | 16.20165 | 99° | 53km/h | 8829m | 4.5m/s | -35.8°C | 0% | 0hPa | 2.7V | 00:00:00 | 00:00:00 | 00:00:00 | |
| OM5KV | 2026-09-02 11:44:52 | 45.79701 | 16.20047 | 98° | 55km/h | 8798m | 6.8m/s | 0°C | 0% | 0hPa | 2.7V | 00:00:00 | 00:00:00 | 00:00:00 | |
| 9A1FER-10 | 2026-09-02 11:44:51 | 45.79705 | 16.20009 | 98° | 55km/h | 8788m | 7.2m/s | -35.4°C | 33.1% | 0hPa | 2.7V | 00:00:00 | 00:39:07 | 00:00:00 | |
| OM5KV | 2026-09-02 11:44:46 | 45.79713 | 16.19933 | 101° | 57km/h | 8770m | 4.2m/s | -35.2°C | 28.6% | 0hPa | 2.7V | 00:00:00 | 00:00:00 | 00:00:00 | |
| OM5KV | 2026-09-02 11:44:40 | 45.79729 | 16.19807 | 97° | 53km/h | 8741m | 5.3m/s | 0°C | 0% | 0hPa | 2.7V | 00:00:00 | 00:00:00 | 00:00:00 | |
| 9A1FER-3 | 2026-09-02 11:44:36 | 45.79733 | 16.19717 | 96° | 55km/h | 8716m | 4.5m/s | -34.7°C | 21.8% | 0hPa | 2.7V | 00:00:00 | 00:38:52 | 00:00:00 | |
| OM5KV | 2026-09-02 11:44:35 | 45.79733 | 16.19717 | 97° | 51km/h | 8716m | 4.5m/s | 0°C | 0% | 0hPa | 2.7V | 00:00:00 | 00:00:00 | 00:00:00 | |
| OM5KV | 2026-09-02 11:44:34 | 45.79735 | 16.19699 | 99° | 49km/h | 8711m | 5.5m/s | 0°C | 0% | 0hPa | 2.7V | 00:00:00 | 00:00:00 | 00:00:00 | |
| OM5KV | 2026-09-02 11:44:30 | 45.79749 | 16.19603 | 105° | 58km/h | 8684m | 4.3m/s | -34.5°C | 0% | 0hPa | 2.7V | 00:00:00 | 00:00:00 | 00:00:00 | |
| OM5KV | 2026-09-02 11:44:24 | 45.79767 | 16.19503 | 104° | 57km/h | 8660m | 6.6m/s | -34.3°C | 0% | 0hPa | 2.7V | 00:00:00 | 00:00:00 | 00:00:00 | |
| OM5KV | 2026-09-02 11:44:22 | 45.79773 | 16.19463 | 102° | 55km/h | 8652m | 4.9m/s | 0°C | 0% | 0hPa | 2.7V | 00:00:00 | 00:00:00 | 00:00:00 | |
| 9A1FER-10 | 2026-09-02 11:44:21 | 45.79778 | 16.19426 | 104° | 51km/h | 8640m | 6.6m/s | -34.0°C | 19.1% | 0hPa | 2.7V | 00:00:00 | 00:38:37 | 00:00:00 | |
| OM5KV | 2026-09-02 11:44:18 | 45.79783 | 16.19392 | 100° | 47km/h | 8630m | 4.5m/s | -34.0°C | 0% | 0hPa | 2.9V | 00:00:00 | 00:00:00 | 00:00:00 | |
| OM5KV | 2026-09-02 11:44:11 | 45.79795 | 16.19261 | 99° | 57km/h | 8596m | 5.8m/s | -33.7°C | 0% | 0hPa | 2.9V | 00:00:00 | 00:00:00 | 00:00:00 | |
| 9A1FER-10 | 2026-09-02 11:44:06 | 45.79806 | 16.19152 | 99° | 51km/h | 8565m | 4.0m/s | -33.3°C | 19.4% | 0hPa | 2.9V | 00:00:00 | 00:38:22 | 00:00:00 | |
| OM5KV | 2026-09-02 11:44:04 | 45.79808 | 16.19136 | 101° | 46km/h | 8561m | 4.9m/s | 0°C | 0% | 0hPa | 2.9V | 00:00:00 | 00:00:00 | 00:00:00 | |
| OM5KV | 2026-09-02 11:43:58 | 45.79828 | 16.19030 | 104° | 55km/h | 8533m | 6.0m/s | 0°C | 0% | 0hPa | 2.9V | 00:00:00 | 00:00:00 | 00:00:00 | |
| OM5KV | 2026-09-02 11:43:52 | 45.79840 | 16.18918 | 101° | 51km/h | 8500m | 5.5m/s | 0°C | 0% | 0hPa | 2.9V | 00:00:00 | 00:00:00 | 00:00:00 | |
| 9A1FER-3 | 2026-09-02 11:43:51 | 45.79846 | 16.18881 | 105° | 49km/h | 8491m | 5.7m/s | -32.7°C | 22.6% | 0hPa | 2.9V | 00:00:00 | 00:38:07 | 00:00:00 | |
| 9A1FER-10 | 2026-09-02 11:43:36 | 45.79880 | 16.18613 | 99° | 53km/h | 8417m | 3.4m/s | -31.9°C | 21.4% | 0hPa | 2.9V | 00:00:00 | 00:37:52 | 08:30:00 | |
| 9A1FER-10 | 2026-09-02 11:43:21 | 45.79925 | 16.18336 | 104° | 51km/h | 8343m | 5.8m/s | -31.3°C | 21.0% | 0hPa | 2.9V | 00:00:00 | 00:37:37 | 00:00:00 | |
| 9A1FER-3 | 2026-09-02 11:43:06 | 45.79974 | 16.18072 | 110° | 49km/h | 8274m | 4.6m/s | -30.7°C | 20.4% | 0hPa | 2.9V | 00:00:00 | 00:37:22 | 00:00:00 | |
| 9A1FER-10 | 2026-09-02 11:42:51 | 45.80027 | 16.17820 | 112° | 47km/h | 8193m | 4.9m/s | -30.0°C | 11.2% | 0hPa | 2.9V | 00:00:00 | 00:37:07 | 00:00:00 | |
| 9A1FER-3 | 2026-09-02 11:42:36 | 45.80086 | 16.17578 | 103° | 46km/h | 8124m | 5.4m/s | -29.3°C | 7.5% | 0hPa | 2.9V | 00:00:00 | 00:36:52 | 00:00:00 | |
| 9A1FER-3 | 2026-09-02 11:42:21 | 45.80127 | 16.17338 | 102° | 46km/h | 8061m | 3.2m/s | -28.8°C | 7.0% | 0hPa | 2.9V | 00:00:00 | 00:36:37 | 00:00:00 | |
| 9A1FER-10 | 2026-09-02 11:42:19 | 45.80130 | 16.17309 | 98° | 46km/h | 8052m | 5.0m/s | -28.8°C | 6.9% | 0hPa | 2.9V | 00:00:00 | 00:36:35 | 00:00:00 | |
| 9A1FER-3 | 2026-09-02 11:42:06 | 45.80168 | 16.17101 | 106° | 47km/h | 7996m | 5.5m/s | -28.3°C | 6.6% | 0hPa | 2.9V | 00:00:00 | 00:36:22 | 00:00:00 | |
| 9A1FER-10 | 2026-09-02 11:42:04 | 45.80172 | 16.17069 | 100° | 47km/h | 7987m | 4.6m/s | -28.2°C | 6.6% | 0hPa | 2.9V | 00:00:00 | 00:36:20 | 00:00:00 | |
| 9A1FER-3 | 2026-09-02 11:41:51 | 45.80218 | 16.16852 | 104° | 49km/h | 7923m | 5.8m/s | -27.6°C | 6.3% | 0hPa | 2.9V | 00:00:00 | 00:36:07 | 00:00:00 | |
| 9A1FER-10 | 2026-09-02 11:41:49 | 45.80223 | 16.16818 | 104° | 49km/h | 7914m | 6.8m/s | -27.6°C | 6.2% | 0hPa | 2.9V | 00:00:00 | 00:36:05 | 00:00:00 | |
| 9A1FER-3 | 2026-09-02 11:41:36 | 45.80268 | 16.16597 | 106° | 53km/h | 7852m | 5.4m/s | -27.2°C | 6.3% | 0hPa | 2.9V | 00:00:00 | 00:35:52 | 00:00:00 | |
| 9A1FER-10 | 2026-09-02 11:41:34 | 45.80274 | 16.16560 | 102° | 53km/h | 7843m | 5.3m/s | -27.1°C | 6.2% | 0hPa | 2.9V | 00:00:00 | 00:35:50 | 00:00:00 | |
| 9A1FER-3 | 2026-09-02 11:41:21 | 45.80324 | 16.16325 | 109° | 57km/h | 7790m | 4.7m/s | -26.8°C | 6.1% | 0hPa | 2.9V | 00:00:00 | 00:35:37 | 08:30:00 | |
| 9A1FER-10 | 2026-09-02 11:41:19 | 45.80333 | 16.16286 | 108° | 55km/h | 7780m | 5.8m/s | -26.7°C | 6.1% | 0hPa | 2.9V | 00:00:00 | 00:35:35 | 08:30:00 | |
| 9A1FER-10 | 2026-09-02 11:41:04 | 45.80400 | 16.16002 | 114° | 53km/h | 7712m | 4.0m/s | -26.2°C | 5.9% | 0hPa | 2.9V | 00:00:00 | 00:35:20 | 00:00:00 | |
| 9A1FER-3 | 2026-09-02 11:40:51 | 45.80463 | 16.15769 | 106° | 51km/h | 7649m | 4.9m/s | -25.9°C | 6.1% | 0hPa | 2.9V | 00:00:00 | 00:35:07 | 00:00:00 | |
| 9A1FER-10 | 2026-09-02 11:40:49 | 45.80470 | 16.15735 | 107° | 51km/h | 7640m | 3.9m/s | -25.9°C | 6.1% | 0hPa | 2.9V | 00:00:00 | 00:35:05 | 00:00:00 | |
| 9A1FER-3 | 2026-09-02 11:40:36 | 45.80543 | 16.15522 | 120° | 46km/h | 7579m | 5.2m/s | -25.8°C | 7.0% | 0hPa | 2.9V | 00:00:00 | 00:34:52 | 00:00:00 | |
| 9A1FER-10 | 2026-09-02 11:40:34 | 45.80555 | 16.15490 | 116° | 46km/h | 7571m | 5.1m/s | -25.7°C | 7.1% | 0hPa | 2.9V | 00:00:00 | 00:34:50 | 00:00:00 | |
| 9A1FER-3 | 2026-09-02 11:40:21 | 45.80610 | 16.15296 | 103° | 47km/h | 7501m | 5.8m/s | -25.2°C | 7.1% | 0hPa | 2.7V | 00:00:00 | 00:34:37 | 00:00:00 | |
| 9A1FER-10 | 2026-09-02 11:40:19 | 45.80615 | 16.15264 | 101° | 46km/h | 7491m | 6.1m/s | -25.1°C | 7.1% | 0hPa | 2.7V | 00:00:00 | 00:34:35 | 00:00:00 | |
| 9A1FER-3 | 2026-09-02 11:40:06 | 45.80641 | 16.15047 | 102° | 49km/h | 7430m | 5.5m/s | -24.6°C | 7.0% | 0hPa | 2.7V | 00:00:00 | 00:34:22 | 00:00:00 | |
| 9A1FER-10 | 2026-09-02 11:40:04 | 45.80645 | 16.15015 | 100° | 49km/h | 7421m | 5.3m/s | -24.5°C | 7.1% | 0hPa | 2.7V | 00:00:00 | 00:34:20 | 00:00:00 | |
| 9A1FER-3 | 2026-09-02 11:39:51 | 45.80664 | 16.14784 | 101° | 51km/h | 7356m | 5.5m/s | -24.3°C | 7.6% | 0hPa | 2.7V | 00:00:00 | 00:34:07 | 00:00:00 | |
| 9A1FER-10 | 2026-09-02 11:39:49 | 45.80668 | 16.14748 | 101° | 53km/h | 7347m | 3.2m/s | -24.2°C | 7.9% | 0hPa | 2.9V | 00:00:00 | 00:34:05 | 00:00:00 | |
| 9A1FER-10 | 2026-09-02 11:39:34 | 45.80695 | 16.14466 | 101° | 49km/h | 7269m | 4.7m/s | -24.1°C | 12.5% | 0hPa | 2.9V | 00:00:00 | 00:33:50 | 00:00:00 | |
| 9A1FER-3 | 2026-09-02 11:39:21 | 45.80741 | 16.14239 | 104° | 51km/h | 7205m | 7.0m/s | -23.6°C | 14.8% | 0hPa | 2.9V | 00:00:00 | 00:33:37 | 00:00:00 | |
| 9A1FER-10 | 2026-09-02 11:39:19 | 45.80745 | 16.14208 | 99° | 53km/h | 7192m | 4.7m/s | -23.5°C | 14.9% | 0hPa | 2.9V | 00:00:00 | 00:33:35 | 00:00:00 | |
| 9A1FER-3 | 2026-09-02 11:39:06 | 45.80773 | 16.13960 | 106° | 53km/h | 7126m | 4.6m/s | -22.9°C | 15.3% | 0hPa | 2.9V | 00:00:00 | 00:33:22 | 08:30:00 | |
| 9A1FER-10 | 2026-09-02 11:39:04 | 45.80780 | 16.13922 | 104° | 53km/h | 7115m | 6.0m/s | -22.8°C | 15.4% | 0hPa | 2.7V | 00:00:00 | 00:33:20 | 08:30:00 | |
| 9A1FER-3 | 2026-09-02 11:38:51 | 45.80808 | 16.13676 | 99° | 57km/h | 7054m | 6.0m/s | -22.4°C | 18.0% | 0hPa | 2.9V | 00:00:00 | 00:33:07 | 00:00:00 | |
| 9A1FER-10 | 2026-09-02 11:38:49 | 45.80811 | 16.13635 | 97° | 57km/h | 7045m | 6.1m/s | -22.3°C | 16.8% | 0hPa | 2.9V | 00:00:00 | 00:33:05 | 00:00:00 | |
| 9A1FER-3 | 2026-09-02 11:38:36 | 45.80837 | 16.13372 | 96° | 55km/h | 6979m | 5.6m/s | -21.9°C | 18.5% | 0hPa | 2.9V | 00:00:00 | 00:32:52 | 00:00:00 | |
| 9A1FER-10 | 2026-09-02 11:38:34 | 45.80840 | 16.13334 | 97° | 55km/h | 6969m | 5.7m/s | -22.0°C | 20.9% | 0hPa | 2.9V | 00:00:00 | 00:32:50 | 00:00:00 | |
| 9A1FER-3 | 2026-09-02 11:38:21 | 45.80865 | 16.13081 | 99° | 53km/h | 6909m | 5.6m/s | -21.9°C | 29.0% | 0hPa | 2.9V | 00:00:00 | 00:32:37 | 00:00:00 | |
| 9A1FER-10 | 2026-09-02 11:38:19 | 45.80868 | 16.13041 | 96° | 53km/h | 6899m | 5.3m/s | -21.8°C | 29.2% | 0hPa | 2.9V | 00:00:00 | 00:32:35 | 00:00:00 | |
| 9A1FER-3 | 2026-09-02 11:38:06 | 45.80886 | 16.12798 | 102° | 51km/h | 6837m | 4.0m/s | -21.3°C | 31.8% | 0hPa | 2.9V | 00:00:00 | 00:32:22 | 00:00:00 | |
| 9A1FER-10 | 2026-09-02 11:38:04 | 45.80890 | 16.12762 | 101° | 51km/h | 6827m | 4.0m/s | -21.2°C | 31.7% | 0hPa | 2.9V | 00:00:00 | 00:32:20 | 00:00:00 | |
| 9A1FER-3 | 2026-09-02 11:37:51 | 45.80912 | 16.12523 | 101° | 51km/h | 6762m | 4.1m/s | -20.6°C | 30.8% | 0hPa | 2.9V | 00:00:00 | 00:32:07 | 00:00:00 | |
| 9A1FER-10 | 2026-09-02 11:37:49 | 45.80915 | 16.12489 | 98° | 51km/h | 6753m | 5.4m/s | -20.5°C | 30.6% | 0hPa | 2.9V | 00:00:00 | 00:32:05 | 00:00:00 | |
| 9A1FER-3 | 2026-09-02 11:37:36 | 45.80940 | 16.12253 | 104° | 49km/h | 6683m | 5.2m/s | -19.9°C | 28.0% | 0hPa | 2.9V | 00:00:00 | 00:31:52 | 00:00:00 | |
| 9A1FER-10 | 2026-09-02 11:37:34 | 45.80945 | 16.12220 | 101° | 51km/h | 6673m | 4.1m/s | -19.8°C | 28.0% | 0hPa | 2.9V | 00:00:00 | 00:31:50 | 00:00:00 | |
| 9A1FER-3 | 2026-09-02 11:37:21 | 45.80971 | 16.11987 | 98° | 51km/h | 6613m | 4.1m/s | -19.2°C | 26.4% | 0hPa | 2.9V | 00:00:00 | 00:31:37 | 00:00:00 | |
| 9A1FER-10 | 2026-09-02 11:37:19 | 45.80976 | 16.11949 | 104° | 51km/h | 6605m | 3.8m/s | -19.2°C | 26.5% | 0hPa | 2.9V | 00:00:00 | 00:31:35 | 00:00:00 | |
| 9A1FER-3 | 2026-09-02 11:37:06 | 45.81014 | 16.11720 | 101° | 51km/h | 6543m | 3.6m/s | -18.6°C | 25.2% | 0hPa | 2.9V | 00:00:00 | 00:31:22 | 00:00:00 | |
| 9A1FER-10 | 2026-09-02 11:37:04 | 45.81018 | 16.11682 | 99° | 51km/h | 6532m | 3.9m/s | -18.5°C | 25.4% | 0hPa | 2.9V | 00:00:00 | 00:31:20 | 00:00:00 | |
| 9A1FER-3 | 2026-09-02 11:36:51 | 45.81048 | 16.11452 | 104° | 51km/h | 6472m | 3.9m/s | -17.9°C | 24.4% | 0hPa | 2.9V | 00:00:00 | 00:31:07 | 08:30:00 | |
| 9A1FER-10 | 2026-09-02 11:36:49 | 45.81056 | 16.11415 | 106° | 51km/h | 6465m | 5.7m/s | -17.8°C | 23.7% | 0hPa | 2.9V | 00:00:00 | 00:31:05 | 08:30:00 | |
| 9A1FER-3 | 2026-09-02 11:36:36 | 45.81089 | 16.11179 | 101° | 49km/h | 6407m | 5.0m/s | -17.3°C | 19.5% | 0hPa | 2.9V | 00:00:00 | 00:30:52 | 00:00:00 | |
| 9A1FER-10 | 2026-09-02 11:36:34 | 45.81096 | 16.11142 | 107° | 49km/h | 6396m | 5.5m/s | -17.2°C | 19.1% | 0hPa | 2.9V | 00:00:00 | 00:30:50 | 00:00:00 | |
| 9A1FER-3 | 2026-09-02 11:36:21 | 45.81133 | 16.10915 | 103° | 47km/h | 6336m | 3.1m/s | -16.9°C | 21.4% | 0hPa | 2.9V | 00:00:00 | 00:30:37 | 00:00:00 | |
| 9A1FER-10 | 2026-09-02 11:36:19 | 45.81139 | 16.10879 | 106° | 47km/h | 6329m | 3.0m/s | -16.9°C | 22.2% | 0hPa | 2.9V | 00:00:00 | 00:30:35 | 00:00:00 | |
| 9A1FER-3 | 2026-09-02 11:36:06 | 45.81181 | 16.10667 | 109° | 47km/h | 6265m | 5.2m/s | -16.4°C | 19.7% | 0hPa | 2.9V | 00:00:00 | 00:30:22 | 00:00:00 | |
| 9A1FER-10 | 2026-09-02 11:36:04 | 45.81190 | 16.10633 | 113° | 46km/h | 6258m | 5.0m/s | -16.3°C | 20.4% | 0hPa | 2.9V | 00:00:00 | 00:30:20 | 00:00:00 | |
| 9A1FER-3 | 2026-09-02 11:35:51 | 45.81238 | 16.10429 | 112° | 46km/h | 6188m | 5.8m/s | -15.7°C | 21.7% | 0hPa | 2.9V | 00:00:00 | 00:30:07 | 00:00:00 | |
| 9A1FER-10 | 2026-09-02 11:35:49 | 45.81244 | 16.10399 | 104° | 47km/h | 6177m | 3.8m/s | -15.6°C | 21.1% | 0hPa | 2.9V | 00:00:00 | 00:30:05 | 00:00:00 | |
| 9A1FER-3 | 2026-09-02 11:35:36 | 45.81291 | 16.10190 | 109° | 46km/h | 6111m | 6.3m/s | -15.3°C | 18.4% | 0hPa | 2.9V | 00:00:00 | 00:29:52 | 00:00:00 | |
| 9A1FER-10 | 2026-09-02 11:35:34 | 45.81300 | 16.10157 | 115° | 46km/h | 6101m | 5.0m/s | -15.2°C | 18.5% | 0hPa | 2.9V | 00:00:00 | 00:29:50 | 00:00:00 | |
| 9A1FER-3 | 2026-09-02 11:35:21 | 45.81353 | 16.09956 | 117° | 44km/h | 6039m | 5.2m/s | -14.9°C | 19.4% | 0hPa | 2.9V | 00:00:00 | 00:29:37 | 00:00:00 | |
| 9A1FER-10 | 2026-09-02 11:35:19 | 45.81362 | 16.09928 | 117° | 46km/h | 6030m | 4.4m/s | -14.8°C | 19.7% | 0hPa | 2.9V | 00:00:00 | 00:29:35 | 00:00:00 | |
| 9A1FER-3 | 2026-09-02 11:35:06 | 45.81411 | 16.09731 | 107° | 47km/h | 5968m | 3.9m/s | -14.4°C | 19.1% | 0hPa | 2.9V | 00:00:00 | 00:29:22 | 00:00:00 | |
| 9A1FER-10 | 2026-09-02 11:35:04 | 45.81417 | 16.09698 | 106° | 49km/h | 5957m | 5.3m/s | -14.4°C | 18.9% | 0hPa | 2.9V | 00:00:00 | 00:29:20 | 00:00:00 | |
| 9A1FER-3 | 2026-09-02 11:34:51 | 45.81458 | 16.09478 | 103° | 49km/h | 5905m | 7.3m/s | -14.1°C | 19.6% | 0hPa | 2.9V | 00:00:00 | 00:29:07 | 00:00:00 | |
| 9A1FER-10 | 2026-09-02 11:34:49 | 45.81464 | 16.09445 | 108° | 49km/h | 5892m | 5.3m/s | -14.1°C | 20.9% | 0hPa | 2.9V | 00:00:00 | 00:29:05 | 00:00:00 | |
| 9A1FER-3 | 2026-09-02 11:34:36 | 45.81526 | 16.09232 | 108° | 53km/h | 5828m | 5.2m/s | -14.4°C | 44.1% | 0hPa | 2.9V | 00:00:00 | 00:28:52 | 08:30:00 | |
| 9A1FER-10 | 2026-09-02 11:34:34 | 45.81532 | 16.09195 | 103° | 53km/h | 5819m | 5.4m/s | -14.4°C | 43.8% | 0hPa | 2.9V | 00:00:00 | 00:28:50 | 08:30:00 | |
| 9A1FER-3 | 2026-09-02 11:34:21 | 45.81592 | 16.08959 | 106° | 49km/h | 5761m | 5.4m/s | -13.8°C | 40.4% | 0hPa | 3.0V | 00:00:00 | 00:28:37 | 00:00:00 | |
| 9A1FER-10 | 2026-09-02 11:34:19 | 45.81599 | 16.08924 | 105° | 49km/h | 5748m | 6.4m/s | -13.7°C | 40.2% | 0hPa | 3.0V | 00:00:00 | 00:28:35 | 00:00:00 | |
| 9A1FER-3 | 2026-09-02 11:34:06 | 45.81639 | 16.08699 | 107° | 47km/h | 5686m | 3.8m/s | -13.3°C | 47.9% | 0hPa | 3.0V | 00:00:00 | 00:28:22 | 00:00:00 | |
| 9A1FER-10 | 2026-09-02 11:34:04 | 45.81644 | 16.08665 | 101° | 47km/h | 5679m | 4.2m/s | -13.2°C | 47.7% | 0hPa | 3.0V | 00:00:00 | 00:28:20 | 00:00:00 | |
| 9A1FER-3 | 2026-09-02 11:33:51 | 45.81694 | 16.08452 | 105° | 47km/h | 5624m | 6.1m/s | -12.8°C | 41.8% | 0hPa | 3.0V | 00:00:00 | 00:28:07 | 00:00:00 | |
| 9A1FER-10 | 2026-09-02 11:33:49 | 45.81700 | 16.08420 | 107° | 47km/h | 5612m | 5.4m/s | -12.7°C | 41.3% | 0hPa | 2.9V | 00:00:00 | 00:28:05 | 00:00:00 | |
| 9A1FER-3 | 2026-09-02 11:33:36 | 45.81754 | 16.08210 | 108° | 46km/h | 5547m | 6.0m/s | -12.2°C | 53.1% | 0hPa | 2.9V | 00:00:00 | 00:27:52 | 00:00:00 | |
| 9A1FER-10 | 2026-09-02 11:33:34 | 45.81763 | 16.08176 | 110° | 46km/h | 5537m | 5.6m/s | -12.2°C | 54.1% | 0hPa | 2.9V | 00:00:00 | 00:27:50 | 00:00:00 | |
| 9A1FER-3 | 2026-09-02 11:33:21 | 45.81821 | 16.07977 | 116° | 44km/h | 5471m | 4.4m/s | -11.7°C | 50.8% | 0hPa | 2.9V | 00:00:00 | 00:27:37 | 00:00:00 | |
| 9A1FER-10 | 2026-09-02 11:33:19 | 45.81831 | 16.07946 | 116° | 42km/h | 5460m | 4.5m/s | -11.6°C | 50.6% | 0hPa | 2.9V | 00:00:00 | 00:27:35 | 00:00:00 | |
| 9A1FER-3 | 2026-09-02 11:33:06 | 45.81881 | 16.07757 | 118° | 44km/h | 5400m | 7.6m/s | -11.1°C | 49.9% | 0hPa | 2.9V | 00:00:00 | 00:27:22 | 00:00:00 | |
| 9A1FER-10 | 2026-09-02 11:33:04 | 45.81890 | 16.07732 | 115° | 46km/h | 5386m | 5.0m/s | -10.9°C | 45.7% | 0hPa | 2.9V | 00:00:00 | 00:27:20 | 00:00:00 | |
| 9A1FER-3 | 2026-09-02 11:32:51 | 45.81938 | 16.07531 | 109° | 46km/h | 5315m | 7.4m/s | -10.6°C | 45.6% | 0hPa | 3.0V | 00:00:00 | 00:27:07 | 00:00:00 | |
| 9A1FER-10 | 2026-09-02 11:32:49 | 45.81946 | 16.07500 | 108° | 46km/h | 5301m | 6.5m/s | -10.5°C | 45.8% | 0hPa | 3.0V | 00:00:00 | 00:27:05 | 00:00:00 | |
| 9A1FER-3 | 2026-09-02 11:32:36 | 45.81990 | 16.07297 | 106° | 46km/h | 5237m | 5.1m/s | -9.8°C | 46.4% | 0hPa | 3.0V | 00:00:00 | 00:26:52 | 00:00:00 | |
| 9A1FER-10 | 2026-09-02 11:32:34 | 45.81997 | 16.07264 | 111° | 44km/h | 5227m | 6.8m/s | -9.8°C | 46.7% | 0hPa | 3.0V | 00:00:00 | 00:26:50 | 00:00:00 | |
| 9A1FER-3 | 2026-09-02 11:32:21 | 45.82043 | 16.07066 | 115° | 44km/h | 5167m | 5.8m/s | -9.2°C | 47.6% | 0hPa | 3.0V | 00:00:00 | 00:26:37 | 08:30:00 | |
| 9A1FER-10 | 2026-09-02 11:32:19 | 45.82051 | 16.07037 | 110° | 44km/h | 5156m | 4.8m/s | -9.1°C | 48.3% | 0hPa | 3.0V | 00:00:00 | 00:26:35 | 08:30:00 | |
| 9A1FER-3 | 2026-09-02 11:32:06 | 45.82092 | 16.06842 | 105° | 44km/h | 5086m | 3.0m/s | -8.5°C | 46.7% | 0hPa | 3.0V | 00:00:00 | 00:26:22 | 00:00:00 | |
| 9A1FER-10 | 2026-09-02 11:32:04 | 45.82097 | 16.06811 | 106° | 44km/h | 5076m | 4.8m/s | -8.4°C | 45.7% | 0hPa | 3.0V | 00:00:00 | 00:26:20 | 00:00:00 | |
| 9A1FER-3 | 2026-09-02 11:31:51 | 45.82136 | 16.06609 | 107° | 42km/h | 5009m | 6.2m/s | -7.8°C | 38.6% | 0hPa | 3.0V | 00:00:00 | 00:26:07 | 00:00:00 | |
| 9A1FER-10 | 2026-09-02 11:31:49 | 45.82143 | 16.06579 | 105° | 40km/h | 4999m | 4.4m/s | -7.8°C | 40.9% | 0hPa | 3.0V | 00:00:00 | 00:26:05 | 00:00:00 | |
| 9A1FER-3 | 2026-09-02 11:31:36 | 45.82184 | 16.06395 | 114° | 38km/h | 4928m | 3.3m/s | -7.2°C | 38.1% | 0hPa | 3.0V | 00:00:00 | 00:25:52 | 00:00:00 | |
| 9A1FER-10 | 2026-09-02 11:31:34 | 45.82192 | 16.06368 | 115° | 37km/h | 4918m | 4.7m/s | -7.2°C | 36.2% | 0hPa | 3.0V | 00:00:00 | 00:25:50 | 00:00:00 | |
| 9A1FER-3 | 2026-09-02 11:31:21 | 45.82234 | 16.06204 | 110° | 35km/h | 4854m | 6.4m/s | -7.0°C | 45.8% | 0hPa | 3.0V | 00:00:00 | 00:25:37 | 00:00:00 | |
| 9A1FER-10 | 2026-09-02 11:31:19 | 45.82240 | 16.06182 | 107° | 35km/h | 4843m | 6.6m/s | -6.9°C | 46.2% | 0hPa | 3.0V | 00:00:00 | 00:25:35 | 00:00:00 | |
| 9A1FER-3 | 2026-09-02 11:31:06 | 45.82274 | 16.06023 | 108° | 37km/h | 4769m | 3.8m/s | -6.3°C | 44.8% | 0hPa | 3.0V | 00:00:00 | 00:25:22 | 00:00:00 | |
| 9A1FER-10 | 2026-09-02 11:31:04 | 45.82280 | 16.05999 | 105° | 37km/h | 4761m | 4.5m/s | -6.3°C | 44.4% | 0hPa | 3.0V | 00:00:00 | 00:25:20 | 00:00:00 | |
| 9A1FER-3 | 2026-09-02 11:30:51 | 45.82309 | 16.05835 | 97° | 31km/h | 4689m | 5.8m/s | -5.7°C | 41.9% | 0hPa | 3.0V | 00:00:00 | 00:25:07 | 00:00:00 | |
| 9A1FER-10 | 2026-09-02 11:30:49 | 45.82311 | 16.05811 | 102° | 29km/h | 4680m | 2.9m/s | -5.5°C | 41.9% | 0hPa | 3.0V | 00:00:00 | 00:25:05 | 00:00:00 | |
| 9A1FER-3 | 2026-09-02 11:30:36 | 45.82334 | 16.05678 | 97° | 27km/h | 4610m | 4.0m/s | -5.0°C | 40.2% | 0hPa | 3.0V | 00:00:00 | 00:24:52 | 00:00:00 | |
| 9A1FER-10 | 2026-09-02 11:30:34 | 45.82336 | 16.05659 | 100° | 27km/h | 4603m | 5.2m/s | -4.9°C | 40.2% | 0hPa | 3.0V | 00:00:00 | 00:24:50 | 00:00:00 | |
| 9A1FER-3 | 2026-09-02 11:30:21 | 45.82367 | 16.05541 | 118° | 26km/h | 4549m | 5.0m/s | -4.5°C | 39.1% | 0hPa | 3.0V | 00:00:00 | 00:24:37 | 00:00:00 | |
| 9A1FER-10 | 2026-09-02 11:30:19 | 45.82373 | 16.05523 | 113° | 26km/h | 4536m | 6.1m/s | -4.5°C | 38.7% | 0hPa | 3.0V | 00:00:00 | 00:24:35 | 00:00:00 | |
| 9A1FER-3 | 2026-09-02 11:30:06 | 45.82413 | 16.05418 | 126° | 26km/h | 4466m | 3.1m/s | -4.0°C | 41.2% | 0hPa | 3.0V | 00:00:00 | 00:24:22 | 08:30:00 | |
| 9A1FER-10 | 2026-09-02 11:30:04 | 45.82420 | 16.05401 | 110° | 26km/h | 4456m | 4.6m/s | -4.0°C | 41.5% | 0hPa | 3.0V | 00:00:00 | 00:24:20 | 08:30:00 | |
| 9A1FER-3 | 2026-09-02 11:29:51 | 45.82450 | 16.05290 | 103° | 27km/h | 4383m | 4.4m/s | -3.7°C | 38.2% | 0hPa | 3.0V | 00:00:00 | 00:24:07 | 00:00:00 | |
| 9A1FER-3 | 2026-09-02 11:29:36 | 45.82481 | 16.05156 | 94° | 20km/h | 4307m | 4.3m/s | -3.4°C | 25.1% | 0hPa | 3.0V | 00:00:00 | 00:23:52 | 00:00:00 | |
| 9A1FER-10 | 2026-09-02 11:29:34 | 45.82482 | 16.05145 | 105° | 22km/h | 4295m | 5.9m/s | -3.4°C | 26.4% | 0hPa | 3.0V | 00:00:00 | 00:23:50 | 00:00:00 | |
| 9A1FER-3 | 2026-09-02 11:29:21 | 45.82514 | 16.05057 | 115° | 26km/h | 4226m | 4.9m/s | -2.9°C | 31.5% | 0hPa | 3.0V | 00:00:00 | 00:23:37 | 00:00:00 | |
| 9A1FER-10 | 2026-09-02 11:29:19 | 45.82519 | 16.05041 | 111° | 26km/h | 4215m | 6.2m/s | -2.8°C | 33.1% | 0hPa | 3.0V | 00:00:00 | 00:23:35 | 00:00:00 | |
| 9A1FER-3 | 2026-09-02 11:29:06 | 45.82545 | 16.04930 | 108° | 27km/h | 4143m | 5.9m/s | -2.5°C | 59.5% | 0hPa | 3.0V | 00:00:00 | 00:23:22 | 00:00:00 | |
| 9A1FER-10 | 2026-09-02 11:29:04 | 45.82550 | 16.04911 | 108° | 27km/h | 4132m | 3.3m/s | -2.5°C | 59.4% | 0hPa | 3.0V | 00:00:00 | 00:23:20 | 00:00:00 | |
| 9A1FER-3 | 2026-09-02 11:28:51 | 45.82570 | 16.04788 | 104° | 26km/h | 4074m | 3.2m/s | -2.3°C | 74.6% | 0hPa | 3.0V | 00:00:00 | 00:23:07 | 00:00:00 | |
| 9A1FER-10 | 2026-09-02 11:28:49 | 45.82575 | 16.04768 | 109° | 26km/h | 4065m | 4.6m/s | -2.3°C | 74.8% | 0hPa | 3.0V | 00:00:00 | 00:23:05 | 00:00:00 | |
| 9A1FER-3 | 2026-09-02 11:28:36 | 45.82599 | 16.04658 | 123° | 26km/h | 3995m | 5.5m/s | -1.8°C | 76.2% | 0hPa | 3.0V | 00:00:00 | 00:22:52 | 00:00:00 | |
| 9A1FER-10 | 2026-09-02 11:28:34 | 45.82607 | 16.04641 | 126° | 26km/h | 3985m | 3.6m/s | -1.7°C | 76.4% | 0hPa | 3.0V | 00:00:00 | 00:22:50 | 00:00:00 | |
| 9A1FER-3 | 2026-09-02 11:28:21 | 45.82637 | 16.04529 | 102° | 20km/h | 3915m | 4.7m/s | -1.3°C | 75.6% | 0hPa | 3.0V | 00:00:00 | 00:22:37 | 00:00:00 | |
| 9A1FER-10 | 2026-09-02 11:28:19 | 45.82640 | 16.04515 | 112° | 20km/h | 3907m | 3.6m/s | -1.2°C | 75.2% | 0hPa | 3.0V | 00:00:00 | 00:22:35 | 00:00:00 | |
| 9A1FER-3 | 2026-09-02 11:28:06 | 45.82653 | 16.04425 | 106° | 22km/h | 3851m | 4.5m/s | -1.1°C | 76.0% | 0hPa | 3.0V | 00:00:00 | 00:22:22 | 00:00:00 | |
| 9A1FER-10 | 2026-09-02 11:28:04 | 45.82655 | 16.04406 | 95° | 22km/h | 3844m | 3.8m/s | -1.0°C | 79.2% | 0hPa | 3.0V | 00:00:00 | 00:22:20 | 00:00:00 | |
| 9A1FER-3 | 2026-09-02 11:27:51 | 45.82668 | 16.04308 | 105° | 18km/h | 3786m | 5.6m/s | -0.6°C | 80.4% | 0hPa | 3.0V | 00:00:00 | 00:22:07 | 08:30:00 | |
| 9A1FER-10 | 2026-09-02 11:27:49 | 45.82671 | 16.04292 | 102° | 18km/h | 3774m | 4.1m/s | -0.5°C | 79.8% | 0hPa | 3.0V | 00:00:00 | 00:22:05 | 08:30:00 | |
| 9A1FER-3 | 2026-09-02 11:27:36 | 45.82677 | 16.04210 | 84° | 20km/h | 3719m | 4.0m/s | 0.0°C | 75.4% | 0hPa | 3.0V | 00:00:00 | 00:21:52 | 00:00:00 | |
| 9A1FER-10 | 2026-09-02 11:27:34 | 45.82676 | 16.04193 | 89° | 20km/h | 3711m | 3.7m/s | 0.1°C | 74.9% | 0hPa | 3.0V | 00:00:00 | 00:21:50 | 00:00:00 | |
| 9A1FER-3 | 2026-09-02 11:27:21 | 45.82682 | 16.04103 | 78° | 18km/h | 3645m | 4.3m/s | 0.6°C | 71.6% | 0hPa | 3.0V | 00:00:00 | 00:21:37 | 00:00:00 | |
| 9A1FER-10 | 2026-09-02 11:27:19 | 45.82681 | 16.04090 | 82° | 18km/h | 3636m | 3.9m/s | 0.7°C | 72.2% | 0hPa | 3.0V | 00:00:00 | 00:21:35 | 00:00:00 | |
| 9A1FER-3 | 2026-09-02 11:27:06 | 45.82688 | 16.04006 | 84° | 22km/h | 3570m | 5.8m/s | 1.0°C | 76.0% | 0hPa | 3.0V | 00:00:00 | 00:21:22 | 00:00:00 | |
| 9A1FER-10 | 2026-09-02 11:27:04 | 45.82685 | 16.03990 | 81° | 20km/h | 3560m | 5.2m/s | 1.0°C | 79.4% | 0hPa | 3.0V | 00:00:00 | 00:21:20 | 00:00:00 | |
| 9A1FER-3 | 2026-09-02 11:26:51 | 45.82702 | 16.03894 | 110° | 16km/h | 3485m | 3.9m/s | 1.6°C | 78.8% | 0hPa | 3.0V | 00:00:00 | 00:21:07 | 00:00:00 | |
| 9A1FER-10 | 2026-09-02 11:26:49 | 45.82704 | 16.03885 | 102° | 16km/h | 3477m | 5.2m/s | 1.6°C | 78.7% | 0hPa | 3.0V | 00:00:00 | 00:21:05 | 00:00:00 | |
| 9A1FER-3 | 2026-09-02 11:26:36 | 45.82721 | 16.03811 | 106° | 20km/h | 3414m | 3.5m/s | 2.1°C | 77.6% | 0hPa | 3.0V | 00:00:00 | 00:20:52 | 00:00:00 | |
| 9A1FER-10 | 2026-09-02 11:26:34 | 45.82724 | 16.03794 | 105° | 18km/h | 3405m | 3.7m/s | 2.2°C | 76.6% | 0hPa | 3.0V | 00:00:00 | 00:20:50 | 00:00:00 | |
| 9A1FER-3 | 2026-09-02 11:26:21 | 45.82736 | 16.03708 | 120° | 13km/h | 3339m | 7.3m/s | 2.6°C | 75.3% | 0hPa | 3.0V | 00:00:00 | 00:20:37 | 00:00:00 | |
| 9A1FER-10 | 2026-09-02 11:26:19 | 45.82737 | 16.03705 | 84° | 13km/h | 3327m | 6.2m/s | 2.6°C | 72.7% | 0hPa | 3.0V | 00:00:00 | 00:20:35 | 00:00:00 | |
| 9A1FER-3 | 2026-09-02 11:26:06 | 45.82732 | 16.03643 | 112° | 9km/h | 3255m | 2.6m/s | 3.4°C | 61.5% | 0hPa | 3.0V | 00:00:00 | 00:20:22 | 00:00:00 | |
| 9A1FER-3 | 2026-09-02 11:25:51 | 45.82731 | 16.03599 | 89° | 15km/h | 3179m | 7.2m/s | 4.0°C | 59.3% | 0hPa | 3.0V | 00:00:00 | 00:20:07 | 00:00:00 | |
| 9A1FER-10 | 2026-09-02 11:25:49 | 45.82730 | 16.03587 | 78° | 16km/h | 3168m | 4.7m/s | 4.1°C | 59.0% | 0hPa | 3.0V | 00:00:00 | 00:20:05 | 00:00:00 | |
| 9A1FER-3 | 2026-09-02 11:25:36 | 45.82727 | 16.03515 | 81° | 16km/h | 3106m | 4.1m/s | 4.6°C | 56.4% | 0hPa | 3.0V | 00:00:00 | 00:19:52 | 08:30:00 | |
| 9A1FER-10 | 2026-09-02 11:25:34 | 45.82726 | 16.03503 | 86° | 16km/h | 3097m | 3.5m/s | 4.6°C | 57.0% | 0hPa | 3.0V | 00:00:00 | 00:19:50 | 08:30:00 | |
| 9A1FER-3 | 2026-09-02 11:25:21 | 45.82720 | 16.03426 | 67° | 18km/h | 3041m | 5.4m/s | 4.8°C | 65.9% | 0hPa | 3.0V | 00:00:00 | 00:19:37 | 00:00:00 | |
| 9A1FER-10 | 2026-09-02 11:25:19 | 45.82718 | 16.03414 | 78° | 18km/h | 3033m | 5.2m/s | 4.9°C | 67.2% | 0hPa | 3.0V | 00:00:00 | 00:19:35 | 00:00:00 | |
| 9A1FER-3 | 2026-09-02 11:25:06 | 45.82708 | 16.03327 | 61° | 15km/h | 2973m | 6.1m/s | 5.2°C | 76.2% | 0hPa | 3.0V | 00:00:00 | 00:19:22 | 00:00:00 | |
| 9A1FER-10 | 2026-09-02 11:25:04 | 45.82704 | 16.03317 | 58° | 15km/h | 2960m | 5.6m/s | 5.2°C | 77.8% | 0hPa | 3.0V | 00:00:00 | 00:19:20 | 00:00:00 | |
| 9A1FER-3 | 2026-09-02 11:24:51 | 45.82680 | 16.03258 | 47° | 13km/h | 2895m | 4.7m/s | 5.6°C | 82.1% | 0hPa | 3.0V | 00:00:00 | 00:19:07 | 00:00:00 | |
| 9A1FER-10 | 2026-09-02 11:24:49 | 45.82675 | 16.03248 | 66° | 11km/h | 2886m | 6.0m/s | 5.7°C | 81.4% | 0hPa | 3.0V | 00:00:00 | 00:19:05 | 00:00:00 | |
| 9A1FER-3 | 2026-09-02 11:24:36 | 45.82651 | 16.03209 | 171° | 9km/h | 2812m | 4.1m/s | 6.3°C | 81.0% | 0hPa | 3.0V | 00:00:00 | 00:18:52 | 00:00:00 | |
| 9A1FER-10 | 2026-09-02 11:24:34 | 45.82654 | 16.03209 | 213° | 9km/h | 2803m | 5.8m/s | 6.4°C | 80.9% | 0hPa | 3.0V | 00:00:00 | 00:18:50 | 00:00:00 | |
| 9A1FER-3 | 2026-09-02 11:24:21 | 45.82625 | 16.03199 | 42° | 11km/h | 2724m | 6.4m/s | 7.0°C | 77.5% | 0hPa | 3.0V | 00:00:00 | 00:18:37 | 00:00:00 | |
| 9A1FER-10 | 2026-09-02 11:24:19 | 45.82623 | 16.03194 | 56° | 11km/h | 2711m | 5.3m/s | 7.2°C | 77.4% | 0hPa | 3.0V | 00:00:00 | 00:18:35 | 00:00:00 | |
| 9A1FER-3 | 2026-09-02 11:24:06 | 45.82611 | 16.03141 | 49° | 9km/h | 2650m | 4.8m/s | 7.7°C | 79.9% | 0hPa | 3.0V | 00:00:00 | 00:18:22 | 00:00:00 | |
| 9A1FER-3 | 2026-09-02 11:23:51 | 45.82592 | 16.03118 | 70° | 9km/h | 2567m | 5.3m/s | 8.3°C | 84.3% | 0hPa | 3.0V | 00:00:00 | 00:18:07 | 00:00:00 | |
| 9A1FER-10 | 2026-09-02 11:23:49 | 45.82591 | 16.03112 | 69° | 9km/h | 2555m | 5.3m/s | 8.4°C | 83.6% | 0hPa | 3.0V | 00:00:00 | 00:18:05 | 00:00:00 | |
| 9A1FER-3 | 2026-09-02 11:23:36 | 45.82578 | 16.03084 | 85° | 13km/h | 2484m | 6.5m/s | 8.9°C | 80.0% | 0hPa | 3.0V | 00:00:00 | 00:17:52 | 00:00:00 | |
| 9A1FER-10 | 2026-09-02 11:23:34 | 45.82577 | 16.03078 | 76° | 13km/h | 2469m | 6.9m/s | 9.1°C | 79.2% | 0hPa | 3.0V | 00:00:00 | 00:17:50 | 00:00:00 | |
| 9A1FER-3 | 2026-09-02 11:23:21 | 45.82564 | 16.03018 | 24° | 15km/h | 2398m | 5.9m/s | 9.7°C | 78.1% | 0hPa | 3.0V | 00:00:00 | 00:17:37 | 08:30:00 | |
| 9A1FER-10 | 2026-09-02 11:23:19 | 45.82560 | 16.03015 | 55° | 15km/h | 2385m | 5.7m/s | 9.8°C | 77.8% | 0hPa | 3.0V | 00:00:00 | 00:17:35 | 08:30:00 | |
| 9A1FER-3 | 2026-09-02 11:23:06 | 45.82567 | 16.02949 | 88° | 15km/h | 2317m | 5.6m/s | 10.4°C | 74.3% | 0hPa | 3.0V | 00:00:00 | 00:17:22 | 00:00:00 | |
| 9A1FER-10 | 2026-09-02 11:23:04 | 45.82566 | 16.02936 | 81° | 15km/h | 2304m | 7.7m/s | 10.5°C | 73.2% | 0hPa | 3.0V | 00:00:00 | 00:17:20 | 00:00:00 | |
| 9A1FER-3 | 2026-09-02 11:22:51 | 45.82566 | 16.02865 | 100° | 11km/h | 2240m | 2.1m/s | 10.6°C | 63.6% | 0hPa | 3.0V | 00:00:00 | 00:17:07 | 00:00:00 | |
| 9A1FER-10 | 2026-09-02 11:22:49 | 45.82567 | 16.02854 | 98° | 9km/h | 2232m | 3.5m/s | 10.6°C | 63.9% | 0hPa | 3.0V | 00:00:00 | 00:17:05 | 00:00:00 | |
| 9A1FER-3 | 2026-09-02 11:22:36 | 45.82560 | 16.02808 | 64° | 16km/h | 2163m | 4.4m/s | 10.9°C | 64.2% | 0hPa | 3.0V | 00:00:00 | 00:16:52 | 00:00:00 | |
| 9A1FER-10 | 2026-09-02 11:22:34 | 45.82557 | 16.02802 | 58° | 16km/h | 2153m | 4.2m/s | 10.9°C | 65.1% | 0hPa | 3.0V | 00:00:00 | 00:16:50 | 00:00:00 | |
| 9A1FER-3 | 2026-09-02 11:22:21 | 45.82524 | 16.02733 | 62° | 13km/h | 2088m | 6.5m/s | 11.2°C | 67.0% | 0hPa | 3.0V | 00:00:00 | 00:16:37 | 00:00:00 | |
| 9A1FER-10 | 2026-09-02 11:22:19 | 45.82522 | 16.02723 | 82° | 13km/h | 2077m | 4.7m/s | 11.1°C | 67.9% | 0hPa | 3.0V | 00:00:00 | 00:16:35 | 00:00:00 | |
| 9A1FER-3 | 2026-09-02 11:22:06 | 45.82499 | 16.02680 | 23° | 13km/h | 2003m | 5.5m/s | 11.7°C | 67.1% | 0hPa | 3.0V | 00:00:00 | 00:16:22 | 00:00:00 | |
| 9A1FER-10 | 2026-09-02 11:22:04 | 45.82495 | 16.02677 | 28° | 15km/h | 1993m | 4.2m/s | 11.7°C | 67.6% | 0hPa | 3.0V | 00:00:00 | 00:16:20 | 00:00:00 | |
| 9A1FER-3 | 2026-09-02 11:21:51 | 45.82455 | 16.02646 | 345° | 15km/h | 1925m | 4.7m/s | 11.6°C | 69.0% | 0hPa | 3.0V | 00:00:00 | 00:16:07 | 00:00:00 | |
| 9A1FER-10 | 2026-09-02 11:21:49 | 45.82445 | 16.02648 | 356° | 15km/h | 1914m | 5.5m/s | 11.6°C | 69.1% | 0hPa | 3.0V | 00:00:00 | 00:16:05 | 00:00:00 | |
| 9A1FER-3 | 2026-09-02 11:21:36 | 45.82407 | 16.02641 | 346° | 13km/h | 1851m | 4.5m/s | 12.1°C | 66.2% | 0hPa | 3.0V | 00:00:00 | 00:15:52 | 00:00:00 | |
| 9A1FER-10 | 2026-09-02 11:21:34 | 45.82397 | 16.02642 | 1° | 13km/h | 1842m | 6.5m/s | 12.1°C | 65.7% | 0hPa | 3.0V | 00:00:00 | 00:15:50 | 00:00:00 | |
| 9A1FER-3 | 2026-09-02 11:21:21 | 45.82364 | 16.02669 | 332° | 16km/h | 1776m | 6.3m/s | 12.4°C | 64.0% | 0hPa | 3.0V | 00:00:00 | 00:15:37 | 00:00:00 | |
| 9A1FER-10 | 2026-09-02 11:21:19 | 45.82356 | 16.02674 | 332° | 16km/h | 1766m | 5.5m/s | 12.5°C | 64.5% | 0hPa | 3.0V | 00:00:00 | 00:15:35 | 00:00:00 | |
| 9A1FER-10 | 2026-09-02 11:21:04 | 45.82310 | 16.02725 | 357° | 11km/h | 1697m | 4.7m/s | 12.9°C | 61.5% | 0hPa | 3.0V | 00:00:00 | 00:15:20 | 08:30:00 | |
| 9A1FER-3 | 2026-09-02 11:20:51 | 45.82281 | 16.02746 | 328° | 16km/h | 1625m | 4.6m/s | 13.2°C | 65.6% | 0hPa | 3.0V | 00:00:00 | 00:15:07 | 00:00:00 | |
| 9A1FER-10 | 2026-09-02 11:20:49 | 45.82274 | 16.02753 | 327° | 16km/h | 1616m | 4.8m/s | 13.1°C | 69.7% | 0hPa | 3.0V | 00:00:00 | 00:15:05 | 00:00:00 | |
| 9A1FER-3 | 2026-09-02 11:20:36 | 45.82223 | 16.02783 | 321° | 11km/h | 1540m | 6.2m/s | 13.6°C | 70.8% | 0hPa | 3.0V | 00:00:00 | 00:14:52 | 00:00:00 | |
| 9A1FER-10 | 2026-09-02 11:20:34 | 45.82218 | 16.02790 | 321° | 9km/h | 1527m | 8.1m/s | 13.7°C | 70.1% | 0hPa | 3.0V | 00:00:00 | 00:14:50 | 00:00:00 | |
| 9A1FER-3 | 2026-09-02 11:20:21 | 45.82197 | 16.02826 | 312° | 9km/h | 1456m | 4.9m/s | 14.4°C | 68.2% | 0hPa | 3.0V | 00:00:00 | 00:14:37 | 00:00:00 | |
| 9A1FER-10 | 2026-09-02 11:20:19 | 45.82195 | 16.02830 | 297° | 9km/h | 1445m | 6.2m/s | 14.5°C | 67.7% | 0hPa | 3.0V | 00:00:00 | 00:14:35 | 00:00:00 | |
| 9A1FER-3 | 2026-09-02 11:20:06 | 45.82184 | 16.02871 | 287° | 9km/h | 1380m | 4.8m/s | 15.2°C | 65.7% | 0hPa | 3.0V | 00:00:00 | 00:14:22 | 00:00:00 | |
| 9A1FER-10 | 2026-09-02 11:20:04 | 45.82181 | 16.02877 | 317° | 9km/h | 1368m | 6.0m/s | 15.3°C | 64.3% | 0hPa | 3.0V | 00:00:00 | 00:14:20 | 00:00:00 | |
| 9A1FER-3 | 2026-09-02 11:19:51 | 45.82173 | 16.02916 | 276° | 7km/h | 1296m | 5.0m/s | 15.9°C | 63.7% | 0hPa | 3.0V | 00:00:00 | 00:14:07 | 00:00:00 | |
| 9A1FER-10 | 2026-09-02 11:19:49 | 45.82174 | 16.02920 | 233° | 7km/h | 1285m | 4.7m/s | 16.0°C | 62.4% | 0hPa | 3.0V | 00:00:00 | 00:14:05 | 00:00:00 | |
| 9A1FER-3 | 2026-09-02 11:19:36 | 45.82178 | 16.02948 | 216° | 9km/h | 1214m | 4.3m/s | 16.7°C | 60.5% | 0hPa | 3.0V | 00:00:00 | 00:13:52 | 00:00:00 | |
| 9A1FER-10 | 2026-09-02 11:19:34 | 45.82182 | 16.02954 | 241° | 9km/h | 1203m | 6.8m/s | 16.8°C | 59.9% | 0hPa | 3.0V | 00:00:00 | 00:13:50 | 00:00:00 | |
| 9A1FER-3 | 2026-09-02 11:19:21 | 45.82179 | 16.02990 | 292° | 13km/h | 1135m | 6.2m/s | 17.8°C | 51.6% | 0hPa | 3.0V | 00:00:00 | 00:13:37 | 00:00:00 | |
| 9A1FER-10 | 2026-09-02 11:19:19 | 45.82176 | 16.02998 | 302° | 11km/h | 1124m | 7.4m/s | 17.9°C | 51.8% | 0hPa | 3.0V | 00:00:00 | 00:13:35 | 00:00:00 | |
| 9A1FER-3 | 2026-09-02 11:19:06 | 45.82167 | 16.03051 | 210° | 4km/h | 1049m | 6.0m/s | 18.4°C | 54.3% | 0hPa | 3.0V | 00:00:00 | 00:13:22 | 00:00:00 | |
| 9A1FER-10 | 2026-09-02 11:19:04 | 45.82168 | 16.03049 | 168° | 5km/h | 1034m | 8.0m/s | 18.6°C | 53.1% | 0hPa | 3.0V | 00:00:00 | 00:13:20 | 00:00:00 | |
| 9A1FER-3 | 2026-09-02 11:18:51 | 45.82166 | 16.03061 | 276° | 9km/h | 963m | 4.6m/s | 19.2°C | 52.8% | 0hPa | 3.0V | 00:00:00 | 00:13:07 | 08:30:00 | |
| 9A1FER-10 | 2026-09-02 11:18:49 | 45.82164 | 16.03064 | 346° | 11km/h | 956m | 4.5m/s | 19.2°C | 52.8% | 0hPa | 3.0V | 00:00:00 | 00:13:05 | 08:30:00 | |
| 9A1FER-3 | 2026-09-02 11:18:36 | 45.82149 | 16.03095 | 304° | 9km/h | 888m | 3.4m/s | 19.8°C | 51.6% | 0hPa | 3.0V | 00:00:00 | 00:12:52 | 00:00:00 | |
| 9A1FER-10 | 2026-09-02 11:18:34 | 45.82144 | 16.03102 | 320° | 9km/h | 879m | 4.7m/s | 19.9°C | 51.9% | 0hPa | 3.0V | 00:00:00 | 00:12:50 | 00:00:00 | |
| 9A1FER-3 | 2026-09-02 11:18:21 | 45.82132 | 16.03132 | 264° | 13km/h | 811m | 4.7m/s | 20.6°C | 49.9% | 0hPa | 3.0V | 00:00:00 | 00:12:37 | 00:00:00 | |
| 9A1FER-10 | 2026-09-02 11:18:19 | 45.82129 | 16.03144 | 302° | 15km/h | 803m | 3.2m/s | 20.6°C | 49.7% | 0hPa | 3.0V | 00:00:00 | 00:12:35 | 00:00:00 | |
| 9A1FER-3 | 2026-09-02 11:18:06 | 45.82100 | 16.03180 | 302° | 13km/h | 749m | 4.1m/s | 21.1°C | 48.6% | 0hPa | 3.0V | 00:00:00 | 00:12:22 | 00:00:00 | |
| 9A1FER-10 | 2026-09-02 11:18:04 | 45.82097 | 16.03190 | 265° | 13km/h | 740m | 3.8m/s | 21.2°C | 48.4% | 0hPa | 2.9V | 00:00:00 | 00:12:20 | 00:00:00 | |
| 9A1FER-3 | 2026-09-02 11:17:51 | 45.82088 | 16.03239 | 306° | 9km/h | 684m | 4.4m/s | 0°C | 0% | 0hPa | 0V | 00:00:00 | 00:12:07 | 00:00:00 | |
| 9A1FER-10 | 2026-09-02 11:17:49 | 45.82081 | 16.03243 | 8° | 9km/h | 676m | 5.2m/s | 0°C | 0% | 0hPa | 0V | 00:00:00 | 00:12:05 | 00:00:00 | |
| 9A1FER-3 | 2026-09-02 11:17:36 | 45.82064 | 16.03262 | 1° | 11km/h | 617m | 3.9m/s | 0°C | 0% | 0hPa | 0V | 00:00:00 | 00:11:52 | 00:00:00 | |
| 9A1FER-10 | 2026-09-02 11:17:34 | 45.82060 | 16.03268 | 287° | 13km/h | 608m | 5.4m/s | 0°C | 0% | 0hPa | 0V | 00:00:00 | 00:11:50 | 00:00:00 | |
| 9A1FER-3 | 2026-09-02 11:17:21 | 45.82039 | 16.03295 | 309° | 16km/h | 544m | 7.9m/s | 0°C | 0% | 0hPa | 0V | 00:00:00 | 00:11:37 | 00:00:00 | |
| 9A1FER-10 | 2026-09-02 11:17:19 | 45.82036 | 16.03310 | 276° | 15km/h | 531m | 5.9m/s | 0°C | 0% | 0hPa | 0V | 00:00:00 | 00:11:35 | 00:00:00 | |
| 9A1FER-3 | 2026-09-02 11:17:06 | 45.82048 | 16.03325 | 280° | 18km/h | 456m | 6.4m/s | 0°C | 0% | 0hPa | 0V | 00:00:00 | 00:11:22 | 00:00:00 | |
| 9A1FER-10 | 2026-09-02 11:17:04 | 45.82045 | 16.03323 | 78° | 16km/h | 440m | 7.5m/s | 0°C | 0% | 0hPa | 0V | 00:00:00 | 00:11:20 | 00:00:00 | |
| 9A1FER-3 | 2026-09-02 11:16:51 | 45.82038 | 16.03336 | 327° | 20km/h | 352m | 8.9m/s | 0°C | 0% | 0hPa | 0V | 00:00:00 | 00:11:07 | 00:00:00 | |
| 9A1FER-10 | 2026-09-02 11:16:49 | 45.82039 | 16.03330 | 144° | 18km/h | 335m | 7.2m/s | 0°C | 0% | 0hPa | 0V | 00:00:00 | 00:11:05 | 00:00:00 | |
| 9A1FER-3 | 2026-09-02 11:16:36 | 45.82059 | 16.03358 | 79° | 15km/h | 250m | 5.5m/s | 0°C | 0% | 0hPa | 0V | 00:00:00 | 00:10:52 | 00:00:00 | |
| 9A1FER-10 | 2026-09-02 11:16:34 | 45.82057 | 16.03358 | 269° | 18km/h | 237m | 6.4m/s | 0°C | 0% | 0hPa | 0V | 00:00:00 | 00:10:50 | 00:00:00 |